<?xml version='1.0' encoding='UTF-8'?><gpx version="1.1" creator="JPX - https://github.com/jenetics/jpx" xmlns="http://www.topografix.com/GPX/1/1"><trk><trkseg><trkpt lat="43.986358303662485" lon="5.532985230405597"><ele>834.0</ele><time>2026-04-26T13:25:16.999Z</time></trkpt><trkpt lat="43.98630537139796" lon="5.532929211465104"><ele>834.0</ele><time>2026-04-26T13:25:50.998Z</time></trkpt><trkpt lat="43.9862419405965" lon="5.532833243794467"><ele>834.0</ele><time>2026-04-26T13:25:55.999Z</time></trkpt><trkpt lat="43.98615490763415" lon="5.532890265911917"><ele>834.0</ele><time>2026-04-26T13:25:58.999Z</time></trkpt><trkpt lat="43.986080245000785" lon="5.532951084584515"><ele>834.0</ele><time>2026-04-26T13:26:00.999Z</time></trkpt><trkpt lat="43.98600877234032" lon="5.533037600124047"><ele>834.0</ele><time>2026-04-26T13:26:02.999Z</time></trkpt><trkpt lat="43.9859188297102" lon="5.533043167251542"><ele>834.2</ele><time>2026-04-26T13:26:04.999Z</time></trkpt><trkpt lat="43.98581918268509" lon="5.533059403253333"><ele>834.4000000000001</ele><time>2026-04-26T13:26:06.999Z</time></trkpt><trkpt lat="43.98573462622366" lon="5.533069315812014"><ele>834.6</ele><time>2026-04-26T13:26:08.999Z</time></trkpt><trkpt lat="43.9856749661042" lon="5.532995429141421"><ele>834.8</ele><time>2026-04-26T13:26:10.999Z</time></trkpt><trkpt lat="43.98563203652677" lon="5.532876816937088"><ele>835.0</ele><time>2026-04-26T13:26:13Z</time></trkpt><trkpt lat="43.9855928250015" lon="5.532728684933326"><ele>835.75</ele><time>2026-04-26T13:26:15Z</time></trkpt><trkpt lat="43.985486783811204" lon="5.532611437889085"><ele>836.5</ele><time>2026-04-26T13:26:17Z</time></trkpt><trkpt lat="43.985407596118215" lon="5.532483978176566"><ele>837.25</ele><time>2026-04-26T13:26:19Z</time></trkpt><trkpt lat="43.98531827973602" lon="5.532355782914705"><ele>838.0</ele><time>2026-04-26T13:26:21Z</time></trkpt><trkpt lat="43.98527502557891" lon="5.532280890830476"><ele>837.9999999999999</ele><time>2026-04-26T13:26:22Z</time></trkpt><trkpt lat="43.985244736512676" lon="5.532199715903346"><ele>838.0</ele><time>2026-04-26T13:26:23Z</time></trkpt><trkpt lat="43.98522053110786" lon="5.532117130304207"><ele>838.0</ele><time>2026-04-26T13:26:23.999Z</time></trkpt><trkpt lat="43.98519422578598" lon="5.532035640573865"><ele>838.0</ele><time>2026-04-26T13:26:24.999Z</time></trkpt><trkpt lat="43.98517440787288" lon="5.5319457699297825"><ele>838.0</ele><time>2026-04-26T13:26:25.999Z</time></trkpt><trkpt lat="43.98513215641982" lon="5.531875396875624"><ele>837.9999999999999</ele><time>2026-04-26T13:26:26.999Z</time></trkpt><trkpt lat="43.98508408000777" lon="5.531818548129131"><ele>838.0</ele><time>2026-04-26T13:26:27.999Z</time></trkpt><trkpt lat="43.985031224893916" lon="5.53174954385644"><ele>839.1666666666666</ele><time>2026-04-26T13:26:28.999Z</time></trkpt><trkpt lat="43.98495610084802" lon="5.531637813073671"><ele>840.3333333333333</ele><time>2026-04-26T13:26:30.999Z</time></trkpt><trkpt lat="43.984892826553924" lon="5.5315930382158855"><ele>841.5</ele><time>2026-04-26T13:26:31.999Z</time></trkpt><trkpt lat="43.984840921407155" lon="5.531516145836156"><ele>842.6666666666667</ele><time>2026-04-26T13:26:32.999Z</time></trkpt><trkpt lat="43.98478490068527" lon="5.531453662861032"><ele>843.8333333333334</ele><time>2026-04-26T13:26:33.999Z</time></trkpt><trkpt lat="43.984731581960595" lon="5.53139935003449"><ele>845.0</ele><time>2026-04-26T13:26:34.999Z</time></trkpt><trkpt lat="43.98463041521585" lon="5.531349157004349"><ele>845.0</ele><time>2026-04-26T13:26:36.999Z</time></trkpt><trkpt lat="43.984525728625805" lon="5.5314027077035615"><ele>845.0</ele><time>2026-04-26T13:26:38.999Z</time></trkpt><trkpt lat="43.98439540215308" lon="5.531413462081688"><ele>845.0</ele><time>2026-04-26T13:26:40.999Z</time></trkpt><trkpt lat="43.98431610919884" lon="5.53141571945207"><ele>845.0</ele><time>2026-04-26T13:26:41.999Z</time></trkpt><trkpt lat="43.98423657970482" lon="5.531429841108231"><ele>845.0</ele><time>2026-04-26T13:26:42.999Z</time></trkpt><trkpt lat="43.98415101783701" lon="5.531446700627198"><ele>845.6666666666667</ele><time>2026-04-26T13:26:43.999Z</time></trkpt><trkpt lat="43.984084650267334" lon="5.5314511359720795"><ele>846.3333333333334</ele><time>2026-04-26T13:26:44.999Z</time></trkpt><trkpt lat="43.98397642165267" lon="5.531459097214508"><ele>847.0</ele><time>2026-04-26T13:26:46.999Z</time></trkpt><trkpt lat="43.983954812043976" lon="5.531547465938018"><ele>847.6666666666667</ele><time>2026-04-26T13:26:48.999Z</time></trkpt><trkpt lat="43.983971234742384" lon="5.531716790772809"><ele>848.3333333333334</ele><time>2026-04-26T13:26:50.999Z</time></trkpt><trkpt lat="43.983973317910845" lon="5.531818447064141"><ele>849.0</ele><time>2026-04-26T13:26:51.999Z</time></trkpt><trkpt lat="43.983986323474745" lon="5.531945360248392"><ele>847.8000000000001</ele><time>2026-04-26T13:26:52.999Z</time></trkpt><trkpt lat="43.983989474269045" lon="5.532074667031759"><ele>846.6</ele><time>2026-04-26T13:26:53.999Z</time></trkpt><trkpt lat="43.983988704062" lon="5.532197878727228"><ele>845.4</ele><time>2026-04-26T13:26:54.999Z</time></trkpt><trkpt lat="43.98398980905311" lon="5.532336847125883"><ele>844.2</ele><time>2026-04-26T13:26:55.999Z</time></trkpt><trkpt lat="43.98399060464074" lon="5.5324747788509425"><ele>843.0</ele><time>2026-04-26T13:26:56.999Z</time></trkpt><trkpt lat="43.98399585430816" lon="5.5326080811682665"><ele>843.0</ele><time>2026-04-26T13:26:57.999Z</time></trkpt><trkpt lat="43.98399465660832" lon="5.53273474569158"><ele>843.0</ele><time>2026-04-26T13:26:58.999Z</time></trkpt><trkpt lat="43.98399473426106" lon="5.532860133967825"><ele>843.0</ele><time>2026-04-26T13:26:59.999Z</time></trkpt><trkpt lat="43.98399760172875" lon="5.532973333217162"><ele>843.0</ele><time>2026-04-26T13:27:00.999Z</time></trkpt><trkpt lat="43.98399263825853" lon="5.533068741826228"><ele>843.0</ele><time>2026-04-26T13:27:01.999Z</time></trkpt><trkpt lat="43.984001683127765" lon="5.533171478766123"><ele>843.0</ele><time>2026-04-26T13:27:02.999Z</time></trkpt><trkpt lat="43.98398087160717" lon="5.533280167021795"><ele>841.5999999999999</ele><time>2026-04-26T13:27:04.999Z</time></trkpt><trkpt lat="43.9838789828882" lon="5.533271317756897"><ele>840.1999999999999</ele><time>2026-04-26T13:27:06.999Z</time></trkpt><trkpt lat="43.98376710543903" lon="5.533174724532704"><ele>838.8</ele><time>2026-04-26T13:27:08.999Z</time></trkpt><trkpt lat="43.98369287292241" lon="5.533205316836262"><ele>837.4</ele><time>2026-04-26T13:27:10.999Z</time></trkpt><trkpt lat="43.983713518152356" lon="5.533306814364542"><ele>836.0</ele><time>2026-04-26T13:27:12.999Z</time></trkpt><trkpt lat="43.983803314099156" lon="5.533410039447516"><ele>836.0000000000001</ele><time>2026-04-26T13:27:14.999Z</time></trkpt><trkpt lat="43.983855495759926" lon="5.533473299886306"><ele>836.0</ele><time>2026-04-26T13:27:15.999Z</time></trkpt><trkpt lat="43.98389084330823" lon="5.533561438386488"><ele>836.0</ele><time>2026-04-26T13:27:16.999Z</time></trkpt><trkpt lat="43.98389734377441" lon="5.53368331520856"><ele>836.0</ele><time>2026-04-26T13:27:17.999Z</time></trkpt><trkpt lat="43.983881353744984" lon="5.533801760228237"><ele>836.0000000000001</ele><time>2026-04-26T13:27:18.999Z</time></trkpt><trkpt lat="43.983863854011844" lon="5.533929346334862"><ele>836.0</ele><time>2026-04-26T13:27:19.999Z</time></trkpt><trkpt lat="43.98383694560302" lon="5.534052422663435"><ele>834.8</ele><time>2026-04-26T13:27:20.999Z</time></trkpt><trkpt lat="43.98381112302241" lon="5.534177989132776"><ele>833.5999999999999</ele><time>2026-04-26T13:27:21.999Z</time></trkpt><trkpt lat="43.983783489612975" lon="5.534305165120569"><ele>832.4</ele><time>2026-04-26T13:27:22.999Z</time></trkpt><trkpt lat="43.98376197212323" lon="5.534433885870976"><ele>831.2</ele><time>2026-04-26T13:27:23.999Z</time></trkpt><trkpt lat="43.98374273589409" lon="5.534566096990472"><ele>830.0</ele><time>2026-04-26T13:27:24.999Z</time></trkpt><trkpt lat="43.983728020446364" lon="5.5346924664819355"><ele>829.0000000000001</ele><time>2026-04-26T13:27:25.999Z</time></trkpt><trkpt lat="43.98370600994757" lon="5.534813506544408"><ele>828.0</ele><time>2026-04-26T13:27:26.999Z</time></trkpt><trkpt lat="43.98367788332846" lon="5.534909735290795"><ele>827.0</ele><time>2026-04-26T13:27:27.999Z</time></trkpt><trkpt lat="43.98358625721216" lon="5.534996429173822"><ele>826.0</ele><time>2026-04-26T13:27:29.999Z</time></trkpt><trkpt lat="43.98351433048226" lon="5.534980581666982"><ele>825.0000000000001</ele><time>2026-04-26T13:27:30.999Z</time></trkpt><trkpt lat="43.98343079791206" lon="5.53493259469612"><ele>824.0</ele><time>2026-04-26T13:27:31.999Z</time></trkpt><trkpt lat="43.98335031328807" lon="5.534869910800776"><ele>823.3333333333334</ele><time>2026-04-26T13:27:32.999Z</time></trkpt><trkpt lat="43.983282491115006" lon="5.534825694423185"><ele>822.6666666666667</ele><time>2026-04-26T13:27:33.999Z</time></trkpt><trkpt lat="43.98323189260323" lon="5.534895625669306"><ele>822.0</ele><time>2026-04-26T13:27:35.999Z</time></trkpt><trkpt lat="43.98324273867631" lon="5.535021610126633"><ele>821.3333333333333</ele><time>2026-04-26T13:27:37.999Z</time></trkpt><trkpt lat="43.98322408125871" lon="5.535120684410203"><ele>820.6666666666666</ele><time>2026-04-26T13:27:38.999Z</time></trkpt><trkpt lat="43.98317807223358" lon="5.535222167454237"><ele>820.0</ele><time>2026-04-26T13:27:39.999Z</time></trkpt><trkpt lat="43.983128929767396" lon="5.535332847915304"><ele>818.4999999999999</ele><time>2026-04-26T13:27:40.999Z</time></trkpt><trkpt lat="43.98309341846251" lon="5.535446837325019"><ele>817.0</ele><time>2026-04-26T13:27:41.999Z</time></trkpt><trkpt lat="43.98306057390915" lon="5.535560957272312"><ele>815.5</ele><time>2026-04-26T13:27:42.999Z</time></trkpt><trkpt lat="43.98302847444445" lon="5.535650219377563"><ele>814.0</ele><time>2026-04-26T13:27:43.999Z</time></trkpt><trkpt lat="43.983026668287835" lon="5.535740916066093"><ele>812.4999999999999</ele><time>2026-04-26T13:27:45.999Z</time></trkpt><trkpt lat="43.98311005317194" lon="5.535786312452333"><ele>811.0</ele><time>2026-04-26T13:27:48.999Z</time></trkpt><trkpt lat="43.983176680442796" lon="5.53587243467179"><ele>810.9999999999999</ele><time>2026-04-26T13:27:50.999Z</time></trkpt><trkpt lat="43.98311995564204" lon="5.536006172449528"><ele>811.0</ele><time>2026-04-26T13:27:52.998Z</time></trkpt><trkpt lat="43.98308241041265" lon="5.536110861932508"><ele>811.0</ele><time>2026-04-26T13:27:53.998Z</time></trkpt><trkpt lat="43.98305901957262" lon="5.53620006954232"><ele>811.0</ele><time>2026-04-26T13:27:54.998Z</time></trkpt><trkpt lat="43.983029636276804" lon="5.536298149640221"><ele>810.9999999999999</ele><time>2026-04-26T13:27:55.998Z</time></trkpt><trkpt lat="43.98300081766178" lon="5.536402712015015"><ele>811.0</ele><time>2026-04-26T13:27:56.998Z</time></trkpt><trkpt lat="43.982971073256" lon="5.536502474777162"><ele>811.8</ele><time>2026-04-26T13:27:57.998Z</time></trkpt><trkpt lat="43.98293268159879" lon="5.53658833021506"><ele>812.5999999999999</ele><time>2026-04-26T13:27:59Z</time></trkpt><trkpt lat="43.982897489723406" lon="5.536675025319824"><ele>813.4</ele><time>2026-04-26T13:28:00Z</time></trkpt><trkpt lat="43.9828239593809" lon="5.536813925522494"><ele>814.2</ele><time>2026-04-26T13:28:02Z</time></trkpt><trkpt lat="43.9827861526199" lon="5.536896955112548"><ele>815.0</ele><time>2026-04-26T13:28:03Z</time></trkpt><trkpt lat="43.982681449307265" lon="5.536979735066194"><ele>815.0</ele><time>2026-04-26T13:28:05Z</time></trkpt><trkpt lat="43.98262527730915" lon="5.537034822400155"><ele>815.0</ele><time>2026-04-26T13:28:06Z</time></trkpt><trkpt lat="43.982566908217805" lon="5.537085708605186"><ele>815.0</ele><time>2026-04-26T13:28:07Z</time></trkpt><trkpt lat="43.98248768509643" lon="5.537226626958566"><ele>815.0</ele><time>2026-04-26T13:28:09Z</time></trkpt><trkpt lat="43.98243286848983" lon="5.537311243421632"><ele>815.0</ele><time>2026-04-26T13:28:10Z</time></trkpt><trkpt lat="43.98234369310089" lon="5.537390166726487"><ele>812.8</ele><time>2026-04-26T13:28:12Z</time></trkpt><trkpt lat="43.98229226821231" lon="5.5374629473033705"><ele>810.6</ele><time>2026-04-26T13:28:14Z</time></trkpt><trkpt lat="43.9821854712271" lon="5.537466071267083"><ele>808.4000000000001</ele><time>2026-04-26T13:28:17Z</time></trkpt><trkpt lat="43.98207312928852" lon="5.537401731717777"><ele>806.2</ele><time>2026-04-26T13:28:19Z</time></trkpt><trkpt lat="43.98202172051427" lon="5.537342294813207"><ele>804.0</ele><time>2026-04-26T13:28:20Z</time></trkpt><trkpt lat="43.981925577592094" lon="5.537367227754592"><ele>804.0</ele><time>2026-04-26T13:28:21Z</time></trkpt><trkpt lat="43.98183292771001" lon="5.537270318026203"><ele>804.0</ele><time>2026-04-26T13:28:23Z</time></trkpt><trkpt lat="43.981728864061935" lon="5.537188995948168"><ele>804.0</ele><time>2026-04-26T13:28:25Z</time></trkpt><trkpt lat="43.98165689018448" lon="5.537133312007027"><ele>804.0</ele><time>2026-04-26T13:28:26Z</time></trkpt><trkpt lat="43.98159572906192" lon="5.5370881113120385"><ele>804.0</ele><time>2026-04-26T13:28:27Z</time></trkpt><trkpt lat="43.98153540900413" lon="5.537046472504928"><ele>805.4000000000001</ele><time>2026-04-26T13:28:28Z</time></trkpt><trkpt lat="43.981424612536" lon="5.536973669358699"><ele>806.8</ele><time>2026-04-26T13:28:30Z</time></trkpt><trkpt lat="43.981364976257204" lon="5.536910973389595"><ele>808.2</ele><time>2026-04-26T13:28:31Z</time></trkpt><trkpt lat="43.98129693239958" lon="5.536892009427127"><ele>809.5999999999999</ele><time>2026-04-26T13:28:32Z</time></trkpt><trkpt lat="43.981237965022174" lon="5.536855529477641"><ele>811.0</ele><time>2026-04-26T13:28:33Z</time></trkpt><trkpt lat="43.98112591356677" lon="5.536795296338762"><ele>810.9999999999999</ele><time>2026-04-26T13:28:35Z</time></trkpt><trkpt lat="43.9810334944034" lon="5.536752594422799"><ele>811.0</ele><time>2026-04-26T13:28:37Z</time></trkpt><trkpt lat="43.98094213471175" lon="5.536719649881932"><ele>811.0</ele><time>2026-04-26T13:28:39Z</time></trkpt><trkpt lat="43.98084407036032" lon="5.536692069761624"><ele>811.0</ele><time>2026-04-26T13:28:41Z</time></trkpt><trkpt lat="43.980771106464815" lon="5.536679492422347"><ele>810.9999999999999</ele><time>2026-04-26T13:28:41.999Z</time></trkpt><trkpt lat="43.980691596179234" lon="5.5366723183221955"><ele>811.0</ele><time>2026-04-26T13:28:44.999Z</time></trkpt><trkpt lat="43.98060930324104" lon="5.536673536292096"><ele>811.6666666666666</ele><time>2026-04-26T13:28:47.999Z</time></trkpt><trkpt lat="43.98055216844076" lon="5.536594905682287"><ele>812.3333333333333</ele><time>2026-04-26T13:28:49.999Z</time></trkpt><trkpt lat="43.98048172286617" lon="5.536598301023663"><ele>813.0</ele><time>2026-04-26T13:28:52.999Z</time></trkpt><trkpt lat="43.98041553894226" lon="5.536617911189634"><ele>813.6666666666667</ele><time>2026-04-26T13:28:54.999Z</time></trkpt><trkpt lat="43.980347120822266" lon="5.536623428002584"><ele>814.3333333333334</ele><time>2026-04-26T13:28:56.999Z</time></trkpt><trkpt lat="43.98023909219995" lon="5.53662692088098"><ele>815.0</ele><time>2026-04-26T13:28:58.999Z</time></trkpt><trkpt lat="43.98017281875401" lon="5.5366196018275105"><ele>815.0</ele><time>2026-04-26T13:28:59.999Z</time></trkpt><trkpt lat="43.980107717234226" lon="5.53661288986054"><ele>815.0</ele><time>2026-04-26T13:29:00.999Z</time></trkpt><trkpt lat="43.980042207544884" lon="5.53660530635148"><ele>815.0</ele><time>2026-04-26T13:29:01.999Z</time></trkpt><trkpt lat="43.97997970793878" lon="5.5366251050012725"><ele>815.0</ele><time>2026-04-26T13:29:02.999Z</time></trkpt><trkpt lat="43.979968943240024" lon="5.536862798998669"><ele>815.0</ele><time>2026-04-26T13:29:03.999Z</time></trkpt><trkpt lat="43.979871470745664" lon="5.536896743873773"><ele>815.8333333333334</ele><time>2026-04-26T13:29:05.999Z</time></trkpt><trkpt lat="43.979753633431756" lon="5.536926658239685"><ele>816.6666666666667</ele><time>2026-04-26T13:29:07.999Z</time></trkpt><trkpt lat="43.979688180424894" lon="5.536940597625935"><ele>817.5</ele><time>2026-04-26T13:29:08.999Z</time></trkpt><trkpt lat="43.979584662996736" lon="5.536964120642146"><ele>818.3333333333333</ele><time>2026-04-26T13:29:10.999Z</time></trkpt><trkpt lat="43.97951422523289" lon="5.536981306497572"><ele>819.1666666666666</ele><time>2026-04-26T13:29:11.999Z</time></trkpt><trkpt lat="43.9794437767349" lon="5.536998494956796"><ele>820.0</ele><time>2026-04-26T13:29:12.999Z</time></trkpt><trkpt lat="43.979377344106524" lon="5.537013306166128"><ele>819.9999999999999</ele><time>2026-04-26T13:29:13.999Z</time></trkpt><trkpt lat="43.9793089890823" lon="5.537025528507324"><ele>820.0</ele><time>2026-04-26T13:29:14.999Z</time></trkpt><trkpt lat="43.97923221168105" lon="5.537032453206166"><ele>820.0</ele><time>2026-04-26T13:29:15.999Z</time></trkpt><trkpt lat="43.979164369618296" lon="5.537037041093388"><ele>820.0</ele><time>2026-04-26T13:29:16.999Z</time></trkpt><trkpt lat="43.97906008806736" lon="5.537051927305235"><ele>819.9999999999999</ele><time>2026-04-26T13:29:18.999Z</time></trkpt><trkpt lat="43.978996275744954" lon="5.537063853864439"><ele>820.0</ele><time>2026-04-26T13:29:19.999Z</time></trkpt><trkpt lat="43.97891834764581" lon="5.537077374852545"><ele>822.3333333333333</ele><time>2026-04-26T13:29:21.999Z</time></trkpt><trkpt lat="43.97881753729393" lon="5.5370943658616225"><ele>824.6666666666666</ele><time>2026-04-26T13:29:23.999Z</time></trkpt><trkpt lat="43.97873974800087" lon="5.537101281289883"><ele>827.0</ele><time>2026-04-26T13:29:24.999Z</time></trkpt><trkpt lat="43.97866589318946" lon="5.537103174760652"><ele>829.3333333333333</ele><time>2026-04-26T13:29:25.999Z</time></trkpt><trkpt lat="43.97858076168197" lon="5.53709151812239"><ele>831.6666666666666</ele><time>2026-04-26T13:29:26.999Z</time></trkpt><trkpt lat="43.978500036986816" lon="5.537078533674948"><ele>834.0</ele><time>2026-04-26T13:29:27.999Z</time></trkpt><trkpt lat="43.97843342870026" lon="5.53706855427936"><ele>834.0</ele><time>2026-04-26T13:29:28.999Z</time></trkpt><trkpt lat="43.97836761151146" lon="5.537058693264481"><ele>834.0</ele><time>2026-04-26T13:29:29.999Z</time></trkpt><trkpt lat="43.978296003216194" lon="5.537027809544705"><ele>834.0</ele><time>2026-04-26T13:29:30.999Z</time></trkpt><trkpt lat="43.97822995255005" lon="5.536997531902205"><ele>834.0</ele><time>2026-04-26T13:29:32.999Z</time></trkpt><trkpt lat="43.978214534181795" lon="5.537203554789071"><ele>834.0</ele><time>2026-04-26T13:29:40.999Z</time></trkpt><trkpt lat="43.978278399402996" lon="5.537330791643859"><ele>834.0</ele><time>2026-04-26T13:29:42.999Z</time></trkpt><trkpt lat="43.97831337890773" lon="5.537454968864606"><ele>834.0</ele><time>2026-04-26T13:29:44.999Z</time></trkpt><trkpt lat="43.97836797727864" lon="5.537587388115539"><ele>834.0</ele><time>2026-04-26T13:29:46.999Z</time></trkpt><trkpt lat="43.97845061737997" lon="5.537692066830671"><ele>834.0</ele><time>2026-04-26T13:29:48.999Z</time></trkpt><trkpt lat="43.9785382270891" lon="5.537753757445269"><ele>834.0</ele><time>2026-04-26T13:29:50.999Z</time></trkpt><trkpt lat="43.97859087808728" lon="5.537808238861307"><ele>836.5</ele><time>2026-04-26T13:29:52.999Z</time></trkpt><trkpt lat="43.97856433920528" lon="5.537898728320046"><ele>839.0</ele><time>2026-04-26T13:29:54.999Z</time></trkpt><trkpt lat="43.978466479399806" lon="5.537931464236082"><ele>841.5</ele><time>2026-04-26T13:29:56.999Z</time></trkpt><trkpt lat="43.97839841663066" lon="5.537938386747113"><ele>844.0</ele><time>2026-04-26T13:29:57.999Z</time></trkpt><trkpt lat="43.97832865633117" lon="5.537939740017918"><ele>846.5</ele><time>2026-04-26T13:29:58.999Z</time></trkpt><trkpt lat="43.97825442539989" lon="5.537957302463521"><ele>849.0</ele><time>2026-04-26T13:29:59.999Z</time></trkpt><trkpt lat="43.978180633792725" lon="5.53797172992778"><ele>849.1666666666666</ele><time>2026-04-26T13:30:00.999Z</time></trkpt><trkpt lat="43.97810146146399" lon="5.53798711610887"><ele>849.3333333333333</ele><time>2026-04-26T13:30:01.999Z</time></trkpt><trkpt lat="43.97801423859756" lon="5.538006280921224"><ele>849.5</ele><time>2026-04-26T13:30:02.999Z</time></trkpt><trkpt lat="43.97792348277441" lon="5.5380262983984005"><ele>849.6666666666666</ele><time>2026-04-26T13:30:03.999Z</time></trkpt><trkpt lat="43.97783726193789" lon="5.538025184819953"><ele>849.8333333333333</ele><time>2026-04-26T13:30:05Z</time></trkpt><trkpt lat="43.977755680538216" lon="5.538025595563831"><ele>850.0</ele><time>2026-04-26T13:30:06Z</time></trkpt><trkpt lat="43.97768748954477" lon="5.538035274968939"><ele>849.9999999999999</ele><time>2026-04-26T13:30:07Z</time></trkpt><trkpt lat="43.97760252856847" lon="5.538100175481429"><ele>850.0</ele><time>2026-04-26T13:30:09Z</time></trkpt><trkpt lat="43.977531931786324" lon="5.538242156023487"><ele>850.0</ele><time>2026-04-26T13:30:11Z</time></trkpt><trkpt lat="43.97750360588239" lon="5.538335292063434"><ele>850.0</ele><time>2026-04-26T13:30:12Z</time></trkpt><trkpt lat="43.977470509857326" lon="5.538426831639916"><ele>849.9999999999999</ele><time>2026-04-26T13:30:13Z</time></trkpt><trkpt lat="43.97742533509716" lon="5.538514382331108"><ele>850.0</ele><time>2026-04-26T13:30:14Z</time></trkpt><trkpt lat="43.97737672172972" lon="5.538606397219637"><ele>850.8333333333333</ele><time>2026-04-26T13:30:15Z</time></trkpt><trkpt lat="43.97732216595077" lon="5.538708540128825"><ele>851.6666666666666</ele><time>2026-04-26T13:30:16Z</time></trkpt><trkpt lat="43.97727636475623" lon="5.538818859866895"><ele>852.5</ele><time>2026-04-26T13:30:17Z</time></trkpt><trkpt lat="43.97723108867783" lon="5.538930876553055"><ele>853.3333333333333</ele><time>2026-04-26T13:30:18Z</time></trkpt><trkpt lat="43.97718886807162" lon="5.539036427376484"><ele>854.1666666666666</ele><time>2026-04-26T13:30:19Z</time></trkpt><trkpt lat="43.97714400498261" lon="5.539122374629229"><ele>855.0</ele><time>2026-04-26T13:30:20Z</time></trkpt><trkpt lat="43.97709203991189" lon="5.539259216100847"><ele>856.8</ele><time>2026-04-26T13:30:22Z</time></trkpt><trkpt lat="43.9770909591358" lon="5.539365641302108"><ele>858.6</ele><time>2026-04-26T13:30:23Z</time></trkpt><trkpt lat="43.97709929936157" lon="5.539489820487912"><ele>860.4000000000001</ele><time>2026-04-26T13:30:24Z</time></trkpt><trkpt lat="43.97710961715864" lon="5.539631015684188"><ele>862.2</ele><time>2026-04-26T13:30:25Z</time></trkpt><trkpt lat="43.97709661490193" lon="5.539750235028565"><ele>864.0</ele><time>2026-04-26T13:30:26Z</time></trkpt><trkpt lat="43.97705789809402" lon="5.539870893616532"><ele>864.5</ele><time>2026-04-26T13:30:27Z</time></trkpt><trkpt lat="43.9770263646891" lon="5.539999866475629"><ele>865.0</ele><time>2026-04-26T13:30:28Z</time></trkpt><trkpt lat="43.97700462978778" lon="5.540091962199985"><ele>865.5</ele><time>2026-04-26T13:30:29Z</time></trkpt><trkpt lat="43.97696524640577" lon="5.540196233543121"><ele>866.0</ele><time>2026-04-26T13:30:31Z</time></trkpt><trkpt lat="43.97688879640818" lon="5.540255918134576"><ele>866.5</ele><time>2026-04-26T13:38:27.999Z</time></trkpt><trkpt lat="43.97681443334225" lon="5.540276138667404"><ele>867.0</ele><time>2026-04-26T13:38:30Z</time></trkpt><trkpt lat="43.976724429305946" lon="5.5402995287802925"><ele>868.6</ele><time>2026-04-26T13:38:32Z</time></trkpt><trkpt lat="43.97660117641478" lon="5.540292384110309"><ele>870.2</ele><time>2026-04-26T13:38:34Z</time></trkpt><trkpt lat="43.97653047515331" lon="5.5402904879385355"><ele>871.8</ele><time>2026-04-26T13:38:35Z</time></trkpt><trkpt lat="43.97646728294397" lon="5.540305186067289"><ele>873.4</ele><time>2026-04-26T13:38:36Z</time></trkpt><trkpt lat="43.97640655544297" lon="5.540346480705545"><ele>875.0</ele><time>2026-04-26T13:38:37Z</time></trkpt><trkpt lat="43.97629279036104" lon="5.540433310208701"><ele>875.1428571428571</ele><time>2026-04-26T13:38:39Z</time></trkpt><trkpt lat="43.97622736336612" lon="5.540458793412684"><ele>875.2857142857142</ele><time>2026-04-26T13:38:40Z</time></trkpt><trkpt lat="43.97615904866111" lon="5.540472859526437"><ele>875.4285714285714</ele><time>2026-04-26T13:38:41Z</time></trkpt><trkpt lat="43.976094203698764" lon="5.540480167784606"><ele>875.5714285714286</ele><time>2026-04-26T13:38:42Z</time></trkpt><trkpt lat="43.976027440064016" lon="5.540472105753535"><ele>875.7142857142857</ele><time>2026-04-26T13:38:43Z</time></trkpt><trkpt lat="43.97596074891042" lon="5.540452743279732"><ele>875.8571428571429</ele><time>2026-04-26T13:38:44Z</time></trkpt><trkpt lat="43.97588133650018" lon="5.5404470734957805"><ele>876.0</ele><time>2026-04-26T13:38:45Z</time></trkpt><trkpt lat="43.97580296179396" lon="5.540439220010012"><ele>876.8333333333334</ele><time>2026-04-26T13:38:46Z</time></trkpt><trkpt lat="43.97572959807752" lon="5.540439561035583"><ele>877.6666666666667</ele><time>2026-04-26T13:38:47Z</time></trkpt><trkpt lat="43.97566334807058" lon="5.540460296664511"><ele>878.5</ele><time>2026-04-26T13:38:48Z</time></trkpt><trkpt lat="43.97560048847224" lon="5.540496193520383"><ele>879.3333333333334</ele><time>2026-04-26T13:38:49Z</time></trkpt><trkpt lat="43.97551620879049" lon="5.5405229578051545"><ele>880.1666666666667</ele><time>2026-04-26T13:38:50Z</time></trkpt><trkpt lat="43.97542385199286" lon="5.540559427326282"><ele>881.0</ele><time>2026-04-26T13:38:51Z</time></trkpt><trkpt lat="43.97531079284028" lon="5.540607289071817"><ele>881.0000000000001</ele><time>2026-04-26T13:38:52Z</time></trkpt><trkpt lat="43.97522744814177" lon="5.540651573421314"><ele>881.0</ele><time>2026-04-26T13:38:53Z</time></trkpt><trkpt lat="43.975103596104795" lon="5.540640433357503"><ele>881.0</ele><time>2026-04-26T13:38:55Z</time></trkpt><trkpt lat="43.975027816229186" lon="5.540620535843052"><ele>881.0</ele><time>2026-04-26T13:38:56Z</time></trkpt><trkpt lat="43.9749559683256" lon="5.540606988679618"><ele>881.0000000000001</ele><time>2026-04-26T13:38:57Z</time></trkpt><trkpt lat="43.97488034044124" lon="5.540631948109939"><ele>881.0</ele><time>2026-04-26T13:38:58Z</time></trkpt><trkpt lat="43.97479450449801" lon="5.540670715960988"><ele>881.6666666666667</ele><time>2026-04-26T13:38:59Z</time></trkpt><trkpt lat="43.97470822146492" lon="5.540710665504161"><ele>882.3333333333334</ele><time>2026-04-26T13:39:00Z</time></trkpt><trkpt lat="43.97462657824996" lon="5.540731813249965"><ele>883.0</ele><time>2026-04-26T13:39:01Z</time></trkpt><trkpt lat="43.9745365952556" lon="5.540733784562623"><ele>883.6666666666667</ele><time>2026-04-26T13:39:02Z</time></trkpt><trkpt lat="43.974445966984554" lon="5.540720948382279"><ele>884.3333333333334</ele><time>2026-04-26T13:39:03Z</time></trkpt><trkpt lat="43.97435514515" lon="5.54073224669415"><ele>885.0</ele><time>2026-04-26T13:39:04Z</time></trkpt><trkpt lat="43.97427043480972" lon="5.540765962105681"><ele>885.8</ele><time>2026-04-26T13:39:05Z</time></trkpt><trkpt lat="43.97417026896847" lon="5.540794778449405"><ele>886.6</ele><time>2026-04-26T13:39:06Z</time></trkpt><trkpt lat="43.974052049349794" lon="5.540820784263892"><ele>887.4000000000001</ele><time>2026-04-26T13:39:07Z</time></trkpt><trkpt lat="43.97394312670643" lon="5.540853296532152"><ele>888.2</ele><time>2026-04-26T13:39:08Z</time></trkpt><trkpt lat="43.97386982404393" lon="5.540868918126668"><ele>889.0</ele><time>2026-04-26T13:39:09Z</time></trkpt><trkpt lat="43.973798758518086" lon="5.540855029575758"><ele>888.9999999999999</ele><time>2026-04-26T13:39:10Z</time></trkpt><trkpt lat="43.9737258334678" lon="5.540812360204714"><ele>889.0</ele><time>2026-04-26T13:39:11Z</time></trkpt><trkpt lat="43.973649145511864" lon="5.540767138850432"><ele>889.0</ele><time>2026-04-26T13:39:12Z</time></trkpt><trkpt lat="43.973578062633" lon="5.54075090869404"><ele>889.0</ele><time>2026-04-26T13:39:13Z</time></trkpt><trkpt lat="43.97350850193228" lon="5.540760524698909"><ele>888.9999999999999</ele><time>2026-04-26T13:39:14Z</time></trkpt><trkpt lat="43.97340020141436" lon="5.540786971910481"><ele>889.0</ele><time>2026-04-26T13:39:16Z</time></trkpt><trkpt lat="43.97333649271392" lon="5.540754613421619"><ele>888.9999999999999</ele><time>2026-04-26T13:39:18Z</time></trkpt><trkpt lat="43.97331388449226" lon="5.540668801975447"><ele>889.0</ele><time>2026-04-26T13:39:20Z</time></trkpt><trkpt lat="43.97339593491138" lon="5.540570828799486"><ele>889.0</ele><time>2026-04-26T13:41:07Z</time></trkpt><trkpt lat="43.97344475232938" lon="5.540514244739164"><ele>889.0</ele><time>2026-04-26T13:41:08Z</time></trkpt><trkpt lat="43.973533907327116" lon="5.540401556217695"><ele>888.9999999999999</ele><time>2026-04-26T13:41:10Z</time></trkpt><trkpt lat="43.97353768317427" lon="5.540293893621702"><ele>889.0</ele><time>2026-04-26T13:41:12Z</time></trkpt><trkpt lat="43.973468121253525" lon="5.540211243397505"><ele>890.6</ele><time>2026-04-26T13:41:14Z</time></trkpt><trkpt lat="43.97334469555238" lon="5.540187233835844"><ele>892.2</ele><time>2026-04-26T13:41:16Z</time></trkpt><trkpt lat="43.973261690137385" lon="5.5401922453291546"><ele>893.8000000000001</ele><time>2026-04-26T13:41:17Z</time></trkpt><trkpt lat="43.97316295845998" lon="5.540209645456032"><ele>895.4000000000001</ele><time>2026-04-26T13:41:18Z</time></trkpt><trkpt lat="43.97302226935767" lon="5.540236848872184"><ele>897.0</ele><time>2026-04-26T13:41:19Z</time></trkpt><trkpt lat="43.9728914137282" lon="5.540248212816492"><ele>897.0</ele><time>2026-04-26T13:41:20Z</time></trkpt><trkpt lat="43.97281057774595" lon="5.540268603897089"><ele>897.0</ele><time>2026-04-26T13:41:21Z</time></trkpt><trkpt lat="43.97274916758882" lon="5.54029646909414"><ele>897.0</ele><time>2026-04-26T13:41:22Z</time></trkpt><trkpt lat="43.97264943160845" lon="5.540274780850832"><ele>897.0</ele><time>2026-04-26T13:41:24Z</time></trkpt><trkpt lat="43.97259193665579" lon="5.540160483182716"><ele>897.0</ele><time>2026-04-26T13:41:26Z</time></trkpt><trkpt lat="43.97259430040595" lon="5.540068764347157"><ele>897.0</ele><time>2026-04-26T13:41:26.999Z</time></trkpt><trkpt lat="43.97259656153774" lon="5.539980880882361"><ele>897.0</ele><time>2026-04-26T13:41:27.999Z</time></trkpt><trkpt lat="43.97260696818223" lon="5.539886525159718"><ele>897.0</ele><time>2026-04-26T13:41:28.999Z</time></trkpt><trkpt lat="43.97257211768129" lon="5.539756199343834"><ele>897.0</ele><time>2026-04-26T13:41:29.999Z</time></trkpt><trkpt lat="43.97254244807273" lon="5.539650563952389"><ele>897.0</ele><time>2026-04-26T13:41:30.999Z</time></trkpt><trkpt lat="43.972501488406046" lon="5.5395813442313795"><ele>897.0</ele><time>2026-04-26T13:41:31.999Z</time></trkpt><trkpt lat="43.97243152332856" lon="5.539513882935727"><ele>897.0</ele><time>2026-04-26T13:41:33.999Z</time></trkpt><trkpt lat="43.97235576661458" lon="5.539505552687794"><ele>899.0</ele><time>2026-04-26T13:41:35.999Z</time></trkpt><trkpt lat="43.97226392073718" lon="5.539583949641851"><ele>901.0</ele><time>2026-04-26T13:41:38.999Z</time></trkpt><trkpt lat="43.97219352976154" lon="5.539680881479307"><ele>903.0</ele><time>2026-04-26T13:41:40.999Z</time></trkpt><trkpt lat="43.97211835762619" lon="5.539771225277279"><ele>905.0</ele><time>2026-04-26T13:41:42.999Z</time></trkpt><trkpt lat="43.97199346701957" lon="5.539871519577035"><ele>905.0</ele><time>2026-04-26T13:41:44.999Z</time></trkpt><trkpt lat="43.971897783354734" lon="5.539926708462918"><ele>905.0</ele><time>2026-04-26T13:41:45.999Z</time></trkpt><trkpt lat="43.97182877502287" lon="5.5399795441143524"><ele>905.0</ele><time>2026-04-26T13:41:46.999Z</time></trkpt><trkpt lat="43.97176546090418" lon="5.5399996031195675"><ele>905.0</ele><time>2026-04-26T13:41:47.999Z</time></trkpt><trkpt lat="43.97165351674547" lon="5.540080005759721"><ele>905.0</ele><time>2026-04-26T13:41:49.999Z</time></trkpt><trkpt lat="43.97157906941128" lon="5.540141458565614"><ele>906.0</ele><time>2026-04-26T13:41:51.999Z</time></trkpt><trkpt lat="43.971648255197714" lon="5.540337359706457"><ele>907.0</ele><time>2026-04-26T13:41:52.999Z</time></trkpt><trkpt lat="43.97166675360757" lon="5.540448832786824"><ele>908.0</ele><time>2026-04-26T13:41:53.999Z</time></trkpt><trkpt lat="43.97167190453968" lon="5.540542996280837"><ele>909.0</ele><time>2026-04-26T13:41:54.999Z</time></trkpt><trkpt lat="43.971680045985444" lon="5.5406384807522535"><ele>910.0</ele><time>2026-04-26T13:41:55.999Z</time></trkpt><trkpt lat="43.97168071700644" lon="5.5407519473420495"><ele>909.9999999999999</ele><time>2026-04-26T13:41:56.999Z</time></trkpt><trkpt lat="43.9716822036622" lon="5.5408781727347485"><ele>910.0</ele><time>2026-04-26T13:41:57.999Z</time></trkpt><trkpt lat="43.97167561128718" lon="5.541001839390843"><ele>910.0</ele><time>2026-04-26T13:41:58.999Z</time></trkpt><trkpt lat="43.971676024852385" lon="5.541120578238843"><ele>910.0</ele><time>2026-04-26T13:41:59.999Z</time></trkpt><trkpt lat="43.97169579089693" lon="5.541255241911755"><ele>909.9999999999999</ele><time>2026-04-26T13:42:00.999Z</time></trkpt><trkpt lat="43.971697386943184" lon="5.541369029652976"><ele>910.0</ele><time>2026-04-26T13:42:01.999Z</time></trkpt><trkpt lat="43.971706506180695" lon="5.541500690115114"><ele>909.3333333333333</ele><time>2026-04-26T13:42:02.999Z</time></trkpt><trkpt lat="43.97169631825691" lon="5.541621016846046"><ele>908.6666666666666</ele><time>2026-04-26T13:42:03.999Z</time></trkpt><trkpt lat="43.971692384372155" lon="5.541751296830354"><ele>908.0</ele><time>2026-04-26T13:42:04.999Z</time></trkpt><trkpt lat="43.971688172574105" lon="5.541869975728002"><ele>907.3333333333333</ele><time>2026-04-26T13:42:05.999Z</time></trkpt><trkpt lat="43.9716871466425" lon="5.541958350596984"><ele>906.6666666666666</ele><time>2026-04-26T13:42:06.999Z</time></trkpt><trkpt lat="43.9716786513655" lon="5.542090043248427"><ele>906.0</ele><time>2026-04-26T13:42:08.999Z</time></trkpt><trkpt lat="43.97165047986218" lon="5.542254068233777"><ele>905.3333333333334</ele><time>2026-04-26T13:42:10.999Z</time></trkpt><trkpt lat="43.97160204073802" lon="5.542352519799767"><ele>904.6666666666667</ele><time>2026-04-26T13:42:11.999Z</time></trkpt><trkpt lat="43.9715340890282" lon="5.542440957178728"><ele>904.0</ele><time>2026-04-26T13:42:12.999Z</time></trkpt><trkpt lat="43.97146450511124" lon="5.542515210878179"><ele>903.3333333333334</ele><time>2026-04-26T13:42:13.999Z</time></trkpt><trkpt lat="43.97140132157246" lon="5.542583166984863"><ele>902.6666666666667</ele><time>2026-04-26T13:42:14.999Z</time></trkpt><trkpt lat="43.97133896386882" lon="5.542661115467779"><ele>902.0</ele><time>2026-04-26T13:42:15.999Z</time></trkpt><trkpt lat="43.97127865776876" lon="5.542751603754857"><ele>902.0</ele><time>2026-04-26T13:42:16.999Z</time></trkpt><trkpt lat="43.97121737981508" lon="5.542846587489739"><ele>902.0</ele><time>2026-04-26T13:42:17.999Z</time></trkpt><trkpt lat="43.97115603329808" lon="5.542940013538123"><ele>902.0</ele><time>2026-04-26T13:42:18.999Z</time></trkpt><trkpt lat="43.97097977319171" lon="5.543258904077409"><ele>901.3333333333334</ele><time>2026-04-26T13:42:19.999Z</time></trkpt><trkpt lat="43.970815474271085" lon="5.543388930932984"><ele>900.6666666666667</ele><time>2026-04-26T13:42:20.999Z</time></trkpt><trkpt lat="43.97070123174908" lon="5.543493117020081"><ele>900.0</ele><time>2026-04-26T13:42:21.999Z</time></trkpt><trkpt lat="43.9705235197842" lon="5.5436034364582865"><ele>900.0</ele><time>2026-04-26T13:42:22.999Z</time></trkpt><trkpt lat="43.970382234345905" lon="5.543677001876346"><ele>900.0</ele><time>2026-04-26T13:42:23.999Z</time></trkpt><trkpt lat="43.969984385759155" lon="5.543135095864924"><ele>901.0</ele><time>2026-04-26T13:42:24.999Z</time></trkpt><trkpt lat="43.96988243987267" lon="5.543208660875402"><ele>902.0</ele><time>2026-04-26T13:42:25.999Z</time></trkpt><trkpt lat="43.9697772723096" lon="5.543307440766026"><ele>903.0</ele><time>2026-04-26T13:42:26.999Z</time></trkpt><trkpt lat="43.96970112703491" lon="5.543402737860503"><ele>904.0</ele><time>2026-04-26T13:42:27.999Z</time></trkpt><trkpt lat="43.96961674869195" lon="5.543468105003903"><ele>905.0</ele><time>2026-04-26T13:42:28.999Z</time></trkpt><trkpt lat="43.96952223831217" lon="5.543483567659282"><ele>905.0</ele><time>2026-04-26T13:42:29.999Z</time></trkpt><trkpt lat="43.96940206387514" lon="5.543497307237844"><ele>905.0</ele><time>2026-04-26T13:42:30.999Z</time></trkpt><trkpt lat="43.96926274841822" lon="5.54351437054257"><ele>905.0</ele><time>2026-04-26T13:42:31.999Z</time></trkpt><trkpt lat="43.969135200794675" lon="5.5435287400761855"><ele>905.0</ele><time>2026-04-26T13:42:32.999Z</time></trkpt><trkpt lat="43.96902717437279" lon="5.543522162362166"><ele>906.5</ele><time>2026-04-26T13:42:33.999Z</time></trkpt><trkpt lat="43.9689290547974" lon="5.543530526000716"><ele>908.0</ele><time>2026-04-26T13:42:34.999Z</time></trkpt><trkpt lat="43.968812881599085" lon="5.543572818072312"><ele>909.5</ele><time>2026-04-26T13:42:35.999Z</time></trkpt><trkpt lat="43.96866836333714" lon="5.543632346584961"><ele>911.0</ele><time>2026-04-26T13:42:36.999Z</time></trkpt><trkpt lat="43.968502189554556" lon="5.543695709850661"><ele>910.3333333333334</ele><time>2026-04-26T13:42:37.999Z</time></trkpt><trkpt lat="43.96833607162101" lon="5.543768816664189"><ele>909.6666666666667</ele><time>2026-04-26T13:42:38.999Z</time></trkpt><trkpt lat="43.96819365294634" lon="5.543848711396607"><ele>909.0</ele><time>2026-04-26T13:42:39.999Z</time></trkpt><trkpt lat="43.96805471565702" lon="5.543896698543136"><ele>909.0</ele><time>2026-04-26T13:42:41Z</time></trkpt><trkpt lat="43.967944184566306" lon="5.543956592375201"><ele>909.0</ele><time>2026-04-26T13:42:42Z</time></trkpt><trkpt lat="43.96786132293142" lon="5.544029511758109"><ele>909.0</ele><time>2026-04-26T13:42:43Z</time></trkpt><trkpt lat="43.96779489152921" lon="5.544045836159552"><ele>909.0</ele><time>2026-04-26T13:42:44Z</time></trkpt><trkpt lat="43.9677318754797" lon="5.544074568336638"><ele>909.0</ele><time>2026-04-26T13:42:45Z</time></trkpt><trkpt lat="43.96766236314838" lon="5.544066526613059"><ele>909.0</ele><time>2026-04-26T13:42:46Z</time></trkpt><trkpt lat="43.96759222314543" lon="5.544044517408881"><ele>909.4000000000001</ele><time>2026-04-26T13:42:47Z</time></trkpt><trkpt lat="43.967525691984925" lon="5.544011817029439"><ele>909.8000000000001</ele><time>2026-04-26T13:42:48Z</time></trkpt><trkpt lat="43.96744897632461" lon="5.54397783183585"><ele>910.1999999999999</ele><time>2026-04-26T13:42:49Z</time></trkpt><trkpt lat="43.96733879662506" lon="5.543975163286092"><ele>910.5999999999999</ele><time>2026-04-26T13:42:51Z</time></trkpt><trkpt lat="43.967265237296466" lon="5.5440567402369085"><ele>911.0</ele><time>2026-04-26T13:42:52Z</time></trkpt><trkpt lat="43.96718830704734" lon="5.544151699620046"><ele>911.0</ele><time>2026-04-26T13:42:53Z</time></trkpt><trkpt lat="43.96711535376835" lon="5.544251003037135"><ele>910.9999999999999</ele><time>2026-04-26T13:42:54Z</time></trkpt><trkpt lat="43.96704618706582" lon="5.544351483054699"><ele>910.9999999999999</ele><time>2026-04-26T13:42:55Z</time></trkpt><trkpt lat="43.966981684955016" lon="5.544436687452583"><ele>911.0</ele><time>2026-04-26T13:42:56Z</time></trkpt><trkpt lat="43.966915426525496" lon="5.544507867441187"><ele>911.0</ele><time>2026-04-26T13:42:57Z</time></trkpt><trkpt lat="43.96684513563142" lon="5.544579036907196"><ele>910.0000000000001</ele><time>2026-04-26T13:42:58Z</time></trkpt><trkpt lat="43.96679650103688" lon="5.544651560060906"><ele>909.0</ele><time>2026-04-26T13:42:59Z</time></trkpt><trkpt lat="43.966755099361016" lon="5.544781794064873"><ele>908.0</ele><time>2026-04-26T13:43:01Z</time></trkpt><trkpt lat="43.9666876686682" lon="5.544783522255539"><ele>907.0</ele><time>2026-04-26T13:43:02Z</time></trkpt><trkpt lat="43.966615432525955" lon="5.544797793342168"><ele>906.0000000000001</ele><time>2026-04-26T13:43:03Z</time></trkpt><trkpt lat="43.96652004249874" lon="5.544803092588633"><ele>905.0</ele><time>2026-04-26T13:43:04Z</time></trkpt><trkpt lat="43.96642854483192" lon="5.54484289139885"><ele>905.0</ele><time>2026-04-26T13:43:05Z</time></trkpt><trkpt lat="43.966344637289126" lon="5.544925087771351"><ele>905.0</ele><time>2026-04-26T13:43:06Z</time></trkpt><trkpt lat="43.966257325368964" lon="5.5450006702037635"><ele>905.0</ele><time>2026-04-26T13:43:07Z</time></trkpt><trkpt lat="43.96617751103582" lon="5.545071151709994"><ele>905.0</ele><time>2026-04-26T13:43:08Z</time></trkpt><trkpt lat="43.966101248009494" lon="5.54516031660011"><ele>905.0</ele><time>2026-04-26T13:43:09Z</time></trkpt><trkpt lat="43.96601691641827" lon="5.545254952608163"><ele>905.0</ele><time>2026-04-26T13:43:10Z</time></trkpt><trkpt lat="43.96593086071079" lon="5.545336618940782"><ele>905.0</ele><time>2026-04-26T13:43:11Z</time></trkpt><trkpt lat="43.96585129539534" lon="5.545411328662579"><ele>905.0</ele><time>2026-04-26T13:43:12Z</time></trkpt><trkpt lat="43.96577574897632" lon="5.545499986511525"><ele>905.0</ele><time>2026-04-26T13:43:13Z</time></trkpt><trkpt lat="43.965705527487955" lon="5.545591879327071"><ele>905.0</ele><time>2026-04-26T13:43:14Z</time></trkpt><trkpt lat="43.965626940382144" lon="5.545659410973788"><ele>903.4</ele><time>2026-04-26T13:43:15Z</time></trkpt><trkpt lat="43.965533333510635" lon="5.5457288551831105"><ele>901.8</ele><time>2026-04-26T13:43:16Z</time></trkpt><trkpt lat="43.96543926071971" lon="5.5457946032755405"><ele>900.2</ele><time>2026-04-26T13:43:17Z</time></trkpt><trkpt lat="43.96535874313063" lon="5.545868203833794"><ele>898.6</ele><time>2026-04-26T13:43:18Z</time></trkpt><trkpt lat="43.96525126659598" lon="5.545944208666559"><ele>897.0</ele><time>2026-04-26T13:43:19Z</time></trkpt><trkpt lat="43.96516695467921" lon="5.546023902700758"><ele>897.0</ele><time>2026-04-26T13:43:20Z</time></trkpt><trkpt lat="43.9650919900323" lon="5.546105032901606"><ele>897.0</ele><time>2026-04-26T13:43:21Z</time></trkpt><trkpt lat="43.96501075418622" lon="5.5461751891983795"><ele>897.0</ele><time>2026-04-26T13:43:22Z</time></trkpt><trkpt lat="43.9649406707506" lon="5.546261624175608"><ele>897.0</ele><time>2026-04-26T13:43:23Z</time></trkpt><trkpt lat="43.96488010934283" lon="5.5463703136429725"><ele>897.0</ele><time>2026-04-26T13:43:24Z</time></trkpt><trkpt lat="43.96481368604988" lon="5.546485807610646"><ele>895.8</ele><time>2026-04-26T13:43:25Z</time></trkpt><trkpt lat="43.96473968473667" lon="5.546596883661651"><ele>894.6</ele><time>2026-04-26T13:43:26Z</time></trkpt><trkpt lat="43.96467893235891" lon="5.546700482730036"><ele>893.3999999999999</ele><time>2026-04-26T13:43:27Z</time></trkpt><trkpt lat="43.96461814189613" lon="5.546815107570996"><ele>892.1999999999999</ele><time>2026-04-26T13:43:28Z</time></trkpt><trkpt lat="43.96454969816369" lon="5.546934214882772"><ele>891.0</ele><time>2026-04-26T13:43:29Z</time></trkpt><trkpt lat="43.96449414874678" lon="5.547074110205868"><ele>889.75</ele><time>2026-04-26T13:43:30Z</time></trkpt><trkpt lat="43.96441482942076" lon="5.547203769926684"><ele>888.5</ele><time>2026-04-26T13:43:31Z</time></trkpt><trkpt lat="43.96434258820556" lon="5.547330671457436"><ele>887.25</ele><time>2026-04-26T13:43:32Z</time></trkpt><trkpt lat="43.96426023880122" lon="5.54744360281799"><ele>886.0</ele><time>2026-04-26T13:43:33Z</time></trkpt><trkpt lat="43.9641790796385" lon="5.54754712598072"><ele>886.0</ele><time>2026-04-26T13:43:34Z</time></trkpt><trkpt lat="43.964114065864706" lon="5.54766085766923"><ele>885.9999999999999</ele><time>2026-04-26T13:43:34.999Z</time></trkpt><trkpt lat="43.96405157653983" lon="5.54775328554026"><ele>885.9999999999999</ele><time>2026-04-26T13:43:35.999Z</time></trkpt><trkpt lat="43.963966791466646" lon="5.547810194956568"><ele>886.0</ele><time>2026-04-26T13:43:36.999Z</time></trkpt><trkpt lat="43.963875002326226" lon="5.547874355884303"><ele>886.0</ele><time>2026-04-26T13:43:37.999Z</time></trkpt><trkpt lat="43.96378381157218" lon="5.547930465693173"><ele>885.1999999999999</ele><time>2026-04-26T13:43:38.999Z</time></trkpt><trkpt lat="43.963685646468974" lon="5.5479851978245645"><ele>884.3999999999999</ele><time>2026-04-26T13:43:39.999Z</time></trkpt><trkpt lat="43.96358369813339" lon="5.548025498080954"><ele>883.6</ele><time>2026-04-26T13:43:40.999Z</time></trkpt><trkpt lat="43.963482228039084" lon="5.5480401030221715"><ele>882.8</ele><time>2026-04-26T13:43:41.999Z</time></trkpt><trkpt lat="43.96339770352516" lon="5.548027168507873"><ele>882.0</ele><time>2026-04-26T13:43:42.999Z</time></trkpt><trkpt lat="43.96328467912187" lon="5.547999182662916"><ele>882.0</ele><time>2026-04-26T13:43:44.999Z</time></trkpt><trkpt lat="43.96320021109029" lon="5.547966523782911"><ele>882.0</ele><time>2026-04-26T13:43:45.999Z</time></trkpt><trkpt lat="43.963098956274585" lon="5.547970474117869"><ele>882.0</ele><time>2026-04-26T13:43:46.999Z</time></trkpt><trkpt lat="43.9630295904987" lon="5.547976876323979"><ele>882.0</ele><time>2026-04-26T13:43:47.999Z</time></trkpt><trkpt lat="43.96295045696195" lon="5.5479657242653095"><ele>882.0</ele><time>2026-04-26T13:43:48.999Z</time></trkpt><trkpt lat="43.96287939694499" lon="5.547985575316974"><ele>882.0</ele><time>2026-04-26T13:43:49.999Z</time></trkpt><trkpt lat="43.962799169729266" lon="5.547998445356966"><ele>882.0</ele><time>2026-04-26T13:43:50.999Z</time></trkpt><trkpt lat="43.96270244528359" lon="5.5479684978755595"><ele>882.0</ele><time>2026-04-26T13:43:51.999Z</time></trkpt><trkpt lat="43.96259452558479" lon="5.547948449500277"><ele>882.0</ele><time>2026-04-26T13:43:52.999Z</time></trkpt><trkpt lat="43.96249912550846" lon="5.547957359290461"><ele>882.0</ele><time>2026-04-26T13:43:53.999Z</time></trkpt><trkpt lat="43.962421958873485" lon="5.547969186379101"><ele>882.0</ele><time>2026-04-26T13:43:54.999Z</time></trkpt><trkpt lat="43.96235712793747" lon="5.5479295714733015"><ele>882.0</ele><time>2026-04-26T13:43:55.999Z</time></trkpt><trkpt lat="43.96232001875065" lon="5.5478371716093156"><ele>882.0</ele><time>2026-04-26T13:43:56.999Z</time></trkpt><trkpt lat="43.96229405904083" lon="5.547755546284611"><ele>882.0</ele><time>2026-04-26T13:43:57.999Z</time></trkpt><trkpt lat="43.96221296823834" lon="5.54772850571662"><ele>882.0</ele><time>2026-04-26T13:43:58.999Z</time></trkpt><trkpt lat="43.96214172078751" lon="5.54772598041754"><ele>882.0</ele><time>2026-04-26T13:43:59.999Z</time></trkpt><trkpt lat="43.96205728054571" lon="5.547632925733942"><ele>882.0</ele><time>2026-04-26T13:44:01.999Z</time></trkpt><trkpt lat="43.961988673885855" lon="5.547538770670151"><ele>882.0</ele><time>2026-04-26T13:44:02.999Z</time></trkpt><trkpt lat="43.961934407496216" lon="5.547468164160689"><ele>882.0</ele><time>2026-04-26T13:44:03.999Z</time></trkpt><trkpt lat="43.96190209856449" lon="5.547317473337992"><ele>882.0</ele><time>2026-04-26T13:44:05.999Z</time></trkpt><trkpt lat="43.961892180461426" lon="5.547222920623946"><ele>882.0</ele><time>2026-04-26T13:44:06.999Z</time></trkpt><trkpt lat="43.96186997408422" lon="5.547100159913524"><ele>882.0</ele><time>2026-04-26T13:44:07.999Z</time></trkpt><trkpt lat="43.96183679644104" lon="5.54699429743837"><ele>882.0</ele><time>2026-04-26T13:44:08.999Z</time></trkpt><trkpt lat="43.961791525019606" lon="5.54692677408172"><ele>882.3333333333334</ele><time>2026-04-26T13:44:09.999Z</time></trkpt><trkpt lat="43.96172680750458" lon="5.546891637309643"><ele>882.6666666666667</ele><time>2026-04-26T13:44:10.999Z</time></trkpt><trkpt lat="43.96165817837617" lon="5.5468841570824825"><ele>883.0</ele><time>2026-04-26T13:44:11.999Z</time></trkpt><trkpt lat="43.96158733566582" lon="5.5469009405962755"><ele>883.3333333333334</ele><time>2026-04-26T13:44:12.999Z</time></trkpt><trkpt lat="43.96150156675994" lon="5.546930817881708"><ele>883.6666666666667</ele><time>2026-04-26T13:44:13.999Z</time></trkpt><trkpt lat="43.96141792842477" lon="5.546942523780887"><ele>884.0</ele><time>2026-04-26T13:44:14.999Z</time></trkpt><trkpt lat="43.96132869017092" lon="5.546962676124783"><ele>884.0000000000001</ele><time>2026-04-26T13:44:15.999Z</time></trkpt><trkpt lat="43.9612511283727" lon="5.546962622109784"><ele>884.0</ele><time>2026-04-26T13:44:16.999Z</time></trkpt><trkpt lat="43.961177581005" lon="5.546946414439512"><ele>884.0</ele><time>2026-04-26T13:44:17.999Z</time></trkpt><trkpt lat="43.96110480925716" lon="5.546939549068953"><ele>884.0</ele><time>2026-04-26T13:44:18.999Z</time></trkpt><trkpt lat="43.961020493446036" lon="5.54692473985199"><ele>884.0000000000001</ele><time>2026-04-26T13:44:19.999Z</time></trkpt><trkpt lat="43.96095598072747" lon="5.546922191262197"><ele>884.0</ele><time>2026-04-26T13:44:20.999Z</time></trkpt><trkpt lat="43.960881570486215" lon="5.546989088396223"><ele>885.0</ele><time>2026-04-26T13:44:22.999Z</time></trkpt><trkpt lat="43.96077453699798" lon="5.547031532504364"><ele>886.0000000000001</ele><time>2026-04-26T13:44:24.999Z</time></trkpt><trkpt lat="43.96071351574459" lon="5.547071987261741"><ele>887.0000000000001</ele><time>2026-04-26T13:44:25.999Z</time></trkpt><trkpt lat="43.96063562735357" lon="5.547105046960439"><ele>888.0</ele><time>2026-04-26T13:44:26.999Z</time></trkpt><trkpt lat="43.96054629726599" lon="5.547143411053398"><ele>889.0</ele><time>2026-04-26T13:44:27.999Z</time></trkpt><trkpt lat="43.96045361368401" lon="5.547181034869789"><ele>888.4000000000001</ele><time>2026-04-26T13:44:28.999Z</time></trkpt><trkpt lat="43.960355129105714" lon="5.547198690419197"><ele>887.8000000000001</ele><time>2026-04-26T13:44:29.999Z</time></trkpt><trkpt lat="43.96024713668276" lon="5.5472106305917"><ele>887.1999999999999</ele><time>2026-04-26T13:44:30.999Z</time></trkpt><trkpt lat="43.960151087521304" lon="5.547230818781745"><ele>886.5999999999999</ele><time>2026-04-26T13:44:31.999Z</time></trkpt><trkpt lat="43.960074110896436" lon="5.54724533180362"><ele>886.0</ele><time>2026-04-26T13:44:32.999Z</time></trkpt><trkpt lat="43.960000430658575" lon="5.5472316711623435"><ele>886.0</ele><time>2026-04-26T13:44:33.999Z</time></trkpt><trkpt lat="43.959918517839256" lon="5.547225324441899"><ele>885.9999999999999</ele><time>2026-04-26T13:44:34.999Z</time></trkpt><trkpt lat="43.959817340564136" lon="5.547252728339942"><ele>885.9999999999999</ele><time>2026-04-26T13:44:35.999Z</time></trkpt><trkpt lat="43.959699837009225" lon="5.547260586775017"><ele>886.0</ele><time>2026-04-26T13:44:36.999Z</time></trkpt><trkpt lat="43.9595937029243" lon="5.547270059886427"><ele>886.0</ele><time>2026-04-26T13:44:37.999Z</time></trkpt><trkpt lat="43.95949800780518" lon="5.547312278986111"><ele>885.9999999999999</ele><time>2026-04-26T13:44:38.999Z</time></trkpt><trkpt lat="43.959402811331856" lon="5.547333619101205"><ele>886.0</ele><time>2026-04-26T13:44:39.999Z</time></trkpt><trkpt lat="43.959310591308935" lon="5.547338415728539"><ele>886.0</ele><time>2026-04-26T13:44:40.999Z</time></trkpt><trkpt lat="43.959228751489896" lon="5.547320334825559"><ele>886.0</ele><time>2026-04-26T13:44:41.999Z</time></trkpt><trkpt lat="43.95915377500547" lon="5.547332997949878"><ele>885.9999999999999</ele><time>2026-04-26T13:44:42.999Z</time></trkpt><trkpt lat="43.95908927725685" lon="5.54733431150229"><ele>886.0</ele><time>2026-04-26T13:44:43.999Z</time></trkpt><trkpt lat="43.95900823959697" lon="5.547315277990334"><ele>885.6666666666666</ele><time>2026-04-26T13:44:44.999Z</time></trkpt><trkpt lat="43.95891555948077" lon="5.5472707999359"><ele>885.3333333333333</ele><time>2026-04-26T13:44:45.999Z</time></trkpt><trkpt lat="43.95881676838464" lon="5.547217747745982"><ele>885.0</ele><time>2026-04-26T13:44:47Z</time></trkpt><trkpt lat="43.95873673754867" lon="5.547176247222229"><ele>884.6666666666667</ele><time>2026-04-26T13:44:48Z</time></trkpt><trkpt lat="43.95867943918766" lon="5.547133232530898"><ele>884.3333333333334</ele><time>2026-04-26T13:44:49Z</time></trkpt><trkpt lat="43.958636993456494" lon="5.547060538251049"><ele>884.0</ele><time>2026-04-26T13:44:50Z</time></trkpt><trkpt lat="43.95859621031715" lon="5.546988807386399"><ele>884.2</ele><time>2026-04-26T13:44:51Z</time></trkpt><trkpt lat="43.95845449960202" lon="5.546971369372151"><ele>884.4000000000001</ele><time>2026-04-26T13:44:53Z</time></trkpt><trkpt lat="43.95835582077952" lon="5.546988219671511"><ele>884.6</ele><time>2026-04-26T13:44:54Z</time></trkpt><trkpt lat="43.95825226405671" lon="5.5469868289822"><ele>884.8</ele><time>2026-04-26T13:44:55Z</time></trkpt><trkpt lat="43.95817092241971" lon="5.546993616337177"><ele>885.0</ele><time>2026-04-26T13:44:56Z</time></trkpt><trkpt lat="43.958105829401255" lon="5.54702136584108"><ele>885.0</ele><time>2026-04-26T13:44:57Z</time></trkpt><trkpt lat="43.957990611392276" lon="5.547071373436006"><ele>885.0</ele><time>2026-04-26T13:44:59Z</time></trkpt><trkpt lat="43.957853456273234" lon="5.547021799409942"><ele>885.0</ele><time>2026-04-26T13:45:01Z</time></trkpt><trkpt lat="43.95777141706203" lon="5.54700868478883"><ele>885.0</ele><time>2026-04-26T13:45:02Z</time></trkpt><trkpt lat="43.95765999345089" lon="5.547014172838174"><ele>885.0</ele><time>2026-04-26T13:45:03Z</time></trkpt><trkpt lat="43.95756445966621" lon="5.547024306637927"><ele>885.0</ele><time>2026-04-26T13:45:04Z</time></trkpt><trkpt lat="43.95747493303917" lon="5.547032952096371"><ele>885.0</ele><time>2026-04-26T13:45:05Z</time></trkpt><trkpt lat="43.95739925575444" lon="5.547044198406513"><ele>885.0</ele><time>2026-04-26T13:45:06Z</time></trkpt><trkpt lat="43.95733251278026" lon="5.5471074138903065"><ele>885.0</ele><time>2026-04-26T13:45:07Z</time></trkpt><trkpt lat="43.95727419027038" lon="5.547208430671499"><ele>885.0</ele><time>2026-04-26T13:45:08Z</time></trkpt><trkpt lat="43.95720315645701" lon="5.5472992326785295"><ele>883.0</ele><time>2026-04-26T13:45:09Z</time></trkpt><trkpt lat="43.957126613389555" lon="5.547346107028968"><ele>881.0</ele><time>2026-04-26T13:45:10Z</time></trkpt><trkpt lat="43.95706502853446" lon="5.547370469960737"><ele>879.0</ele><time>2026-04-26T13:45:11Z</time></trkpt><trkpt lat="43.95699759473891" lon="5.547404516463481"><ele>877.0</ele><time>2026-04-26T13:45:12Z</time></trkpt><trkpt lat="43.95693955922418" lon="5.547448361261528"><ele>875.0</ele><time>2026-04-26T13:45:13Z</time></trkpt><trkpt lat="43.95683036059968" lon="5.547511111580568"><ele>873.0</ele><time>2026-04-26T13:45:15Z</time></trkpt><trkpt lat="43.95671161642724" lon="5.5475052267545"><ele>872.0</ele><time>2026-04-26T13:45:17Z</time></trkpt><trkpt lat="43.956576096565165" lon="5.547463005363916"><ele>871.0</ele><time>2026-04-26T13:45:19Z</time></trkpt><trkpt lat="43.95649537881733" lon="5.547465790976986"><ele>870.0</ele><time>2026-04-26T13:45:20Z</time></trkpt><trkpt lat="43.95641448518642" lon="5.547451425430153"><ele>869.0</ele><time>2026-04-26T13:45:21Z</time></trkpt><trkpt lat="43.95635309931757" lon="5.547413377776603"><ele>868.0</ele><time>2026-04-26T13:45:22Z</time></trkpt><trkpt lat="43.95630107803403" lon="5.547352057488788"><ele>867.0</ele><time>2026-04-26T13:45:23Z</time></trkpt><trkpt lat="43.956245059598146" lon="5.547282766221117"><ele>867.0</ele><time>2026-04-26T13:45:24Z</time></trkpt><trkpt lat="43.95619372241433" lon="5.547206456540685"><ele>867.0</ele><time>2026-04-26T13:45:25Z</time></trkpt><trkpt lat="43.95613229859074" lon="5.547139054069976"><ele>867.0</ele><time>2026-04-26T13:45:26Z</time></trkpt><trkpt lat="43.95605449208909" lon="5.5470753981633365"><ele>867.0</ele><time>2026-04-26T13:45:27Z</time></trkpt><trkpt lat="43.955973919253914" lon="5.547024089107528"><ele>867.0</ele><time>2026-04-26T13:45:28Z</time></trkpt><trkpt lat="43.95588292455174" lon="5.546960506179652"><ele>867.0</ele><time>2026-04-26T13:45:29Z</time></trkpt><trkpt lat="43.95579960369316" lon="5.5468855529718475"><ele>866.8333333333334</ele><time>2026-04-26T13:45:30Z</time></trkpt><trkpt lat="43.955721393067456" lon="5.546796534856139"><ele>866.6666666666667</ele><time>2026-04-26T13:45:31Z</time></trkpt><trkpt lat="43.95565644080625" lon="5.5467104137297865"><ele>866.5</ele><time>2026-04-26T13:45:32Z</time></trkpt><trkpt lat="43.9556091659001" lon="5.546636629783407"><ele>866.3333333333334</ele><time>2026-04-26T13:45:33Z</time></trkpt><trkpt lat="43.95554639326463" lon="5.546592908800084"><ele>866.1666666666667</ele><time>2026-04-26T13:45:34Z</time></trkpt><trkpt lat="43.95546369524452" lon="5.546563663858665"><ele>866.0</ele><time>2026-04-26T13:45:35Z</time></trkpt><trkpt lat="43.95537105845145" lon="5.5465567033222145"><ele>866.0000000000001</ele><time>2026-04-26T13:45:36Z</time></trkpt><trkpt lat="43.95527915158076" lon="5.5465339446688775"><ele>866.0</ele><time>2026-04-26T13:45:37Z</time></trkpt><trkpt lat="43.95519076106836" lon="5.546527800219053"><ele>866.0</ele><time>2026-04-26T13:45:38Z</time></trkpt><trkpt lat="43.95510538478054" lon="5.546524399532932"><ele>866.0</ele><time>2026-04-26T13:45:39Z</time></trkpt><trkpt lat="43.95503754302107" lon="5.546526187241505"><ele>866.0000000000001</ele><time>2026-04-26T13:45:39.999Z</time></trkpt><trkpt lat="43.954968479554715" lon="5.546528294749599"><ele>866.0</ele><time>2026-04-26T13:45:40.999Z</time></trkpt><trkpt lat="43.95490281663745" lon="5.546536152374362"><ele>864.8333333333334</ele><time>2026-04-26T13:45:41.999Z</time></trkpt><trkpt lat="43.954819099495474" lon="5.546567360619899"><ele>863.6666666666667</ele><time>2026-04-26T13:45:42.999Z</time></trkpt><trkpt lat="43.95473248910742" lon="5.5465935184019335"><ele>862.5</ele><time>2026-04-26T13:45:43.999Z</time></trkpt><trkpt lat="43.95465270429776" lon="5.546636321890058"><ele>861.3333333333333</ele><time>2026-04-26T13:45:44.999Z</time></trkpt><trkpt lat="43.954589964059316" lon="5.546648559041427"><ele>860.1666666666666</ele><time>2026-04-26T13:45:45.999Z</time></trkpt><trkpt lat="43.95447766374434" lon="5.546669002625946"><ele>859.0</ele><time>2026-04-26T13:45:47.999Z</time></trkpt><trkpt lat="43.9544154157811" lon="5.5466936505125135"><ele>859.0</ele><time>2026-04-26T13:45:48.999Z</time></trkpt><trkpt lat="43.954313506929424" lon="5.546744565849436"><ele>859.0</ele><time>2026-04-26T13:45:50.999Z</time></trkpt><trkpt lat="43.95418935754691" lon="5.54664707764837"><ele>859.0</ele><time>2026-04-26T13:45:52.999Z</time></trkpt><trkpt lat="43.95410642661216" lon="5.546557377146014"><ele>859.0</ele><time>2026-04-26T13:45:53.999Z</time></trkpt><trkpt lat="43.95400202576309" lon="5.546467470926693"><ele>856.8000000000001</ele><time>2026-04-26T13:45:54.999Z</time></trkpt><trkpt lat="43.95391606752398" lon="5.546413737471666"><ele>854.6000000000001</ele><time>2026-04-26T13:45:55.999Z</time></trkpt><trkpt lat="43.95383292608168" lon="5.546384666853382"><ele>852.4</ele><time>2026-04-26T13:45:56.999Z</time></trkpt><trkpt lat="43.95373088585384" lon="5.546384818166836"><ele>850.2</ele><time>2026-04-26T13:45:57.999Z</time></trkpt><trkpt lat="43.95363140778065" lon="5.546392856619521"><ele>848.0</ele><time>2026-04-26T13:45:58.999Z</time></trkpt><trkpt lat="43.95353348552488" lon="5.54641219844953"><ele>848.0000000000001</ele><time>2026-04-26T13:45:59.999Z</time></trkpt><trkpt lat="43.953443473781164" lon="5.546435583558141"><ele>848.0</ele><time>2026-04-26T13:46:00.999Z</time></trkpt><trkpt lat="43.95337615003652" lon="5.546410270026945"><ele>848.0</ele><time>2026-04-26T13:46:01.999Z</time></trkpt><trkpt lat="43.95331213172947" lon="5.546409679001162"><ele>848.0</ele><time>2026-04-26T13:46:02.999Z</time></trkpt><trkpt lat="43.953242653015266" lon="5.546438218747155"><ele>848.0000000000001</ele><time>2026-04-26T13:46:03.999Z</time></trkpt><trkpt lat="43.9531812565915" lon="5.546487006859114"><ele>848.0</ele><time>2026-04-26T13:46:04.999Z</time></trkpt><trkpt lat="43.95308261000373" lon="5.546538225130754"><ele>846.0</ele><time>2026-04-26T13:46:06.999Z</time></trkpt><trkpt lat="43.952979195895146" lon="5.546507218703688"><ele>844.0</ele><time>2026-04-26T13:46:08.999Z</time></trkpt><trkpt lat="43.95288752308776" lon="5.546422165572575"><ele>842.0</ele><time>2026-04-26T13:46:10.999Z</time></trkpt><trkpt lat="43.95282619185813" lon="5.546360637416483"><ele>840.0</ele><time>2026-04-26T13:46:11.999Z</time></trkpt><trkpt lat="43.95275836928422" lon="5.546288644606217"><ele>838.0</ele><time>2026-04-26T13:46:12.999Z</time></trkpt><trkpt lat="43.952674158260166" lon="5.54623405943254"><ele>837.1666666666666</ele><time>2026-04-26T13:46:13.999Z</time></trkpt><trkpt lat="43.95258976821022" lon="5.546190344630404"><ele>836.3333333333333</ele><time>2026-04-26T13:46:14.999Z</time></trkpt><trkpt lat="43.95249936805846" lon="5.546158141130275"><ele>835.5</ele><time>2026-04-26T13:46:15.999Z</time></trkpt><trkpt lat="43.952422870377944" lon="5.546107769091452"><ele>834.6666666666667</ele><time>2026-04-26T13:46:16.999Z</time></trkpt><trkpt lat="43.952349376425765" lon="5.546045893192406"><ele>833.8333333333334</ele><time>2026-04-26T13:46:17.999Z</time></trkpt><trkpt lat="43.95226686159483" lon="5.545988992267"><ele>833.0</ele><time>2026-04-26T13:46:18.999Z</time></trkpt><trkpt lat="43.952176074079006" lon="5.545936343788755"><ele>833.0</ele><time>2026-04-26T13:46:19.999Z</time></trkpt><trkpt lat="43.95208634889698" lon="5.545898043864913"><ele>833.0</ele><time>2026-04-26T13:46:20.999Z</time></trkpt><trkpt lat="43.95200170575269" lon="5.5458567108137675"><ele>833.0</ele><time>2026-04-26T13:46:21.999Z</time></trkpt><trkpt lat="43.95191133358059" lon="5.5458269572387735"><ele>833.0</ele><time>2026-04-26T13:46:22.999Z</time></trkpt><trkpt lat="43.95181917323685" lon="5.545821757666909"><ele>833.0</ele><time>2026-04-26T13:46:23.999Z</time></trkpt><trkpt lat="43.95172960954941" lon="5.545815672350459"><ele>831.3333333333334</ele><time>2026-04-26T13:46:24.999Z</time></trkpt><trkpt lat="43.95165372549791" lon="5.545817323176133"><ele>829.6666666666667</ele><time>2026-04-26T13:46:25.999Z</time></trkpt><trkpt lat="43.95158647724475" lon="5.545821703240643"><ele>828.0</ele><time>2026-04-26T13:46:26.999Z</time></trkpt><trkpt lat="43.951467602912516" lon="5.545793689792117"><ele>826.3333333333333</ele><time>2026-04-26T13:46:28.999Z</time></trkpt><trkpt lat="43.95140374726119" lon="5.545765552351995"><ele>824.6666666666666</ele><time>2026-04-26T13:46:29.999Z</time></trkpt><trkpt lat="43.951327519028865" lon="5.545741061951461"><ele>823.0</ele><time>2026-04-26T13:46:30.999Z</time></trkpt><trkpt lat="43.95124771561945" lon="5.545709689865663"><ele>823.0</ele><time>2026-04-26T13:46:31.999Z</time></trkpt><trkpt lat="43.951163180465336" lon="5.545687414056462"><ele>823.0</ele><time>2026-04-26T13:46:32.999Z</time></trkpt><trkpt lat="43.95106976399862" lon="5.545671386390299"><ele>823.0</ele><time>2026-04-26T13:46:33.999Z</time></trkpt><trkpt lat="43.950982806971396" lon="5.545659302705224"><ele>823.0</ele><time>2026-04-26T13:46:34.999Z</time></trkpt><trkpt lat="43.95090572771841" lon="5.545610176050886"><ele>823.0</ele><time>2026-04-26T13:46:35.999Z</time></trkpt><trkpt lat="43.95081387564489" lon="5.545563330761332"><ele>821.8</ele><time>2026-04-26T13:46:36.999Z</time></trkpt><trkpt lat="43.95071309112986" lon="5.545524659015616"><ele>820.5999999999999</ele><time>2026-04-26T13:46:37.999Z</time></trkpt><trkpt lat="43.95060564411184" lon="5.545482131395937"><ele>819.4000000000001</ele><time>2026-04-26T13:46:38.999Z</time></trkpt><trkpt lat="43.95050348634243" lon="5.545450728408794"><ele>818.2</ele><time>2026-04-26T13:46:39.999Z</time></trkpt><trkpt lat="43.95041458820027" lon="5.545413211199116"><ele>817.0</ele><time>2026-04-26T13:46:40.999Z</time></trkpt><trkpt lat="43.95031599455047" lon="5.545358871120537"><ele>817.0</ele><time>2026-04-26T13:46:41.999Z</time></trkpt><trkpt lat="43.95022036193228" lon="5.545305993115986"><ele>817.0</ele><time>2026-04-26T13:46:42.999Z</time></trkpt><trkpt lat="43.95011581948538" lon="5.545278237649282"><ele>817.0</ele><time>2026-04-26T13:46:43.999Z</time></trkpt><trkpt lat="43.95001494516406" lon="5.54525374636429"><ele>817.0</ele><time>2026-04-26T13:46:44.999Z</time></trkpt><trkpt lat="43.94992266935549" lon="5.545220170838411"><ele>817.0</ele><time>2026-04-26T13:46:45.999Z</time></trkpt><trkpt lat="43.9498261903691" lon="5.545187060495743"><ele>815.1666666666666</ele><time>2026-04-26T13:46:46.999Z</time></trkpt><trkpt lat="43.94973061246609" lon="5.545166788158589"><ele>813.3333333333333</ele><time>2026-04-26T13:46:47.999Z</time></trkpt><trkpt lat="43.94965224778629" lon="5.5451875338405605"><ele>811.5</ele><time>2026-04-26T13:46:48.999Z</time></trkpt><trkpt lat="43.94953223430451" lon="5.54519157967692"><ele>809.6666666666667</ele><time>2026-04-26T13:46:50.999Z</time></trkpt><trkpt lat="43.94946206869916" lon="5.545161819971423"><ele>807.8333333333334</ele><time>2026-04-26T13:46:51.999Z</time></trkpt><trkpt lat="43.949398635712086" lon="5.54511224185191"><ele>806.0</ele><time>2026-04-26T13:46:53Z</time></trkpt><trkpt lat="43.94933597521286" lon="5.54508410892581"><ele>806.0000000000001</ele><time>2026-04-26T13:46:54Z</time></trkpt><trkpt lat="43.949267569848196" lon="5.54508192482995"><ele>806.0</ele><time>2026-04-26T13:46:55Z</time></trkpt><trkpt lat="43.94920295518308" lon="5.5450946464127755"><ele>806.0</ele><time>2026-04-26T13:46:56Z</time></trkpt><trkpt lat="43.94913680830434" lon="5.545128530054162"><ele>806.0</ele><time>2026-04-26T13:46:57Z</time></trkpt><trkpt lat="43.94906993937679" lon="5.545191308855217"><ele>806.0000000000001</ele><time>2026-04-26T13:46:58Z</time></trkpt><trkpt lat="43.948998404977075" lon="5.54526390291683"><ele>806.0</ele><time>2026-04-26T13:46:59Z</time></trkpt><trkpt lat="43.94892548113945" lon="5.545337923481211"><ele>804.1666666666667</ele><time>2026-04-26T13:47:00Z</time></trkpt><trkpt lat="43.948849493708146" lon="5.545413624581153"><ele>802.3333333333334</ele><time>2026-04-26T13:47:01Z</time></trkpt><trkpt lat="43.94878788705043" lon="5.545484551738669"><ele>800.5</ele><time>2026-04-26T13:47:02Z</time></trkpt><trkpt lat="43.94872622370529" lon="5.5455504549850385"><ele>798.6666666666667</ele><time>2026-04-26T13:47:03Z</time></trkpt><trkpt lat="43.94864938843775" lon="5.545585538516963"><ele>796.8333333333334</ele><time>2026-04-26T13:47:04Z</time></trkpt><trkpt lat="43.9485632772319" lon="5.545600445970612"><ele>795.0</ele><time>2026-04-26T13:47:05Z</time></trkpt><trkpt lat="43.948480552030226" lon="5.545592326795427"><ele>795.0</ele><time>2026-04-26T13:47:06Z</time></trkpt><trkpt lat="43.948390865386784" lon="5.5456067612926"><ele>795.0</ele><time>2026-04-26T13:47:07Z</time></trkpt><trkpt lat="43.94830022278384" lon="5.545626402114494"><ele>795.0</ele><time>2026-04-26T13:47:08Z</time></trkpt><trkpt lat="43.94820720114683" lon="5.545648500042908"><ele>795.0</ele><time>2026-04-26T13:47:09Z</time></trkpt><trkpt lat="43.948108294653345" lon="5.545663996729251"><ele>795.0</ele><time>2026-04-26T13:47:10Z</time></trkpt><trkpt lat="43.94800768484843" lon="5.5456855197119745"><ele>793.5</ele><time>2026-04-26T13:47:11Z</time></trkpt><trkpt lat="43.94790813120908" lon="5.5457326228788375"><ele>792.0</ele><time>2026-04-26T13:47:12Z</time></trkpt><trkpt lat="43.947806888544456" lon="5.545810081103832"><ele>790.5</ele><time>2026-04-26T13:47:13Z</time></trkpt><trkpt lat="43.94768406617993" lon="5.545868919537405"><ele>789.0</ele><time>2026-04-26T13:47:14Z</time></trkpt><trkpt lat="43.94753976893128" lon="5.5458823721148"><ele>787.5</ele><time>2026-04-26T13:47:15Z</time></trkpt><trkpt lat="43.94739615767961" lon="5.545903558116372"><ele>786.0</ele><time>2026-04-26T13:47:16Z</time></trkpt><trkpt lat="43.947261388264906" lon="5.545966781623081"><ele>784.5</ele><time>2026-04-26T13:47:17Z</time></trkpt><trkpt lat="43.94715201268221" lon="5.546030482648516"><ele>783.0</ele><time>2026-04-26T13:47:18Z</time></trkpt><trkpt lat="43.947046834267304" lon="5.546091422081989"><ele>783.0</ele><time>2026-04-26T13:47:19Z</time></trkpt><trkpt lat="43.94694941069036" lon="5.5461365397385896"><ele>783.0</ele><time>2026-04-26T13:47:20Z</time></trkpt><trkpt lat="43.946848585903126" lon="5.546159759250769"><ele>783.0</ele><time>2026-04-26T13:47:21Z</time></trkpt><trkpt lat="43.94674815852805" lon="5.546177146174112"><ele>783.0</ele><time>2026-04-26T13:47:22Z</time></trkpt><trkpt lat="43.94664695692925" lon="5.5462121982761055"><ele>783.0</ele><time>2026-04-26T13:47:23Z</time></trkpt><trkpt lat="43.94654699113975" lon="5.546251317434011"><ele>782.4</ele><time>2026-04-26T13:47:24Z</time></trkpt><trkpt lat="43.946452850933696" lon="5.546284874019219"><ele>781.8</ele><time>2026-04-26T13:47:25Z</time></trkpt><trkpt lat="43.946359431464934" lon="5.546314363458306"><ele>781.2</ele><time>2026-04-26T13:47:26Z</time></trkpt><trkpt lat="43.946264088249954" lon="5.54634106862276"><ele>780.6</ele><time>2026-04-26T13:47:27Z</time></trkpt><trkpt lat="43.94617437551156" lon="5.5463765736923625"><ele>780.0</ele><time>2026-04-26T13:47:28Z</time></trkpt><trkpt lat="43.94609399271628" lon="5.546409532558588"><ele>780.0</ele><time>2026-04-26T13:47:29Z</time></trkpt><trkpt lat="43.94601394859309" lon="5.546468366283732"><ele>780.0</ele><time>2026-04-26T13:47:30Z</time></trkpt><trkpt lat="43.94593816397656" lon="5.546541177193902"><ele>780.0</ele><time>2026-04-26T13:47:31Z</time></trkpt><trkpt lat="43.945854115001715" lon="5.546619284803691"><ele>780.0</ele><time>2026-04-26T13:47:32Z</time></trkpt><trkpt lat="43.94576498619532" lon="5.546693955842103"><ele>780.0</ele><time>2026-04-26T13:47:33Z</time></trkpt><trkpt lat="43.94569071203057" lon="5.546749927804565"><ele>779.8</ele><time>2026-04-26T13:47:34Z</time></trkpt><trkpt lat="43.94562072916079" lon="5.546804095279357"><ele>779.6</ele><time>2026-04-26T13:47:35Z</time></trkpt><trkpt lat="43.945526103313405" lon="5.546885089292069"><ele>779.4000000000001</ele><time>2026-04-26T13:47:37Z</time></trkpt><trkpt lat="43.94547404101017" lon="5.546938874102122"><ele>779.2</ele><time>2026-04-26T13:47:38Z</time></trkpt><trkpt lat="43.945395567063" lon="5.54706391468428"><ele>779.0</ele><time>2026-04-26T13:47:40Z</time></trkpt><trkpt lat="43.945358819296786" lon="5.547248295918274"><ele>779.0000000000001</ele><time>2026-04-26T13:47:42Z</time></trkpt><trkpt lat="43.94532877146944" lon="5.5473581769969895"><ele>779.0</ele><time>2026-04-26T13:47:43Z</time></trkpt><trkpt lat="43.94527448518501" lon="5.547447926431353"><ele>779.0</ele><time>2026-04-26T13:47:44Z</time></trkpt><trkpt lat="43.94520584661661" lon="5.5475488134496995"><ele>779.0</ele><time>2026-04-26T13:47:45Z</time></trkpt><trkpt lat="43.94514238975256" lon="5.547642225064004"><ele>779.0000000000001</ele><time>2026-04-26T13:47:46Z</time></trkpt><trkpt lat="43.94508830556527" lon="5.547720155997472"><ele>779.0</ele><time>2026-04-26T13:47:47Z</time></trkpt><trkpt lat="43.94502881649533" lon="5.547769022887367"><ele>778.6666666666667</ele><time>2026-04-26T13:47:48Z</time></trkpt><trkpt lat="43.94496520058412" lon="5.547815816382847"><ele>778.3333333333334</ele><time>2026-04-26T13:47:49Z</time></trkpt><trkpt lat="43.944883137373346" lon="5.547872186685528"><ele>778.0</ele><time>2026-04-26T13:47:50Z</time></trkpt><trkpt lat="43.9448037136077" lon="5.547937924866602"><ele>777.6666666666667</ele><time>2026-04-26T13:47:51Z</time></trkpt><trkpt lat="43.94472229468992" lon="5.5480069327687405"><ele>777.3333333333334</ele><time>2026-04-26T13:47:52Z</time></trkpt><trkpt lat="43.94465833150545" lon="5.548035361356914"><ele>777.0</ele><time>2026-04-26T13:47:53Z</time></trkpt><trkpt lat="43.94453959283249" lon="5.548060082049422"><ele>776.8</ele><time>2026-04-26T13:47:54.999Z</time></trkpt><trkpt lat="43.9444533781646" lon="5.548199800865069"><ele>776.6</ele><time>2026-04-26T13:47:56.999Z</time></trkpt><trkpt lat="43.944406026911864" lon="5.54830483058553"><ele>776.4</ele><time>2026-04-26T13:47:57.999Z</time></trkpt><trkpt lat="43.94435250006656" lon="5.5483767490795755"><ele>776.1999999999999</ele><time>2026-04-26T13:47:58.999Z</time></trkpt><trkpt lat="43.9442265926651" lon="5.5484317391844655"><ele>776.0</ele><time>2026-04-26T13:48:00.999Z</time></trkpt><trkpt lat="43.94414917281039" lon="5.548465588135652"><ele>775.4</ele><time>2026-04-26T13:48:01.999Z</time></trkpt><trkpt lat="43.94406968976491" lon="5.548503879735778"><ele>774.8</ele><time>2026-04-26T13:48:02.999Z</time></trkpt><trkpt lat="43.94400007709389" lon="5.548528721312577"><ele>774.1999999999999</ele><time>2026-04-26T13:48:03.999Z</time></trkpt><trkpt lat="43.94388828500876" lon="5.548631811127198"><ele>773.5999999999999</ele><time>2026-04-26T13:48:05.999Z</time></trkpt><trkpt lat="43.94383115600439" lon="5.548712102773877"><ele>773.0</ele><time>2026-04-26T13:48:06.999Z</time></trkpt><trkpt lat="43.9437616289383" lon="5.54880115615231"><ele>772.5999999999999</ele><time>2026-04-26T13:48:07.999Z</time></trkpt><trkpt lat="43.943689401662944" lon="5.548879556866377"><ele>772.1999999999999</ele><time>2026-04-26T13:48:08.999Z</time></trkpt><trkpt lat="43.94362944672601" lon="5.549000387814552"><ele>771.8</ele><time>2026-04-26T13:48:09.999Z</time></trkpt><trkpt lat="43.94357113242685" lon="5.54913831581919"><ele>771.4</ele><time>2026-04-26T13:48:10.999Z</time></trkpt><trkpt lat="43.943505954434265" lon="5.549251718340405"><ele>771.0</ele><time>2026-04-26T13:48:11.999Z</time></trkpt><trkpt lat="43.94344525911788" lon="5.54932797361238"><ele>771.1666666666666</ele><time>2026-04-26T13:48:12.999Z</time></trkpt><trkpt lat="43.94337950450681" lon="5.549411067119094"><ele>771.3333333333333</ele><time>2026-04-26T13:48:13.999Z</time></trkpt><trkpt lat="43.94330485124212" lon="5.5494598889424855"><ele>771.5</ele><time>2026-04-26T13:48:14.999Z</time></trkpt><trkpt lat="43.94324417627013" lon="5.549490619019889"><ele>771.6666666666666</ele><time>2026-04-26T13:48:15.999Z</time></trkpt><trkpt lat="43.943176425116235" lon="5.5495076817949345"><ele>771.8333333333333</ele><time>2026-04-26T13:48:16.999Z</time></trkpt><trkpt lat="43.94309402320862" lon="5.549518655750911"><ele>772.0</ele><time>2026-04-26T13:48:17.999Z</time></trkpt><trkpt lat="43.94299665349412" lon="5.5495347983313605"><ele>771.8333333333333</ele><time>2026-04-26T13:48:18.999Z</time></trkpt><trkpt lat="43.94289749631044" lon="5.549568300097593"><ele>771.6666666666666</ele><time>2026-04-26T13:48:19.999Z</time></trkpt><trkpt lat="43.942797980208084" lon="5.549614025443898"><ele>771.5</ele><time>2026-04-26T13:48:20.999Z</time></trkpt><trkpt lat="43.9427061667867" lon="5.549636990140549"><ele>771.3333333333333</ele><time>2026-04-26T13:48:21.999Z</time></trkpt><trkpt lat="43.94263780363631" lon="5.549657173240906"><ele>771.1666666666666</ele><time>2026-04-26T13:48:22.999Z</time></trkpt><trkpt lat="43.942570806676564" lon="5.549696307600738"><ele>771.0</ele><time>2026-04-26T13:48:23.999Z</time></trkpt><trkpt lat="43.942511592757086" lon="5.549771755810596"><ele>771.0</ele><time>2026-04-26T13:48:24.999Z</time></trkpt><trkpt lat="43.9424522553824" lon="5.549867362514594"><ele>771.0</ele><time>2026-04-26T13:48:25.999Z</time></trkpt><trkpt lat="43.94239718897533" lon="5.549970462491667"><ele>771.0</ele><time>2026-04-26T13:48:26.999Z</time></trkpt><trkpt lat="43.94235618802636" lon="5.550068031078523"><ele>771.0</ele><time>2026-04-26T13:48:27.999Z</time></trkpt><trkpt lat="43.94232802250055" lon="5.5501823581773095"><ele>771.0</ele><time>2026-04-26T13:48:28.999Z</time></trkpt><trkpt lat="43.94228373167327" lon="5.550296911893386"><ele>771.0</ele><time>2026-04-26T13:48:29.999Z</time></trkpt><trkpt lat="43.94223894632051" lon="5.550400866839293"><ele>769.8333333333334</ele><time>2026-04-26T13:48:30.999Z</time></trkpt><trkpt lat="43.94217903803611" lon="5.550473650378333"><ele>768.6666666666666</ele><time>2026-04-26T13:48:31.999Z</time></trkpt><trkpt lat="43.942127149245245" lon="5.55052672817907"><ele>767.5</ele><time>2026-04-26T13:48:32.999Z</time></trkpt><trkpt lat="43.94205896859689" lon="5.550605296730765"><ele>766.3333333333333</ele><time>2026-04-26T13:48:34.999Z</time></trkpt><trkpt lat="43.942023635986864" lon="5.550681094641014"><ele>765.1666666666666</ele><time>2026-04-26T13:48:35.999Z</time></trkpt><trkpt lat="43.941986959623435" lon="5.550782266407253"><ele>764.0</ele><time>2026-04-26T13:48:36.999Z</time></trkpt><trkpt lat="43.94193091912371" lon="5.550898348720005"><ele>764.0</ele><time>2026-04-26T13:48:37.999Z</time></trkpt><trkpt lat="43.94187963550045" lon="5.550977796207469"><ele>764.0</ele><time>2026-04-26T13:48:38.999Z</time></trkpt><trkpt lat="43.94182306883704" lon="5.5510633705054095"><ele>764.0</ele><time>2026-04-26T13:48:39.999Z</time></trkpt><trkpt lat="43.94175735227156" lon="5.551173986595576"><ele>764.0</ele><time>2026-04-26T13:48:41.999Z</time></trkpt><trkpt lat="43.941721579555185" lon="5.551294747045877"><ele>764.0</ele><time>2026-04-26T13:48:43.999Z</time></trkpt><trkpt lat="43.941728690606915" lon="5.55139038810023"><ele>764.0</ele><time>2026-04-26T13:48:44.999Z</time></trkpt><trkpt lat="43.94177429296518" lon="5.551522652045336"><ele>763.0</ele><time>2026-04-26T13:48:46.999Z</time></trkpt><trkpt lat="43.94177685338805" lon="5.551640440155615"><ele>762.0</ele><time>2026-04-26T13:48:49.999Z</time></trkpt><trkpt lat="43.94172883075694" lon="5.551735457540946"><ele>761.0</ele><time>2026-04-26T13:48:52.999Z</time></trkpt><trkpt lat="43.94166924294824" lon="5.551766634702976"><ele>760.0</ele><time>2026-04-26T13:48:54.999Z</time></trkpt><trkpt lat="43.94160706202075" lon="5.551813066807321"><ele>759.0</ele><time>2026-04-26T13:48:56.999Z</time></trkpt><trkpt lat="43.941537758580274" lon="5.551876699828703"><ele>758.0</ele><time>2026-04-26T13:48:59Z</time></trkpt><trkpt lat="43.941496518016024" lon="5.551961096367442"><ele>760.0</ele><time>2026-04-26T13:49:01Z</time></trkpt><trkpt lat="43.941484490056595" lon="5.552097185866245"><ele>762.0</ele><time>2026-04-26T13:49:03Z</time></trkpt><trkpt lat="43.941466967697515" lon="5.552212059714801"><ele>764.0</ele><time>2026-04-26T13:49:05Z</time></trkpt><trkpt lat="43.94143135728677" lon="5.552301324674069"><ele>766.0</ele><time>2026-04-26T13:49:07Z</time></trkpt><trkpt lat="43.941362459115496" lon="5.552380967057926"><ele>768.0000000000001</ele><time>2026-04-26T13:49:10Z</time></trkpt><trkpt lat="43.94144285762082" lon="5.5523617688488445"><ele>770.0</ele><time>2026-04-26T13:49:24Z</time></trkpt><trkpt lat="43.94147359125271" lon="5.552257144299834"><ele>770.0000000000001</ele><time>2026-04-26T13:49:26Z</time></trkpt><trkpt lat="43.94148739890344" lon="5.5521608603408374"><ele>770.0</ele><time>2026-04-26T13:49:28Z</time></trkpt><trkpt lat="43.941486958180114" lon="5.552069519032682"><ele>770.0</ele><time>2026-04-26T13:49:29Z</time></trkpt><trkpt lat="43.94150475154767" lon="5.551973331697476"><ele>770.0</ele><time>2026-04-26T13:49:31Z</time></trkpt><trkpt lat="43.94155103361778" lon="5.551885293404813"><ele>770.0000000000001</ele><time>2026-04-26T13:49:33Z</time></trkpt><trkpt lat="43.94161292861096" lon="5.551819812593079"><ele>770.0</ele><time>2026-04-26T13:49:35Z</time></trkpt><trkpt lat="43.941700525726354" lon="5.551724764088049"><ele>768.0000000000001</ele><time>2026-04-26T13:49:38Z</time></trkpt><trkpt lat="43.941775820235975" lon="5.5516860355542486"><ele>766.0</ele><time>2026-04-26T13:49:40Z</time></trkpt><trkpt lat="43.94185499882828" lon="5.551726880471963"><ele>764.0</ele><time>2026-04-26T13:49:43Z</time></trkpt><trkpt lat="43.94190573508337" lon="5.551788969861294"><ele>762.0</ele><time>2026-04-26T13:49:45Z</time></trkpt><trkpt lat="43.94197601964186" lon="5.551880912625321"><ele>760.0</ele><time>2026-04-26T13:49:47Z</time></trkpt><trkpt lat="43.942051765340544" lon="5.551960609778547"><ele>758.0</ele><time>2026-04-26T13:49:49Z</time></trkpt><trkpt lat="43.942156150331485" lon="5.552005252176819"><ele>758.0</ele><time>2026-04-26T13:49:51Z</time></trkpt><trkpt lat="43.94222790759506" lon="5.5519941432210365"><ele>758.0</ele><time>2026-04-26T13:49:52Z</time></trkpt><trkpt lat="43.94234180639557" lon="5.551984129064963"><ele>758.0</ele><time>2026-04-26T13:49:54Z</time></trkpt><trkpt lat="43.94243472103782" lon="5.552032030314266"><ele>758.0</ele><time>2026-04-26T13:49:56Z</time></trkpt><trkpt lat="43.942554491545806" lon="5.5521116425428305"><ele>758.0</ele><time>2026-04-26T13:49:58Z</time></trkpt><trkpt lat="43.942619242260946" lon="5.552155742831505"><ele>756.0</ele><time>2026-04-26T13:49:59Z</time></trkpt><trkpt lat="43.94271775942729" lon="5.552221615975752"><ele>754.0</ele><time>2026-04-26T13:50:01Z</time></trkpt><trkpt lat="43.94276769769913" lon="5.552308509309638"><ele>752.0</ele><time>2026-04-26T13:50:02.999Z</time></trkpt><trkpt lat="43.94282039623924" lon="5.552454567034812"><ele>750.0</ele><time>2026-04-26T13:50:04.999Z</time></trkpt><trkpt lat="43.94285605755645" lon="5.552555770773306"><ele>748.0</ele><time>2026-04-26T13:50:05.999Z</time></trkpt><trkpt lat="43.942886188444774" lon="5.552644144892348"><ele>748.0</ele><time>2026-04-26T13:50:06.999Z</time></trkpt><trkpt lat="43.94292949816957" lon="5.5528261611001355"><ele>748.0</ele><time>2026-04-26T13:50:08.999Z</time></trkpt><trkpt lat="43.94294191996258" lon="5.552918811957114"><ele>748.0</ele><time>2026-04-26T13:50:09.999Z</time></trkpt><trkpt lat="43.94295764559617" lon="5.553016250589134"><ele>748.0</ele><time>2026-04-26T13:50:10.999Z</time></trkpt><trkpt lat="43.9429606384378" lon="5.553123615823832"><ele>748.0</ele><time>2026-04-26T13:50:11.999Z</time></trkpt><trkpt lat="43.94296084145957" lon="5.553237663730057"><ele>748.0</ele><time>2026-04-26T13:50:12.999Z</time></trkpt><trkpt lat="43.94297972838387" lon="5.553329934665912"><ele>748.0</ele><time>2026-04-26T13:50:13.999Z</time></trkpt><trkpt lat="43.943014887242974" lon="5.553519886930047"><ele>748.0</ele><time>2026-04-26T13:50:15.999Z</time></trkpt><trkpt lat="43.9430501881911" lon="5.553636310662604"><ele>748.0</ele><time>2026-04-26T13:50:16.999Z</time></trkpt><trkpt lat="43.94307346190048" lon="5.553738656896151"><ele>748.0</ele><time>2026-04-26T13:50:17.999Z</time></trkpt><trkpt lat="43.943083478289125" lon="5.553832832618633"><ele>748.0</ele><time>2026-04-26T13:50:18.999Z</time></trkpt><trkpt lat="43.94309849273011" lon="5.5539321942520035"><ele>748.0</ele><time>2026-04-26T13:50:19.999Z</time></trkpt><trkpt lat="43.94312313175756" lon="5.554023199854698"><ele>748.0</ele><time>2026-04-26T13:50:20.999Z</time></trkpt><trkpt lat="43.94315319495417" lon="5.554157622918322"><ele>748.0</ele><time>2026-04-26T13:50:22.999Z</time></trkpt><trkpt lat="43.943155344818834" lon="5.554276551020323"><ele>748.0</ele><time>2026-04-26T13:50:24.999Z</time></trkpt><trkpt lat="43.94314092256664" lon="5.554428035966153"><ele>748.0</ele><time>2026-04-26T13:50:26.999Z</time></trkpt><trkpt lat="43.94313805679956" lon="5.554604309946249"><ele>747.8571428571428</ele><time>2026-04-26T13:50:28.999Z</time></trkpt><trkpt lat="43.94314021496378" lon="5.5547037914177055"><ele>747.7142857142858</ele><time>2026-04-26T13:50:29.999Z</time></trkpt><trkpt lat="43.94314181851399" lon="5.554805825786329"><ele>747.5714285714286</ele><time>2026-04-26T13:50:30.999Z</time></trkpt><trkpt lat="43.94316224405878" lon="5.554911983142618"><ele>747.4285714285713</ele><time>2026-04-26T13:50:31.999Z</time></trkpt><trkpt lat="43.94316756964324" lon="5.555015284156788"><ele>747.2857142857142</ele><time>2026-04-26T13:50:32.999Z</time></trkpt><trkpt lat="43.94317653922084" lon="5.5551228009963785"><ele>747.1428571428571</ele><time>2026-04-26T13:50:33.999Z</time></trkpt><trkpt lat="43.943181653357975" lon="5.5552184427962015"><ele>747.0</ele><time>2026-04-26T13:50:34.999Z</time></trkpt><trkpt lat="43.943202686627444" lon="5.555308587518877"><ele>747.0</ele><time>2026-04-26T13:50:36.999Z</time></trkpt><trkpt lat="43.94324887306792" lon="5.555383690852197"><ele>747.0</ele><time>2026-04-26T13:50:39.999Z</time></trkpt><trkpt lat="43.94334320032012" lon="5.5554205692679846"><ele>747.0</ele><time>2026-04-26T13:50:41.999Z</time></trkpt><trkpt lat="43.943467893962875" lon="5.5554909523610645"><ele>747.0</ele><time>2026-04-26T13:50:43.999Z</time></trkpt><trkpt lat="43.94353461918657" lon="5.555535360331236"><ele>747.0</ele><time>2026-04-26T13:50:44.999Z</time></trkpt><trkpt lat="43.94359688107881" lon="5.555595430348241"><ele>746.3333333333334</ele><time>2026-04-26T13:50:45.999Z</time></trkpt><trkpt lat="43.94364686768234" lon="5.555671292452806"><ele>745.6666666666666</ele><time>2026-04-26T13:50:46.999Z</time></trkpt><trkpt lat="43.943696447724776" lon="5.5557671818123"><ele>745.0</ele><time>2026-04-26T13:50:47.999Z</time></trkpt><trkpt lat="43.943748346622854" lon="5.555878299529812"><ele>744.3333333333333</ele><time>2026-04-26T13:50:48.999Z</time></trkpt><trkpt lat="43.943791631002185" lon="5.555991688402914"><ele>743.6666666666666</ele><time>2026-04-26T13:50:49.999Z</time></trkpt><trkpt lat="43.94383743027357" lon="5.556103598904767"><ele>743.0</ele><time>2026-04-26T13:50:50.999Z</time></trkpt><trkpt lat="43.943887650363024" lon="5.55622962145637"><ele>743.0</ele><time>2026-04-26T13:50:51.999Z</time></trkpt><trkpt lat="43.94393026125562" lon="5.55637179986631"><ele>743.0</ele><time>2026-04-26T13:50:52.999Z</time></trkpt><trkpt lat="43.94396405521718" lon="5.55650889802868"><ele>743.0</ele><time>2026-04-26T13:50:53.999Z</time></trkpt><trkpt lat="43.943998611701865" lon="5.556649919419036"><ele>743.0</ele><time>2026-04-26T13:50:54.999Z</time></trkpt><trkpt lat="43.94403025997549" lon="5.556739165230154"><ele>743.0</ele><time>2026-04-26T13:50:55.999Z</time></trkpt><trkpt lat="43.944071908254266" lon="5.556810229650956"><ele>743.0</ele><time>2026-04-26T13:50:56.999Z</time></trkpt><trkpt lat="43.94412614911894" lon="5.556879240769783"><ele>743.0</ele><time>2026-04-26T13:50:57.999Z</time></trkpt><trkpt lat="43.94419924027215" lon="5.556950329203197"><ele>743.0</ele><time>2026-04-26T13:50:58.999Z</time></trkpt><trkpt lat="43.94429175158199" lon="5.557019030397391"><ele>743.0</ele><time>2026-04-26T13:50:59.999Z</time></trkpt><trkpt lat="43.944413615850486" lon="5.557112295693746"><ele>743.0</ele><time>2026-04-26T13:51:00.999Z</time></trkpt><trkpt lat="43.944530617470434" lon="5.557213898443071"><ele>742.8</ele><time>2026-04-26T13:51:01.999Z</time></trkpt><trkpt lat="43.94461060049204" lon="5.557291789103496"><ele>742.5999999999999</ele><time>2026-04-26T13:51:02.999Z</time></trkpt><trkpt lat="43.94466551179685" lon="5.557355470624771"><ele>742.4000000000001</ele><time>2026-04-26T13:51:03.999Z</time></trkpt><trkpt lat="43.94471004500222" lon="5.55748618562385"><ele>742.2</ele><time>2026-04-26T13:51:06Z</time></trkpt><trkpt lat="43.9447080217309" lon="5.55761458496193"><ele>742.0</ele><time>2026-04-26T13:51:07Z</time></trkpt><trkpt lat="43.94472975564406" lon="5.557773763231083"><ele>741.0</ele><time>2026-04-26T13:51:08Z</time></trkpt><trkpt lat="43.94476440636403" lon="5.557916223840768"><ele>740.0</ele><time>2026-04-26T13:51:09Z</time></trkpt><trkpt lat="43.944821783997" lon="5.558023612457991"><ele>739.0</ele><time>2026-04-26T13:51:10Z</time></trkpt><trkpt lat="43.944868965274466" lon="5.558116959327838"><ele>738.0</ele><time>2026-04-26T13:51:11Z</time></trkpt><trkpt lat="43.94490356021953" lon="5.55827827314105"><ele>737.0</ele><time>2026-04-26T13:51:13Z</time></trkpt><trkpt lat="43.944934163283605" lon="5.5584217747427695"><ele>737.0000000000001</ele><time>2026-04-26T13:51:15Z</time></trkpt><trkpt lat="43.94497190684232" lon="5.558494367922853"><ele>737.0</ele><time>2026-04-26T13:51:16Z</time></trkpt><trkpt lat="43.94500847895153" lon="5.558568986620643"><ele>737.0</ele><time>2026-04-26T13:51:17Z</time></trkpt><trkpt lat="43.94505482844762" lon="5.5586478927959355"><ele>737.0</ele><time>2026-04-26T13:51:18Z</time></trkpt><trkpt lat="43.94511568953399" lon="5.558748023698101"><ele>737.0</ele><time>2026-04-26T13:51:19Z</time></trkpt><trkpt lat="43.94514599608916" lon="5.558828012493193"><ele>737.0000000000001</ele><time>2026-04-26T13:51:20Z</time></trkpt><trkpt lat="43.945152833448944" lon="5.5589177660821605"><ele>737.0</ele><time>2026-04-26T13:51:21Z</time></trkpt><trkpt lat="43.9451513535699" lon="5.559033306880473"><ele>735.0</ele><time>2026-04-26T13:51:22Z</time></trkpt><trkpt lat="43.94515868180677" lon="5.559134437885953"><ele>733.0</ele><time>2026-04-26T13:51:23Z</time></trkpt><trkpt lat="43.94517029340135" lon="5.5592922688790765"><ele>731.0</ele><time>2026-04-26T13:51:25Z</time></trkpt><trkpt lat="43.94518807623636" lon="5.559380722310641"><ele>729.0</ele><time>2026-04-26T13:51:26Z</time></trkpt><trkpt lat="43.9452318620792" lon="5.55944522486537"><ele>727.0</ele><time>2026-04-26T13:51:27Z</time></trkpt><trkpt lat="43.94531042602527" lon="5.559521067612155"><ele>725.0</ele><time>2026-04-26T13:51:28Z</time></trkpt><trkpt lat="43.9453844408166" lon="5.559597073031034"><ele>723.5</ele><time>2026-04-26T13:51:29Z</time></trkpt><trkpt lat="43.94545374908201" lon="5.5596660883318005"><ele>722.0</ele><time>2026-04-26T13:51:30Z</time></trkpt><trkpt lat="43.94551277152973" lon="5.559749623187873"><ele>720.5</ele><time>2026-04-26T13:51:31Z</time></trkpt><trkpt lat="43.9455614334314" lon="5.559805865010263"><ele>719.0</ele><time>2026-04-26T13:51:32Z</time></trkpt><trkpt lat="43.945610390002955" lon="5.559869155645032"><ele>717.5</ele><time>2026-04-26T13:51:33Z</time></trkpt><trkpt lat="43.94566310504417" lon="5.559957079489305"><ele>716.0</ele><time>2026-04-26T13:51:34Z</time></trkpt><trkpt lat="43.945711440983864" lon="5.560050391166293"><ele>716.0</ele><time>2026-04-26T13:51:35Z</time></trkpt><trkpt lat="43.945755062784684" lon="5.5601481019417776"><ele>716.0</ele><time>2026-04-26T13:51:36Z</time></trkpt><trkpt lat="43.945818212004205" lon="5.5602871487622565"><ele>716.0</ele><time>2026-04-26T13:51:38Z</time></trkpt><trkpt lat="43.94589558693033" lon="5.560390655226671"><ele>716.0</ele><time>2026-04-26T13:51:40Z</time></trkpt><trkpt lat="43.946021113964385" lon="5.560359221587362"><ele>716.0</ele><time>2026-04-26T13:51:42Z</time></trkpt><trkpt lat="43.946147084402355" lon="5.560307535000136"><ele>715.0</ele><time>2026-04-26T13:51:44Z</time></trkpt><trkpt lat="43.94622582098838" lon="5.560347863795599"><ele>714.0</ele><time>2026-04-26T13:51:45Z</time></trkpt><trkpt lat="43.94629372975866" lon="5.560415609754293"><ele>713.0</ele><time>2026-04-26T13:51:46Z</time></trkpt><trkpt lat="43.94635304379812" lon="5.560481632527238"><ele>712.0</ele><time>2026-04-26T13:51:47Z</time></trkpt><trkpt lat="43.94641657868336" lon="5.560559339599416"><ele>711.0</ele><time>2026-04-26T13:51:48Z</time></trkpt><trkpt lat="43.94647553435839" lon="5.560638407379359"><ele>710.0</ele><time>2026-04-26T13:51:49Z</time></trkpt><trkpt lat="43.9465410595866" lon="5.560709871925659"><ele>709.1666666666666</ele><time>2026-04-26T13:51:50Z</time></trkpt><trkpt lat="43.94661066563406" lon="5.560755446616914"><ele>708.3333333333333</ele><time>2026-04-26T13:51:51Z</time></trkpt><trkpt lat="43.94668237874369" lon="5.560778461660891"><ele>707.5</ele><time>2026-04-26T13:51:52Z</time></trkpt><trkpt lat="43.946757404759026" lon="5.560793910673917"><ele>706.6666666666666</ele><time>2026-04-26T13:51:53Z</time></trkpt><trkpt lat="43.94680218906767" lon="5.560859673891455"><ele>705.8333333333334</ele><time>2026-04-26T13:51:54Z</time></trkpt><trkpt lat="43.946835529737065" lon="5.561030838054944"><ele>705.0</ele><time>2026-04-26T13:51:56Z</time></trkpt><trkpt lat="43.94683828284646" lon="5.561147061830489"><ele>704.0</ele><time>2026-04-26T13:51:57Z</time></trkpt><trkpt lat="43.946844507627134" lon="5.5612868022917175"><ele>703.0</ele><time>2026-04-26T13:51:58Z</time></trkpt><trkpt lat="43.946869991239446" lon="5.561467063208122"><ele>702.0</ele><time>2026-04-26T13:51:59Z</time></trkpt><trkpt lat="43.94687870405812" lon="5.561611941389557"><ele>701.0</ele><time>2026-04-26T13:52:00Z</time></trkpt><trkpt lat="43.94685346555372" lon="5.561730524344249"><ele>700.0</ele><time>2026-04-26T13:52:01Z</time></trkpt><trkpt lat="43.94683106668866" lon="5.561865826030653"><ele>700.0</ele><time>2026-04-26T13:52:01.999Z</time></trkpt><trkpt lat="43.946794928669945" lon="5.562016940987243"><ele>700.0</ele><time>2026-04-26T13:52:02.999Z</time></trkpt><trkpt lat="43.946755368107" lon="5.562185232871955"><ele>700.0</ele><time>2026-04-26T13:52:03.999Z</time></trkpt><trkpt lat="43.94674639467084" lon="5.562350079444852"><ele>700.0</ele><time>2026-04-26T13:52:04.999Z</time></trkpt><trkpt lat="43.94675794894491" lon="5.56251216990377"><ele>699.3333333333334</ele><time>2026-04-26T13:52:05.999Z</time></trkpt><trkpt lat="43.946769558356955" lon="5.562641802760131"><ele>698.6666666666667</ele><time>2026-04-26T13:52:06.999Z</time></trkpt><trkpt lat="43.94677686441739" lon="5.562744475332819"><ele>698.0</ele><time>2026-04-26T13:52:07.999Z</time></trkpt><trkpt lat="43.94679057749157" lon="5.562837937079544"><ele>697.3333333333334</ele><time>2026-04-26T13:52:08.999Z</time></trkpt><trkpt lat="43.94680733771692" lon="5.562931696210485"><ele>696.6666666666666</ele><time>2026-04-26T13:52:09.999Z</time></trkpt><trkpt lat="43.94683872772415" lon="5.56303196227477"><ele>696.0</ele><time>2026-04-26T13:52:10.999Z</time></trkpt><trkpt lat="43.94688380002081" lon="5.563135264530771"><ele>696.0</ele><time>2026-04-26T13:52:11.999Z</time></trkpt><trkpt lat="43.94692234409685" lon="5.563265851971473"><ele>696.0</ele><time>2026-04-26T13:52:12.999Z</time></trkpt><trkpt lat="43.94696349307187" lon="5.563396514995719"><ele>696.0</ele><time>2026-04-26T13:52:13.999Z</time></trkpt><trkpt lat="43.94698992280939" lon="5.56348576080346"><ele>696.0</ele><time>2026-04-26T13:52:14.999Z</time></trkpt><trkpt lat="43.94702314430622" lon="5.5635772053375305"><ele>696.0</ele><time>2026-04-26T13:52:15.999Z</time></trkpt><trkpt lat="43.94703574921058" lon="5.563679232028167"><ele>696.0</ele><time>2026-04-26T13:52:16.999Z</time></trkpt><trkpt lat="43.94702370095906" lon="5.563860017976082"><ele>695.1999999999999</ele><time>2026-04-26T13:52:18.999Z</time></trkpt><trkpt lat="43.94697742010968" lon="5.564036473435788"><ele>694.4</ele><time>2026-04-26T13:52:20.999Z</time></trkpt><trkpt lat="43.946943675600416" lon="5.564132905464155"><ele>693.6</ele><time>2026-04-26T13:52:22.999Z</time></trkpt><trkpt lat="43.946935823902514" lon="5.564262132589156"><ele>692.8</ele><time>2026-04-26T13:52:24.999Z</time></trkpt><trkpt lat="43.94696208501016" lon="5.564444029844701"><ele>692.0</ele><time>2026-04-26T13:52:26.999Z</time></trkpt><trkpt lat="43.94700483249847" lon="5.564546760200237"><ele>690.6</ele><time>2026-04-26T13:52:27.999Z</time></trkpt><trkpt lat="43.947038864440636" lon="5.564652004155577"><ele>689.2</ele><time>2026-04-26T13:52:28.999Z</time></trkpt><trkpt lat="43.94707781661949" lon="5.564783312194439"><ele>687.8</ele><time>2026-04-26T13:52:29.999Z</time></trkpt><trkpt lat="43.94711008846938" lon="5.564916265414701"><ele>686.4</ele><time>2026-04-26T13:52:30.999Z</time></trkpt><trkpt lat="43.947157917236986" lon="5.565067773229721"><ele>685.0</ele><time>2026-04-26T13:52:31.999Z</time></trkpt><trkpt lat="43.9471988519851" lon="5.565216117370742"><ele>685.0</ele><time>2026-04-26T13:52:32.999Z</time></trkpt><trkpt lat="43.94722047128388" lon="5.565361804867091"><ele>685.0</ele><time>2026-04-26T13:52:33.999Z</time></trkpt><trkpt lat="43.947239226019214" lon="5.565460808797995"><ele>685.0</ele><time>2026-04-26T13:52:34.999Z</time></trkpt><trkpt lat="43.94729378594393" lon="5.565582807994374"><ele>685.0</ele><time>2026-04-26T13:52:36.999Z</time></trkpt><trkpt lat="43.947323215473766" lon="5.565699333694112"><ele>685.0</ele><time>2026-04-26T13:52:39.999Z</time></trkpt><trkpt lat="43.94735800337973" lon="5.565807669874388"><ele>684.8333333333334</ele><time>2026-04-26T13:52:41.999Z</time></trkpt><trkpt lat="43.94739921261709" lon="5.565930282722474"><ele>684.6666666666667</ele><time>2026-04-26T13:52:43.999Z</time></trkpt><trkpt lat="43.94740109963761" lon="5.566061128395555"><ele>684.5</ele><time>2026-04-26T13:52:46.999Z</time></trkpt><trkpt lat="43.94735830532795" lon="5.566134326563223"><ele>684.3333333333334</ele><time>2026-04-26T13:53:00.999Z</time></trkpt><trkpt lat="43.94728443788761" lon="5.566152850045866"><ele>684.1666666666666</ele><time>2026-04-26T13:53:03.999Z</time></trkpt><trkpt lat="43.947197029610955" lon="5.566160362208349"><ele>684.0</ele><time>2026-04-26T13:53:05.999Z</time></trkpt><trkpt lat="43.947081926033" lon="5.56617873741728"><ele>684.1666666666666</ele><time>2026-04-26T13:53:07.999Z</time></trkpt><trkpt lat="43.94696474799478" lon="5.566202221508304"><ele>684.3333333333334</ele><time>2026-04-26T13:53:09.999Z</time></trkpt><trkpt lat="43.94689620119779" lon="5.566221419707164"><ele>684.5</ele><time>2026-04-26T13:53:11Z</time></trkpt><trkpt lat="43.946820740960085" lon="5.566231214335916"><ele>684.6666666666667</ele><time>2026-04-26T13:53:12Z</time></trkpt><trkpt lat="43.94674316724974" lon="5.566249158591901"><ele>684.8333333333334</ele><time>2026-04-26T13:53:13Z</time></trkpt><trkpt lat="43.946662507657614" lon="5.566268466842012"><ele>685.0</ele><time>2026-04-26T13:53:14Z</time></trkpt><trkpt lat="43.94658287747322" lon="5.56628537432088"><ele>684.5</ele><time>2026-04-26T13:53:15Z</time></trkpt><trkpt lat="43.94650171290411" lon="5.566313408348848"><ele>684.0</ele><time>2026-04-26T13:53:16Z</time></trkpt><trkpt lat="43.94642710066346" lon="5.566319318022771"><ele>683.5</ele><time>2026-04-26T13:53:17Z</time></trkpt><trkpt lat="43.94634774009147" lon="5.566337029329705"><ele>683.0</ele><time>2026-04-26T13:53:18Z</time></trkpt><trkpt lat="43.94626652006221" lon="5.5663484573961926"><ele>682.5</ele><time>2026-04-26T13:53:19Z</time></trkpt><trkpt lat="43.94618183435371" lon="5.56635870689852"><ele>682.0</ele><time>2026-04-26T13:53:20Z</time></trkpt><trkpt lat="43.94610062587917" lon="5.566361319314333"><ele>682.0</ele><time>2026-04-26T13:53:21Z</time></trkpt><trkpt lat="43.946015093705114" lon="5.5663654837245895"><ele>682.0</ele><time>2026-04-26T13:53:22Z</time></trkpt><trkpt lat="43.94593147655167" lon="5.5663488108286"><ele>682.0</ele><time>2026-04-26T13:53:23Z</time></trkpt><trkpt lat="43.9458472239818" lon="5.566330313862025"><ele>682.0</ele><time>2026-04-26T13:53:24Z</time></trkpt><trkpt lat="43.94576474696633" lon="5.566299804031032"><ele>682.0</ele><time>2026-04-26T13:53:25Z</time></trkpt><trkpt lat="43.945681113142236" lon="5.566280553201868"><ele>682.0</ele><time>2026-04-26T13:53:26Z</time></trkpt><trkpt lat="43.94560308971792" lon="5.566247028692769"><ele>681.8333333333334</ele><time>2026-04-26T13:53:27Z</time></trkpt><trkpt lat="43.945518851425796" lon="5.566223280647841"><ele>681.6666666666667</ele><time>2026-04-26T13:53:28Z</time></trkpt><trkpt lat="43.94543681247444" lon="5.566199712737869"><ele>681.5</ele><time>2026-04-26T13:53:29Z</time></trkpt><trkpt lat="43.94535514876846" lon="5.566171343225367"><ele>681.3333333333334</ele><time>2026-04-26T13:53:30Z</time></trkpt><trkpt lat="43.94527305962875" lon="5.566132227313726"><ele>681.1666666666666</ele><time>2026-04-26T13:53:31Z</time></trkpt><trkpt lat="43.94518345214838" lon="5.566107906291581"><ele>681.0</ele><time>2026-04-26T13:53:32Z</time></trkpt><trkpt lat="43.94510601151803" lon="5.566102609667838"><ele>680.8333333333334</ele><time>2026-04-26T13:53:33Z</time></trkpt><trkpt lat="43.94502190166499" lon="5.566063771661788"><ele>680.6666666666666</ele><time>2026-04-26T13:53:34Z</time></trkpt><trkpt lat="43.94493364168633" lon="5.566035501366075"><ele>680.5</ele><time>2026-04-26T13:53:35Z</time></trkpt><trkpt lat="43.94484968320212" lon="5.566014507482759"><ele>680.3333333333333</ele><time>2026-04-26T13:53:36Z</time></trkpt><trkpt lat="43.94476393217131" lon="5.5659892752590965"><ele>680.1666666666666</ele><time>2026-04-26T13:53:37Z</time></trkpt><trkpt lat="43.94468105654267" lon="5.5659623425323"><ele>680.0</ele><time>2026-04-26T13:53:38Z</time></trkpt><trkpt lat="43.9445939422298" lon="5.565932311261744"><ele>680.0</ele><time>2026-04-26T13:53:39Z</time></trkpt><trkpt lat="43.94450773914704" lon="5.565903196882556"><ele>680.0</ele><time>2026-04-26T13:53:40Z</time></trkpt><trkpt lat="43.944424565016575" lon="5.565864445968613"><ele>680.0</ele><time>2026-04-26T13:53:41Z</time></trkpt><trkpt lat="43.944345280697924" lon="5.56582267869403"><ele>680.0</ele><time>2026-04-26T13:53:42Z</time></trkpt><trkpt lat="43.9442739454171" lon="5.565727079980499"><ele>680.0</ele><time>2026-04-26T13:53:43Z</time></trkpt><trkpt lat="43.944204181912696" lon="5.565660116743084"><ele>680.0</ele><time>2026-04-26T13:53:44Z</time></trkpt><trkpt lat="43.94414131693227" lon="5.5655659560307935"><ele>680.3333333333333</ele><time>2026-04-26T13:53:45Z</time></trkpt><trkpt lat="43.94408063445778" lon="5.565471373690375"><ele>680.6666666666666</ele><time>2026-04-26T13:53:46Z</time></trkpt><trkpt lat="43.94402318971242" lon="5.565375788281653"><ele>681.0</ele><time>2026-04-26T13:53:47Z</time></trkpt><trkpt lat="43.943958730266125" lon="5.5652885501395355"><ele>681.3333333333334</ele><time>2026-04-26T13:53:48Z</time></trkpt><trkpt lat="43.94390261070113" lon="5.565193554893536"><ele>681.6666666666667</ele><time>2026-04-26T13:53:49Z</time></trkpt><trkpt lat="43.94385817204949" lon="5.5650872611923425"><ele>682.0</ele><time>2026-04-26T13:53:50Z</time></trkpt><trkpt lat="43.943807428968846" lon="5.564986506681915"><ele>682.0</ele><time>2026-04-26T13:53:51Z</time></trkpt><trkpt lat="43.94376362791729" lon="5.564878188217679"><ele>682.0</ele><time>2026-04-26T13:53:52Z</time></trkpt><trkpt lat="43.94372268008547" lon="5.564766778938053"><ele>682.0</ele><time>2026-04-26T13:53:53Z</time></trkpt><trkpt lat="43.94368177485414" lon="5.564655601524126"><ele>682.0</ele><time>2026-04-26T13:53:54Z</time></trkpt><trkpt lat="43.94364011107915" lon="5.564545884965189"><ele>682.0</ele><time>2026-04-26T13:53:55Z</time></trkpt><trkpt lat="43.94357978423837" lon="5.564461932163869"><ele>682.0</ele><time>2026-04-26T13:53:56Z</time></trkpt><trkpt lat="43.94349173443334" lon="5.564401091123196"><ele>682.8</ele><time>2026-04-26T13:53:57Z</time></trkpt><trkpt lat="43.943394132909965" lon="5.564371397665"><ele>683.6</ele><time>2026-04-26T13:53:58Z</time></trkpt><trkpt lat="43.94329902370579" lon="5.564370192264197"><ele>684.4</ele><time>2026-04-26T13:53:59Z</time></trkpt><trkpt lat="43.94320310749989" lon="5.564392276008333"><ele>685.1999999999999</ele><time>2026-04-26T13:54:00Z</time></trkpt><trkpt lat="43.943112842498884" lon="5.5644026763885845"><ele>686.0</ele><time>2026-04-26T13:54:01Z</time></trkpt><trkpt lat="43.943017613684034" lon="5.564406691173094"><ele>684.1999999999999</ele><time>2026-04-26T13:54:02Z</time></trkpt><trkpt lat="43.94291694882647" lon="5.564411117409841"><ele>682.4</ele><time>2026-04-26T13:54:03Z</time></trkpt><trkpt lat="43.94282527486344" lon="5.564411033503084"><ele>680.6</ele><time>2026-04-26T13:54:04Z</time></trkpt><trkpt lat="43.94273474001081" lon="5.564412769226973"><ele>678.8</ele><time>2026-04-26T13:54:05Z</time></trkpt><trkpt lat="43.94264133282618" lon="5.564416173033643"><ele>677.0</ele><time>2026-04-26T13:54:06Z</time></trkpt><trkpt lat="43.94254537539188" lon="5.564416664172534"><ele>676.2</ele><time>2026-04-26T13:54:07Z</time></trkpt><trkpt lat="43.94245120540934" lon="5.564417092910661"><ele>675.4000000000001</ele><time>2026-04-26T13:54:07.999Z</time></trkpt><trkpt lat="43.94235491337199" lon="5.564420587102207"><ele>674.5999999999999</ele><time>2026-04-26T13:54:08.999Z</time></trkpt><trkpt lat="43.94225731750479" lon="5.564413740566404"><ele>673.8</ele><time>2026-04-26T13:54:09.999Z</time></trkpt><trkpt lat="43.94216399270175" lon="5.564393097755498"><ele>673.0</ele><time>2026-04-26T13:54:10.999Z</time></trkpt><trkpt lat="43.94207444914895" lon="5.564359198306209"><ele>673.0</ele><time>2026-04-26T13:54:11.999Z</time></trkpt><trkpt lat="43.94198620588934" lon="5.564312296163767"><ele>673.0</ele><time>2026-04-26T13:54:12.999Z</time></trkpt><trkpt lat="43.94190520884854" lon="5.564240022804933"><ele>673.0</ele><time>2026-04-26T13:54:13.999Z</time></trkpt><trkpt lat="43.94183183495783" lon="5.564152087819526"><ele>673.0</ele><time>2026-04-26T13:54:14.999Z</time></trkpt><trkpt lat="43.94176301726813" lon="5.564065121189231"><ele>673.0</ele><time>2026-04-26T13:54:15.999Z</time></trkpt><trkpt lat="43.941700965756425" lon="5.563975266860511"><ele>672.2</ele><time>2026-04-26T13:54:16.999Z</time></trkpt><trkpt lat="43.94163263661449" lon="5.563881668009866"><ele>671.4</ele><time>2026-04-26T13:54:17.999Z</time></trkpt><trkpt lat="43.941578864195314" lon="5.563783321390102"><ele>670.6</ele><time>2026-04-26T13:54:18.999Z</time></trkpt><trkpt lat="43.94152350734827" lon="5.563681589887408"><ele>669.8000000000001</ele><time>2026-04-26T13:54:19.999Z</time></trkpt><trkpt lat="43.94146974489172" lon="5.563574734789584"><ele>669.0</ele><time>2026-04-26T13:54:20.999Z</time></trkpt><trkpt lat="43.941421618912685" lon="5.563463685614598"><ele>669.0</ele><time>2026-04-26T13:54:21.999Z</time></trkpt><trkpt lat="43.941376450972115" lon="5.563341082365655"><ele>669.0</ele><time>2026-04-26T13:54:22.999Z</time></trkpt><trkpt lat="43.94133136881398" lon="5.563212356738635"><ele>669.0</ele><time>2026-04-26T13:54:23.999Z</time></trkpt><trkpt lat="43.941289403230456" lon="5.563084761300759"><ele>669.0</ele><time>2026-04-26T13:54:24.999Z</time></trkpt><trkpt lat="43.94124970672615" lon="5.562961623743643"><ele>669.0</ele><time>2026-04-26T13:54:25.999Z</time></trkpt><trkpt lat="43.94121016505379" lon="5.562836952874126"><ele>670.2</ele><time>2026-04-26T13:54:26.999Z</time></trkpt><trkpt lat="43.941167000056666" lon="5.562720301536529"><ele>671.4000000000001</ele><time>2026-04-26T13:54:27.999Z</time></trkpt><trkpt lat="43.941124378374965" lon="5.562601941471263"><ele>672.6</ele><time>2026-04-26T13:54:28.999Z</time></trkpt><trkpt lat="43.94108451444088" lon="5.562488257777268"><ele>673.8</ele><time>2026-04-26T13:54:29.999Z</time></trkpt><trkpt lat="43.941046478254265" lon="5.562374163633087"><ele>675.0</ele><time>2026-04-26T13:54:30.999Z</time></trkpt><trkpt lat="43.94101326544107" lon="5.562259025083743"><ele>675.0</ele><time>2026-04-26T13:54:31.999Z</time></trkpt><trkpt lat="43.94097840661592" lon="5.562143938084209"><ele>675.0</ele><time>2026-04-26T13:54:32.999Z</time></trkpt><trkpt lat="43.940939515884125" lon="5.562031677892278"><ele>675.0</ele><time>2026-04-26T13:54:33.999Z</time></trkpt><trkpt lat="43.94089715044186" lon="5.561920274808231"><ele>675.0</ele><time>2026-04-26T13:54:34.999Z</time></trkpt><trkpt lat="43.94085595454806" lon="5.561809340605648"><ele>675.0</ele><time>2026-04-26T13:54:35.999Z</time></trkpt><trkpt lat="43.94081529321357" lon="5.561701054920439"><ele>675.0</ele><time>2026-04-26T13:54:36.999Z</time></trkpt><trkpt lat="43.94077875973242" lon="5.56158863839237"><ele>673.4</ele><time>2026-04-26T13:54:37.999Z</time></trkpt><trkpt lat="43.94073683159106" lon="5.561475661457176"><ele>671.8</ele><time>2026-04-26T13:54:38.999Z</time></trkpt><trkpt lat="43.94068753006058" lon="5.561368360546924"><ele>670.2</ele><time>2026-04-26T13:54:39.999Z</time></trkpt><trkpt lat="43.94063373162915" lon="5.561263202315783"><ele>668.6</ele><time>2026-04-26T13:54:40.999Z</time></trkpt><trkpt lat="43.94057970673857" lon="5.561159185115829"><ele>667.0</ele><time>2026-04-26T13:54:41.999Z</time></trkpt><trkpt lat="43.94052120184992" lon="5.5610539664067815"><ele>667.0</ele><time>2026-04-26T13:54:42.999Z</time></trkpt><trkpt lat="43.94045336492322" lon="5.560956680117482"><ele>667.0</ele><time>2026-04-26T13:54:43.999Z</time></trkpt><trkpt lat="43.940382460443644" lon="5.5608616846897805"><ele>667.0</ele><time>2026-04-26T13:54:44.999Z</time></trkpt><trkpt lat="43.94030745373197" lon="5.560771468320527"><ele>667.0</ele><time>2026-04-26T13:54:45.999Z</time></trkpt><trkpt lat="43.94023162507287" lon="5.560679541943368"><ele>667.0</ele><time>2026-04-26T13:54:46.999Z</time></trkpt><trkpt lat="43.940156400417614" lon="5.560590362206824"><ele>667.0</ele><time>2026-04-26T13:54:47.999Z</time></trkpt><trkpt lat="43.94008178898482" lon="5.560504163221821"><ele>667.0</ele><time>2026-04-26T13:54:48.999Z</time></trkpt><trkpt lat="43.94000652399832" lon="5.56041836492823"><ele>667.0</ele><time>2026-04-26T13:54:49.999Z</time></trkpt><trkpt lat="43.9399288691996" lon="5.56033996624718"><ele>667.0</ele><time>2026-04-26T13:54:50.999Z</time></trkpt><trkpt lat="43.93985830558757" lon="5.560251905696823"><ele>667.0</ele><time>2026-04-26T13:54:51.999Z</time></trkpt><trkpt lat="43.93978788841301" lon="5.56016017718555"><ele>665.6</ele><time>2026-04-26T13:54:52.999Z</time></trkpt><trkpt lat="43.93971545315393" lon="5.560070730768774"><ele>664.2</ele><time>2026-04-26T13:54:53.999Z</time></trkpt><trkpt lat="43.939642569331376" lon="5.559984845791986"><ele>662.8</ele><time>2026-04-26T13:54:54.999Z</time></trkpt><trkpt lat="43.939567144290315" lon="5.559901916758523"><ele>661.4</ele><time>2026-04-26T13:54:55.999Z</time></trkpt><trkpt lat="43.93949299386283" lon="5.559817931938411"><ele>660.0</ele><time>2026-04-26T13:54:56.999Z</time></trkpt><trkpt lat="43.93942198995076" lon="5.559729289191949"><ele>660.0</ele><time>2026-04-26T13:54:57.999Z</time></trkpt><trkpt lat="43.939342713674115" lon="5.559647159381629"><ele>660.0</ele><time>2026-04-26T13:54:58.999Z</time></trkpt><trkpt lat="43.939261531411475" lon="5.559564251096764"><ele>660.0</ele><time>2026-04-26T13:54:59.999Z</time></trkpt><trkpt lat="43.93917955524987" lon="5.559485654420207"><ele>660.0</ele><time>2026-04-26T13:55:00.999Z</time></trkpt><trkpt lat="43.93909350728812" lon="5.559416728368259"><ele>660.0</ele><time>2026-04-26T13:55:01.999Z</time></trkpt><trkpt lat="43.939010035028424" lon="5.559352361113492"><ele>659.4</ele><time>2026-04-26T13:55:02.999Z</time></trkpt><trkpt lat="43.938921070623486" lon="5.559304781235985"><ele>658.8</ele><time>2026-04-26T13:55:03.999Z</time></trkpt><trkpt lat="43.938835229371044" lon="5.559255653674827"><ele>658.2</ele><time>2026-04-26T13:55:04.999Z</time></trkpt><trkpt lat="43.938747036793536" lon="5.55920200123026"><ele>657.6</ele><time>2026-04-26T13:55:05.999Z</time></trkpt><trkpt lat="43.93865522071969" lon="5.559153689032155"><ele>657.0</ele><time>2026-04-26T13:55:06.999Z</time></trkpt><trkpt lat="43.93856498708795" lon="5.559102528422347"><ele>657.0</ele><time>2026-04-26T13:55:07.999Z</time></trkpt><trkpt lat="43.93847593775063" lon="5.559044251898296"><ele>657.0</ele><time>2026-04-26T13:55:08.999Z</time></trkpt><trkpt lat="43.9383864991091" lon="5.558982194159766"><ele>657.0</ele><time>2026-04-26T13:55:09.999Z</time></trkpt><trkpt lat="43.938302501771076" lon="5.558911896943196"><ele>657.0</ele><time>2026-04-26T13:55:10.999Z</time></trkpt><trkpt lat="43.93821364358028" lon="5.558834666436522"><ele>657.0</ele><time>2026-04-26T13:55:11.999Z</time></trkpt><trkpt lat="43.93812992769207" lon="5.5587470913533314"><ele>657.8</ele><time>2026-04-26T13:55:12.999Z</time></trkpt><trkpt lat="43.93804865334875" lon="5.5586565697044525"><ele>658.6</ele><time>2026-04-26T13:55:13.999Z</time></trkpt><trkpt lat="43.93796950993606" lon="5.558565959487385"><ele>659.4</ele><time>2026-04-26T13:55:14.999Z</time></trkpt><trkpt lat="43.93788903512124" lon="5.558479703096756"><ele>660.1999999999999</ele><time>2026-04-26T13:55:15.999Z</time></trkpt><trkpt lat="43.937806234686114" lon="5.558394123005123"><ele>661.0</ele><time>2026-04-26T13:55:17Z</time></trkpt><trkpt lat="43.93772603898323" lon="5.558306033063076"><ele>661.0</ele><time>2026-04-26T13:55:18Z</time></trkpt><trkpt lat="43.937644852400744" lon="5.5582170975995435"><ele>661.0</ele><time>2026-04-26T13:55:19Z</time></trkpt><trkpt lat="43.93756283036974" lon="5.558131916023841"><ele>661.0</ele><time>2026-04-26T13:55:20Z</time></trkpt><trkpt lat="43.93747355050867" lon="5.558051382162874"><ele>661.0</ele><time>2026-04-26T13:55:21Z</time></trkpt><trkpt lat="43.93738236451127" lon="5.557977151572604"><ele>661.0</ele><time>2026-04-26T13:55:22Z</time></trkpt><trkpt lat="43.937286721632354" lon="5.5579126346737375"><ele>661.8</ele><time>2026-04-26T13:55:23Z</time></trkpt><trkpt lat="43.93719127540038" lon="5.557843616679625"><ele>662.5999999999999</ele><time>2026-04-26T13:55:24Z</time></trkpt><trkpt lat="43.93709260983429" lon="5.557785133595001"><ele>663.4</ele><time>2026-04-26T13:55:25Z</time></trkpt><trkpt lat="43.93699007099034" lon="5.557731337275056"><ele>664.2</ele><time>2026-04-26T13:55:26Z</time></trkpt><trkpt lat="43.93688562271822" lon="5.557680026809086"><ele>665.0</ele><time>2026-04-26T13:55:27Z</time></trkpt><trkpt lat="43.93678254774024" lon="5.5576278971338535"><ele>662.4</ele><time>2026-04-26T13:55:28Z</time></trkpt><trkpt lat="43.936678397633635" lon="5.557576497093088"><ele>659.8</ele><time>2026-04-26T13:55:29Z</time></trkpt><trkpt lat="43.936578765704525" lon="5.557520950733814"><ele>657.2</ele><time>2026-04-26T13:55:30Z</time></trkpt><trkpt lat="43.93647589350504" lon="5.557467947272894"><ele>654.6</ele><time>2026-04-26T13:55:31Z</time></trkpt><trkpt lat="43.93636991294241" lon="5.557418607079028"><ele>652.0</ele><time>2026-04-26T13:55:32Z</time></trkpt><trkpt lat="43.93626167129304" lon="5.557369417894974"><ele>652.0</ele><time>2026-04-26T13:55:33Z</time></trkpt><trkpt lat="43.93615369608612" lon="5.557314545519328"><ele>652.0</ele><time>2026-04-26T13:55:34Z</time></trkpt><trkpt lat="43.936047237283816" lon="5.557259496074648"><ele>652.0</ele><time>2026-04-26T13:55:35Z</time></trkpt><trkpt lat="43.93594022179442" lon="5.557203475932558"><ele>652.0</ele><time>2026-04-26T13:55:36Z</time></trkpt><trkpt lat="43.93583753910886" lon="5.557154851868646"><ele>649.0</ele><time>2026-04-26T13:55:37Z</time></trkpt><trkpt lat="43.935733668503524" lon="5.557113519134989"><ele>646.0</ele><time>2026-04-26T13:55:38Z</time></trkpt><trkpt lat="43.935628891749204" lon="5.557091801926574"><ele>643.0</ele><time>2026-04-26T13:55:39Z</time></trkpt><trkpt lat="43.93552151337433" lon="5.557091070597736"><ele>640.0</ele><time>2026-04-26T13:55:40Z</time></trkpt><trkpt lat="43.93541399684069" lon="5.557119114399163"><ele>637.0</ele><time>2026-04-26T13:55:41Z</time></trkpt><trkpt lat="43.9353080968841" lon="5.557148369803681"><ele>637.0</ele><time>2026-04-26T13:55:42Z</time></trkpt><trkpt lat="43.9352029278063" lon="5.557182570896576"><ele>637.0</ele><time>2026-04-26T13:55:43Z</time></trkpt><trkpt lat="43.93509709524604" lon="5.557220434694383"><ele>637.0</ele><time>2026-04-26T13:55:44Z</time></trkpt><trkpt lat="43.93498465411745" lon="5.557240463366089"><ele>637.0</ele><time>2026-04-26T13:55:45Z</time></trkpt><trkpt lat="43.9348698820514" lon="5.557241299216334"><ele>637.0</ele><time>2026-04-26T13:55:46Z</time></trkpt><trkpt lat="43.93475633857854" lon="5.557227107737135"><ele>636.2</ele><time>2026-04-26T13:55:47Z</time></trkpt><trkpt lat="43.93464850367336" lon="5.557193242193081"><ele>635.4000000000001</ele><time>2026-04-26T13:55:48Z</time></trkpt><trkpt lat="43.9345442170815" lon="5.55715928081729"><ele>634.5999999999999</ele><time>2026-04-26T13:55:49Z</time></trkpt><trkpt lat="43.9344395363335" lon="5.557124350296367"><ele>633.8</ele><time>2026-04-26T13:55:50Z</time></trkpt><trkpt lat="43.93434772415224" lon="5.557095790989671"><ele>633.0</ele><time>2026-04-26T13:55:51Z</time></trkpt><trkpt lat="43.93427543969805" lon="5.557074501308479"><ele>631.5</ele><time>2026-04-26T13:55:52Z</time></trkpt><trkpt lat="43.93417818289262" lon="5.557045275902153"><ele>630.0</ele><time>2026-04-26T13:55:54Z</time></trkpt><trkpt lat="43.93408483722472" lon="5.55699996474122"><ele>628.5</ele><time>2026-04-26T13:55:56Z</time></trkpt><trkpt lat="43.93402263205155" lon="5.556980522127344"><ele>627.0</ele><time>2026-04-26T13:55:57Z</time></trkpt><trkpt lat="43.93394668220092" lon="5.556956900039085"><ele>625.5</ele><time>2026-04-26T13:55:58Z</time></trkpt><trkpt lat="43.93386669146247" lon="5.556933429542076"><ele>624.0</ele><time>2026-04-26T13:55:59Z</time></trkpt><trkpt lat="43.93378616390008" lon="5.556903577144923"><ele>625.6</ele><time>2026-04-26T13:56:00Z</time></trkpt><trkpt lat="43.93370528816508" lon="5.556866454931946"><ele>627.2</ele><time>2026-04-26T13:56:01Z</time></trkpt><trkpt lat="43.933621459870835" lon="5.556824732971477"><ele>628.8000000000001</ele><time>2026-04-26T13:56:02Z</time></trkpt><trkpt lat="43.93353727588339" lon="5.5567757875963215"><ele>630.4</ele><time>2026-04-26T13:56:03Z</time></trkpt><trkpt lat="43.93344994976119" lon="5.5567325158223095"><ele>632.0</ele><time>2026-04-26T13:56:04Z</time></trkpt><trkpt lat="43.933366007805" lon="5.556678497152249"><ele>632.0</ele><time>2026-04-26T13:56:05Z</time></trkpt><trkpt lat="43.93327838867495" lon="5.556628591836259"><ele>632.0</ele><time>2026-04-26T13:56:06Z</time></trkpt><trkpt lat="43.933187989293494" lon="5.556576990791563"><ele>632.0</ele><time>2026-04-26T13:56:07Z</time></trkpt><trkpt lat="43.933093796865336" lon="5.55652154992752"><ele>632.0</ele><time>2026-04-26T13:56:08Z</time></trkpt><trkpt lat="43.932999335694824" lon="5.556467489542391"><ele>632.0</ele><time>2026-04-26T13:56:09Z</time></trkpt><trkpt lat="43.932910348124736" lon="5.556406479325236"><ele>632.0</ele><time>2026-04-26T13:56:10Z</time></trkpt><trkpt lat="43.9328162056766" lon="5.5563515396137"><ele>632.0</ele><time>2026-04-26T13:56:11Z</time></trkpt><trkpt lat="43.932720465551064" lon="5.556296267098874"><ele>632.0</ele><time>2026-04-26T13:56:11.999Z</time></trkpt><trkpt lat="43.932622154469755" lon="5.556239439997077"><ele>632.0</ele><time>2026-04-26T13:56:12.999Z</time></trkpt><trkpt lat="43.93252266625357" lon="5.556187154612441"><ele>632.0</ele><time>2026-04-26T13:56:13.999Z</time></trkpt><trkpt lat="43.93242680729806" lon="5.556142192868634"><ele>634.4000000000001</ele><time>2026-04-26T13:56:14.999Z</time></trkpt><trkpt lat="43.9323237502022" lon="5.556133236504947"><ele>636.8000000000001</ele><time>2026-04-26T13:56:15.999Z</time></trkpt><trkpt lat="43.93221625067761" lon="5.556141883794069"><ele>639.2</ele><time>2026-04-26T13:56:16.999Z</time></trkpt><trkpt lat="43.932110158850975" lon="5.556157345422565"><ele>641.6</ele><time>2026-04-26T13:56:17.999Z</time></trkpt><trkpt lat="43.93200222201557" lon="5.5561748296829645"><ele>644.0</ele><time>2026-04-26T13:56:18.999Z</time></trkpt><trkpt lat="43.93189182262318" lon="5.55619091992444"><ele>644.0</ele><time>2026-04-26T13:56:19.999Z</time></trkpt><trkpt lat="43.93178310514267" lon="5.556186622995111"><ele>644.0</ele><time>2026-04-26T13:56:20.999Z</time></trkpt><trkpt lat="43.93167810043264" lon="5.556152795833598"><ele>644.0</ele><time>2026-04-26T13:56:21.999Z</time></trkpt><trkpt lat="43.93158812779588" lon="5.55606591261944"><ele>644.0</ele><time>2026-04-26T13:56:22.999Z</time></trkpt><trkpt lat="43.93149259471533" lon="5.556005129991218"><ele>644.0</ele><time>2026-04-26T13:56:23.999Z</time></trkpt><trkpt lat="43.93140730354127" lon="5.555915236794232"><ele>642.0</ele><time>2026-04-26T13:56:24.999Z</time></trkpt><trkpt lat="43.93131228162836" lon="5.555844639605271"><ele>640.0</ele><time>2026-04-26T13:56:25.999Z</time></trkpt><trkpt lat="43.93121207363044" lon="5.555792322252157"><ele>638.0</ele><time>2026-04-26T13:56:26.999Z</time></trkpt><trkpt lat="43.93111030455316" lon="5.555738217871135"><ele>636.0</ele><time>2026-04-26T13:56:27.999Z</time></trkpt><trkpt lat="43.931004809373405" lon="5.555698938050104"><ele>634.0</ele><time>2026-04-26T13:56:28.999Z</time></trkpt><trkpt lat="43.93089881956946" lon="5.555667703483615"><ele>632.2</ele><time>2026-04-26T13:56:29.999Z</time></trkpt><trkpt lat="43.930792151597" lon="5.555630147498124"><ele>630.4</ele><time>2026-04-26T13:56:30.999Z</time></trkpt><trkpt lat="43.930689078256485" lon="5.555589300609404"><ele>628.6</ele><time>2026-04-26T13:56:31.999Z</time></trkpt><trkpt lat="43.930587715358726" lon="5.555545997590092"><ele>626.8</ele><time>2026-04-26T13:56:32.999Z</time></trkpt><trkpt lat="43.930490367181456" lon="5.555501345437034"><ele>625.0</ele><time>2026-04-26T13:56:33.999Z</time></trkpt><trkpt lat="43.9303893257447" lon="5.555451169928056"><ele>625.0</ele><time>2026-04-26T13:56:34.999Z</time></trkpt><trkpt lat="43.93029148766411" lon="5.555396898033798"><ele>625.0</ele><time>2026-04-26T13:56:35.999Z</time></trkpt><trkpt lat="43.93019329836891" lon="5.555339108453381"><ele>625.0</ele><time>2026-04-26T13:56:36.999Z</time></trkpt><trkpt lat="43.93009450803813" lon="5.555280413684109"><ele>625.0</ele><time>2026-04-26T13:56:37.999Z</time></trkpt><trkpt lat="43.92999675631537" lon="5.555213722832971"><ele>625.0</ele><time>2026-04-26T13:56:38.999Z</time></trkpt><trkpt lat="43.929893018760126" lon="5.555156533353046"><ele>625.8</ele><time>2026-04-26T13:56:39.999Z</time></trkpt><trkpt lat="43.92979187288543" lon="5.555100174272743"><ele>626.6</ele><time>2026-04-26T13:56:40.999Z</time></trkpt><trkpt lat="43.929695028373835" lon="5.555045056371688"><ele>627.4</ele><time>2026-04-26T13:56:41.999Z</time></trkpt><trkpt lat="43.929597962219475" lon="5.554989820363801"><ele>628.2</ele><time>2026-04-26T13:56:42.999Z</time></trkpt><trkpt lat="43.929502995287244" lon="5.554930792274338"><ele>629.0</ele><time>2026-04-26T13:56:43.999Z</time></trkpt><trkpt lat="43.92940828387838" lon="5.554878350600014"><ele>629.0</ele><time>2026-04-26T13:56:44.999Z</time></trkpt><trkpt lat="43.929312389474426" lon="5.554830238203741"><ele>629.0</ele><time>2026-04-26T13:56:45.999Z</time></trkpt><trkpt lat="43.92921204909106" lon="5.5547883021923505"><ele>629.0</ele><time>2026-04-26T13:56:46.999Z</time></trkpt><trkpt lat="43.9291083808127" lon="5.554743733561303"><ele>629.0</ele><time>2026-04-26T13:56:47.999Z</time></trkpt><trkpt lat="43.9290029526909" lon="5.554703902703881"><ele>629.0</ele><time>2026-04-26T13:56:48.999Z</time></trkpt><trkpt lat="43.92889630095944" lon="5.554670478371509"><ele>626.4</ele><time>2026-04-26T13:56:49.999Z</time></trkpt><trkpt lat="43.92878696657239" lon="5.554639720216427"><ele>623.8</ele><time>2026-04-26T13:56:50.999Z</time></trkpt><trkpt lat="43.9286848717826" lon="5.5546142298514365"><ele>621.2</ele><time>2026-04-26T13:56:51.999Z</time></trkpt><trkpt lat="43.928580066751685" lon="5.554589625128315"><ele>618.6</ele><time>2026-04-26T13:56:52.999Z</time></trkpt><trkpt lat="43.92846957477088" lon="5.554564640588422"><ele>616.0</ele><time>2026-04-26T13:56:53.999Z</time></trkpt><trkpt lat="43.92836058468753" lon="5.554534491217061"><ele>615.75</ele><time>2026-04-26T13:56:54.999Z</time></trkpt><trkpt lat="43.928251212661905" lon="5.554509471090476"><ele>615.5</ele><time>2026-04-26T13:56:55.999Z</time></trkpt><trkpt lat="43.9281340803877" lon="5.554485297238535"><ele>615.25</ele><time>2026-04-26T13:56:56.999Z</time></trkpt><trkpt lat="43.92801337413785" lon="5.554454543038197"><ele>615.0</ele><time>2026-04-26T13:56:57.999Z</time></trkpt><trkpt lat="43.92790438427584" lon="5.55441405955096"><ele>615.0</ele><time>2026-04-26T13:56:58.999Z</time></trkpt><trkpt lat="43.92779790742562" lon="5.554363069534223"><ele>615.0</ele><time>2026-04-26T13:56:59.999Z</time></trkpt><trkpt lat="43.92769312182929" lon="5.554306387754322"><ele>615.0</ele><time>2026-04-26T13:57:00.999Z</time></trkpt><trkpt lat="43.9275913399787" lon="5.554240683369322"><ele>615.0</ele><time>2026-04-26T13:57:01.999Z</time></trkpt><trkpt lat="43.92749223398789" lon="5.554164857783016"><ele>613.2</ele><time>2026-04-26T13:57:02.999Z</time></trkpt><trkpt lat="43.927395634473534" lon="5.554085960788194"><ele>611.4</ele><time>2026-04-26T13:57:03.999Z</time></trkpt><trkpt lat="43.927300761670196" lon="5.554002993540368"><ele>609.6</ele><time>2026-04-26T13:57:04.999Z</time></trkpt><trkpt lat="43.92720851757659" lon="5.553913555477531"><ele>607.8</ele><time>2026-04-26T13:57:05.999Z</time></trkpt><trkpt lat="43.92712789490363" lon="5.553825570190132"><ele>606.0</ele><time>2026-04-26T13:57:06.999Z</time></trkpt><trkpt lat="43.92705966893836" lon="5.553748937512987"><ele>606.6666666666666</ele><time>2026-04-26T13:57:07.999Z</time></trkpt><trkpt lat="43.927002635216944" lon="5.55369129262617"><ele>607.3333333333334</ele><time>2026-04-26T13:57:08.999Z</time></trkpt><trkpt lat="43.926953823490685" lon="5.553631333635971"><ele>608.0</ele><time>2026-04-26T13:57:09.999Z</time></trkpt><trkpt lat="43.92691003171814" lon="5.553562279477096"><ele>608.6666666666667</ele><time>2026-04-26T13:57:10.999Z</time></trkpt><trkpt lat="43.92687083755992" lon="5.553465818508264"><ele>609.3333333333334</ele><time>2026-04-26T13:57:12.999Z</time></trkpt><trkpt lat="43.9267591803096" lon="5.553466991136394"><ele>610.0</ele><time>2026-04-26T13:57:13.999Z</time></trkpt><trkpt lat="43.92668656243674" lon="5.553423045092577"><ele>608.5</ele><time>2026-04-26T13:57:16.999Z</time></trkpt><trkpt lat="43.92662615074014" lon="5.553382812756158"><ele>607.0</ele><time>2026-04-26T13:57:18.999Z</time></trkpt><trkpt lat="43.926540165278155" lon="5.553326058611656"><ele>605.5</ele><time>2026-04-26T13:57:21.999Z</time></trkpt><trkpt lat="43.926477797870795" lon="5.553287051315952"><ele>604.0</ele><time>2026-04-26T13:57:24Z</time></trkpt><trkpt lat="43.926411955725044" lon="5.553245870699745"><ele>602.5</ele><time>2026-04-26T13:57:27Z</time></trkpt><trkpt lat="43.92635431811703" lon="5.553209821548345"><ele>601.0</ele><time>2026-04-26T13:57:31Z</time></trkpt><trkpt lat="43.92627426254336" lon="5.553497945873825"><ele>601.0</ele><time>2026-04-26T13:57:40Z</time></trkpt><trkpt lat="43.92627704725662" lon="5.553392360060106"><ele>601.0</ele><time>2026-04-26T13:57:45Z</time></trkpt><trkpt lat="43.92634743931494" lon="5.55340704497375"><ele>601.0</ele><time>2026-04-26T13:57:48Z</time></trkpt><trkpt lat="43.92640064468201" lon="5.553348904090278"><ele>601.0</ele><time>2026-04-26T13:57:51Z</time></trkpt><trkpt lat="43.926342712032245" lon="5.553258786977805"><ele>601.0</ele><time>2026-04-26T13:57:53Z</time></trkpt><trkpt lat="43.92626845785391" lon="5.553187357080827"><ele>601.0</ele><time>2026-04-26T13:57:55Z</time></trkpt><trkpt lat="43.92616363466798" lon="5.553104041096508"><ele>601.0</ele><time>2026-04-26T13:57:57Z</time></trkpt><trkpt lat="43.92610635583983" lon="5.553067677715126"><ele>601.0</ele><time>2026-04-26T13:57:58Z</time></trkpt><trkpt lat="43.92598940507946" lon="5.552991632235221"><ele>601.0</ele><time>2026-04-26T13:58:00Z</time></trkpt><trkpt lat="43.925928602451094" lon="5.552953909834484"><ele>601.0</ele><time>2026-04-26T13:58:01Z</time></trkpt><trkpt lat="43.92586416505677" lon="5.552916002398399"><ele>601.0</ele><time>2026-04-26T13:58:02Z</time></trkpt><trkpt lat="43.925802311484226" lon="5.55287965426129"><ele>601.0</ele><time>2026-04-26T13:58:03Z</time></trkpt><trkpt lat="43.925739911763195" lon="5.552846260545555"><ele>600.7142857142857</ele><time>2026-04-26T13:58:04Z</time></trkpt><trkpt lat="43.92566985028663" lon="5.552835521672775"><ele>600.4285714285714</ele><time>2026-04-26T13:58:05Z</time></trkpt><trkpt lat="43.925600169840386" lon="5.552837214220835"><ele>600.1428571428571</ele><time>2026-04-26T13:58:06Z</time></trkpt><trkpt lat="43.92553369678388" lon="5.5528641243153825"><ele>599.8571428571429</ele><time>2026-04-26T13:58:07Z</time></trkpt><trkpt lat="43.925463902742514" lon="5.55287694456737"><ele>599.5714285714286</ele><time>2026-04-26T13:58:08Z</time></trkpt><trkpt lat="43.92538913418777" lon="5.552875535318167"><ele>599.2857142857143</ele><time>2026-04-26T13:58:09Z</time></trkpt><trkpt lat="43.92532511776176" lon="5.552902011986658"><ele>599.0</ele><time>2026-04-26T13:58:10Z</time></trkpt><trkpt lat="43.92525341408305" lon="5.552908863134188"><ele>599.0</ele><time>2026-04-26T13:58:11Z</time></trkpt><trkpt lat="43.92518199100698" lon="5.55291411428626"><ele>599.0</ele><time>2026-04-26T13:58:12Z</time></trkpt><trkpt lat="43.92507729935838" lon="5.552898564427368"><ele>599.0</ele><time>2026-04-26T13:58:14Z</time></trkpt><trkpt lat="43.924966969324124" lon="5.552913751873871"><ele>599.0</ele><time>2026-04-26T13:58:16Z</time></trkpt><trkpt lat="43.924843742589125" lon="5.552888288036168"><ele>599.0</ele><time>2026-04-26T13:58:17.999Z</time></trkpt><trkpt lat="43.924730432538695" lon="5.55282311932889"><ele>602.1428571428571</ele><time>2026-04-26T13:58:19.999Z</time></trkpt><trkpt lat="43.92466689019251" lon="5.55279000514683"><ele>605.2857142857142</ele><time>2026-04-26T13:58:20.999Z</time></trkpt><trkpt lat="43.924603427219004" lon="5.5527724758596975"><ele>608.4285714285713</ele><time>2026-04-26T13:58:21.999Z</time></trkpt><trkpt lat="43.924537316981926" lon="5.552729791184307"><ele>611.5714285714286</ele><time>2026-04-26T13:58:22.999Z</time></trkpt><trkpt lat="43.92446434209252" lon="5.552689549004316"><ele>614.7142857142857</ele><time>2026-04-26T13:58:23.999Z</time></trkpt><trkpt lat="43.92439841529111" lon="5.552648422340966"><ele>617.8571428571428</ele><time>2026-04-26T13:58:24.999Z</time></trkpt><trkpt lat="43.92434135297676" lon="5.552595964900563"><ele>621.0</ele><time>2026-04-26T13:58:25.999Z</time></trkpt><trkpt lat="43.92428784808747" lon="5.552534702893626"><ele>619.8333333333334</ele><time>2026-04-26T13:58:26.999Z</time></trkpt><trkpt lat="43.92419792361672" lon="5.552425582342441"><ele>618.6666666666666</ele><time>2026-04-26T13:58:28.999Z</time></trkpt><trkpt lat="43.92409994219909" lon="5.552310298025337"><ele>617.5</ele><time>2026-04-26T13:58:30.999Z</time></trkpt><trkpt lat="43.924049012671425" lon="5.552257904296285"><ele>616.3333333333333</ele><time>2026-04-26T13:58:31.999Z</time></trkpt><trkpt lat="43.92399014289882" lon="5.552203013144706"><ele>615.1666666666666</ele><time>2026-04-26T13:58:32.999Z</time></trkpt><trkpt lat="43.923948555932945" lon="5.5521310575774265"><ele>614.0</ele><time>2026-04-26T13:58:33.999Z</time></trkpt><trkpt lat="43.92385206378599" lon="5.5520569523971135"><ele>612.75</ele><time>2026-04-26T13:58:35.999Z</time></trkpt><trkpt lat="43.92374479701082" lon="5.551998784611265"><ele>611.5</ele><time>2026-04-26T13:58:37.999Z</time></trkpt><trkpt lat="43.92367626442766" lon="5.551990278038199"><ele>610.25</ele><time>2026-04-26T13:58:39.999Z</time></trkpt><trkpt lat="43.92358607115" lon="5.5519389131427905"><ele>609.0</ele><time>2026-04-26T13:58:41.999Z</time></trkpt><trkpt lat="43.923597077458936" lon="5.551473377203438"><ele>609.0</ele><time>2026-04-26T13:58:43.999Z</time></trkpt><trkpt lat="43.923521703426886" lon="5.5514148355547945"><ele>609.0</ele><time>2026-04-26T13:58:45.999Z</time></trkpt><trkpt lat="43.92344760553171" lon="5.551449045171173"><ele>609.0</ele><time>2026-04-26T13:58:47.999Z</time></trkpt><trkpt lat="43.923425272889055" lon="5.551588144923442"><ele>609.0</ele><time>2026-04-26T13:58:49.999Z</time></trkpt><trkpt lat="43.92332691727391" lon="5.5516304106211525"><ele>609.0</ele><time>2026-04-26T13:58:51.999Z</time></trkpt><trkpt lat="43.92322530604765" lon="5.551544467581439"><ele>609.3333333333334</ele><time>2026-04-26T13:58:53.999Z</time></trkpt><trkpt lat="43.923182840446565" lon="5.551468901828547"><ele>609.6666666666666</ele><time>2026-04-26T13:58:54.999Z</time></trkpt><trkpt lat="43.92314716400954" lon="5.551392469383571"><ele>610.0</ele><time>2026-04-26T13:58:55.999Z</time></trkpt><trkpt lat="43.92309089967255" lon="5.551287791049803"><ele>610.3333333333333</ele><time>2026-04-26T13:58:58.999Z</time></trkpt><trkpt lat="43.92298335228701" lon="5.551255578361828"><ele>610.6666666666666</ele><time>2026-04-26T13:59:01.999Z</time></trkpt><trkpt lat="43.92288678005035" lon="5.551244440520139"><ele>611.0</ele><time>2026-04-26T13:59:03.999Z</time></trkpt><trkpt lat="43.922803730097115" lon="5.551242203987969"><ele>611.0</ele><time>2026-04-26T13:59:05.999Z</time></trkpt><trkpt lat="43.922728564751516" lon="5.551237693787528"><ele>611.0</ele><time>2026-04-26T13:59:08.999Z</time></trkpt><trkpt lat="43.922660283742935" lon="5.5512461888406035"><ele>611.0</ele><time>2026-04-26T13:59:10.999Z</time></trkpt><trkpt lat="43.922589198097604" lon="5.551267865772084"><ele>611.0</ele><time>2026-04-26T13:59:12.999Z</time></trkpt><trkpt lat="43.92252140209513" lon="5.551332025700263"><ele>611.0</ele><time>2026-04-26T13:59:14.999Z</time></trkpt><trkpt lat="43.92244284924226" lon="5.551412163493323"><ele>611.0</ele><time>2026-04-26T13:59:16.999Z</time></trkpt><trkpt lat="43.9223682097872" lon="5.551474308773531"><ele>612.8333333333333</ele><time>2026-04-26T13:59:18.999Z</time></trkpt><trkpt lat="43.92231318941475" lon="5.551581785779959"><ele>614.6666666666666</ele><time>2026-04-26T13:59:21.999Z</time></trkpt><trkpt lat="43.92226103143055" lon="5.55163155573557"><ele>616.5</ele><time>2026-04-26T13:59:23.999Z</time></trkpt><trkpt lat="43.922196934272726" lon="5.551663104738176"><ele>618.3333333333334</ele><time>2026-04-26T13:59:25.999Z</time></trkpt><trkpt lat="43.92212214619851" lon="5.551702738892885"><ele>620.1666666666667</ele><time>2026-04-26T13:59:27.999Z</time></trkpt><trkpt lat="43.922047509402645" lon="5.551673070318345"><ele>622.0</ele><time>2026-04-26T13:59:30Z</time></trkpt><trkpt lat="43.921948487367786" lon="5.551700302311441"><ele>622.0</ele><time>2026-04-26T13:59:34Z</time></trkpt><trkpt lat="43.92185553144504" lon="5.551656622202594"><ele>622.0</ele><time>2026-04-26T13:59:36Z</time></trkpt><trkpt lat="43.921765315824125" lon="5.551609347472493"><ele>622.0</ele><time>2026-04-26T13:59:38Z</time></trkpt><trkpt lat="43.921691799769754" lon="5.5515569706981225"><ele>622.0</ele><time>2026-04-26T13:59:40Z</time></trkpt><trkpt lat="43.92160124621281" lon="5.55150140816899"><ele>622.0</ele><time>2026-04-26T13:59:42Z</time></trkpt><trkpt lat="43.921501759074566" lon="5.55143972050606"><ele>623.6</ele><time>2026-04-26T13:59:44Z</time></trkpt><trkpt lat="43.9213992956019" lon="5.5513952154524855"><ele>625.2</ele><time>2026-04-26T13:59:46Z</time></trkpt><trkpt lat="43.92128524705476" lon="5.5513681178301"><ele>626.8</ele><time>2026-04-26T13:59:48Z</time></trkpt><trkpt lat="43.921163600530974" lon="5.551353955309978"><ele>628.4</ele><time>2026-04-26T13:59:50Z</time></trkpt><trkpt lat="43.9211002073588" lon="5.551370435801443"><ele>630.0</ele><time>2026-04-26T13:59:51Z</time></trkpt><trkpt lat="43.92099095305046" lon="5.551330119385285"><ele>630.0</ele><time>2026-04-26T13:59:53Z</time></trkpt><trkpt lat="43.92092101920861" lon="5.551296861450448"><ele>630.0</ele><time>2026-04-26T13:59:55Z</time></trkpt><trkpt lat="43.92085691576374" lon="5.551270307693268"><ele>630.0</ele><time>2026-04-26T13:59:56Z</time></trkpt><trkpt lat="43.92076741967458" lon="5.551202652314743"><ele>630.0</ele><time>2026-04-26T13:59:58Z</time></trkpt><trkpt lat="43.92070008368622" lon="5.551158341300365"><ele>630.0</ele><time>2026-04-26T13:59:59Z</time></trkpt><trkpt lat="43.92059313250855" lon="5.551090221945455"><ele>630.0</ele><time>2026-04-26T14:00:01Z</time></trkpt><trkpt lat="43.920475574019534" lon="5.551018914767241"><ele>628.75</ele><time>2026-04-26T14:00:02Z</time></trkpt><trkpt lat="43.92037974295198" lon="5.550962291823914"><ele>627.5</ele><time>2026-04-26T14:00:03Z</time></trkpt><trkpt lat="43.920256513272975" lon="5.55089357408934"><ele>626.25</ele><time>2026-04-26T14:00:04Z</time></trkpt><trkpt lat="43.92015527113191" lon="5.550838330464041"><ele>625.0</ele><time>2026-04-26T14:00:05Z</time></trkpt><trkpt lat="43.92005184835692" lon="5.550783498377737"><ele>627.6</ele><time>2026-04-26T14:00:06Z</time></trkpt><trkpt lat="43.91994700581133" lon="5.550734554844505"><ele>630.2</ele><time>2026-04-26T14:00:07Z</time></trkpt><trkpt lat="43.91985711426556" lon="5.550697432408521"><ele>632.8</ele><time>2026-04-26T14:00:08Z</time></trkpt><trkpt lat="43.91978155420562" lon="5.550658117431709"><ele>635.4</ele><time>2026-04-26T14:00:09Z</time></trkpt><trkpt lat="43.919694645403084" lon="5.550603234125703"><ele>638.0</ele><time>2026-04-26T14:00:10Z</time></trkpt><trkpt lat="43.919613027765116" lon="5.550542394312999"><ele>638.0</ele><time>2026-04-26T14:00:11Z</time></trkpt><trkpt lat="43.91954500241419" lon="5.550490891358249"><ele>638.0</ele><time>2026-04-26T14:00:12Z</time></trkpt><trkpt lat="43.91948194790837" lon="5.550442991852931"><ele>638.0</ele><time>2026-04-26T14:00:13Z</time></trkpt><trkpt lat="43.919404383653955" lon="5.5503875209081786"><ele>638.0</ele><time>2026-04-26T14:00:14Z</time></trkpt><trkpt lat="43.919342980589825" lon="5.550347611157791"><ele>638.0</ele><time>2026-04-26T14:00:15Z</time></trkpt><trkpt lat="43.91926844736542" lon="5.550300377023664"><ele>638.0</ele><time>2026-04-26T14:00:16Z</time></trkpt><trkpt lat="43.91919649030363" lon="5.550256964691524"><ele>637.6666666666666</ele><time>2026-04-26T14:00:17Z</time></trkpt><trkpt lat="43.91912768368172" lon="5.550215453063221"><ele>637.3333333333333</ele><time>2026-04-26T14:00:18Z</time></trkpt><trkpt lat="43.919057820449694" lon="5.550173303827"><ele>637.0</ele><time>2026-04-26T14:00:19Z</time></trkpt><trkpt lat="43.91897389581153" lon="5.550117749748"><ele>636.6666666666666</ele><time>2026-04-26T14:00:20.999Z</time></trkpt><trkpt lat="43.91891765186736" lon="5.550073871810576"><ele>636.3333333333334</ele><time>2026-04-26T14:00:22.999Z</time></trkpt><trkpt lat="43.9188625679942" lon="5.550021406954214"><ele>636.0</ele><time>2026-04-26T14:00:23.999Z</time></trkpt><trkpt lat="43.91879704489954" lon="5.549940888772715"><ele>636.0</ele><time>2026-04-26T14:00:25.999Z</time></trkpt><trkpt lat="43.91873455692374" lon="5.549861286742986"><ele>636.0</ele><time>2026-04-26T14:00:27.999Z</time></trkpt><trkpt lat="43.918688566150884" lon="5.549792054476768"><ele>636.0</ele><time>2026-04-26T14:00:29.999Z</time></trkpt><trkpt lat="43.918607826804724" lon="5.5496909276403805"><ele>636.0</ele><time>2026-04-26T14:00:32.999Z</time></trkpt><trkpt lat="43.918076427763275" lon="5.550200143241401"><ele>640.0</ele><time>2026-04-26T14:00:34.999Z</time></trkpt><trkpt lat="43.91800387549704" lon="5.550169573299999"><ele>644.0</ele><time>2026-04-26T14:00:36.999Z</time></trkpt><trkpt lat="43.91791898682674" lon="5.55013575636998"><ele>648.0</ele><time>2026-04-26T14:00:38.999Z</time></trkpt><trkpt lat="43.91780990780499" lon="5.550156683365214"><ele>652.0</ele><time>2026-04-26T14:00:41.999Z</time></trkpt><trkpt lat="43.91771906057893" lon="5.550147255048487"><ele>656.0</ele><time>2026-04-26T14:00:43.999Z</time></trkpt><trkpt lat="43.9176297572674" lon="5.550136466743501"><ele>655.5999999999999</ele><time>2026-04-26T14:00:45.999Z</time></trkpt><trkpt lat="43.91750687769693" lon="5.550101930905347"><ele>655.2</ele><time>2026-04-26T14:00:47.999Z</time></trkpt><trkpt lat="43.91741953908389" lon="5.550095192872508"><ele>654.8</ele><time>2026-04-26T14:00:49.999Z</time></trkpt><trkpt lat="43.91731852098214" lon="5.550057585048339"><ele>654.4000000000001</ele><time>2026-04-26T14:00:51.999Z</time></trkpt><trkpt lat="43.917250531301605" lon="5.5500472005408685"><ele>654.0</ele><time>2026-04-26T14:00:52.999Z</time></trkpt><trkpt lat="43.91718763674477" lon="5.550026220530441"><ele>654.0</ele><time>2026-04-26T14:00:53.999Z</time></trkpt><trkpt lat="43.91709959171755" lon="5.550000970876337"><ele>654.0</ele><time>2026-04-26T14:00:55.999Z</time></trkpt><trkpt lat="43.91700440498255" lon="5.549928143957549"><ele>654.0</ele><time>2026-04-26T14:00:57.999Z</time></trkpt><trkpt lat="43.91687810142074" lon="5.549908571087152"><ele>654.0</ele><time>2026-04-26T14:00:59.999Z</time></trkpt><trkpt lat="43.91680187899364" lon="5.549895799268019"><ele>654.0</ele><time>2026-04-26T14:01:01.999Z</time></trkpt><trkpt lat="43.91673519892369" lon="5.549867493271944"><ele>653.5</ele><time>2026-04-26T14:01:03.999Z</time></trkpt><trkpt lat="43.91667066911475" lon="5.5498255197275"><ele>653.0</ele><time>2026-04-26T14:01:05.999Z</time></trkpt><trkpt lat="43.91666326450819" lon="5.549709679672045"><ele>652.5</ele><time>2026-04-26T14:01:08.999Z</time></trkpt><trkpt lat="43.916646057411" lon="5.549596943611936"><ele>652.0</ele><time>2026-04-26T14:01:10.999Z</time></trkpt><trkpt lat="43.91660743366159" lon="5.549445686042457"><ele>651.5</ele><time>2026-04-26T14:01:12.999Z</time></trkpt><trkpt lat="43.91657400988014" lon="5.549339122613752"><ele>651.0</ele><time>2026-04-26T14:01:13.999Z</time></trkpt><trkpt lat="43.91652472926392" lon="5.549217445180967"><ele>651.0</ele><time>2026-04-26T14:01:14.999Z</time></trkpt><trkpt lat="43.916489374179825" lon="5.549094392716012"><ele>651.0</ele><time>2026-04-26T14:01:15.999Z</time></trkpt><trkpt lat="43.916445567341455" lon="5.54898804250781"><ele>651.0</ele><time>2026-04-26T14:01:16.999Z</time></trkpt><trkpt lat="43.91640359667917" lon="5.548871646764036"><ele>651.0</ele><time>2026-04-26T14:01:17.999Z</time></trkpt><trkpt lat="43.916381916235274" lon="5.548749824773849"><ele>651.0</ele><time>2026-04-26T14:01:18.999Z</time></trkpt><trkpt lat="43.91638066290643" lon="5.548642116723577"><ele>651.0</ele><time>2026-04-26T14:01:19.999Z</time></trkpt><trkpt lat="43.91637977710742" lon="5.548530193231836"><ele>652.0</ele><time>2026-04-26T14:01:20.999Z</time></trkpt><trkpt lat="43.916376356844104" lon="5.548422535286134"><ele>653.0</ele><time>2026-04-26T14:01:21.999Z</time></trkpt><trkpt lat="43.916348867688306" lon="5.54831170516641"><ele>654.0</ele><time>2026-04-26T14:01:22.999Z</time></trkpt><trkpt lat="43.916323706227345" lon="5.5481958726808855"><ele>655.0</ele><time>2026-04-26T14:01:23.999Z</time></trkpt><trkpt lat="43.91624593050752" lon="5.548052918982699"><ele>656.0</ele><time>2026-04-26T14:01:24.999Z</time></trkpt><trkpt lat="43.91620986498914" lon="5.5478994256505345"><ele>655.8</ele><time>2026-04-26T14:01:25.999Z</time></trkpt><trkpt lat="43.916147100669484" lon="5.54785511845868"><ele>655.5999999999999</ele><time>2026-04-26T14:01:26.999Z</time></trkpt><trkpt lat="43.91611098681592" lon="5.547772257553088"><ele>655.4</ele><time>2026-04-26T14:01:28.999Z</time></trkpt><trkpt lat="43.91592573016008" lon="5.547866006417277"><ele>655.2</ele><time>2026-04-26T14:01:40Z</time></trkpt><trkpt lat="43.91584401474555" lon="5.547964883106354"><ele>655.0</ele><time>2026-04-26T14:01:42Z</time></trkpt><trkpt lat="43.91577106150741" lon="5.548066175144105"><ele>653.8</ele><time>2026-04-26T14:01:44Z</time></trkpt><trkpt lat="43.91572329163603" lon="5.548132902776886"><ele>652.6</ele><time>2026-04-26T14:01:45Z</time></trkpt><trkpt lat="43.915674497455626" lon="5.548201044171265"><ele>651.4000000000001</ele><time>2026-04-26T14:01:46Z</time></trkpt><trkpt lat="43.91561382205599" lon="5.548272320724572"><ele>650.2</ele><time>2026-04-26T14:01:47Z</time></trkpt><trkpt lat="43.91546520466908" lon="5.548510219347262"><ele>649.0</ele><time>2026-04-26T14:01:48Z</time></trkpt><trkpt lat="43.91527860916392" lon="5.548618377001069"><ele>649.0</ele><time>2026-04-26T14:01:49Z</time></trkpt><trkpt lat="43.91511582782646" lon="5.548645136607265"><ele>649.0</ele><time>2026-04-26T14:01:50Z</time></trkpt><trkpt lat="43.915020285717" lon="5.548635837801596"><ele>649.0</ele><time>2026-04-26T14:01:51Z</time></trkpt><trkpt lat="43.91495018370309" lon="5.548627185073159"><ele>649.0</ele><time>2026-04-26T14:01:52Z</time></trkpt><trkpt lat="43.91482729126363" lon="5.54861031846066"><ele>649.5</ele><time>2026-04-26T14:01:54Z</time></trkpt><trkpt lat="43.91474491455828" lon="5.548599012516486"><ele>650.0</ele><time>2026-04-26T14:01:55Z</time></trkpt><trkpt lat="43.9146280715756" lon="5.548582976220698"><ele>650.5</ele><time>2026-04-26T14:01:56Z</time></trkpt><trkpt lat="43.91449881144541" lon="5.548565235639993"><ele>651.0</ele><time>2026-04-26T14:01:57Z</time></trkpt><trkpt lat="43.914378187231286" lon="5.548551693379484"><ele>651.0</ele><time>2026-04-26T14:01:58Z</time></trkpt><trkpt lat="43.91424738305587" lon="5.548536824207331"><ele>651.0</ele><time>2026-04-26T14:01:59Z</time></trkpt><trkpt lat="43.91410708292749" lon="5.548518886166684"><ele>651.0</ele><time>2026-04-26T14:02:00Z</time></trkpt><trkpt lat="43.913947077939945" lon="5.548497645632385"><ele>651.0</ele><time>2026-04-26T14:02:01Z</time></trkpt><trkpt lat="43.91376077138105" lon="5.5484751653205"><ele>651.5</ele><time>2026-04-26T14:02:02Z</time></trkpt><trkpt lat="43.91361513639988" lon="5.548466507582807"><ele>652.0</ele><time>2026-04-26T14:02:03Z</time></trkpt><trkpt lat="43.91343635206666" lon="5.548510261311833"><ele>652.5</ele><time>2026-04-26T14:02:05Z</time></trkpt><trkpt lat="43.91334437631154" lon="5.548545727873669"><ele>653.0</ele><time>2026-04-26T14:02:06Z</time></trkpt><trkpt lat="43.91325689514001" lon="5.548580097572054"><ele>654.2</ele><time>2026-04-26T14:02:07Z</time></trkpt><trkpt lat="43.913199475949995" lon="5.548618545601388"><ele>655.4</ele><time>2026-04-26T14:02:08Z</time></trkpt><trkpt lat="43.91313136633746" lon="5.548667313558989"><ele>656.6</ele><time>2026-04-26T14:02:09Z</time></trkpt><trkpt lat="43.913072439570065" lon="5.548717042680331"><ele>657.8000000000001</ele><time>2026-04-26T14:02:10Z</time></trkpt><trkpt lat="43.91295487216608" lon="5.548736399661607"><ele>659.0</ele><time>2026-04-26T14:02:12Z</time></trkpt><trkpt lat="43.912826750757766" lon="5.548777884457352"><ele>667.0</ele><time>2026-04-26T14:02:14Z</time></trkpt><trkpt lat="43.91238446158136" lon="5.54800348105402"><ele>667.0</ele><time>2026-04-26T14:02:15Z</time></trkpt><trkpt lat="43.912308810068474" lon="5.547995921196855"><ele>667.0</ele><time>2026-04-26T14:02:16Z</time></trkpt><trkpt lat="43.91222918429869" lon="5.5479501958648845"><ele>667.0</ele><time>2026-04-26T14:02:17Z</time></trkpt><trkpt lat="43.912154402276876" lon="5.547917213966302"><ele>667.0</ele><time>2026-04-26T14:02:18Z</time></trkpt><trkpt lat="43.912035516770324" lon="5.54785704205044"><ele>667.0</ele><time>2026-04-26T14:02:19.999Z</time></trkpt><trkpt lat="43.911946305161216" lon="5.547819356037694"><ele>666.5</ele><time>2026-04-26T14:02:20.999Z</time></trkpt><trkpt lat="43.911833777417606" lon="5.547752937784279"><ele>666.0</ele><time>2026-04-26T14:02:21.999Z</time></trkpt><trkpt lat="43.91171365145112" lon="5.547652539488537"><ele>665.5</ele><time>2026-04-26T14:02:22.999Z</time></trkpt><trkpt lat="43.91158199963216" lon="5.547538643721038"><ele>665.0</ele><time>2026-04-26T14:02:23.999Z</time></trkpt><trkpt lat="43.91147492711632" lon="5.547460955921825"><ele>665.0</ele><time>2026-04-26T14:02:24.999Z</time></trkpt><trkpt lat="43.9113893483069" lon="5.54737432939335"><ele>665.0</ele><time>2026-04-26T14:02:25.999Z</time></trkpt><trkpt lat="43.91129665912245" lon="5.547298129274097"><ele>665.0</ele><time>2026-04-26T14:02:26.999Z</time></trkpt><trkpt lat="43.91123438075222" lon="5.547202128327985"><ele>665.0</ele><time>2026-04-26T14:02:27.999Z</time></trkpt><trkpt lat="43.91118319388474" lon="5.5471248152679475"><ele>665.0</ele><time>2026-04-26T14:02:28.999Z</time></trkpt><trkpt lat="43.911123689492555" lon="5.5470198934327515"><ele>666.25</ele><time>2026-04-26T14:02:29.999Z</time></trkpt><trkpt lat="43.911051524357525" lon="5.546884652651858"><ele>667.5</ele><time>2026-04-26T14:02:30.999Z</time></trkpt><trkpt lat="43.91094109502166" lon="5.546702358024662"><ele>668.75</ele><time>2026-04-26T14:02:31.999Z</time></trkpt><trkpt lat="43.9108608918711" lon="5.546548946223651"><ele>670.0</ele><time>2026-04-26T14:02:32.999Z</time></trkpt><trkpt lat="43.91080419842671" lon="5.5464310082661585"><ele>668.2</ele><time>2026-04-26T14:02:33.999Z</time></trkpt><trkpt lat="43.910752717798495" lon="5.54635202882713"><ele>666.4</ele><time>2026-04-26T14:02:34.999Z</time></trkpt><trkpt lat="43.91070568282633" lon="5.546291900199119"><ele>664.5999999999999</ele><time>2026-04-26T14:02:35.999Z</time></trkpt><trkpt lat="43.910662133107614" lon="5.546227971515874"><ele>662.8</ele><time>2026-04-26T14:02:36.999Z</time></trkpt><trkpt lat="43.91056253284687" lon="5.546119366684795"><ele>661.0</ele><time>2026-04-26T14:02:38.999Z</time></trkpt><trkpt lat="43.91045548554771" lon="5.546041194303312"><ele>661.0</ele><time>2026-04-26T14:02:39.999Z</time></trkpt><trkpt lat="43.91036343996377" lon="5.545930723819263"><ele>661.0</ele><time>2026-04-26T14:02:40.999Z</time></trkpt><trkpt lat="43.91029748993385" lon="5.545845920026254"><ele>661.0</ele><time>2026-04-26T14:02:41.999Z</time></trkpt><trkpt lat="43.910237623335604" lon="5.545796180389158"><ele>661.0</ele><time>2026-04-26T14:02:42.999Z</time></trkpt><trkpt lat="43.91013795725452" lon="5.545718907402966"><ele>661.0</ele><time>2026-04-26T14:02:44.999Z</time></trkpt><trkpt lat="43.91007042556988" lon="5.545665418694539"><ele>659.3333333333334</ele><time>2026-04-26T14:02:45.999Z</time></trkpt><trkpt lat="43.909987426394345" lon="5.54559564534555"><ele>657.6666666666667</ele><time>2026-04-26T14:02:47.999Z</time></trkpt><trkpt lat="43.90995506321544" lon="5.5457212270037575"><ele>656.0</ele><time>2026-04-26T14:02:50.999Z</time></trkpt><trkpt lat="43.90990319074283" lon="5.5458192927079075"><ele>654.3333333333334</ele><time>2026-04-26T14:02:52.999Z</time></trkpt><trkpt lat="43.909830642816594" lon="5.545895800592597"><ele>652.6666666666666</ele><time>2026-04-26T14:02:54.999Z</time></trkpt><trkpt lat="43.90975940989522" lon="5.545890521815521"><ele>651.0</ele><time>2026-04-26T14:02:56.999Z</time></trkpt><trkpt lat="43.90968830849249" lon="5.5458269111778105"><ele>651.0</ele><time>2026-04-26T14:02:58.999Z</time></trkpt><trkpt lat="43.90960241824241" lon="5.545681244173852"><ele>651.0</ele><time>2026-04-26T14:03:00.999Z</time></trkpt><trkpt lat="43.90956324093372" lon="5.545555909496521"><ele>651.0</ele><time>2026-04-26T14:03:01.999Z</time></trkpt><trkpt lat="43.9094279974778" lon="5.545424730730458"><ele>651.0</ele><time>2026-04-26T14:03:02.999Z</time></trkpt><trkpt lat="43.90936528052146" lon="5.545237506431443"><ele>652.0</ele><time>2026-04-26T14:03:03.999Z</time></trkpt><trkpt lat="43.909307048678755" lon="5.545059618360407"><ele>653.0</ele><time>2026-04-26T14:03:04.999Z</time></trkpt><trkpt lat="43.909242158610084" lon="5.544857506080566"><ele>654.0</ele><time>2026-04-26T14:03:05.999Z</time></trkpt><trkpt lat="43.90917876659419" lon="5.544649227551279"><ele>652.4000000000001</ele><time>2026-04-26T14:03:06.999Z</time></trkpt><trkpt lat="43.90913561318648" lon="5.544501495239978"><ele>650.8</ele><time>2026-04-26T14:03:07.999Z</time></trkpt><trkpt lat="43.909099259342014" lon="5.544395206229437"><ele>649.2</ele><time>2026-04-26T14:03:08.999Z</time></trkpt><trkpt lat="43.909011590340604" lon="5.544231089285335"><ele>647.5999999999999</ele><time>2026-04-26T14:03:10.999Z</time></trkpt><trkpt lat="43.90895338954761" lon="5.544159092389275"><ele>646.0</ele><time>2026-04-26T14:03:13.999Z</time></trkpt><trkpt lat="43.90889335655326" lon="5.544107653454178"><ele>646.0</ele><time>2026-04-26T14:03:15.999Z</time></trkpt><trkpt lat="43.908812861720804" lon="5.544074378346465"><ele>646.0</ele><time>2026-04-26T14:03:17.999Z</time></trkpt><trkpt lat="43.90871209577298" lon="5.544075354343751"><ele>646.0</ele><time>2026-04-26T14:03:19.999Z</time></trkpt><trkpt lat="43.9086340964251" lon="5.544088306232261"><ele>646.0</ele><time>2026-04-26T14:03:20.999Z</time></trkpt><trkpt lat="43.908529640083664" lon="5.544102731548225"><ele>646.0</ele><time>2026-04-26T14:03:22.999Z</time></trkpt><trkpt lat="43.90845799562252" lon="5.544141327063113"><ele>646.0</ele><time>2026-04-26T14:03:24.999Z</time></trkpt><trkpt lat="43.90837495741232" lon="5.544191789403932"><ele>645.8571428571429</ele><time>2026-04-26T14:03:27.999Z</time></trkpt><trkpt lat="43.90831630095872" lon="5.544238896413076"><ele>645.7142857142858</ele><time>2026-04-26T14:03:29.999Z</time></trkpt><trkpt lat="43.90827697840176" lon="5.5443227812425455"><ele>645.5714285714287</ele><time>2026-04-26T14:03:32.999Z</time></trkpt><trkpt lat="43.90822393461597" lon="5.544410751097544"><ele>645.4285714285714</ele><time>2026-04-26T14:03:36.999Z</time></trkpt><trkpt lat="43.90814983871142" lon="5.544447102747453"><ele>645.2857142857142</ele><time>2026-04-26T14:03:39.999Z</time></trkpt><trkpt lat="43.908086828142245" lon="5.544485968800496"><ele>645.1428571428572</ele><time>2026-04-26T14:03:43Z</time></trkpt><trkpt lat="43.90802220404044" lon="5.544534572477886"><ele>645.0</ele><time>2026-04-26T14:03:46Z</time></trkpt><trkpt lat="43.90796751598168" lon="5.544602947623515"><ele>644.7142857142858</ele><time>2026-04-26T14:03:48Z</time></trkpt><trkpt lat="43.907923789862345" lon="5.544673032868047"><ele>644.4285714285713</ele><time>2026-04-26T14:03:51Z</time></trkpt><trkpt lat="43.90790520860776" lon="5.544762364689162"><ele>644.1428571428571</ele><time>2026-04-26T14:03:54Z</time></trkpt><trkpt lat="43.90786914747663" lon="5.544848161986918"><ele>643.8571428571429</ele><time>2026-04-26T14:03:57Z</time></trkpt><trkpt lat="43.90786247926603" lon="5.54493929905796"><ele>643.5714285714287</ele><time>2026-04-26T14:04:01Z</time></trkpt><trkpt lat="43.90785407406945" lon="5.545048348925514"><ele>643.2857142857142</ele><time>2026-04-26T14:04:05Z</time></trkpt><trkpt lat="43.9078228804051" lon="5.545157751738118"><ele>643.0</ele><time>2026-04-26T14:04:08Z</time></trkpt><trkpt lat="43.90777850496436" lon="5.545236122789505"><ele>643.0</ele><time>2026-04-26T14:04:11Z</time></trkpt><trkpt lat="43.90773441685948" lon="5.5453057444692275"><ele>643.0</ele><time>2026-04-26T14:04:14Z</time></trkpt><trkpt lat="43.907682552205564" lon="5.545356702326389"><ele>643.0</ele><time>2026-04-26T14:04:16Z</time></trkpt><trkpt lat="43.90762955101296" lon="5.545443829882963"><ele>643.0</ele><time>2026-04-26T14:04:18Z</time></trkpt><trkpt lat="43.907555882875236" lon="5.54551724466981"><ele>643.0</ele><time>2026-04-26T14:04:21Z</time></trkpt><trkpt lat="43.907504937520876" lon="5.545620320760758"><ele>643.0</ele><time>2026-04-26T14:04:23Z</time></trkpt><trkpt lat="43.90745650364902" lon="5.545728706795562"><ele>644.6666666666667</ele><time>2026-04-26T14:04:25Z</time></trkpt><trkpt lat="43.90738436583071" lon="5.545848914583111"><ele>646.3333333333334</ele><time>2026-04-26T14:04:27Z</time></trkpt><trkpt lat="43.90733744930261" lon="5.545911005157981"><ele>648.0</ele><time>2026-04-26T14:04:28Z</time></trkpt><trkpt lat="43.907289040588026" lon="5.545975438635814"><ele>649.6666666666666</ele><time>2026-04-26T14:04:29Z</time></trkpt><trkpt lat="43.907235515881894" lon="5.5460685656999"><ele>651.3333333333333</ele><time>2026-04-26T14:04:30Z</time></trkpt><trkpt lat="43.90716970926332" lon="5.546167506886178"><ele>653.0</ele><time>2026-04-26T14:04:31Z</time></trkpt><trkpt lat="43.90707467923961" lon="5.546263765591864"><ele>653.0</ele><time>2026-04-26T14:04:32Z</time></trkpt><trkpt lat="43.90696303339861" lon="5.546390200124476"><ele>653.0</ele><time>2026-04-26T14:04:33Z</time></trkpt><trkpt lat="43.90688114302165" lon="5.546491249128459"><ele>653.0</ele><time>2026-04-26T14:04:34Z</time></trkpt><trkpt lat="43.90681590752046" lon="5.5465788578571535"><ele>653.0</ele><time>2026-04-26T14:04:35Z</time></trkpt><trkpt lat="43.90675012757948" lon="5.5466459421636545"><ele>653.0</ele><time>2026-04-26T14:04:36Z</time></trkpt><trkpt lat="43.90667769110563" lon="5.5467607066044335"><ele>652.8</ele><time>2026-04-26T14:04:38Z</time></trkpt><trkpt lat="43.90656138071943" lon="5.5468836467522635"><ele>652.5999999999999</ele><time>2026-04-26T14:04:40Z</time></trkpt><trkpt lat="43.906492833537435" lon="5.546940847070277"><ele>652.4000000000001</ele><time>2026-04-26T14:04:41Z</time></trkpt><trkpt lat="43.90643524891935" lon="5.5469805858459"><ele>652.2</ele><time>2026-04-26T14:04:41.999Z</time></trkpt><trkpt lat="43.906361743201025" lon="5.5470953949757105"><ele>652.0</ele><time>2026-04-26T14:04:43.999Z</time></trkpt><trkpt lat="43.906301415634054" lon="5.547195524111657"><ele>652.0</ele><time>2026-04-26T14:04:45.999Z</time></trkpt><trkpt lat="43.90626377200319" lon="5.547267385045258"><ele>652.0</ele><time>2026-04-26T14:04:46.999Z</time></trkpt><trkpt lat="43.90621861092902" lon="5.547368631974288"><ele>652.0</ele><time>2026-04-26T14:04:47.999Z</time></trkpt><trkpt lat="43.906173825603275" lon="5.547479667714101"><ele>652.0</ele><time>2026-04-26T14:04:48.999Z</time></trkpt><trkpt lat="43.906114751929735" lon="5.547589020287836"><ele>652.0</ele><time>2026-04-26T14:04:49.999Z</time></trkpt><trkpt lat="43.90605610361915" lon="5.547697731578937"><ele>652.0</ele><time>2026-04-26T14:04:50.999Z</time></trkpt><trkpt lat="43.906006172140664" lon="5.547802658776164"><ele>650.3333333333334</ele><time>2026-04-26T14:04:51.999Z</time></trkpt><trkpt lat="43.90595282775949" lon="5.547891044017983"><ele>648.6666666666667</ele><time>2026-04-26T14:04:52.999Z</time></trkpt><trkpt lat="43.90590017096959" lon="5.547941963622722"><ele>647.0</ele><time>2026-04-26T14:04:53.999Z</time></trkpt><trkpt lat="43.90584693635389" lon="5.548012041101843"><ele>645.3333333333334</ele><time>2026-04-26T14:04:54.999Z</time></trkpt><trkpt lat="43.905806609216754" lon="5.548108357825914"><ele>643.6666666666666</ele><time>2026-04-26T14:04:55.999Z</time></trkpt><trkpt lat="43.90576427798419" lon="5.548184594720525"><ele>642.0</ele><time>2026-04-26T14:04:56.999Z</time></trkpt><trkpt lat="43.90570045648682" lon="5.548297034511147"><ele>646.0</ele><time>2026-04-26T14:04:58.999Z</time></trkpt><trkpt lat="43.905639253860116" lon="5.548355677078975"><ele>650.0</ele><time>2026-04-26T14:05:00.999Z</time></trkpt><trkpt lat="43.90553919834681" lon="5.54840830843683"><ele>654.0</ele><time>2026-04-26T14:05:02.999Z</time></trkpt><trkpt lat="43.90542519341406" lon="5.548517993922078"><ele>658.0</ele><time>2026-04-26T14:05:04.999Z</time></trkpt><trkpt lat="43.90534786268724" lon="5.548564150143009"><ele>662.0</ele><time>2026-04-26T14:05:05.999Z</time></trkpt><trkpt lat="43.90525007522138" lon="5.548622492953622"><ele>662.0</ele><time>2026-04-26T14:05:06.999Z</time></trkpt><trkpt lat="43.90514316332768" lon="5.548704436459427"><ele>662.0</ele><time>2026-04-26T14:05:07.999Z</time></trkpt><trkpt lat="43.905040373500526" lon="5.548788187580034"><ele>662.0</ele><time>2026-04-26T14:05:08.999Z</time></trkpt><trkpt lat="43.90498392550676" lon="5.548829690959357"><ele>662.0</ele><time>2026-04-26T14:05:09.999Z</time></trkpt><trkpt lat="43.90489874577463" lon="5.5488539650252005"><ele>662.0</ele><time>2026-04-26T14:05:12.999Z</time></trkpt><trkpt lat="43.90482874104859" lon="5.548898990463154"><ele>663.3333333333333</ele><time>2026-04-26T14:05:14.999Z</time></trkpt><trkpt lat="43.90475265271533" lon="5.548962409474596"><ele>664.6666666666666</ele><time>2026-04-26T14:05:16.999Z</time></trkpt><trkpt lat="43.90466110655392" lon="5.549017861837581"><ele>666.0</ele><time>2026-04-26T14:05:18.999Z</time></trkpt><trkpt lat="43.90459222311214" lon="5.549063254760549"><ele>667.3333333333334</ele><time>2026-04-26T14:05:20.999Z</time></trkpt><trkpt lat="43.904510904824285" lon="5.549008715567644"><ele>668.6666666666667</ele><time>2026-04-26T14:05:23.999Z</time></trkpt><trkpt lat="43.90441990390561" lon="5.54902560795877"><ele>670.0</ele><time>2026-04-26T14:05:26.999Z</time></trkpt><trkpt lat="43.90436752714579" lon="5.549088307460771"><ele>670.0</ele><time>2026-04-26T14:05:28.999Z</time></trkpt><trkpt lat="43.90430168008771" lon="5.5491474514115575"><ele>670.0</ele><time>2026-04-26T14:05:30.999Z</time></trkpt><trkpt lat="43.90424098586435" lon="5.54921654478943"><ele>670.0</ele><time>2026-04-26T14:05:32.999Z</time></trkpt><trkpt lat="43.90420097173891" lon="5.549312352945454"><ele>670.0</ele><time>2026-04-26T14:05:35.999Z</time></trkpt><trkpt lat="43.90411511953169" lon="5.549332053400845"><ele>670.0</ele><time>2026-04-26T14:05:38.999Z</time></trkpt><trkpt lat="43.904035924930255" lon="5.54936228775467"><ele>670.0</ele><time>2026-04-26T14:05:40.999Z</time></trkpt><trkpt lat="43.90395396647172" lon="5.549405176034659"><ele>671.8333333333334</ele><time>2026-04-26T14:05:42.999Z</time></trkpt><trkpt lat="43.90388192049269" lon="5.549455020409876"><ele>673.6666666666667</ele><time>2026-04-26T14:05:45.999Z</time></trkpt><trkpt lat="43.90382742258238" lon="5.549524183771187"><ele>675.5</ele><time>2026-04-26T14:05:48Z</time></trkpt><trkpt lat="43.90379306910728" lon="5.5496054558373835"><ele>677.3333333333334</ele><time>2026-04-26T14:05:50Z</time></trkpt><trkpt lat="43.903722473048255" lon="5.5497002300343965"><ele>679.1666666666666</ele><time>2026-04-26T14:05:52Z</time></trkpt><trkpt lat="43.90366093156954" lon="5.5498058394131"><ele>681.0</ele><time>2026-04-26T14:05:54Z</time></trkpt><trkpt lat="43.90357747995155" lon="5.549916424242167"><ele>681.0</ele><time>2026-04-26T14:05:56Z</time></trkpt><trkpt lat="43.903504830399136" lon="5.550015966628604"><ele>681.0</ele><time>2026-04-26T14:05:58Z</time></trkpt><trkpt lat="43.90341881804497" lon="5.5500826828694505"><ele>681.0</ele><time>2026-04-26T14:06:01Z</time></trkpt><trkpt lat="43.903352853275564" lon="5.550197997591807"><ele>681.0</ele><time>2026-04-26T14:06:05Z</time></trkpt><trkpt lat="43.903297200715855" lon="5.550358516046537"><ele>681.0</ele><time>2026-04-26T14:06:07Z</time></trkpt><trkpt lat="43.903272865396694" lon="5.550465699403954"><ele>682.6666666666666</ele><time>2026-04-26T14:06:08Z</time></trkpt><trkpt lat="43.90324878976684" lon="5.5505500512949"><ele>684.3333333333334</ele><time>2026-04-26T14:06:09Z</time></trkpt><trkpt lat="43.90322102848297" lon="5.550639652674172"><ele>686.0</ele><time>2026-04-26T14:06:10Z</time></trkpt><trkpt lat="43.90319185955376" lon="5.550717435531104"><ele>687.6666666666667</ele><time>2026-04-26T14:06:11Z</time></trkpt><trkpt lat="43.9031733375646" lon="5.550808532444343"><ele>689.3333333333334</ele><time>2026-04-26T14:06:12Z</time></trkpt><trkpt lat="43.903148287861356" lon="5.550897285667469"><ele>691.0</ele><time>2026-04-26T14:06:13Z</time></trkpt><trkpt lat="43.90310798574994" lon="5.551055030223596"><ele>691.0</ele><time>2026-04-26T14:06:15Z</time></trkpt><trkpt lat="43.903074153544964" lon="5.551147961787779"><ele>691.0</ele><time>2026-04-26T14:06:17Z</time></trkpt><trkpt lat="43.90304699750613" lon="5.551240035692731"><ele>691.0</ele><time>2026-04-26T14:06:20Z</time></trkpt><trkpt lat="43.90301369651912" lon="5.551331574120466"><ele>691.0</ele><time>2026-04-26T14:06:22Z</time></trkpt><trkpt lat="43.90298602112435" lon="5.5514124025786655"><ele>691.0</ele><time>2026-04-26T14:06:30Z</time></trkpt><trkpt lat="43.90293099218178" lon="5.5515110575573985"><ele>691.0</ele><time>2026-04-26T14:06:34Z</time></trkpt><trkpt lat="43.90288493594735" lon="5.551605978984901"><ele>691.1428571428571</ele><time>2026-04-26T14:06:36Z</time></trkpt><trkpt lat="43.9028575891213" lon="5.551687334415278"><ele>691.2857142857142</ele><time>2026-04-26T14:06:38Z</time></trkpt><trkpt lat="43.90282126995183" lon="5.551793398612749"><ele>691.4285714285713</ele><time>2026-04-26T14:06:40Z</time></trkpt><trkpt lat="43.902781678149516" lon="5.551871743692221"><ele>691.5714285714286</ele><time>2026-04-26T14:06:44Z</time></trkpt><trkpt lat="43.90272228263992" lon="5.551936893570086"><ele>691.7142857142858</ele><time>2026-04-26T14:06:46.999Z</time></trkpt><trkpt lat="43.902656446390246" lon="5.552001973873891"><ele>691.8571428571428</ele><time>2026-04-26T14:06:51.999Z</time></trkpt><trkpt lat="43.90259693345021" lon="5.552049915637918"><ele>692.0</ele><time>2026-04-26T14:06:53.999Z</time></trkpt><trkpt lat="43.902545744439855" lon="5.552142597416188"><ele>692.0</ele><time>2026-04-26T14:06:55.999Z</time></trkpt><trkpt lat="43.90250803895985" lon="5.552227234143738"><ele>692.0</ele><time>2026-04-26T14:06:57.999Z</time></trkpt><trkpt lat="43.902475148957365" lon="5.5523457177398825"><ele>692.0</ele><time>2026-04-26T14:06:59.999Z</time></trkpt><trkpt lat="43.902440425076584" lon="5.552465317537424"><ele>692.0</ele><time>2026-04-26T14:07:01.999Z</time></trkpt><trkpt lat="43.902385214690625" lon="5.552572286934484"><ele>692.0</ele><time>2026-04-26T14:07:03.999Z</time></trkpt><trkpt lat="43.90233664869553" lon="5.552638388322338"><ele>692.0</ele><time>2026-04-26T14:07:05.999Z</time></trkpt><trkpt lat="43.90229631719912" lon="5.55272732592153"><ele>692.0</ele><time>2026-04-26T14:07:07.999Z</time></trkpt><trkpt lat="43.90226920011089" lon="5.55283701353214"><ele>692.0</ele><time>2026-04-26T14:07:09.999Z</time></trkpt><trkpt lat="43.902250482591114" lon="5.5529618199859945"><ele>692.0</ele><time>2026-04-26T14:07:11.999Z</time></trkpt><trkpt lat="43.902216552172966" lon="5.553086386513709"><ele>692.0</ele><time>2026-04-26T14:07:13.999Z</time></trkpt><trkpt lat="43.90218556276744" lon="5.55318399498297"><ele>692.0</ele><time>2026-04-26T14:07:15.999Z</time></trkpt><trkpt lat="43.90215238598123" lon="5.553284806717303"><ele>692.0</ele><time>2026-04-26T14:07:17.999Z</time></trkpt><trkpt lat="43.902125107601314" lon="5.5533670935027795"><ele>690.5</ele><time>2026-04-26T14:07:19.999Z</time></trkpt><trkpt lat="43.902077563896775" lon="5.553464259565955"><ele>689.0</ele><time>2026-04-26T14:07:21.999Z</time></trkpt><trkpt lat="43.90201675810239" lon="5.55351573432817"><ele>687.5</ele><time>2026-04-26T14:07:33.999Z</time></trkpt><trkpt lat="43.90197220828242" lon="5.553580932185072"><ele>686.0</ele><time>2026-04-26T14:07:36.999Z</time></trkpt><trkpt lat="43.9019144748859" lon="5.553654621633586"><ele>684.5</ele><time>2026-04-26T14:07:46.999Z</time></trkpt><trkpt lat="43.90188478859797" lon="5.553793526046256"><ele>683.0</ele><time>2026-04-26T14:07:49.999Z</time></trkpt><trkpt lat="43.90187975748132" lon="5.553886103844848"><ele>683.7142857142858</ele><time>2026-04-26T14:07:51.999Z</time></trkpt><trkpt lat="43.9018792013906" lon="5.554001900087134"><ele>684.4285714285714</ele><time>2026-04-26T14:07:55Z</time></trkpt><trkpt lat="43.90185321532012" lon="5.554089419606757"><ele>685.1428571428571</ele><time>2026-04-26T14:07:58Z</time></trkpt><trkpt lat="43.90181008987807" lon="5.554168141651728"><ele>685.8571428571429</ele><time>2026-04-26T14:08:04Z</time></trkpt><trkpt lat="43.90178678839176" lon="5.5542496095874405"><ele>686.5714285714286</ele><time>2026-04-26T14:08:08Z</time></trkpt><trkpt lat="43.90176184124048" lon="5.55433020791628"><ele>687.2857142857143</ele><time>2026-04-26T14:08:17Z</time></trkpt><trkpt lat="43.90173076295231" lon="5.554414518257746"><ele>688.0</ele><time>2026-04-26T14:08:24Z</time></trkpt><trkpt lat="43.901693218060004" lon="5.554515976945066"><ele>686.6666666666667</ele><time>2026-04-26T14:08:29Z</time></trkpt><trkpt lat="43.90163389561579" lon="5.554605214431564"><ele>685.3333333333334</ele><time>2026-04-26T14:08:47Z</time></trkpt><trkpt lat="43.901596486865884" lon="5.554698791733959"><ele>684.0</ele><time>2026-04-26T14:08:52Z</time></trkpt><trkpt lat="43.901568675893365" lon="5.554796396006287"><ele>682.6666666666666</ele><time>2026-04-26T14:09:13.999Z</time></trkpt><trkpt lat="43.90155492796639" lon="5.554886671606747"><ele>681.3333333333333</ele><time>2026-04-26T14:09:17.999Z</time></trkpt><trkpt lat="43.90154463623003" lon="5.554984636651262"><ele>680.0</ele><time>2026-04-26T14:09:21.999Z</time></trkpt><trkpt lat="43.90150044607087" lon="5.555083073753507"><ele>680.0</ele><time>2026-04-26T14:09:25.999Z</time></trkpt><trkpt lat="43.90146642854241" lon="5.555166579217543"><ele>680.0</ele><time>2026-04-26T14:09:30.999Z</time></trkpt><trkpt lat="43.90142995541918" lon="5.555267871004818"><ele>680.0</ele><time>2026-04-26T14:09:41.999Z</time></trkpt><trkpt lat="43.901404569106006" lon="5.555353747044147"><ele>680.0</ele><time>2026-04-26T14:09:46.999Z</time></trkpt><trkpt lat="43.90138430922394" lon="5.555449019988588"><ele>680.0</ele><time>2026-04-26T14:09:57.999Z</time></trkpt><trkpt lat="43.90136688719325" lon="5.555563350675433"><ele>680.0</ele><time>2026-04-26T14:10:09Z</time></trkpt><trkpt lat="43.90134566369477" lon="5.555655892859581"><ele>680.0</ele><time>2026-04-26T14:10:14Z</time></trkpt><trkpt lat="43.90134015331092" lon="5.555756876656999"><ele>678.3333333333333</ele><time>2026-04-26T14:10:27Z</time></trkpt><trkpt lat="43.9013064006799" lon="5.555856449353485"><ele>676.6666666666666</ele><time>2026-04-26T14:10:32Z</time></trkpt><trkpt lat="43.901278940730315" lon="5.5559462502574615"><ele>675.0</ele><time>2026-04-26T14:10:37Z</time></trkpt><trkpt lat="43.90125075012965" lon="5.556051844582346"><ele>673.3333333333334</ele><time>2026-04-26T14:10:54Z</time></trkpt><trkpt lat="43.90120222104945" lon="5.556130746139916"><ele>671.6666666666667</ele><time>2026-04-26T14:10:58Z</time></trkpt><trkpt lat="43.901173467373596" lon="5.556221683380542"><ele>670.0</ele><time>2026-04-26T14:11:02Z</time></trkpt><trkpt lat="43.90114247685252" lon="5.556315883791774"><ele>669.2857142857142</ele><time>2026-04-26T14:11:11.999Z</time></trkpt><trkpt lat="43.90111707356884" lon="5.556401074722811"><ele>668.5714285714286</ele><time>2026-04-26T14:11:15.999Z</time></trkpt><trkpt lat="43.90110174524082" lon="5.556499297171913"><ele>667.8571428571429</ele><time>2026-04-26T14:11:20.999Z</time></trkpt><trkpt lat="43.90107065095911" lon="5.556596766273781"><ele>667.1428571428571</ele><time>2026-04-26T14:11:42.999Z</time></trkpt><trkpt lat="43.90107005432125" lon="5.556699582062655"><ele>666.4285714285714</ele><time>2026-04-26T14:11:47.999Z</time></trkpt><trkpt lat="43.90105104301693" lon="5.556791964902125"><ele>665.7142857142857</ele><time>2026-04-26T14:11:51.999Z</time></trkpt><trkpt lat="43.901043633511996" lon="5.5569004474163295"><ele>665.0</ele><time>2026-04-26T14:12:12Z</time></trkpt><trkpt lat="43.90103736270026" lon="5.556987548952296"><ele>663.8333333333333</ele><time>2026-04-26T14:12:15Z</time></trkpt><trkpt lat="43.90101995702089" lon="5.557094679930694"><ele>662.6666666666666</ele><time>2026-04-26T14:12:19Z</time></trkpt><trkpt lat="43.90100860644131" lon="5.5571983749377445"><ele>661.5</ele><time>2026-04-26T14:12:24Z</time></trkpt><trkpt lat="43.90100406974427" lon="5.557288394955803"><ele>660.3333333333334</ele><time>2026-04-26T14:12:34Z</time></trkpt><trkpt lat="43.90098689429972" lon="5.557383277318928"><ele>659.1666666666667</ele><time>2026-04-26T14:12:42Z</time></trkpt><trkpt lat="43.90098688369547" lon="5.557480297869926"><ele>658.0</ele><time>2026-04-26T14:12:50Z</time></trkpt><trkpt lat="43.90092906002115" lon="5.5575823979518395"><ele>658.0</ele><time>2026-04-26T14:12:59Z</time></trkpt><trkpt lat="43.90089413469518" lon="5.5576732541214025"><ele>658.0</ele><time>2026-04-26T14:13:02Z</time></trkpt><trkpt lat="43.90093791280814" lon="5.557777350602422"><ele>658.0</ele><time>2026-04-26T14:13:05Z</time></trkpt><trkpt lat="43.900903081238496" lon="5.557850392818086"><ele>658.0</ele><time>2026-04-26T14:13:07Z</time></trkpt><trkpt lat="43.900851412020785" lon="5.557935031453958"><ele>658.0</ele><time>2026-04-26T14:13:09Z</time></trkpt><trkpt lat="43.90079012603945" lon="5.558012793895977"><ele>658.0</ele><time>2026-04-26T14:13:10.999Z</time></trkpt><trkpt lat="43.900742632795286" lon="5.558093444736039"><ele>660.0</ele><time>2026-04-26T14:13:12.999Z</time></trkpt><trkpt lat="43.900674015282185" lon="5.558168809766465"><ele>662.0</ele><time>2026-04-26T14:13:14.999Z</time></trkpt><trkpt lat="43.90061975805353" lon="5.558214740953285"><ele>664.0</ele><time>2026-04-26T14:13:15.999Z</time></trkpt><trkpt lat="43.90055590506281" lon="5.55828096666046"><ele>666.0</ele><time>2026-04-26T14:13:16.999Z</time></trkpt><trkpt lat="43.90050956252573" lon="5.558352781866293"><ele>668.0</ele><time>2026-04-26T14:13:17.999Z</time></trkpt><trkpt lat="43.90046035151445" lon="5.558428415814734"><ele>670.0</ele><time>2026-04-26T14:13:18.999Z</time></trkpt><trkpt lat="43.900391477612295" lon="5.558515576508125"><ele>670.0</ele><time>2026-04-26T14:13:20.999Z</time></trkpt><trkpt lat="43.90031576917564" lon="5.558588116295186"><ele>670.0</ele><time>2026-04-26T14:13:22.999Z</time></trkpt><trkpt lat="43.90025434591763" lon="5.5587111395506215"><ele>670.0</ele><time>2026-04-26T14:13:24.999Z</time></trkpt><trkpt lat="43.90017535220927" lon="5.558776401373242"><ele>670.0</ele><time>2026-04-26T14:13:26.999Z</time></trkpt><trkpt lat="43.900098510659774" lon="5.558839159336497"><ele>670.0</ele><time>2026-04-26T14:13:28.999Z</time></trkpt><trkpt lat="43.89999511305445" lon="5.558855395009849"><ele>669.5</ele><time>2026-04-26T14:13:30.999Z</time></trkpt><trkpt lat="43.899930542838916" lon="5.558918423498989"><ele>669.0</ele><time>2026-04-26T14:13:33.999Z</time></trkpt><trkpt lat="43.899875948088855" lon="5.558990086381763"><ele>668.5</ele><time>2026-04-26T14:13:35.999Z</time></trkpt><trkpt lat="43.89981058063873" lon="5.559065687936354"><ele>668.0</ele><time>2026-04-26T14:13:37.999Z</time></trkpt><trkpt lat="43.89974837151708" lon="5.5591603270186996"><ele>667.5</ele><time>2026-04-26T14:13:39.999Z</time></trkpt><trkpt lat="43.899706318231864" lon="5.559228246259283"><ele>667.0</ele><time>2026-04-26T14:13:40.999Z</time></trkpt><trkpt lat="43.899642617401" lon="5.559315282722952"><ele>667.0</ele><time>2026-04-26T14:13:42.999Z</time></trkpt><trkpt lat="43.89959795398994" lon="5.559399908203943"><ele>667.0</ele><time>2026-04-26T14:13:44.999Z</time></trkpt><trkpt lat="43.89956333063362" lon="5.559510926308818"><ele>667.0</ele><time>2026-04-26T14:13:49.999Z</time></trkpt><trkpt lat="43.899511941224475" lon="5.5595803599326885"><ele>667.0</ele><time>2026-04-26T14:13:52.999Z</time></trkpt><trkpt lat="43.8994629315046" lon="5.559676525398521"><ele>667.0</ele><time>2026-04-26T14:13:55.999Z</time></trkpt><trkpt lat="43.89939320253915" lon="5.559760350584355"><ele>667.0</ele><time>2026-04-26T14:13:58.999Z</time></trkpt><trkpt lat="43.89937096320068" lon="5.559848165450885"><ele>667.0</ele><time>2026-04-26T14:14:00.999Z</time></trkpt><trkpt lat="43.89930245235824" lon="5.559934315727765"><ele>667.0</ele><time>2026-04-26T14:14:03.999Z</time></trkpt><trkpt lat="43.89923107922421" lon="5.560007299547149"><ele>667.0</ele><time>2026-04-26T14:14:05.999Z</time></trkpt><trkpt lat="43.89916982765302" lon="5.560071948160611"><ele>667.0</ele><time>2026-04-26T14:14:07.999Z</time></trkpt><trkpt lat="43.89911110059956" lon="5.560172360385507"><ele>667.0</ele><time>2026-04-26T14:14:09.999Z</time></trkpt><trkpt lat="43.89905510796347" lon="5.560261839275141"><ele>667.0</ele><time>2026-04-26T14:14:13Z</time></trkpt><trkpt lat="43.89901687994879" lon="5.560351195314939"><ele>663.8</ele><time>2026-04-26T14:14:15Z</time></trkpt><trkpt lat="43.898964034491286" lon="5.560448006322889"><ele>660.6</ele><time>2026-04-26T14:14:17Z</time></trkpt><trkpt lat="43.898935152676444" lon="5.560564681322763"><ele>657.4</ele><time>2026-04-26T14:14:19Z</time></trkpt><trkpt lat="43.89885594384992" lon="5.560642226455321"><ele>654.1999999999999</ele><time>2026-04-26T14:14:21Z</time></trkpt><trkpt lat="43.89880402143916" lon="5.560762185413354"><ele>651.0</ele><time>2026-04-26T14:14:23Z</time></trkpt><trkpt lat="43.89874876700537" lon="5.560841766437966"><ele>651.0</ele><time>2026-04-26T14:14:26Z</time></trkpt><trkpt lat="43.89868884396507" lon="5.560929238729771"><ele>651.0</ele><time>2026-04-26T14:14:28Z</time></trkpt><trkpt lat="43.89866670716642" lon="5.561038624757172"><ele>651.0</ele><time>2026-04-26T14:14:30Z</time></trkpt><trkpt lat="43.89864241703967" lon="5.561162744445485"><ele>651.0</ele><time>2026-04-26T14:14:33Z</time></trkpt><trkpt lat="43.89861292656074" lon="5.561266992097661"><ele>651.0</ele><time>2026-04-26T14:14:36Z</time></trkpt><trkpt lat="43.89852158232706" lon="5.561250524878069"><ele>651.0</ele><time>2026-04-26T14:14:39Z</time></trkpt><trkpt lat="43.89844632808783" lon="5.561294270198224"><ele>652.0</ele><time>2026-04-26T14:14:43Z</time></trkpt><trkpt lat="43.89836813908226" lon="5.561319073666332"><ele>653.0</ele><time>2026-04-26T14:14:45Z</time></trkpt><trkpt lat="43.898298264764534" lon="5.56128366779936"><ele>654.0</ele><time>2026-04-26T14:14:47Z</time></trkpt><trkpt lat="43.898191149386854" lon="5.561272441412611"><ele>655.0</ele><time>2026-04-26T14:14:50Z</time></trkpt><trkpt lat="43.898124222449866" lon="5.561241880946529"><ele>656.0</ele><time>2026-04-26T14:14:52Z</time></trkpt><trkpt lat="43.89805968779647" lon="5.5612035435294365"><ele>657.0</ele><time>2026-04-26T14:14:54Z</time></trkpt><trkpt lat="43.89801588828319" lon="5.56110367624935"><ele>657.0</ele><time>2026-04-26T14:14:57Z</time></trkpt><trkpt lat="43.89797579580769" lon="5.561023691841675"><ele>657.0</ele><time>2026-04-26T14:15:00Z</time></trkpt><trkpt lat="43.89797551438832" lon="5.561140420439442"><ele>657.0</ele><time>2026-04-26T14:15:04Z</time></trkpt><trkpt lat="43.89805412390774" lon="5.561209161045529"><ele>657.0</ele><time>2026-04-26T14:15:07Z</time></trkpt><trkpt lat="43.89811496768881" lon="5.561249473843877"><ele>657.0</ele><time>2026-04-26T14:15:09Z</time></trkpt><trkpt lat="43.89819166706223" lon="5.561275878217292"><ele>657.0</ele><time>2026-04-26T14:15:11Z</time></trkpt><trkpt lat="43.89825873907031" lon="5.561280429591268"><ele>657.0</ele><time>2026-04-26T14:15:12.999Z</time></trkpt><trkpt lat="43.89832523731845" lon="5.561297501252602"><ele>657.0</ele><time>2026-04-26T14:15:14.999Z</time></trkpt><trkpt lat="43.8984123262447" lon="5.561282601200638"><ele>657.0</ele><time>2026-04-26T14:15:17.999Z</time></trkpt><trkpt lat="43.898494662392245" lon="5.56128356451538"><ele>657.0</ele><time>2026-04-26T14:15:20.999Z</time></trkpt><trkpt lat="43.898565335715205" lon="5.5612629139245335"><ele>657.0</ele><time>2026-04-26T14:15:23.999Z</time></trkpt><trkpt lat="43.89859025857244" lon="5.561357555833011"><ele>657.0</ele><time>2026-04-26T14:15:26.999Z</time></trkpt><trkpt lat="43.89856146925218" lon="5.561443185716781"><ele>657.0</ele><time>2026-04-26T14:15:28.999Z</time></trkpt><trkpt lat="43.8985115135868" lon="5.561516477975808"><ele>657.0</ele><time>2026-04-26T14:15:37.999Z</time></trkpt><trkpt lat="43.89845318254343" lon="5.561473221595499"><ele>657.0</ele><time>2026-04-26T14:15:40.999Z</time></trkpt><trkpt lat="43.898389281286875" lon="5.561507505770913"><ele>657.0</ele><time>2026-04-26T14:15:45.999Z</time></trkpt><trkpt lat="43.898324861477406" lon="5.561600357350642"><ele>657.0</ele><time>2026-04-26T14:15:48.999Z</time></trkpt><trkpt lat="43.89827129198051" lon="5.561659253039425"><ele>657.0</ele><time>2026-04-26T14:15:50.999Z</time></trkpt><trkpt lat="43.89822472380134" lon="5.561725154572762"><ele>657.0</ele><time>2026-04-26T14:15:53.999Z</time></trkpt><trkpt lat="43.89817478506956" lon="5.561809719371396"><ele>657.0</ele><time>2026-04-26T14:15:55.999Z</time></trkpt><trkpt lat="43.898120279568516" lon="5.561884176004226"><ele>657.0</ele><time>2026-04-26T14:15:58.999Z</time></trkpt><trkpt lat="43.898066543041075" lon="5.5619406673948655"><ele>657.0</ele><time>2026-04-26T14:16:01.999Z</time></trkpt><trkpt lat="43.89803295192068" lon="5.562019545022942"><ele>657.0</ele><time>2026-04-26T14:16:04.999Z</time></trkpt><trkpt lat="43.89799163403911" lon="5.562121006822395"><ele>657.0</ele><time>2026-04-26T14:16:06.999Z</time></trkpt><trkpt lat="43.89794911412047" lon="5.562209584980197"><ele>657.0</ele><time>2026-04-26T14:16:08.999Z</time></trkpt><trkpt lat="43.89791511441699" lon="5.562301050793446"><ele>657.0</ele><time>2026-04-26T14:16:10.999Z</time></trkpt><trkpt lat="43.89786926815503" lon="5.562390170398986"><ele>654.1666666666666</ele><time>2026-04-26T14:16:13.999Z</time></trkpt><trkpt lat="43.89782276075111" lon="5.5624570926148"><ele>651.3333333333334</ele><time>2026-04-26T14:16:17Z</time></trkpt><trkpt lat="43.89778352500494" lon="5.5625620266688465"><ele>648.5</ele><time>2026-04-26T14:16:20Z</time></trkpt><trkpt lat="43.89775581825516" lon="5.5626473358036685"><ele>645.6666666666667</ele><time>2026-04-26T14:16:23Z</time></trkpt><trkpt lat="43.897702167107965" lon="5.562728004877461"><ele>642.8333333333334</ele><time>2026-04-26T14:16:27Z</time></trkpt><trkpt lat="43.897639047505564" lon="5.562787908328714"><ele>640.0</ele><time>2026-04-26T14:16:30Z</time></trkpt><trkpt lat="43.89759526979768" lon="5.562871699470661"><ele>639.1666666666667</ele><time>2026-04-26T14:16:33Z</time></trkpt><trkpt lat="43.89754668368492" lon="5.562974145736409"><ele>638.3333333333334</ele><time>2026-04-26T14:16:36Z</time></trkpt><trkpt lat="43.89750595284554" lon="5.563060611897123"><ele>637.5</ele><time>2026-04-26T14:16:40Z</time></trkpt><trkpt lat="43.89748036225408" lon="5.5631905693420505"><ele>636.6666666666666</ele><time>2026-04-26T14:16:44Z</time></trkpt><trkpt lat="43.89742996323717" lon="5.563295828236122"><ele>635.8333333333333</ele><time>2026-04-26T14:16:46Z</time></trkpt><trkpt lat="43.89741082166783" lon="5.563389398641433"><ele>635.0</ele><time>2026-04-26T14:16:49Z</time></trkpt><trkpt lat="43.89737536128621" lon="5.5635109731327885"><ele>634.9999999999999</ele><time>2026-04-26T14:16:52Z</time></trkpt><trkpt lat="43.897341461210026" lon="5.563605011494722"><ele>635.0</ele><time>2026-04-26T14:16:56Z</time></trkpt><trkpt lat="43.89736435839285" lon="5.563521637062895"><ele>635.0</ele><time>2026-04-26T14:17:39.999Z</time></trkpt><trkpt lat="43.89740236028524" lon="5.563419779349691"><ele>635.0</ele><time>2026-04-26T14:17:43.999Z</time></trkpt><trkpt lat="43.897432615183924" lon="5.563339614995865"><ele>635.0</ele><time>2026-04-26T14:17:46.999Z</time></trkpt><trkpt lat="43.89746745012212" lon="5.563262663230372"><ele>634.9999999999999</ele><time>2026-04-26T14:17:52.999Z</time></trkpt><trkpt lat="43.89749406104486" lon="5.56316043036522"><ele>635.0</ele><time>2026-04-26T14:17:55.999Z</time></trkpt><trkpt lat="43.897520503117235" lon="5.56305386762049"><ele>634.9999999999999</ele><time>2026-04-26T14:18:00.999Z</time></trkpt><trkpt lat="43.89756650211504" lon="5.562985696132169"><ele>635.0</ele><time>2026-04-26T14:18:03.999Z</time></trkpt><trkpt lat="43.8975980451273" lon="5.562891237735997"><ele>635.0</ele><time>2026-04-26T14:18:06.999Z</time></trkpt><trkpt lat="43.897635738642656" lon="5.5628184605834345"><ele>635.0</ele><time>2026-04-26T14:18:16.999Z</time></trkpt><trkpt lat="43.89769332198055" lon="5.562741614668478"><ele>635.0</ele><time>2026-04-26T14:18:21.999Z</time></trkpt><trkpt lat="43.89774736771409" lon="5.562669629841769"><ele>634.9999999999999</ele><time>2026-04-26T14:18:28Z</time></trkpt><trkpt lat="43.897761252890874" lon="5.562583536022437"><ele>635.0</ele><time>2026-04-26T14:18:36Z</time></trkpt><trkpt lat="43.89780581741734" lon="5.562518986772899"><ele>634.9999999999999</ele><time>2026-04-26T14:18:41Z</time></trkpt><trkpt lat="43.89784210582498" lon="5.56243078714129"><ele>635.0</ele><time>2026-04-26T14:18:48Z</time></trkpt><trkpt lat="43.89780245403982" lon="5.562503862720864"><ele>635.0</ele><time>2026-04-26T14:19:49.999Z</time></trkpt><trkpt lat="43.89777135572258" lon="5.562582985092648"><ele>635.0</ele><time>2026-04-26T14:19:51.999Z</time></trkpt><trkpt lat="43.89774429317518" lon="5.562670789806216"><ele>635.0</ele><time>2026-04-26T14:19:54.999Z</time></trkpt><trkpt lat="43.89768295806856" lon="5.562760226589503"><ele>634.9999999999999</ele><time>2026-04-26T14:19:59.999Z</time></trkpt><trkpt lat="43.897622338730386" lon="5.562810719199383"><ele>635.0</ele><time>2026-04-26T14:20:03.999Z</time></trkpt><trkpt lat="43.89758188193566" lon="5.562902488816203"><ele>634.9999999999999</ele><time>2026-04-26T14:20:24.999Z</time></trkpt><trkpt lat="43.897547863096136" lon="5.562991495673258"><ele>635.0</ele><time>2026-04-26T14:20:26.999Z</time></trkpt><trkpt lat="43.89751179087464" lon="5.563065001041717"><ele>635.0</ele><time>2026-04-26T14:20:30Z</time></trkpt><trkpt lat="43.89748207372364" lon="5.563178394844356"><ele>635.0</ele><time>2026-04-26T14:20:34Z</time></trkpt><trkpt lat="43.89746707794036" lon="5.563263527011217"><ele>635.0</ele><time>2026-04-26T14:20:36Z</time></trkpt><trkpt lat="43.897422171436915" lon="5.563334814672948"><ele>634.9999999999999</ele><time>2026-04-26T14:20:39Z</time></trkpt><trkpt lat="43.89739273406184" lon="5.563454655272799"><ele>635.0</ele><time>2026-04-26T14:20:42Z</time></trkpt><trkpt lat="43.89737098473042" lon="5.5635382630819326"><ele>635.0</ele><time>2026-04-26T14:20:44Z</time></trkpt><trkpt lat="43.89734265928211" lon="5.563619604993239"><ele>635.0</ele><time>2026-04-26T14:20:48Z</time></trkpt><trkpt lat="43.89725556062246" lon="5.563615297850936"><ele>635.0</ele><time>2026-04-26T14:20:54Z</time></trkpt><trkpt lat="43.89724868911507" lon="5.563730514206988"><ele>635.0</ele><time>2026-04-26T14:21:13Z</time></trkpt><trkpt lat="43.89717666682133" lon="5.563826728877241"><ele>635.0</ele><time>2026-04-26T14:21:16Z</time></trkpt><trkpt lat="43.89710369148625" lon="5.5638502155829945"><ele>635.0</ele><time>2026-04-26T14:21:20Z</time></trkpt><trkpt lat="43.89707020396626" lon="5.563951647629766"><ele>632.9999999999999</ele><time>2026-04-26T14:21:25Z</time></trkpt><trkpt lat="43.89702026165902" lon="5.564045195160276"><ele>631.0</ele><time>2026-04-26T14:21:28Z</time></trkpt><trkpt lat="43.896970503577855" lon="5.5641288588674485"><ele>629.0</ele><time>2026-04-26T14:21:30.999Z</time></trkpt><trkpt lat="43.896980068909826" lon="5.56423378074422"><ele>627.0</ele><time>2026-04-26T14:21:33.999Z</time></trkpt><trkpt lat="43.89699146884668" lon="5.564321663339295"><ele>625.0</ele><time>2026-04-26T14:21:40.999Z</time></trkpt><trkpt lat="43.89698557866472" lon="5.564420223648948"><ele>622.9999999999999</ele><time>2026-04-26T14:21:47.999Z</time></trkpt><trkpt lat="43.89696765431152" lon="5.564506254412065"><ele>621.0</ele><time>2026-04-26T14:21:51.999Z</time></trkpt><trkpt lat="43.89694752490311" lon="5.564600558685585"><ele>617.8333333333334</ele><time>2026-04-26T14:22:00.999Z</time></trkpt><trkpt lat="43.896912225172635" lon="5.564695245620532"><ele>614.6666666666666</ele><time>2026-04-26T14:22:24.999Z</time></trkpt><trkpt lat="43.89694784445267" lon="5.564828473387717"><ele>611.5</ele><time>2026-04-26T14:24:54Z</time></trkpt><trkpt lat="43.89689803716862" lon="5.564896052140172"><ele>608.3333333333333</ele><time>2026-04-26T14:24:57Z</time></trkpt><trkpt lat="43.896877913349655" lon="5.564987380035751"><ele>605.1666666666666</ele><time>2026-04-26T14:25:00Z</time></trkpt><trkpt lat="43.89683459801356" lon="5.565067972796374"><ele>602.0</ele><time>2026-04-26T14:25:04Z</time></trkpt><trkpt lat="43.89679047624546" lon="5.565135694804191"><ele>602.0</ele><time>2026-04-26T14:25:27Z</time></trkpt><trkpt lat="43.896756067075316" lon="5.565220966791919"><ele>602.0</ele><time>2026-04-26T14:29:35Z</time></trkpt><trkpt lat="43.89680048803553" lon="5.565128832471078"><ele>602.0</ele><time>2026-04-26T14:31:29Z</time></trkpt><trkpt lat="43.89681936620141" lon="5.56523357683282"><ele>602.0</ele><time>2026-04-26T14:31:35Z</time></trkpt><trkpt lat="43.89672995021093" lon="5.565247194651381"><ele>602.0</ele><time>2026-04-26T14:31:37Z</time></trkpt><trkpt lat="43.89662620982378" lon="5.565242298646748"><ele>602.0</ele><time>2026-04-26T14:31:39Z</time></trkpt><trkpt lat="43.896517843900206" lon="5.565258921456938"><ele>605.0</ele><time>2026-04-26T14:31:41Z</time></trkpt><trkpt lat="43.896405149816985" lon="5.565304200866811"><ele>608.0</ele><time>2026-04-26T14:31:43Z</time></trkpt><trkpt lat="43.896345533081025" lon="5.565338801858411"><ele>611.0</ele><time>2026-04-26T14:31:44Z</time></trkpt><trkpt lat="43.896232187973986" lon="5.5653966581531265"><ele>614.0</ele><time>2026-04-26T14:31:46Z</time></trkpt><trkpt lat="43.896133481545974" lon="5.565483638218876"><ele>617.0</ele><time>2026-04-26T14:31:48Z</time></trkpt><trkpt lat="43.89604835691688" lon="5.565512648512944"><ele>617.0</ele><time>2026-04-26T14:31:50Z</time></trkpt><trkpt lat="43.89595740412697" lon="5.565556469948155"><ele>617.0</ele><time>2026-04-26T14:31:52Z</time></trkpt><trkpt lat="43.895864843145986" lon="5.565640481993704"><ele>617.0</ele><time>2026-04-26T14:31:54Z</time></trkpt><trkpt lat="43.89576440761877" lon="5.56570776423913"><ele>617.0</ele><time>2026-04-26T14:31:56Z</time></trkpt><trkpt lat="43.895681442395244" lon="5.565749055419379"><ele>617.0</ele><time>2026-04-26T14:31:58Z</time></trkpt><trkpt lat="43.89558062014454" lon="5.565796611232735"><ele>617.6</ele><time>2026-04-26T14:31:59.999Z</time></trkpt><trkpt lat="43.89550543893203" lon="5.565698642009154"><ele>618.2</ele><time>2026-04-26T14:32:01.999Z</time></trkpt><trkpt lat="43.89547048968688" lon="5.565546944156326"><ele>618.8</ele><time>2026-04-26T14:32:03.999Z</time></trkpt><trkpt lat="43.89545162877801" lon="5.565462473912788"><ele>619.4</ele><time>2026-04-26T14:32:04.999Z</time></trkpt><trkpt lat="43.89545642178302" lon="5.565361325287507"><ele>620.0</ele><time>2026-04-26T14:32:05.999Z</time></trkpt><trkpt lat="43.89542343190402" lon="5.565213455412082"><ele>620.0</ele><time>2026-04-26T14:32:07.999Z</time></trkpt><trkpt lat="43.89540959325917" lon="5.565089631661949"><ele>620.0</ele><time>2026-04-26T14:32:09.999Z</time></trkpt><trkpt lat="43.89535680949592" lon="5.565013489490413"><ele>620.0</ele><time>2026-04-26T14:32:11.999Z</time></trkpt><trkpt lat="43.89528039149622" lon="5.564911833567404"><ele>620.0</ele><time>2026-04-26T14:32:13.999Z</time></trkpt><trkpt lat="43.89525660553324" lon="5.564751919972647"><ele>620.0</ele><time>2026-04-26T14:32:15.999Z</time></trkpt><trkpt lat="43.89523467762609" lon="5.564664483183297"><ele>620.2</ele><time>2026-04-26T14:32:16.999Z</time></trkpt><trkpt lat="43.89518942752747" lon="5.5644938599542915"><ele>620.4</ele><time>2026-04-26T14:32:18.999Z</time></trkpt><trkpt lat="43.89513724569192" lon="5.56434048860583"><ele>620.6</ele><time>2026-04-26T14:32:20.999Z</time></trkpt><trkpt lat="43.895108015545695" lon="5.564184807414369"><ele>620.8</ele><time>2026-04-26T14:32:22.999Z</time></trkpt><trkpt lat="43.89509103104992" lon="5.564092301851146"><ele>621.0</ele><time>2026-04-26T14:32:23.999Z</time></trkpt><trkpt lat="43.895063632694736" lon="5.564000803589247"><ele>620.1666666666666</ele><time>2026-04-26T14:32:24.999Z</time></trkpt><trkpt lat="43.89504213949928" lon="5.563903024807076"><ele>619.3333333333334</ele><time>2026-04-26T14:32:25.999Z</time></trkpt><trkpt lat="43.8950127716789" lon="5.563799071563827"><ele>618.5</ele><time>2026-04-26T14:32:26.999Z</time></trkpt><trkpt lat="43.89498799403933" lon="5.563704463860039"><ele>617.6666666666667</ele><time>2026-04-26T14:32:27.999Z</time></trkpt><trkpt lat="43.894953978208704" lon="5.563609640034457"><ele>616.8333333333334</ele><time>2026-04-26T14:32:28.999Z</time></trkpt><trkpt lat="43.89493550850664" lon="5.563514613728489"><ele>616.0</ele><time>2026-04-26T14:32:29.999Z</time></trkpt><trkpt lat="43.89489551415747" lon="5.5634048566087095"><ele>616.0</ele><time>2026-04-26T14:32:30.999Z</time></trkpt><trkpt lat="43.89486802555166" lon="5.563310371386132"><ele>616.0</ele><time>2026-04-26T14:32:31.999Z</time></trkpt><trkpt lat="43.89484531143352" lon="5.563219932224775"><ele>616.0</ele><time>2026-04-26T14:32:32.999Z</time></trkpt><trkpt lat="43.89482385076345" lon="5.563132884404429"><ele>616.0</ele><time>2026-04-26T14:32:33.999Z</time></trkpt><trkpt lat="43.8948044289394" lon="5.563045637812026"><ele>616.0</ele><time>2026-04-26T14:32:34.999Z</time></trkpt><trkpt lat="43.894781667133145" lon="5.562961179125576"><ele>616.0</ele><time>2026-04-26T14:32:35.999Z</time></trkpt><trkpt lat="43.894737953429704" lon="5.562813836295732"><ele>616.8</ele><time>2026-04-26T14:32:37.999Z</time></trkpt><trkpt lat="43.894701507330595" lon="5.5627152061177645"><ele>617.6</ele><time>2026-04-26T14:32:39.999Z</time></trkpt><trkpt lat="43.89464096552279" lon="5.562653342047784"><ele>618.4</ele><time>2026-04-26T14:32:43.999Z</time></trkpt><trkpt lat="43.89457637487813" lon="5.562682667188077"><ele>619.2</ele><time>2026-04-26T14:32:45.999Z</time></trkpt><trkpt lat="43.89447663290793" lon="5.562774583776616"><ele>620.0</ele><time>2026-04-26T14:32:47.999Z</time></trkpt><trkpt lat="43.89436493191633" lon="5.562819499387533"><ele>620.0</ele><time>2026-04-26T14:32:49.999Z</time></trkpt><trkpt lat="43.8942567163969" lon="5.5628391618694435"><ele>620.0</ele><time>2026-04-26T14:32:51.999Z</time></trkpt><trkpt lat="43.894154019870626" lon="5.562823648833332"><ele>620.0</ele><time>2026-04-26T14:32:53.999Z</time></trkpt><trkpt lat="43.89409881230883" lon="5.562703758409899"><ele>620.0</ele><time>2026-04-26T14:32:55.999Z</time></trkpt><trkpt lat="43.89407352349978" lon="5.562598987832381"><ele>620.0</ele><time>2026-04-26T14:32:57.999Z</time></trkpt><trkpt lat="43.8940281379782" lon="5.562498443611669"><ele>619.0</ele><time>2026-04-26T14:32:59.999Z</time></trkpt><trkpt lat="43.89397799223078" lon="5.562363243785413"><ele>618.0</ele><time>2026-04-26T14:33:01.999Z</time></trkpt><trkpt lat="43.89390293450966" lon="5.562258008669795"><ele>617.0</ele><time>2026-04-26T14:33:03.999Z</time></trkpt><trkpt lat="43.8938583137109" lon="5.562195576613356"><ele>616.0</ele><time>2026-04-26T14:33:05Z</time></trkpt><trkpt lat="43.893793537921326" lon="5.562086584693226"><ele>615.0</ele><time>2026-04-26T14:33:07Z</time></trkpt><trkpt lat="43.89374947035728" lon="5.561997155890133"><ele>615.0</ele><time>2026-04-26T14:33:09Z</time></trkpt><trkpt lat="43.893799404442554" lon="5.561909546067943"><ele>615.0</ele><time>2026-04-26T14:33:10Z</time></trkpt><trkpt lat="43.8937167002646" lon="5.561975821657961"><ele>615.0</ele><time>2026-04-26T14:33:12Z</time></trkpt><trkpt lat="43.89373631249001" lon="5.562086929789295"><ele>615.0</ele><time>2026-04-26T14:33:14Z</time></trkpt><trkpt lat="43.89381250077123" lon="5.562165478600419"><ele>615.0</ele><time>2026-04-26T14:33:16Z</time></trkpt><trkpt lat="43.89388895475553" lon="5.562249700388941"><ele>614.5</ele><time>2026-04-26T14:33:18Z</time></trkpt><trkpt lat="43.89394235285506" lon="5.562384843696261"><ele>614.0</ele><time>2026-04-26T14:33:20Z</time></trkpt><trkpt lat="43.894010894971736" lon="5.562506239485384"><ele>613.5</ele><time>2026-04-26T14:33:22Z</time></trkpt><trkpt lat="43.894051426690886" lon="5.562576106374857"><ele>613.0</ele><time>2026-04-26T14:33:24Z</time></trkpt><trkpt lat="43.893991242222214" lon="5.562613693778829"><ele>612.5</ele><time>2026-04-26T14:36:35.999Z</time></trkpt><trkpt lat="43.89390906133515" lon="5.562632617198735"><ele>612.0</ele><time>2026-04-26T14:38:06.999Z</time></trkpt><trkpt lat="43.89385684330838" lon="5.5625835353423065"><ele>612.0</ele><time>2026-04-26T14:38:16.999Z</time></trkpt><trkpt lat="43.89377032950757" lon="5.562576145735115"><ele>612.0</ele><time>2026-04-26T15:30:46.999Z</time></trkpt><trkpt lat="43.89382740038619" lon="5.562534812651452"><ele>612.0</ele><time>2026-04-26T15:30:51.999Z</time></trkpt><trkpt lat="43.893871951288176" lon="5.56259997915689"><ele>612.0</ele><time>2026-04-26T15:31:01.999Z</time></trkpt><trkpt lat="43.893945212677714" lon="5.562585510854848"><ele>612.0</ele><time>2026-04-26T15:37:16.999Z</time></trkpt><trkpt lat="43.894032225668795" lon="5.562570467231791"><ele>612.0</ele><time>2026-04-26T15:37:29.999Z</time></trkpt><trkpt lat="43.89406849802027" lon="5.562655514900835"><ele>612.0</ele><time>2026-04-26T15:41:09Z</time></trkpt><trkpt lat="43.89410173215979" lon="5.562782565695957"><ele>612.0</ele><time>2026-04-26T15:41:11Z</time></trkpt><trkpt lat="43.89415450579639" lon="5.562860811979847"><ele>612.0</ele><time>2026-04-26T15:41:15Z</time></trkpt><trkpt lat="43.89428554769448" lon="5.562854624585425"><ele>612.0</ele><time>2026-04-26T15:41:17Z</time></trkpt><trkpt lat="43.89439928853643" lon="5.5628047406494305"><ele>612.0</ele><time>2026-04-26T15:41:18Z</time></trkpt><trkpt lat="43.89449759584626" lon="5.562750203898007"><ele>612.0</ele><time>2026-04-26T15:41:18.999Z</time></trkpt><trkpt lat="43.89458586892941" lon="5.562750190266914"><ele>612.8000000000001</ele><time>2026-04-26T15:41:19.999Z</time></trkpt><trkpt lat="43.894657494790636" lon="5.56269251727045"><ele>613.6</ele><time>2026-04-26T15:41:21.999Z</time></trkpt><trkpt lat="43.894724035466844" lon="5.562840405835445"><ele>614.4000000000001</ele><time>2026-04-26T15:41:23.999Z</time></trkpt><trkpt lat="43.89475810153183" lon="5.562952500797786"><ele>615.2</ele><time>2026-04-26T15:41:24.999Z</time></trkpt><trkpt lat="43.89480311121369" lon="5.563118470115493"><ele>616.0</ele><time>2026-04-26T15:41:25.999Z</time></trkpt><trkpt lat="43.8948538292337" lon="5.563327147749636"><ele>616.0</ele><time>2026-04-26T15:41:26.999Z</time></trkpt><trkpt lat="43.89490305839891" lon="5.563551723951794"><ele>616.0</ele><time>2026-04-26T15:41:27.999Z</time></trkpt><trkpt lat="43.89496350555599" lon="5.563744161667303"><ele>616.0</ele><time>2026-04-26T15:41:28.999Z</time></trkpt><trkpt lat="43.89501794977046" lon="5.563924148072767"><ele>615.5</ele><time>2026-04-26T15:41:29.999Z</time></trkpt><trkpt lat="43.8950620629877" lon="5.564106015593362"><ele>615.0</ele><time>2026-04-26T15:41:30.999Z</time></trkpt><trkpt lat="43.89510666436428" lon="5.564277670556066"><ele>614.5</ele><time>2026-04-26T15:41:31.999Z</time></trkpt><trkpt lat="43.8951384084495" lon="5.564407097736111"><ele>614.0</ele><time>2026-04-26T15:41:32.999Z</time></trkpt><trkpt lat="43.89516344349288" lon="5.564528626157682"><ele>615.5</ele><time>2026-04-26T15:41:33.999Z</time></trkpt><trkpt lat="43.895195188852874" lon="5.564656334168998"><ele>617.0</ele><time>2026-04-26T15:41:34.999Z</time></trkpt><trkpt lat="43.89521648340766" lon="5.564776004363519"><ele>618.5</ele><time>2026-04-26T15:41:35.999Z</time></trkpt><trkpt lat="43.89524725387469" lon="5.564894463372746"><ele>620.0</ele><time>2026-04-26T15:41:36.999Z</time></trkpt><trkpt lat="43.895313459865534" lon="5.565132719442363"><ele>620.0</ele><time>2026-04-26T15:41:38.999Z</time></trkpt><trkpt lat="43.89534750515909" lon="5.5652396333950795"><ele>620.0</ele><time>2026-04-26T15:41:39.999Z</time></trkpt><trkpt lat="43.89536427443935" lon="5.565347572493012"><ele>620.0</ele><time>2026-04-26T15:41:40.999Z</time></trkpt><trkpt lat="43.89538910083556" lon="5.565484440487319"><ele>620.0</ele><time>2026-04-26T15:41:41.999Z</time></trkpt><trkpt lat="43.895422137909165" lon="5.5656151915689485"><ele>620.0</ele><time>2026-04-26T15:41:43.999Z</time></trkpt><trkpt lat="43.895442020182834" lon="5.565717575399165"><ele>620.0</ele><time>2026-04-26T15:41:46.999Z</time></trkpt><trkpt lat="43.89548682026146" lon="5.565803829883194"><ele>620.1666666666666</ele><time>2026-04-26T15:41:49.999Z</time></trkpt><trkpt lat="43.89554763354054" lon="5.565864783958192"><ele>620.3333333333333</ele><time>2026-04-26T15:41:51.999Z</time></trkpt><trkpt lat="43.89562245651547" lon="5.565848931249565"><ele>620.5</ele><time>2026-04-26T15:41:53.999Z</time></trkpt><trkpt lat="43.8956952602002" lon="5.565820069473537"><ele>620.6666666666666</ele><time>2026-04-26T15:41:54.999Z</time></trkpt><trkpt lat="43.89580406938819" lon="5.565745427730809"><ele>620.8333333333334</ele><time>2026-04-26T15:41:56.999Z</time></trkpt><trkpt lat="43.89586098860495" lon="5.565705097418597"><ele>621.0</ele><time>2026-04-26T15:41:57.999Z</time></trkpt><trkpt lat="43.89592039251528" lon="5.565663591507958"><ele>620.3333333333334</ele><time>2026-04-26T15:41:58.999Z</time></trkpt><trkpt lat="43.896035079587065" lon="5.565582421013348"><ele>619.6666666666666</ele><time>2026-04-26T15:42:00.999Z</time></trkpt><trkpt lat="43.896093851311726" lon="5.565541386139164"><ele>619.0</ele><time>2026-04-26T15:42:01.999Z</time></trkpt><trkpt lat="43.89615421476636" lon="5.565500596772923"><ele>618.3333333333333</ele><time>2026-04-26T15:42:02.999Z</time></trkpt><trkpt lat="43.896212218362656" lon="5.565461402031004"><ele>617.6666666666666</ele><time>2026-04-26T15:42:03.999Z</time></trkpt><trkpt lat="43.896270622462175" lon="5.5654254935849465"><ele>617.0</ele><time>2026-04-26T15:42:04.999Z</time></trkpt><trkpt lat="43.89633777269866" lon="5.5653910792662975"><ele>618.6</ele><time>2026-04-26T15:42:05.999Z</time></trkpt><trkpt lat="43.896399388858406" lon="5.565342790503521"><ele>620.2</ele><time>2026-04-26T15:42:06.999Z</time></trkpt><trkpt lat="43.896471279158945" lon="5.565338617990192"><ele>621.8</ele><time>2026-04-26T15:42:07.999Z</time></trkpt><trkpt lat="43.896593872039276" lon="5.5653015046815355"><ele>623.4</ele><time>2026-04-26T15:42:09.999Z</time></trkpt><trkpt lat="43.89672120392271" lon="5.565273466587561"><ele>625.0</ele><time>2026-04-26T15:42:11.999Z</time></trkpt><trkpt lat="43.896834743068815" lon="5.565210784570127"><ele>621.1666666666667</ele><time>2026-04-26T15:42:13.999Z</time></trkpt><trkpt lat="43.896944667919406" lon="5.565109335329338"><ele>617.3333333333334</ele><time>2026-04-26T15:42:15.999Z</time></trkpt><trkpt lat="43.8969935756936" lon="5.565033778732484"><ele>613.5</ele><time>2026-04-26T15:42:16.999Z</time></trkpt><trkpt lat="43.897040352681834" lon="5.564955642794399"><ele>609.6666666666666</ele><time>2026-04-26T15:42:17.999Z</time></trkpt><trkpt lat="43.897084462842095" lon="5.564880851921494"><ele>605.8333333333333</ele><time>2026-04-26T15:42:18.999Z</time></trkpt><trkpt lat="43.89711790532437" lon="5.564788495525588"><ele>602.0</ele><time>2026-04-26T15:42:19.999Z</time></trkpt><trkpt lat="43.89717209176928" lon="5.564718195721868"><ele>602.0</ele><time>2026-04-26T15:42:20.999Z</time></trkpt><trkpt lat="43.897214493780176" lon="5.564638033391564"><ele>602.0</ele><time>2026-04-26T15:42:22Z</time></trkpt><trkpt lat="43.8972569013186" lon="5.564562421263153"><ele>602.0</ele><time>2026-04-26T15:42:23Z</time></trkpt><trkpt lat="43.897307874969286" lon="5.564492849053545"><ele>602.0</ele><time>2026-04-26T15:42:24Z</time></trkpt><trkpt lat="43.89735804829935" lon="5.564416512671613"><ele>602.0</ele><time>2026-04-26T15:42:25Z</time></trkpt><trkpt lat="43.897400268476474" lon="5.5643442823179"><ele>602.0</ele><time>2026-04-26T15:42:26Z</time></trkpt><trkpt lat="43.89745933468888" lon="5.56427555656432"><ele>602.0</ele><time>2026-04-26T15:42:28Z</time></trkpt><trkpt lat="43.89751940915388" lon="5.564159224309344"><ele>600.4</ele><time>2026-04-26T15:42:31Z</time></trkpt><trkpt lat="43.897593010700255" lon="5.564033981251052"><ele>598.8000000000001</ele><time>2026-04-26T15:42:33Z</time></trkpt><trkpt lat="43.89766827513872" lon="5.563920112918689"><ele>597.2</ele><time>2026-04-26T15:42:35Z</time></trkpt><trkpt lat="43.89773833336207" lon="5.563832411891543"><ele>595.6</ele><time>2026-04-26T15:42:37Z</time></trkpt><trkpt lat="43.897809850292774" lon="5.563751278683715"><ele>594.0</ele><time>2026-04-26T15:42:39Z</time></trkpt><trkpt lat="43.897904571405874" lon="5.563669547587732"><ele>598.6</ele><time>2026-04-26T15:42:41Z</time></trkpt><trkpt lat="43.89799510907951" lon="5.563599473367577"><ele>603.2</ele><time>2026-04-26T15:42:43Z</time></trkpt><trkpt lat="43.89806932172869" lon="5.563542034367095"><ele>607.8000000000001</ele><time>2026-04-26T15:42:45Z</time></trkpt><trkpt lat="43.89814206704535" lon="5.563485843496571"><ele>612.4</ele><time>2026-04-26T15:42:47Z</time></trkpt><trkpt lat="43.89825000521243" lon="5.563403761519868"><ele>617.0</ele><time>2026-04-26T15:42:49Z</time></trkpt><trkpt lat="43.898367671297244" lon="5.5633142819270445"><ele>611.2</ele><time>2026-04-26T15:42:51Z</time></trkpt><trkpt lat="43.898470768665064" lon="5.5632340256722985"><ele>605.4000000000001</ele><time>2026-04-26T15:42:53Z</time></trkpt><trkpt lat="43.89857881560681" lon="5.563148192695851"><ele>599.5999999999999</ele><time>2026-04-26T15:42:55Z</time></trkpt><trkpt lat="43.89864142703521" lon="5.563097719809314"><ele>593.8</ele><time>2026-04-26T15:42:56Z</time></trkpt><trkpt lat="43.898747670481406" lon="5.563004635402558"><ele>588.0</ele><time>2026-04-26T15:42:58Z</time></trkpt><trkpt lat="43.89881739486757" lon="5.562937820771157"><ele>588.0</ele><time>2026-04-26T15:42:59Z</time></trkpt><trkpt lat="43.898879975373724" lon="5.562866307962083"><ele>588.0</ele><time>2026-04-26T15:43:00Z</time></trkpt><trkpt lat="43.89894299207819" lon="5.562787104420296"><ele>588.0</ele><time>2026-04-26T15:43:01Z</time></trkpt><trkpt lat="43.89899422266847" lon="5.562709602562602"><ele>588.0</ele><time>2026-04-26T15:43:02Z</time></trkpt><trkpt lat="43.899044762723534" lon="5.562628858922202"><ele>588.0</ele><time>2026-04-26T15:43:03Z</time></trkpt><trkpt lat="43.899084109095156" lon="5.562551887702285"><ele>588.0</ele><time>2026-04-26T15:43:04Z</time></trkpt><trkpt lat="43.89914446631059" lon="5.562432090400699"><ele>586.1999999999999</ele><time>2026-04-26T15:43:05Z</time></trkpt><trkpt lat="43.89918232859102" lon="5.562355317994264"><ele>584.4</ele><time>2026-04-26T15:43:06Z</time></trkpt><trkpt lat="43.89924872112703" lon="5.562218040177942"><ele>582.5999999999999</ele><time>2026-04-26T15:43:08Z</time></trkpt><trkpt lat="43.89932689956713" lon="5.562053753812823"><ele>580.8</ele><time>2026-04-26T15:43:10Z</time></trkpt><trkpt lat="43.89936871920498" lon="5.561978678762675"><ele>579.0</ele><time>2026-04-26T15:43:11Z</time></trkpt><trkpt lat="43.899418243020136" lon="5.561897574519281"><ele>582.5</ele><time>2026-04-26T15:43:23.999Z</time></trkpt><trkpt lat="43.89946341934972" lon="5.5618354450981204"><ele>586.0</ele><time>2026-04-26T15:43:24.999Z</time></trkpt><trkpt lat="43.899530074918324" lon="5.561752569658861"><ele>589.5</ele><time>2026-04-26T15:43:26.999Z</time></trkpt><trkpt lat="43.899578048129705" lon="5.5616935108360455"><ele>593.0</ele><time>2026-04-26T15:43:32.999Z</time></trkpt><trkpt lat="43.899652391764164" lon="5.56160198794287"><ele>596.5</ele><time>2026-04-26T15:43:35.999Z</time></trkpt><trkpt lat="43.89970157996339" lon="5.5615414333956705"><ele>600.0</ele><time>2026-04-26T15:43:37.999Z</time></trkpt><trkpt lat="43.899761252371576" lon="5.561466519714852"><ele>600.0</ele><time>2026-04-26T15:43:39.999Z</time></trkpt><trkpt lat="43.89986094158165" lon="5.5615464673149795"><ele>600.0</ele><time>2026-04-26T15:43:40.999Z</time></trkpt><trkpt lat="43.8999048138983" lon="5.561455398278723"><ele>600.0</ele><time>2026-04-26T15:43:42.999Z</time></trkpt><trkpt lat="43.89995661390919" lon="5.561377874110192"><ele>600.0</ele><time>2026-04-26T15:43:44.999Z</time></trkpt><trkpt lat="43.90000274742903" lon="5.561266555561341"><ele>600.0</ele><time>2026-04-26T15:43:47.999Z</time></trkpt><trkpt lat="43.900057962495765" lon="5.561189940457498"><ele>600.0</ele><time>2026-04-26T15:43:49.999Z</time></trkpt><trkpt lat="43.90011009489491" lon="5.561092292657939"><ele>599.8</ele><time>2026-04-26T15:43:51.999Z</time></trkpt><trkpt lat="43.90017296889656" lon="5.561000987837786"><ele>599.6</ele><time>2026-04-26T15:43:53.999Z</time></trkpt><trkpt lat="43.9002411642286" lon="5.560866863227252"><ele>599.4</ele><time>2026-04-26T15:43:55.999Z</time></trkpt><trkpt lat="43.900285195280624" lon="5.560787065708937"><ele>599.2</ele><time>2026-04-26T15:43:56.999Z</time></trkpt><trkpt lat="43.90024073466213" lon="5.5606776493218675"><ele>599.0</ele><time>2026-04-26T15:43:57.999Z</time></trkpt><trkpt lat="43.90028954147619" lon="5.560563874134229"><ele>599.0</ele><time>2026-04-26T15:43:59.999Z</time></trkpt><trkpt lat="43.900332625083756" lon="5.560473608973259"><ele>599.0</ele><time>2026-04-26T15:44:01.999Z</time></trkpt><trkpt lat="43.900376928342894" lon="5.560384119109124"><ele>599.0</ele><time>2026-04-26T15:44:03.999Z</time></trkpt><trkpt lat="43.90042458744466" lon="5.5603027733223005"><ele>599.0</ele><time>2026-04-26T15:44:05.999Z</time></trkpt><trkpt lat="43.90047659931261" lon="5.560238504157054"><ele>599.0</ele><time>2026-04-26T15:44:07.999Z</time></trkpt><trkpt lat="43.900528922868766" lon="5.560185553907781"><ele>599.0</ele><time>2026-04-26T15:44:09.999Z</time></trkpt><trkpt lat="43.90058471529287" lon="5.560139577321114"><ele>599.0</ele><time>2026-04-26T15:44:12.999Z</time></trkpt><trkpt lat="43.90065429677628" lon="5.560089681047593"><ele>600.1666666666666</ele><time>2026-04-26T15:44:14.999Z</time></trkpt><trkpt lat="43.90071866548458" lon="5.560045889951136"><ele>601.3333333333333</ele><time>2026-04-26T15:44:16.999Z</time></trkpt><trkpt lat="43.900784933824866" lon="5.560002368904521"><ele>602.5</ele><time>2026-04-26T15:44:20.999Z</time></trkpt><trkpt lat="43.90086140724507" lon="5.559952145790609"><ele>603.6666666666666</ele><time>2026-04-26T15:44:22.999Z</time></trkpt><trkpt lat="43.90096177473055" lon="5.55988616891184"><ele>604.8333333333334</ele><time>2026-04-26T15:44:24.999Z</time></trkpt><trkpt lat="43.9010373574455" lon="5.5598931457369165"><ele>606.0</ele><time>2026-04-26T15:44:26.999Z</time></trkpt><trkpt lat="43.901059844394766" lon="5.5599829064350725"><ele>606.0</ele><time>2026-04-26T15:44:32Z</time></trkpt><trkpt lat="43.901178331899075" lon="5.5599629780538775"><ele>606.0</ele><time>2026-04-26T15:44:45Z</time></trkpt><trkpt lat="43.90125214331757" lon="5.55992185619744"><ele>606.0</ele><time>2026-04-26T15:44:47Z</time></trkpt><trkpt lat="43.901388365304925" lon="5.55985391491537"><ele>606.0</ele><time>2026-04-26T15:44:49Z</time></trkpt><trkpt lat="43.901449714218565" lon="5.559791431145467"><ele>606.0</ele><time>2026-04-26T15:44:50Z</time></trkpt><trkpt lat="43.901525982542886" lon="5.55971345146266"><ele>606.0</ele><time>2026-04-26T15:44:51Z</time></trkpt><trkpt lat="43.90160354717251" lon="5.5596386901303205"><ele>606.0</ele><time>2026-04-26T15:44:52Z</time></trkpt><trkpt lat="43.901705380247144" lon="5.559535521032066"><ele>606.0</ele><time>2026-04-26T15:44:53Z</time></trkpt><trkpt lat="43.90182814193234" lon="5.5594032333601255"><ele>606.0</ele><time>2026-04-26T15:44:54Z</time></trkpt><trkpt lat="43.90196230915016" lon="5.55930935077856"><ele>606.2</ele><time>2026-04-26T15:44:55Z</time></trkpt><trkpt lat="43.90207408758644" lon="5.559233426734877"><ele>606.4000000000001</ele><time>2026-04-26T15:44:56Z</time></trkpt><trkpt lat="43.9021309663146" lon="5.559112742745355"><ele>606.6</ele><time>2026-04-26T15:44:58Z</time></trkpt><trkpt lat="43.90216266835496" lon="5.559012052912692"><ele>606.8000000000001</ele><time>2026-04-26T15:45:00Z</time></trkpt><trkpt lat="43.90215220357957" lon="5.558903935565692"><ele>607.0</ele><time>2026-04-26T15:45:11Z</time></trkpt><trkpt lat="43.902258807094114" lon="5.558854436790924"><ele>607.0</ele><time>2026-04-26T15:45:13Z</time></trkpt><trkpt lat="43.90231575209818" lon="5.558727170587417"><ele>607.0</ele><time>2026-04-26T15:45:15Z</time></trkpt><trkpt lat="43.902415802237726" lon="5.558557598026716"><ele>607.0</ele><time>2026-04-26T15:45:17Z</time></trkpt><trkpt lat="43.90244945714184" lon="5.55846685222983"><ele>607.0</ele><time>2026-04-26T15:45:18Z</time></trkpt><trkpt lat="43.902481792856065" lon="5.558364083429834"><ele>607.0</ele><time>2026-04-26T15:45:19Z</time></trkpt><trkpt lat="43.90250652941553" lon="5.5582825326747"><ele>606.8333333333334</ele><time>2026-04-26T15:45:20Z</time></trkpt><trkpt lat="43.902543198879414" lon="5.558127258587324"><ele>606.6666666666667</ele><time>2026-04-26T15:45:22Z</time></trkpt><trkpt lat="43.90257383126367" lon="5.558043762127407"><ele>606.5</ele><time>2026-04-26T15:45:22.999Z</time></trkpt><trkpt lat="43.902596898704005" lon="5.557952286751164"><ele>606.3333333333334</ele><time>2026-04-26T15:45:23.999Z</time></trkpt><trkpt lat="43.90263103433834" lon="5.5578681690458485"><ele>606.1666666666666</ele><time>2026-04-26T15:45:24.999Z</time></trkpt><trkpt lat="43.90265657269795" lon="5.55777594061253"><ele>606.0</ele><time>2026-04-26T15:45:25.999Z</time></trkpt><trkpt lat="43.90268737261132" lon="5.55766197502832"><ele>606.0</ele><time>2026-04-26T15:45:26.999Z</time></trkpt><trkpt lat="43.902715387234295" lon="5.5575583155606605"><ele>606.0</ele><time>2026-04-26T15:45:27.999Z</time></trkpt><trkpt lat="43.90274547775886" lon="5.557446974843636"><ele>606.0</ele><time>2026-04-26T15:45:28.999Z</time></trkpt><trkpt lat="43.90277667656157" lon="5.557335494149937"><ele>606.0</ele><time>2026-04-26T15:45:29.999Z</time></trkpt><trkpt lat="43.90280592445185" lon="5.557231305269432"><ele>606.0</ele><time>2026-04-26T15:45:30.999Z</time></trkpt><trkpt lat="43.902838201038065" lon="5.557116327284479"><ele>606.0</ele><time>2026-04-26T15:45:31.999Z</time></trkpt><trkpt lat="43.90286968484851" lon="5.557001410749763"><ele>607.6</ele><time>2026-04-26T15:45:32.999Z</time></trkpt><trkpt lat="43.90289965475997" lon="5.556888028693705"><ele>609.2</ele><time>2026-04-26T15:45:33.999Z</time></trkpt><trkpt lat="43.902928858197484" lon="5.556777546379602"><ele>610.8</ele><time>2026-04-26T15:45:34.999Z</time></trkpt><trkpt lat="43.90296102250961" lon="5.556655862469084"><ele>612.4</ele><time>2026-04-26T15:45:35.999Z</time></trkpt><trkpt lat="43.902994068574934" lon="5.556531813172699"><ele>614.0</ele><time>2026-04-26T15:45:36.999Z</time></trkpt><trkpt lat="43.903028928285714" lon="5.556413167238878"><ele>614.0</ele><time>2026-04-26T15:45:37.999Z</time></trkpt><trkpt lat="43.90306430308246" lon="5.556302933744134"><ele>614.0</ele><time>2026-04-26T15:45:38.999Z</time></trkpt><trkpt lat="43.90310906236343" lon="5.556192074007187"><ele>614.0</ele><time>2026-04-26T15:45:39.999Z</time></trkpt><trkpt lat="43.90315891284787" lon="5.556089276775212"><ele>614.0</ele><time>2026-04-26T15:45:40.999Z</time></trkpt><trkpt lat="43.90321150050517" lon="5.556004347300192"><ele>614.0</ele><time>2026-04-26T15:45:41.999Z</time></trkpt><trkpt lat="43.90326626691752" lon="5.555925835360458"><ele>614.0</ele><time>2026-04-26T15:45:42.999Z</time></trkpt><trkpt lat="43.90334854217765" lon="5.5558205972796335"><ele>613.4</ele><time>2026-04-26T15:45:43.999Z</time></trkpt><trkpt lat="43.90342599739526" lon="5.55573212826712"><ele>612.8</ele><time>2026-04-26T15:45:44.999Z</time></trkpt><trkpt lat="43.90350463022679" lon="5.555647324568368"><ele>612.2</ele><time>2026-04-26T15:45:45.999Z</time></trkpt><trkpt lat="43.903595366340575" lon="5.555565620577353"><ele>611.6</ele><time>2026-04-26T15:45:46.999Z</time></trkpt><trkpt lat="43.903689635046064" lon="5.555484253522316"><ele>611.0</ele><time>2026-04-26T15:45:47.999Z</time></trkpt><trkpt lat="43.90377192600903" lon="5.555403744085256"><ele>613.2</ele><time>2026-04-26T15:45:48.999Z</time></trkpt><trkpt lat="43.90385655092524" lon="5.55531631260863"><ele>615.4000000000001</ele><time>2026-04-26T15:45:49.999Z</time></trkpt><trkpt lat="43.9039248201506" lon="5.555245779330199"><ele>617.6</ele><time>2026-04-26T15:45:50.999Z</time></trkpt><trkpt lat="43.904028255643325" lon="5.5551428248327435"><ele>619.8000000000001</ele><time>2026-04-26T15:45:51.999Z</time></trkpt><trkpt lat="43.90411713752523" lon="5.555054434240178"><ele>622.0</ele><time>2026-04-26T15:45:52.999Z</time></trkpt><trkpt lat="43.904181124158285" lon="5.5549723804942674"><ele>619.4</ele><time>2026-04-26T15:45:53.999Z</time></trkpt><trkpt lat="43.904277748980256" lon="5.554900212055291"><ele>616.8000000000001</ele><time>2026-04-26T15:45:54.999Z</time></trkpt><trkpt lat="43.90435549188621" lon="5.554795711664292"><ele>614.2</ele><time>2026-04-26T15:45:55.999Z</time></trkpt><trkpt lat="43.90445272724193" lon="5.554724003892725"><ele>611.6</ele><time>2026-04-26T15:45:56.999Z</time></trkpt><trkpt lat="43.90452284923621" lon="5.554617979184444"><ele>609.0</ele><time>2026-04-26T15:45:57.999Z</time></trkpt><trkpt lat="43.90461054166091" lon="5.554541572392543"><ele>611.5</ele><time>2026-04-26T15:45:58.999Z</time></trkpt><trkpt lat="43.904701521796305" lon="5.554405303371823"><ele>614.0</ele><time>2026-04-26T15:45:59.999Z</time></trkpt><trkpt lat="43.904774649806484" lon="5.554267932256576"><ele>616.5</ele><time>2026-04-26T15:46:00.999Z</time></trkpt><trkpt lat="43.904843040330505" lon="5.5541276955791"><ele>619.0</ele><time>2026-04-26T15:46:01.999Z</time></trkpt><trkpt lat="43.904911742413525" lon="5.553985290081121"><ele>619.0</ele><time>2026-04-26T15:46:02.999Z</time></trkpt><trkpt lat="43.90498083132232" lon="5.553836356888015"><ele>619.0</ele><time>2026-04-26T15:46:03.999Z</time></trkpt><trkpt lat="43.905035904833746" lon="5.553694490778479"><ele>619.0</ele><time>2026-04-26T15:46:04.999Z</time></trkpt><trkpt lat="43.90507130411015" lon="5.553537827299007"><ele>619.0</ele><time>2026-04-26T15:46:05.999Z</time></trkpt><trkpt lat="43.90508601683044" lon="5.55336056205803"><ele>618.25</ele><time>2026-04-26T15:46:06.999Z</time></trkpt><trkpt lat="43.90508928971364" lon="5.553200714168783"><ele>617.5</ele><time>2026-04-26T15:46:07.999Z</time></trkpt><trkpt lat="43.90509217789871" lon="5.553035958215264"><ele>616.75</ele><time>2026-04-26T15:46:08.999Z</time></trkpt><trkpt lat="43.90508193835758" lon="5.552873847286574"><ele>616.0</ele><time>2026-04-26T15:46:09.999Z</time></trkpt><trkpt lat="43.90510687422308" lon="5.552721274287201"><ele>616.0</ele><time>2026-04-26T15:46:10.999Z</time></trkpt><trkpt lat="43.90510754642665" lon="5.552576240711003"><ele>616.0</ele><time>2026-04-26T15:46:11.999Z</time></trkpt><trkpt lat="43.905137343892235" lon="5.552430348105497"><ele>616.0</ele><time>2026-04-26T15:46:12.999Z</time></trkpt><trkpt lat="43.90516822828181" lon="5.552286151019947"><ele>616.0</ele><time>2026-04-26T15:46:13.999Z</time></trkpt><trkpt lat="43.90520828555103" lon="5.552151708203496"><ele>616.0</ele><time>2026-04-26T15:46:14.999Z</time></trkpt><trkpt lat="43.90525947229402" lon="5.552002793854913"><ele>617.75</ele><time>2026-04-26T15:46:15.999Z</time></trkpt><trkpt lat="43.90532095792454" lon="5.551866510681347"><ele>619.5</ele><time>2026-04-26T15:46:16.999Z</time></trkpt><trkpt lat="43.905381548638054" lon="5.551737363068672"><ele>621.25</ele><time>2026-04-26T15:46:17.999Z</time></trkpt><trkpt lat="43.905447187216915" lon="5.551614788300876"><ele>623.0</ele><time>2026-04-26T15:46:18.999Z</time></trkpt><trkpt lat="43.905517970796154" lon="5.551487905950059"><ele>623.0</ele><time>2026-04-26T15:46:19.999Z</time></trkpt><trkpt lat="43.905586514932246" lon="5.551370724117584"><ele>623.0</ele><time>2026-04-26T15:46:20.999Z</time></trkpt><trkpt lat="43.90564857332673" lon="5.551246681556411"><ele>623.0</ele><time>2026-04-26T15:46:21.999Z</time></trkpt><trkpt lat="43.905709789353956" lon="5.551116962916619"><ele>623.0</ele><time>2026-04-26T15:46:22.999Z</time></trkpt><trkpt lat="43.90576096444001" lon="5.550985431059984"><ele>623.0</ele><time>2026-04-26T15:46:23.999Z</time></trkpt><trkpt lat="43.905828563623324" lon="5.550853377362474"><ele>622.5</ele><time>2026-04-26T15:46:24.999Z</time></trkpt><trkpt lat="43.905906479057116" lon="5.550732499087329"><ele>622.0</ele><time>2026-04-26T15:46:25.999Z</time></trkpt><trkpt lat="43.905973477832795" lon="5.5505981594057445"><ele>621.5</ele><time>2026-04-26T15:46:26.999Z</time></trkpt><trkpt lat="43.90603630391404" lon="5.550465401200235"><ele>621.0</ele><time>2026-04-26T15:46:27.999Z</time></trkpt><trkpt lat="43.906096956205026" lon="5.550336263254448"><ele>623.0</ele><time>2026-04-26T15:46:28.999Z</time></trkpt><trkpt lat="43.90616944049309" lon="5.5502156820302275"><ele>625.0</ele><time>2026-04-26T15:46:29.999Z</time></trkpt><trkpt lat="43.906240775493444" lon="5.550092075068885"><ele>627.0</ele><time>2026-04-26T15:46:30.999Z</time></trkpt><trkpt lat="43.90630439781363" lon="5.549966275271057"><ele>629.0</ele><time>2026-04-26T15:46:31.999Z</time></trkpt><trkpt lat="43.90637425552801" lon="5.549840902777611"><ele>629.0</ele><time>2026-04-26T15:46:32.999Z</time></trkpt><trkpt lat="43.90644611068911" lon="5.549716561092648"><ele>629.0</ele><time>2026-04-26T15:46:34Z</time></trkpt><trkpt lat="43.90651532032588" lon="5.549594627346978"><ele>629.0</ele><time>2026-04-26T15:46:35Z</time></trkpt><trkpt lat="43.90659018022609" lon="5.549469148112135"><ele>629.0</ele><time>2026-04-26T15:46:36Z</time></trkpt><trkpt lat="43.90666043595616" lon="5.549358040118678"><ele>629.8</ele><time>2026-04-26T15:46:37Z</time></trkpt><trkpt lat="43.9067470847073" lon="5.549260651594261"><ele>630.5999999999999</ele><time>2026-04-26T15:46:38Z</time></trkpt><trkpt lat="43.90684370821762" lon="5.549194477735288"><ele>631.4</ele><time>2026-04-26T15:46:39Z</time></trkpt><trkpt lat="43.90694890375186" lon="5.549138275759147"><ele>632.1999999999999</ele><time>2026-04-26T15:46:40Z</time></trkpt><trkpt lat="43.90705096858841" lon="5.549080401356615"><ele>633.0</ele><time>2026-04-26T15:46:41Z</time></trkpt><trkpt lat="43.90715050786918" lon="5.549031272175858"><ele>633.0</ele><time>2026-04-26T15:46:42Z</time></trkpt><trkpt lat="43.90726192908174" lon="5.548987857853811"><ele>633.0</ele><time>2026-04-26T15:46:43Z</time></trkpt><trkpt lat="43.90736060036669" lon="5.548932931847303"><ele>633.0</ele><time>2026-04-26T15:46:44Z</time></trkpt><trkpt lat="43.90745912003844" lon="5.548866258005428"><ele>633.0</ele><time>2026-04-26T15:46:45Z</time></trkpt><trkpt lat="43.90754865615116" lon="5.548793820169139"><ele>633.0</ele><time>2026-04-26T15:46:46Z</time></trkpt><trkpt lat="43.90763554251828" lon="5.548710104288517"><ele>633.0</ele><time>2026-04-26T15:46:47Z</time></trkpt><trkpt lat="43.90772784665423" lon="5.548627034381286"><ele>633.0</ele><time>2026-04-26T15:46:48Z</time></trkpt><trkpt lat="43.90780106937446" lon="5.548520356210405"><ele>633.0</ele><time>2026-04-26T15:46:49Z</time></trkpt><trkpt lat="43.907862410949896" lon="5.548399047370226"><ele>633.0</ele><time>2026-04-26T15:46:50Z</time></trkpt><trkpt lat="43.907920272550065" lon="5.548261246315081"><ele>633.0</ele><time>2026-04-26T15:46:51Z</time></trkpt><trkpt lat="43.90796267146063" lon="5.548098729127108"><ele>633.0</ele><time>2026-04-26T15:46:52Z</time></trkpt><trkpt lat="43.907992467044515" lon="5.547932076934201"><ele>633.0</ele><time>2026-04-26T15:46:53Z</time></trkpt><trkpt lat="43.908015745641" lon="5.547762882329968"><ele>633.0</ele><time>2026-04-26T15:46:54Z</time></trkpt><trkpt lat="43.908037991912074" lon="5.547595620155428"><ele>633.0</ele><time>2026-04-26T15:46:55Z</time></trkpt><trkpt lat="43.90805818812552" lon="5.547430434891026"><ele>633.5</ele><time>2026-04-26T15:46:56Z</time></trkpt><trkpt lat="43.90806235734428" lon="5.54726659805442"><ele>634.0</ele><time>2026-04-26T15:46:57Z</time></trkpt><trkpt lat="43.90808942525115" lon="5.547108193763643"><ele>634.5</ele><time>2026-04-26T15:46:58Z</time></trkpt><trkpt lat="43.90810515177379" lon="5.546952087243356"><ele>635.0</ele><time>2026-04-26T15:46:59Z</time></trkpt><trkpt lat="43.90812999984228" lon="5.5467985113023"><ele>635.75</ele><time>2026-04-26T15:47:00Z</time></trkpt><trkpt lat="43.9081459261458" lon="5.546639761870945"><ele>636.5</ele><time>2026-04-26T15:47:01Z</time></trkpt><trkpt lat="43.9081777782829" lon="5.546485370312249"><ele>637.25</ele><time>2026-04-26T15:47:02Z</time></trkpt><trkpt lat="43.908196043613096" lon="5.546335976790881"><ele>638.0</ele><time>2026-04-26T15:47:03Z</time></trkpt><trkpt lat="43.908212681473586" lon="5.546176954650168"><ele>639.25</ele><time>2026-04-26T15:47:04Z</time></trkpt><trkpt lat="43.90822531563962" lon="5.546023832333331"><ele>640.5</ele><time>2026-04-26T15:47:05Z</time></trkpt><trkpt lat="43.908217724134744" lon="5.545864032248027"><ele>641.75</ele><time>2026-04-26T15:47:06Z</time></trkpt><trkpt lat="43.90823134033404" lon="5.545704610061358"><ele>643.0</ele><time>2026-04-26T15:47:07Z</time></trkpt><trkpt lat="43.90822746111864" lon="5.545548190529357"><ele>643.0</ele><time>2026-04-26T15:47:08Z</time></trkpt><trkpt lat="43.908222841718995" lon="5.545393679528697"><ele>643.0</ele><time>2026-04-26T15:47:09Z</time></trkpt><trkpt lat="43.908217101505755" lon="5.545236987063035"><ele>643.0</ele><time>2026-04-26T15:47:10Z</time></trkpt><trkpt lat="43.90821179344275" lon="5.54507404809663"><ele>643.0</ele><time>2026-04-26T15:47:11Z</time></trkpt><trkpt lat="43.908208660975866" lon="5.544928228580545"><ele>643.0</ele><time>2026-04-26T15:47:12Z</time></trkpt><trkpt lat="43.9082079484112" lon="5.544789005867415"><ele>643.0</ele><time>2026-04-26T15:47:13Z</time></trkpt><trkpt lat="43.908220344598874" lon="5.544660178128783"><ele>643.0</ele><time>2026-04-26T15:47:14Z</time></trkpt><trkpt lat="43.908244358178955" lon="5.54454571663555"><ele>643.0</ele><time>2026-04-26T15:47:15Z</time></trkpt><trkpt lat="43.90827903726854" lon="5.544441693035622"><ele>643.0</ele><time>2026-04-26T15:47:16Z</time></trkpt><trkpt lat="43.90832088860952" lon="5.544366957938786"><ele>643.0</ele><time>2026-04-26T15:47:17Z</time></trkpt><trkpt lat="43.908366752778306" lon="5.544297806721704"><ele>643.0</ele><time>2026-04-26T15:47:18Z</time></trkpt><trkpt lat="43.90846162224993" lon="5.544189779253173"><ele>643.75</ele><time>2026-04-26T15:47:20Z</time></trkpt><trkpt lat="43.908566224244105" lon="5.544144278550617"><ele>644.5</ele><time>2026-04-26T15:47:22Z</time></trkpt><trkpt lat="43.90860066608346" lon="5.543913757902278"><ele>645.25</ele><time>2026-04-26T15:47:23Z</time></trkpt><trkpt lat="43.908629963576125" lon="5.5437788208601395"><ele>646.0</ele><time>2026-04-26T15:47:24Z</time></trkpt><trkpt lat="43.908652880102046" lon="5.543668876957498"><ele>646.1666666666667</ele><time>2026-04-26T15:47:25Z</time></trkpt><trkpt lat="43.90866303965726" lon="5.543539961896723"><ele>646.3333333333334</ele><time>2026-04-26T15:47:26Z</time></trkpt><trkpt lat="43.90869916567841" lon="5.543432831840687"><ele>646.5</ele><time>2026-04-26T15:47:27Z</time></trkpt><trkpt lat="43.9087206483115" lon="5.543315624042817"><ele>646.6666666666666</ele><time>2026-04-26T15:47:28Z</time></trkpt><trkpt lat="43.90874114025277" lon="5.54320382139697"><ele>646.8333333333333</ele><time>2026-04-26T15:47:29Z</time></trkpt><trkpt lat="43.90876042333732" lon="5.543084331764976"><ele>647.0</ele><time>2026-04-26T15:47:30Z</time></trkpt><trkpt lat="43.90876454843698" lon="5.542944828695761"><ele>647.25</ele><time>2026-04-26T15:47:31Z</time></trkpt><trkpt lat="43.90874607164328" lon="5.542779999251545"><ele>647.5</ele><time>2026-04-26T15:47:32Z</time></trkpt><trkpt lat="43.908719102670034" lon="5.542577171913387"><ele>647.75</ele><time>2026-04-26T15:47:32.999Z</time></trkpt><trkpt lat="43.90869827012556" lon="5.542413895694587"><ele>648.0</ele><time>2026-04-26T15:47:33.999Z</time></trkpt><trkpt lat="43.90868326949277" lon="5.5422963275477715"><ele>648.0</ele><time>2026-04-26T15:47:34.999Z</time></trkpt><trkpt lat="43.90867416388321" lon="5.542180373471328"><ele>648.0</ele><time>2026-04-26T15:47:35.999Z</time></trkpt><trkpt lat="43.90866780617981" lon="5.542059323334044"><ele>648.0</ele><time>2026-04-26T15:47:36.999Z</time></trkpt><trkpt lat="43.90867428963697" lon="5.541930170584145"><ele>648.0</ele><time>2026-04-26T15:47:37.999Z</time></trkpt><trkpt lat="43.90868805705799" lon="5.5418086905676445"><ele>648.0</ele><time>2026-04-26T15:47:38.999Z</time></trkpt><trkpt lat="43.908715655266114" lon="5.541616780257881"><ele>647.5</ele><time>2026-04-26T15:47:39.999Z</time></trkpt><trkpt lat="43.908748559633715" lon="5.54138712663056"><ele>647.0</ele><time>2026-04-26T15:47:40.999Z</time></trkpt><trkpt lat="43.90877147801021" lon="5.541217473681818"><ele>646.5</ele><time>2026-04-26T15:47:41.999Z</time></trkpt><trkpt lat="43.908808971170814" lon="5.541025484210698"><ele>646.0</ele><time>2026-04-26T15:47:42.999Z</time></trkpt><trkpt lat="43.90882197678411" lon="5.540775757790729"><ele>645.25</ele><time>2026-04-26T15:47:43.999Z</time></trkpt><trkpt lat="43.90884500236031" lon="5.540601464976155"><ele>644.5</ele><time>2026-04-26T15:47:44.999Z</time></trkpt><trkpt lat="43.908870290219134" lon="5.540465763911907"><ele>643.75</ele><time>2026-04-26T15:47:45.999Z</time></trkpt><trkpt lat="43.90889394654075" lon="5.5403309727335115"><ele>643.0</ele><time>2026-04-26T15:47:46.999Z</time></trkpt><trkpt lat="43.90911565802674" lon="5.540304103682985"><ele>639.0</ele><time>2026-04-26T15:47:48.999Z</time></trkpt><trkpt lat="43.90917505884132" lon="5.540219706389135"><ele>635.0</ele><time>2026-04-26T15:47:49.999Z</time></trkpt><trkpt lat="43.90907336840485" lon="5.539724166160132"><ele>635.0</ele><time>2026-04-26T15:47:52.999Z</time></trkpt><trkpt lat="43.90911682170724" lon="5.539620060042231"><ele>635.0</ele><time>2026-04-26T15:47:53.999Z</time></trkpt><trkpt lat="43.90919514355411" lon="5.53953583221065"><ele>635.0</ele><time>2026-04-26T15:47:54.999Z</time></trkpt><trkpt lat="43.90927674196288" lon="5.539476002439475"><ele>635.0</ele><time>2026-04-26T15:47:55.999Z</time></trkpt><trkpt lat="43.909347189058444" lon="5.539438932513123"><ele>635.0</ele><time>2026-04-26T15:47:56.999Z</time></trkpt><trkpt lat="43.90943459173234" lon="5.539420767772729"><ele>635.0</ele><time>2026-04-26T15:47:57.999Z</time></trkpt><trkpt lat="43.909529422734785" lon="5.539395030743515"><ele>633.4</ele><time>2026-04-26T15:47:58.999Z</time></trkpt><trkpt lat="43.909642278718074" lon="5.539405589582145"><ele>631.8</ele><time>2026-04-26T15:48:00.999Z</time></trkpt><trkpt lat="43.90970750292849" lon="5.539413925587054"><ele>630.2</ele><time>2026-04-26T15:48:01.999Z</time></trkpt><trkpt lat="43.909825699048056" lon="5.539394478620497"><ele>628.6</ele><time>2026-04-26T15:48:03.999Z</time></trkpt><trkpt lat="43.90986159016619" lon="5.53931446910584"><ele>627.0</ele><time>2026-04-26T15:48:04.999Z</time></trkpt><trkpt lat="43.909918354476595" lon="5.539196224065997"><ele>627.0</ele><time>2026-04-26T15:48:05.999Z</time></trkpt><trkpt lat="43.90996908903853" lon="5.539083931592678"><ele>627.0</ele><time>2026-04-26T15:48:06.999Z</time></trkpt><trkpt lat="43.91001109005349" lon="5.538931319249011"><ele>627.0</ele><time>2026-04-26T15:48:07.999Z</time></trkpt><trkpt lat="43.910005345047466" lon="5.5387145710493915"><ele>627.0</ele><time>2026-04-26T15:48:08.999Z</time></trkpt><trkpt lat="43.910021295448665" lon="5.5385103831647085"><ele>627.2</ele><time>2026-04-26T15:48:09.999Z</time></trkpt><trkpt lat="43.91004604102297" lon="5.538351475616536"><ele>627.4000000000001</ele><time>2026-04-26T15:48:10.999Z</time></trkpt><trkpt lat="43.910069444880214" lon="5.538212415003976"><ele>627.5999999999999</ele><time>2026-04-26T15:48:11.999Z</time></trkpt><trkpt lat="43.910096775532885" lon="5.5381071570789215"><ele>627.8</ele><time>2026-04-26T15:48:12.999Z</time></trkpt><trkpt lat="43.91011773225311" lon="5.538001222454032"><ele>628.0</ele><time>2026-04-26T15:48:13.999Z</time></trkpt><trkpt lat="43.91015756258724" lon="5.537893675194702"><ele>625.8333333333334</ele><time>2026-04-26T15:48:14.999Z</time></trkpt><trkpt lat="43.910207798773534" lon="5.537808986417279"><ele>623.6666666666667</ele><time>2026-04-26T15:48:15.999Z</time></trkpt><trkpt lat="43.91024856279301" lon="5.537736472951173"><ele>621.5</ele><time>2026-04-26T15:48:16.999Z</time></trkpt><trkpt lat="43.91031675755609" lon="5.537679125054632"><ele>619.3333333333334</ele><time>2026-04-26T15:48:18.999Z</time></trkpt><trkpt lat="43.910372780852434" lon="5.537589728835549"><ele>617.1666666666666</ele><time>2026-04-26T15:48:20.999Z</time></trkpt><trkpt lat="43.91047417912853" lon="5.537534933637986"><ele>615.0</ele><time>2026-04-26T15:48:22.999Z</time></trkpt><trkpt lat="43.91057500964033" lon="5.537478812045136"><ele>615.0</ele><time>2026-04-26T15:48:24.999Z</time></trkpt><trkpt lat="43.91068007058753" lon="5.537466843016619"><ele>615.0</ele><time>2026-04-26T15:48:26.999Z</time></trkpt><trkpt lat="43.91078762540005" lon="5.537467599906357"><ele>615.0</ele><time>2026-04-26T15:48:28.999Z</time></trkpt><trkpt lat="43.91091361658495" lon="5.537469926395979"><ele>615.0</ele><time>2026-04-26T15:48:30.999Z</time></trkpt><trkpt lat="43.91098928703072" lon="5.537470117159736"><ele>615.0</ele><time>2026-04-26T15:48:31.999Z</time></trkpt><trkpt lat="43.91106545630727" lon="5.537450752224672"><ele>613.8333333333334</ele><time>2026-04-26T15:48:32.999Z</time></trkpt><trkpt lat="43.911145736575605" lon="5.537427643199727"><ele>612.6666666666666</ele><time>2026-04-26T15:48:33.999Z</time></trkpt><trkpt lat="43.91121908461385" lon="5.537394134117661"><ele>611.5</ele><time>2026-04-26T15:48:34.999Z</time></trkpt><trkpt lat="43.911289562495575" lon="5.537367179773081"><ele>610.3333333333333</ele><time>2026-04-26T15:48:35.999Z</time></trkpt><trkpt lat="43.91135755680188" lon="5.5373258256866675"><ele>609.1666666666666</ele><time>2026-04-26T15:48:36.999Z</time></trkpt><trkpt lat="43.91140118107666" lon="5.537249204012689"><ele>608.0</ele><time>2026-04-26T15:48:38.999Z</time></trkpt><trkpt lat="43.91137569334632" lon="5.537143236254158"><ele>608.0</ele><time>2026-04-26T15:48:41Z</time></trkpt><trkpt lat="43.91133587363443" lon="5.537055360422502"><ele>608.0</ele><time>2026-04-26T15:48:42Z</time></trkpt><trkpt lat="43.91134769498881" lon="5.536928845254651"><ele>608.0</ele><time>2026-04-26T15:48:43Z</time></trkpt><trkpt lat="43.9113152957425" lon="5.536803880542914"><ele>608.0</ele><time>2026-04-26T15:48:44Z</time></trkpt><trkpt lat="43.91129483571496" lon="5.536641629638222"><ele>608.0</ele><time>2026-04-26T15:48:45Z</time></trkpt><trkpt lat="43.911268656619455" lon="5.536489186130334"><ele>608.3333333333333</ele><time>2026-04-26T15:48:46Z</time></trkpt><trkpt lat="43.911226574492986" lon="5.536347721877324"><ele>608.6666666666666</ele><time>2026-04-26T15:48:47Z</time></trkpt><trkpt lat="43.91118893572751" lon="5.536226623188433"><ele>609.0</ele><time>2026-04-26T15:48:48Z</time></trkpt><trkpt lat="43.911158970342875" lon="5.536124102951192"><ele>609.3333333333334</ele><time>2026-04-26T15:48:49Z</time></trkpt><trkpt lat="43.91113250257636" lon="5.5360300309456"><ele>609.6666666666667</ele><time>2026-04-26T15:48:50Z</time></trkpt><trkpt lat="43.91111421751355" lon="5.5359452312327715"><ele>610.0</ele><time>2026-04-26T15:48:51Z</time></trkpt><trkpt lat="43.91109816758289" lon="5.535859862818327"><ele>609.0</ele><time>2026-04-26T15:48:52Z</time></trkpt><trkpt lat="43.91110696541843" lon="5.5357656198993"><ele>608.0</ele><time>2026-04-26T15:48:54Z</time></trkpt><trkpt lat="43.91116934481404" lon="5.535664092951624"><ele>607.0</ele><time>2026-04-26T15:48:56Z</time></trkpt><trkpt lat="43.91122105373018" lon="5.535588665135942"><ele>606.0</ele><time>2026-04-26T15:48:57Z</time></trkpt><trkpt lat="43.911252928600774" lon="5.535505816514907"><ele>605.0</ele><time>2026-04-26T15:48:58Z</time></trkpt><trkpt lat="43.911311055082685" lon="5.535436685994923"><ele>604.0</ele><time>2026-04-26T15:48:59Z</time></trkpt><trkpt lat="43.91135625882372" lon="5.535334756302338"><ele>603.0</ele><time>2026-04-26T15:49:00Z</time></trkpt><trkpt lat="43.91138584180171" lon="5.535222496561193"><ele>602.0</ele><time>2026-04-26T15:49:01Z</time></trkpt><trkpt lat="43.91139008220442" lon="5.535102615114038"><ele>601.0</ele><time>2026-04-26T15:49:02Z</time></trkpt><trkpt lat="43.91132561986795" lon="5.534946596328217"><ele>600.0</ele><time>2026-04-26T15:49:03Z</time></trkpt><trkpt lat="43.91129891515834" lon="5.53478949388914"><ele>599.0</ele><time>2026-04-26T15:49:04Z</time></trkpt><trkpt lat="43.911274698869455" lon="5.534624003233622"><ele>597.6666666666666</ele><time>2026-04-26T15:49:05Z</time></trkpt><trkpt lat="43.91124876220393" lon="5.534446755771257"><ele>596.3333333333334</ele><time>2026-04-26T15:49:06Z</time></trkpt><trkpt lat="43.91121948760566" lon="5.5342346793788675"><ele>595.0</ele><time>2026-04-26T15:49:07Z</time></trkpt><trkpt lat="43.911185894522184" lon="5.5340021315715395"><ele>595.0</ele><time>2026-04-26T15:49:08Z</time></trkpt><trkpt lat="43.91114476260612" lon="5.533748513829554"><ele>595.0</ele><time>2026-04-26T15:49:09Z</time></trkpt><trkpt lat="43.911101192164836" lon="5.533499128117113"><ele>595.0</ele><time>2026-04-26T15:49:10Z</time></trkpt><trkpt lat="43.911059620444476" lon="5.53326660757464"><ele>594.5</ele><time>2026-04-26T15:49:11Z</time></trkpt><trkpt lat="43.911026924582686" lon="5.533084734058824"><ele>594.0</ele><time>2026-04-26T15:49:12Z</time></trkpt><trkpt lat="43.91098704623893" lon="5.532925449750734"><ele>593.5</ele><time>2026-04-26T15:49:13Z</time></trkpt><trkpt lat="43.910961484722264" lon="5.532766308752301"><ele>593.0</ele><time>2026-04-26T15:49:14Z</time></trkpt><trkpt lat="43.91092724702817" lon="5.532604945242502"><ele>590.75</ele><time>2026-04-26T15:49:15Z</time></trkpt><trkpt lat="43.910901678365626" lon="5.532416964793826"><ele>588.5</ele><time>2026-04-26T15:49:16Z</time></trkpt><trkpt lat="43.91089248337822" lon="5.532259667091457"><ele>586.25</ele><time>2026-04-26T15:49:17Z</time></trkpt><trkpt lat="43.91086037209145" lon="5.532122833119953"><ele>584.0</ele><time>2026-04-26T15:49:18Z</time></trkpt><trkpt lat="43.910839034570245" lon="5.531986348503984"><ele>584.0</ele><time>2026-04-26T15:49:19Z</time></trkpt><trkpt lat="43.910798111843114" lon="5.531859236147934"><ele>584.0</ele><time>2026-04-26T15:49:20Z</time></trkpt><trkpt lat="43.910753679667025" lon="5.531739167235454"><ele>584.0</ele><time>2026-04-26T15:49:21Z</time></trkpt><trkpt lat="43.910714954016534" lon="5.531621383340975"><ele>584.0</ele><time>2026-04-26T15:49:22Z</time></trkpt><trkpt lat="43.91067747072136" lon="5.531471668230202"><ele>584.0</ele><time>2026-04-26T15:49:23Z</time></trkpt><trkpt lat="43.91065332453087" lon="5.531298423592921"><ele>583.25</ele><time>2026-04-26T15:49:24Z</time></trkpt><trkpt lat="43.91060811415314" lon="5.531094500554045"><ele>582.5</ele><time>2026-04-26T15:49:25Z</time></trkpt><trkpt lat="43.91058788877863" lon="5.530932234818313"><ele>581.75</ele><time>2026-04-26T15:49:26Z</time></trkpt><trkpt lat="43.910564415245055" lon="5.530779911121852"><ele>581.0</ele><time>2026-04-26T15:49:27Z</time></trkpt><trkpt lat="43.910531092983824" lon="5.530644580407868"><ele>581.0</ele><time>2026-04-26T15:49:28Z</time></trkpt><trkpt lat="43.910486363082505" lon="5.530513795326014"><ele>581.0</ele><time>2026-04-26T15:49:29Z</time></trkpt><trkpt lat="43.91042160100046" lon="5.530398631508474"><ele>581.0</ele><time>2026-04-26T15:49:30Z</time></trkpt><trkpt lat="43.9103764557837" lon="5.530257548696814"><ele>581.0</ele><time>2026-04-26T15:49:31Z</time></trkpt><trkpt lat="43.910328428518035" lon="5.530145143268569"><ele>581.0</ele><time>2026-04-26T15:49:32Z</time></trkpt><trkpt lat="43.910292059239055" lon="5.530019565126251"><ele>580.0</ele><time>2026-04-26T15:49:33Z</time></trkpt><trkpt lat="43.91027394592433" lon="5.5299083909665985"><ele>579.0</ele><time>2026-04-26T15:49:34Z</time></trkpt><trkpt lat="43.9102651449303" lon="5.529798168661372"><ele>578.0</ele><time>2026-04-26T15:49:35Z</time></trkpt><trkpt lat="43.91028552142755" lon="5.529669844180278"><ele>577.0</ele><time>2026-04-26T15:49:36Z</time></trkpt><trkpt lat="43.91031806735526" lon="5.529464301838149"><ele>576.0</ele><time>2026-04-26T15:49:37.999Z</time></trkpt><trkpt lat="43.91033220480854" lon="5.529349109253707"><ele>574.2857142857143</ele><time>2026-04-26T15:49:38.999Z</time></trkpt><trkpt lat="43.91034129875374" lon="5.529255397327393"><ele>572.5714285714286</ele><time>2026-04-26T15:49:39.999Z</time></trkpt><trkpt lat="43.91034174551267" lon="5.529160939243719"><ele>570.8571428571429</ele><time>2026-04-26T15:49:41.999Z</time></trkpt><trkpt lat="43.910411707614436" lon="5.529135580728865"><ele>569.1428571428571</ele><time>2026-04-26T15:49:44.999Z</time></trkpt><trkpt lat="43.91047978502754" lon="5.529189726983906"><ele>567.4285714285714</ele><time>2026-04-26T15:50:04.999Z</time></trkpt><trkpt lat="43.91045046500301" lon="5.5292737236809835"><ele>565.7142857142858</ele><time>2026-04-26T15:50:08.999Z</time></trkpt><trkpt lat="43.91045128963354" lon="5.529366106466574"><ele>564.0</ele><time>2026-04-26T15:50:10.999Z</time></trkpt><trkpt lat="43.91049463043574" lon="5.529450158455573"><ele>564.0</ele><time>2026-04-26T15:50:13.999Z</time></trkpt><trkpt lat="43.91048488525588" lon="5.529335400891992"><ele>564.0</ele><time>2026-04-26T15:50:16.999Z</time></trkpt><trkpt lat="43.91041106219261" lon="5.529269865346047"><ele>564.0</ele><time>2026-04-26T15:50:18.999Z</time></trkpt><trkpt lat="43.91035925606986" lon="5.5291068350691654"><ele>564.0</ele><time>2026-04-26T15:50:20.999Z</time></trkpt><trkpt lat="43.910336532671934" lon="5.529006255426914"><ele>564.0</ele><time>2026-04-26T15:50:21.999Z</time></trkpt><trkpt lat="43.91035576305" lon="5.528869547743597"><ele>560.5</ele><time>2026-04-26T15:50:22.999Z</time></trkpt><trkpt lat="43.91031174938307" lon="5.528685481776669"><ele>557.0</ele><time>2026-04-26T15:50:23.999Z</time></trkpt><trkpt lat="43.910245175259796" lon="5.528506017276382"><ele>553.5</ele><time>2026-04-26T15:50:24.999Z</time></trkpt><trkpt lat="43.910183734173515" lon="5.528348187732189"><ele>550.0</ele><time>2026-04-26T15:50:25.999Z</time></trkpt><trkpt lat="43.910134879864756" lon="5.5281420608492695"><ele>553.25</ele><time>2026-04-26T15:50:26.999Z</time></trkpt><trkpt lat="43.91007486794441" lon="5.527996238583541"><ele>556.5</ele><time>2026-04-26T15:50:27.999Z</time></trkpt><trkpt lat="43.91001441894474" lon="5.527871082081246"><ele>559.75</ele><time>2026-04-26T15:50:28.999Z</time></trkpt><trkpt lat="43.909949989601536" lon="5.527742121060729"><ele>563.0</ele><time>2026-04-26T15:50:29.999Z</time></trkpt><trkpt lat="43.909882738486466" lon="5.527609311130253"><ele>563.0</ele><time>2026-04-26T15:50:30.999Z</time></trkpt><trkpt lat="43.90981555204868" lon="5.5274812425727236"><ele>563.0</ele><time>2026-04-26T15:50:31.999Z</time></trkpt><trkpt lat="43.90974874297707" lon="5.52735240580817"><ele>563.0</ele><time>2026-04-26T15:50:32.999Z</time></trkpt><trkpt lat="43.90969093817574" lon="5.527227821298869"><ele>563.0</ele><time>2026-04-26T15:50:33.999Z</time></trkpt><trkpt lat="43.90963838338552" lon="5.527090041311997"><ele>563.0</ele><time>2026-04-26T15:50:34.999Z</time></trkpt><trkpt lat="43.90956395412991" lon="5.526968636019085"><ele>560.6666666666666</ele><time>2026-04-26T15:50:35.999Z</time></trkpt><trkpt lat="43.90951369829771" lon="5.526843411736609"><ele>558.3333333333333</ele><time>2026-04-26T15:50:36.999Z</time></trkpt><trkpt lat="43.90948045826472" lon="5.5267553545399455"><ele>556.0</ele><time>2026-04-26T15:50:37.999Z</time></trkpt><trkpt lat="43.90945131924829" lon="5.526641718993501"><ele>553.6666666666666</ele><time>2026-04-26T15:50:39.999Z</time></trkpt><trkpt lat="43.909416386163656" lon="5.526549698878063"><ele>551.3333333333334</ele><time>2026-04-26T15:50:42.999Z</time></trkpt><trkpt lat="43.909445801632785" lon="5.526627184216433"><ele>549.0</ele><time>2026-04-26T15:50:50Z</time></trkpt><trkpt lat="43.909539068377065" lon="5.526694163179777"><ele>549.0</ele><time>2026-04-26T15:50:53Z</time></trkpt><trkpt lat="43.90961488564325" lon="5.526797247371644"><ele>549.0</ele><time>2026-04-26T15:50:55Z</time></trkpt><trkpt lat="43.90970372963291" lon="5.526894767659935"><ele>549.0</ele><time>2026-04-26T15:50:57Z</time></trkpt><trkpt lat="43.90975247919612" lon="5.5269598938109255"><ele>549.0</ele><time>2026-04-26T15:50:58Z</time></trkpt><trkpt lat="43.9098414062241" lon="5.527055411469467"><ele>549.0</ele><time>2026-04-26T15:51:00Z</time></trkpt><trkpt lat="43.90991890221367" lon="5.527109534049141"><ele>547.6666666666666</ele><time>2026-04-26T15:51:02Z</time></trkpt><trkpt lat="43.90999819096926" lon="5.5271820476210864"><ele>546.3333333333334</ele><time>2026-04-26T15:51:04Z</time></trkpt><trkpt lat="43.91007507644059" lon="5.527254469929559"><ele>545.0</ele><time>2026-04-26T15:51:06Z</time></trkpt><trkpt lat="43.91016581045447" lon="5.5273513954431035"><ele>543.6666666666667</ele><time>2026-04-26T15:51:08Z</time></trkpt><trkpt lat="43.910215363130966" lon="5.527425455124781"><ele>542.3333333333334</ele><time>2026-04-26T15:51:09Z</time></trkpt><trkpt lat="43.91025985673051" lon="5.527503490433825"><ele>541.0</ele><time>2026-04-26T15:51:10Z</time></trkpt><trkpt lat="43.910308457217305" lon="5.527594272701406"><ele>541.0000000000001</ele><time>2026-04-26T15:51:11Z</time></trkpt><trkpt lat="43.910345319606186" lon="5.527666591425266"><ele>541.0</ele><time>2026-04-26T15:51:12Z</time></trkpt><trkpt lat="43.91038224814886" lon="5.527741132496417"><ele>541.0</ele><time>2026-04-26T15:51:13Z</time></trkpt><trkpt lat="43.91041709436349" lon="5.527814830220011"><ele>541.0</ele><time>2026-04-26T15:51:14Z</time></trkpt><trkpt lat="43.910453918475156" lon="5.527897549024512"><ele>541.0</ele><time>2026-04-26T15:51:15Z</time></trkpt><trkpt lat="43.910493456858816" lon="5.527990288828729"><ele>541.0000000000001</ele><time>2026-04-26T15:51:16Z</time></trkpt><trkpt lat="43.910527083110665" lon="5.528077206803404"><ele>541.0</ele><time>2026-04-26T15:51:17Z</time></trkpt><trkpt lat="43.910565849451515" lon="5.528178771541011"><ele>542.5</ele><time>2026-04-26T15:51:18Z</time></trkpt><trkpt lat="43.91060155318019" lon="5.528274241849555"><ele>544.0</ele><time>2026-04-26T15:51:19Z</time></trkpt><trkpt lat="43.91063687377755" lon="5.52836782980249"><ele>545.5</ele><time>2026-04-26T15:51:20Z</time></trkpt><trkpt lat="43.91066439104917" lon="5.528468863775268"><ele>547.0</ele><time>2026-04-26T15:51:21Z</time></trkpt><trkpt lat="43.91070105970435" lon="5.528551496154616"><ele>548.5</ele><time>2026-04-26T15:51:22Z</time></trkpt><trkpt lat="43.910762938436356" lon="5.528614429589634"><ele>550.0</ele><time>2026-04-26T15:51:23Z</time></trkpt><trkpt lat="43.91081660004619" lon="5.528681594775471"><ele>547.6</ele><time>2026-04-26T15:51:24Z</time></trkpt><trkpt lat="43.910895680637026" lon="5.528746474381049"><ele>545.2</ele><time>2026-04-26T15:51:26Z</time></trkpt><trkpt lat="43.910956249570546" lon="5.52880434065647"><ele>542.8</ele><time>2026-04-26T15:51:28Z</time></trkpt><trkpt lat="43.91107151211534" lon="5.528882626898297"><ele>540.4</ele><time>2026-04-26T15:51:30Z</time></trkpt><trkpt lat="43.9111505727682" lon="5.528956175799222"><ele>538.0</ele><time>2026-04-26T15:51:31Z</time></trkpt><trkpt lat="43.911239369076554" lon="5.5289888498676225"><ele>538.0</ele><time>2026-04-26T15:51:32Z</time></trkpt><trkpt lat="43.9113343976899" lon="5.529037118344794"><ele>538.0</ele><time>2026-04-26T15:51:33Z</time></trkpt><trkpt lat="43.91141450817144" lon="5.529095635755157"><ele>538.0</ele><time>2026-04-26T15:51:34Z</time></trkpt><trkpt lat="43.91148558573519" lon="5.52915122049497"><ele>538.0</ele><time>2026-04-26T15:51:35Z</time></trkpt><trkpt lat="43.9115397841872" lon="5.529220107980072"><ele>538.0</ele><time>2026-04-26T15:51:36Z</time></trkpt><trkpt lat="43.911592611687084" lon="5.529309148723359"><ele>538.0</ele><time>2026-04-26T15:51:37Z</time></trkpt><trkpt lat="43.911659072353416" lon="5.529402346870635"><ele>538.0</ele><time>2026-04-26T15:51:38Z</time></trkpt><trkpt lat="43.91170875435947" lon="5.529508794223734"><ele>538.0</ele><time>2026-04-26T15:51:39Z</time></trkpt><trkpt lat="43.91177017900676" lon="5.5296104524435"><ele>538.0</ele><time>2026-04-26T15:51:40Z</time></trkpt><trkpt lat="43.911816659081104" lon="5.529718424387059"><ele>538.0</ele><time>2026-04-26T15:51:41Z</time></trkpt><trkpt lat="43.91188398862748" lon="5.529828479474983"><ele>538.0</ele><time>2026-04-26T15:51:42Z</time></trkpt><trkpt lat="43.91194156064459" lon="5.529927222834217"><ele>537.8</ele><time>2026-04-26T15:51:43Z</time></trkpt><trkpt lat="43.91199837883586" lon="5.530029260649794"><ele>537.5999999999999</ele><time>2026-04-26T15:51:44Z</time></trkpt><trkpt lat="43.912070846927094" lon="5.530125936249559"><ele>537.4000000000001</ele><time>2026-04-26T15:51:45Z</time></trkpt><trkpt lat="43.91213282308532" lon="5.530214778324069"><ele>537.2</ele><time>2026-04-26T15:51:46Z</time></trkpt><trkpt lat="43.91218511896822" lon="5.5303350220322"><ele>537.0</ele><time>2026-04-26T15:51:46.999Z</time></trkpt><trkpt lat="43.912235626388615" lon="5.5304429541751"><ele>537.0</ele><time>2026-04-26T15:51:47.999Z</time></trkpt><trkpt lat="43.91229951201954" lon="5.530546905491246"><ele>537.0</ele><time>2026-04-26T15:51:48.999Z</time></trkpt><trkpt lat="43.91236710224844" lon="5.5306397018227225"><ele>537.0</ele><time>2026-04-26T15:51:49.999Z</time></trkpt><trkpt lat="43.91244231200032" lon="5.5307125483428505"><ele>537.0</ele><time>2026-04-26T15:51:50.999Z</time></trkpt><trkpt lat="43.91253318604466" lon="5.5307534107394805"><ele>537.0</ele><time>2026-04-26T15:51:51.999Z</time></trkpt><trkpt lat="43.91263092757945" lon="5.5307897429667685"><ele>533.4</ele><time>2026-04-26T15:51:52.999Z</time></trkpt><trkpt lat="43.91271142044965" lon="5.530797490782997"><ele>529.8000000000001</ele><time>2026-04-26T15:51:53.999Z</time></trkpt><trkpt lat="43.91282491478958" lon="5.530860176495064"><ele>526.2</ele><time>2026-04-26T15:51:54.999Z</time></trkpt><trkpt lat="43.91290752432731" lon="5.530909422199074"><ele>522.6</ele><time>2026-04-26T15:51:55.999Z</time></trkpt><trkpt lat="43.91299826369778" lon="5.530976357742239"><ele>519.0</ele><time>2026-04-26T15:51:56.999Z</time></trkpt><trkpt lat="43.913083393296525" lon="5.531022311996406"><ele>519.0</ele><time>2026-04-26T15:51:57.999Z</time></trkpt><trkpt lat="43.91318403853033" lon="5.531035653495742"><ele>519.0</ele><time>2026-04-26T15:51:58.999Z</time></trkpt><trkpt lat="43.913276078900786" lon="5.531049269037313"><ele>519.0</ele><time>2026-04-26T15:51:59.999Z</time></trkpt><trkpt lat="43.91337772858369" lon="5.531050081078707"><ele>519.0</ele><time>2026-04-26T15:52:00.999Z</time></trkpt><trkpt lat="43.91346833529127" lon="5.53105621379437"><ele>519.0</ele><time>2026-04-26T15:52:01.999Z</time></trkpt><trkpt lat="43.913538645335606" lon="5.531053258942354"><ele>517.5</ele><time>2026-04-26T15:52:02.999Z</time></trkpt><trkpt lat="43.91361889150574" lon="5.531021898290565"><ele>516.0</ele><time>2026-04-26T15:52:03.999Z</time></trkpt><trkpt lat="43.91368229626742" lon="5.5309620577251835"><ele>514.5</ele><time>2026-04-26T15:52:04.999Z</time></trkpt><trkpt lat="43.91375063840687" lon="5.530903695886292"><ele>513.0</ele><time>2026-04-26T15:52:05.999Z</time></trkpt><trkpt lat="43.913806718237815" lon="5.530800218436462"><ele>511.5</ele><time>2026-04-26T15:52:06.999Z</time></trkpt><trkpt lat="43.913834483353206" lon="5.530681738466534"><ele>510.0</ele><time>2026-04-26T15:52:07.999Z</time></trkpt><trkpt lat="43.913873147890484" lon="5.5305610438844495"><ele>510.0</ele><time>2026-04-26T15:52:08.999Z</time></trkpt><trkpt lat="43.913953662230576" lon="5.5304763342821515"><ele>510.0</ele><time>2026-04-26T15:52:09.999Z</time></trkpt><trkpt lat="43.91405346935397" lon="5.53042931860444"><ele>510.0</ele><time>2026-04-26T15:52:10.999Z</time></trkpt><trkpt lat="43.91414221918551" lon="5.53041032614929"><ele>510.0</ele><time>2026-04-26T15:52:11.999Z</time></trkpt><trkpt lat="43.91423263385545" lon="5.5303898154076006"><ele>510.0</ele><time>2026-04-26T15:52:12.999Z</time></trkpt><trkpt lat="43.91432689849878" lon="5.530379037533513"><ele>508.4</ele><time>2026-04-26T15:52:13.999Z</time></trkpt><trkpt lat="43.91442342072706" lon="5.530375852343549"><ele>506.8</ele><time>2026-04-26T15:52:14.999Z</time></trkpt><trkpt lat="43.914522399251524" lon="5.530381061670776"><ele>505.20000000000005</ele><time>2026-04-26T15:52:15.999Z</time></trkpt><trkpt lat="43.91461334127099" lon="5.530381951647353"><ele>503.6</ele><time>2026-04-26T15:52:16.999Z</time></trkpt><trkpt lat="43.91472008474296" lon="5.5303817668123765"><ele>502.0</ele><time>2026-04-26T15:52:17.999Z</time></trkpt><trkpt lat="43.91482352681112" lon="5.530379474577806"><ele>502.0</ele><time>2026-04-26T15:52:18.999Z</time></trkpt><trkpt lat="43.914925362475785" lon="5.530390212947863"><ele>502.00000000000006</ele><time>2026-04-26T15:52:19.999Z</time></trkpt><trkpt lat="43.915030293940966" lon="5.530399432027359"><ele>502.00000000000006</ele><time>2026-04-26T15:52:20.999Z</time></trkpt><trkpt lat="43.91513181716036" lon="5.530419733006588"><ele>502.0</ele><time>2026-04-26T15:52:21.999Z</time></trkpt><trkpt lat="43.91522779903095" lon="5.530434976844441"><ele>502.0</ele><time>2026-04-26T15:52:22.999Z</time></trkpt><trkpt lat="43.91531965528396" lon="5.530449806062815"><ele>500.00000000000006</ele><time>2026-04-26T15:52:23.999Z</time></trkpt><trkpt lat="43.91539743377679" lon="5.530463402836906"><ele>498.0</ele><time>2026-04-26T15:52:24.999Z</time></trkpt><trkpt lat="43.91548044804101" lon="5.530475319600505"><ele>496.0</ele><time>2026-04-26T15:52:25.999Z</time></trkpt><trkpt lat="43.91557299906599" lon="5.53049147525207"><ele>494.0</ele><time>2026-04-26T15:52:26.999Z</time></trkpt><trkpt lat="43.915655716514635" lon="5.530509088978225"><ele>492.00000000000006</ele><time>2026-04-26T15:52:27.999Z</time></trkpt><trkpt lat="43.91574257423355" lon="5.530524363548475"><ele>490.0</ele><time>2026-04-26T15:52:28.999Z</time></trkpt><trkpt lat="43.91583079501192" lon="5.5305304672743025"><ele>487.8</ele><time>2026-04-26T15:52:29.999Z</time></trkpt><trkpt lat="43.915919766938075" lon="5.530535958950007"><ele>485.6</ele><time>2026-04-26T15:52:30.999Z</time></trkpt><trkpt lat="43.916014179863815" lon="5.53054059567473"><ele>483.4</ele><time>2026-04-26T15:52:31.999Z</time></trkpt><trkpt lat="43.91610832284274" lon="5.530514794995425"><ele>481.2</ele><time>2026-04-26T15:52:32.999Z</time></trkpt><trkpt lat="43.916212546486555" lon="5.53051011144787"><ele>479.0</ele><time>2026-04-26T15:52:33.999Z</time></trkpt><trkpt lat="43.91631377446006" lon="5.530502576787611"><ele>479.0</ele><time>2026-04-26T15:52:34.999Z</time></trkpt><trkpt lat="43.91641822029392" lon="5.530496232998951"><ele>479.0</ele><time>2026-04-26T15:52:35.999Z</time></trkpt><trkpt lat="43.916516521494785" lon="5.530484142006319"><ele>479.0</ele><time>2026-04-26T15:52:36.999Z</time></trkpt><trkpt lat="43.91662502896917" lon="5.530468756621359"><ele>479.0</ele><time>2026-04-26T15:52:37.999Z</time></trkpt><trkpt lat="43.91672482621889" lon="5.530429031347424"><ele>479.0</ele><time>2026-04-26T15:52:38.999Z</time></trkpt><trkpt lat="43.916822757160205" lon="5.53041080846504"><ele>477.6</ele><time>2026-04-26T15:52:39.999Z</time></trkpt><trkpt lat="43.91694376015964" lon="5.530371764153359"><ele>476.2</ele><time>2026-04-26T15:52:41.999Z</time></trkpt><trkpt lat="43.91702974284461" lon="5.530345714363653"><ele>474.80000000000007</ele><time>2026-04-26T15:52:42.999Z</time></trkpt><trkpt lat="43.91708681053001" lon="5.530268578153481"><ele>473.40000000000003</ele><time>2026-04-26T15:52:43.999Z</time></trkpt><trkpt lat="43.917142702307935" lon="5.5301789013937706"><ele>472.0</ele><time>2026-04-26T15:52:44.999Z</time></trkpt><trkpt lat="43.917202156349695" lon="5.530090579292096"><ele>472.00000000000006</ele><time>2026-04-26T15:52:45.999Z</time></trkpt><trkpt lat="43.91726674742991" lon="5.530012520968519"><ele>472.0</ele><time>2026-04-26T15:52:46.999Z</time></trkpt><trkpt lat="43.91733522279432" lon="5.529942533477424"><ele>472.0</ele><time>2026-04-26T15:52:47.999Z</time></trkpt><trkpt lat="43.91740817372573" lon="5.529882880057786"><ele>472.0</ele><time>2026-04-26T15:52:48.999Z</time></trkpt><trkpt lat="43.91750057629865" lon="5.52984994796132"><ele>472.00000000000006</ele><time>2026-04-26T15:52:49.999Z</time></trkpt><trkpt lat="43.91756786809157" lon="5.529844162983762"><ele>472.0</ele><time>2026-04-26T15:52:50.999Z</time></trkpt><trkpt lat="43.91766620119627" lon="5.529849406221805"><ele>470.83333333333337</ele><time>2026-04-26T15:52:52Z</time></trkpt><trkpt lat="43.91776106548886" lon="5.529884541204027"><ele>469.6666666666667</ele><time>2026-04-26T15:52:53Z</time></trkpt><trkpt lat="43.917847304747184" lon="5.529869999894496"><ele>468.5</ele><time>2026-04-26T15:52:54Z</time></trkpt><trkpt lat="43.917924319808996" lon="5.529867326371243"><ele>467.33333333333337</ele><time>2026-04-26T15:52:55Z</time></trkpt><trkpt lat="43.91799418786001" lon="5.529854340011867"><ele>466.1666666666667</ele><time>2026-04-26T15:52:56Z</time></trkpt><trkpt lat="43.91806367832975" lon="5.529810702924699"><ele>465.0</ele><time>2026-04-26T15:52:57Z</time></trkpt><trkpt lat="43.918147680101995" lon="5.529767499891441"><ele>465.0</ele><time>2026-04-26T15:52:58Z</time></trkpt><trkpt lat="43.91820917669213" lon="5.529685796442238"><ele>465.0</ele><time>2026-04-26T15:52:59Z</time></trkpt><trkpt lat="43.91825665787377" lon="5.529587875268557"><ele>465.0</ele><time>2026-04-26T15:53:00Z</time></trkpt><trkpt lat="43.918296914734746" lon="5.5294954811332016"><ele>465.0</ele><time>2026-04-26T15:53:01Z</time></trkpt><trkpt lat="43.918340096641295" lon="5.529400004230525"><ele>465.0</ele><time>2026-04-26T15:53:02Z</time></trkpt><trkpt lat="43.918378439245295" lon="5.529316596968651"><ele>465.0</ele><time>2026-04-26T15:53:03Z</time></trkpt><trkpt lat="43.91841757736238" lon="5.529232078767772"><ele>464.6</ele><time>2026-04-26T15:53:04Z</time></trkpt><trkpt lat="43.918455517234655" lon="5.52915014815288"><ele>464.2</ele><time>2026-04-26T15:53:05Z</time></trkpt><trkpt lat="43.918514371641756" lon="5.529023221233027"><ele>463.79999999999995</ele><time>2026-04-26T15:53:07Z</time></trkpt><trkpt lat="43.91857625034129" lon="5.528889951368319"><ele>463.4</ele><time>2026-04-26T15:53:09Z</time></trkpt><trkpt lat="43.91863281144061" lon="5.528765749993687"><ele>463.0</ele><time>2026-04-26T15:53:11Z</time></trkpt><trkpt lat="43.91868928786378" lon="5.528635788437474"><ele>463.0</ele><time>2026-04-26T15:53:13Z</time></trkpt><trkpt lat="43.91871452617519" lon="5.528544361858498"><ele>462.99999999999994</ele><time>2026-04-26T15:53:14Z</time></trkpt><trkpt lat="43.91878033666207" lon="5.528432674255971"><ele>462.99999999999994</ele><time>2026-04-26T15:53:16Z</time></trkpt><trkpt lat="43.91882785944434" lon="5.52833399608291"><ele>463.0</ele><time>2026-04-26T15:53:18Z</time></trkpt><trkpt lat="43.918876686134176" lon="5.528249257497162"><ele>463.0</ele><time>2026-04-26T15:53:20Z</time></trkpt><trkpt lat="43.91901410449989" lon="5.528367015456965"><ele>463.00000000000006</ele><time>2026-04-26T15:53:23Z</time></trkpt><trkpt lat="43.91910337808023" lon="5.528434673347035"><ele>463.0</ele><time>2026-04-26T15:53:25Z</time></trkpt><trkpt lat="43.91920784481119" lon="5.528518197668316"><ele>463.0</ele><time>2026-04-26T15:53:27Z</time></trkpt><trkpt lat="43.91926694574324" lon="5.528587949329297"><ele>463.0</ele><time>2026-04-26T15:53:28Z</time></trkpt><trkpt lat="43.91934543405225" lon="5.528621770243524"><ele>463.00000000000006</ele><time>2026-04-26T15:53:29Z</time></trkpt><trkpt lat="43.91940381037568" lon="5.528660327772593"><ele>463.0</ele><time>2026-04-26T15:53:30Z</time></trkpt><trkpt lat="43.919465549221314" lon="5.528704710022877"><ele>463.2</ele><time>2026-04-26T15:53:31Z</time></trkpt><trkpt lat="43.919577083932765" lon="5.528809728064725"><ele>463.4</ele><time>2026-04-26T15:53:33Z</time></trkpt><trkpt lat="43.91962812932865" lon="5.5288610150099045"><ele>463.59999999999997</ele><time>2026-04-26T15:53:34Z</time></trkpt><trkpt lat="43.91968424870006" lon="5.528903379660378"><ele>463.79999999999995</ele><time>2026-04-26T15:53:35Z</time></trkpt><trkpt lat="43.91978966463624" lon="5.52898280097946"><ele>464.0</ele><time>2026-04-26T15:53:37Z</time></trkpt><trkpt lat="43.91990708459797" lon="5.529022600899147"><ele>464.0</ele><time>2026-04-26T15:53:39Z</time></trkpt><trkpt lat="43.92002885908124" lon="5.52901882756772"><ele>464.0</ele><time>2026-04-26T15:53:41Z</time></trkpt><trkpt lat="43.92009281366369" lon="5.52899841920239"><ele>464.0</ele><time>2026-04-26T15:53:42Z</time></trkpt><trkpt lat="43.920158300351076" lon="5.528970664450365"><ele>464.0</ele><time>2026-04-26T15:53:43Z</time></trkpt><trkpt lat="43.92025659164213" lon="5.528986183506408"><ele>464.0</ele><time>2026-04-26T15:53:45Z</time></trkpt><trkpt lat="43.92033124540504" lon="5.5287599389915165"><ele>468.75</ele><time>2026-04-26T15:53:48Z</time></trkpt><trkpt lat="43.920359293601024" lon="5.528674658277161"><ele>473.5</ele><time>2026-04-26T15:53:49Z</time></trkpt><trkpt lat="43.92040965841406" lon="5.528516789691624"><ele>478.25</ele><time>2026-04-26T15:53:50.999Z</time></trkpt><trkpt lat="43.92045396652266" lon="5.528324093721491"><ele>483.0</ele><time>2026-04-26T15:53:52.999Z</time></trkpt><trkpt lat="43.92044444952513" lon="5.528157644301133"><ele>483.0</ele><time>2026-04-26T15:53:53.999Z</time></trkpt><trkpt lat="43.920445400925956" lon="5.528045657285506"><ele>483.0</ele><time>2026-04-26T15:53:54.999Z</time></trkpt><trkpt lat="43.920425712029356" lon="5.527891551653345"><ele>483.0</ele><time>2026-04-26T15:53:55.999Z</time></trkpt><trkpt lat="43.92042866396272" lon="5.527770277390701"><ele>483.0</ele><time>2026-04-26T15:53:56.999Z</time></trkpt><trkpt lat="43.92043545278658" lon="5.527662153542226"><ele>483.0</ele><time>2026-04-26T15:53:57.999Z</time></trkpt><trkpt lat="43.92043331834788" lon="5.527544326685436"><ele>483.0</ele><time>2026-04-26T15:53:58.999Z</time></trkpt><trkpt lat="43.920416530065175" lon="5.5274027989699395"><ele>482.8571428571429</ele><time>2026-04-26T15:53:59.999Z</time></trkpt><trkpt lat="43.92041450559049" lon="5.5273042754853"><ele>482.7142857142857</ele><time>2026-04-26T15:54:00.999Z</time></trkpt><trkpt lat="43.92042367561128" lon="5.527211076500426"><ele>482.57142857142856</ele><time>2026-04-26T15:54:01.999Z</time></trkpt><trkpt lat="43.920432564355394" lon="5.527121584684984"><ele>482.42857142857144</ele><time>2026-04-26T15:54:02.999Z</time></trkpt><trkpt lat="43.920447028430154" lon="5.527008647758478"><ele>482.28571428571433</ele><time>2026-04-26T15:54:04.999Z</time></trkpt><trkpt lat="43.92045376532762" lon="5.526877708730639"><ele>482.14285714285717</ele><time>2026-04-26T15:54:07.999Z</time></trkpt><trkpt lat="43.92044868483154" lon="5.526783730625106"><ele>482.0</ele><time>2026-04-26T15:54:08.999Z</time></trkpt><trkpt lat="43.92044017750932" lon="5.526595109216967"><ele>480.6</ele><time>2026-04-26T15:54:10.999Z</time></trkpt><trkpt lat="43.92044016051418" lon="5.526482141789756"><ele>479.20000000000005</ele><time>2026-04-26T15:54:11.999Z</time></trkpt><trkpt lat="43.920414821760644" lon="5.526316545150325"><ele>477.8</ele><time>2026-04-26T15:54:12.999Z</time></trkpt><trkpt lat="43.920423219146734" lon="5.526218443852264"><ele>476.4</ele><time>2026-04-26T15:54:13.999Z</time></trkpt><trkpt lat="43.920404522738366" lon="5.526076681441381"><ele>475.0</ele><time>2026-04-26T15:54:14.999Z</time></trkpt><trkpt lat="43.92040628430272" lon="5.525949411634684"><ele>473.8</ele><time>2026-04-26T15:54:15.999Z</time></trkpt><trkpt lat="43.92040477545714" lon="5.52582213700773"><ele>472.6</ele><time>2026-04-26T15:54:16.999Z</time></trkpt><trkpt lat="43.92040904266389" lon="5.525692396791154"><ele>471.4</ele><time>2026-04-26T15:54:17.999Z</time></trkpt><trkpt lat="43.92041947787607" lon="5.525567498375116"><ele>470.2</ele><time>2026-04-26T15:54:18.999Z</time></trkpt><trkpt lat="43.9204459244791" lon="5.525451568255235"><ele>469.0</ele><time>2026-04-26T15:54:19.999Z</time></trkpt><trkpt lat="43.92047018001526" lon="5.525332463099014"><ele>468.79999999999995</ele><time>2026-04-26T15:54:20.999Z</time></trkpt><trkpt lat="43.92049727080061" lon="5.52521275454177"><ele>468.59999999999997</ele><time>2026-04-26T15:54:21.999Z</time></trkpt><trkpt lat="43.92051847260181" lon="5.525085575363779"><ele>468.4</ele><time>2026-04-26T15:54:22.999Z</time></trkpt><trkpt lat="43.92053708261513" lon="5.524943229554033"><ele>468.2</ele><time>2026-04-26T15:54:23.999Z</time></trkpt><trkpt lat="43.920567935246126" lon="5.524825101162508"><ele>468.0</ele><time>2026-04-26T15:54:24.999Z</time></trkpt><trkpt lat="43.920601037384685" lon="5.524710174204461"><ele>468.0</ele><time>2026-04-26T15:54:25.999Z</time></trkpt><trkpt lat="43.92061734010809" lon="5.524599303138048"><ele>467.99999999999994</ele><time>2026-04-26T15:54:26.999Z</time></trkpt><trkpt lat="43.92062013678354" lon="5.524466151021776"><ele>467.99999999999994</ele><time>2026-04-26T15:54:27.999Z</time></trkpt><trkpt lat="43.92061204736405" lon="5.524332167301875"><ele>468.0</ele><time>2026-04-26T15:54:28.999Z</time></trkpt><trkpt lat="43.92058212990393" lon="5.524197219704758"><ele>468.0</ele><time>2026-04-26T15:54:29.999Z</time></trkpt><trkpt lat="43.92054095588011" lon="5.524056197503023"><ele>468.4</ele><time>2026-04-26T15:54:30.999Z</time></trkpt><trkpt lat="43.920496829306266" lon="5.523917164084877"><ele>468.79999999999995</ele><time>2026-04-26T15:54:31.999Z</time></trkpt><trkpt lat="43.92043957977209" lon="5.523793163969151"><ele>469.2</ele><time>2026-04-26T15:54:32.999Z</time></trkpt><trkpt lat="43.92037613366508" lon="5.523711245282096"><ele>469.6</ele><time>2026-04-26T15:54:33.999Z</time></trkpt><trkpt lat="43.92030482673122" lon="5.523646278045471"><ele>470.0</ele><time>2026-04-26T15:54:34.999Z</time></trkpt><trkpt lat="43.920215099607255" lon="5.52356269377795"><ele>468.4</ele><time>2026-04-26T15:54:35.999Z</time></trkpt><trkpt lat="43.9201376057863" lon="5.5234774428656905"><ele>466.8</ele><time>2026-04-26T15:54:36.999Z</time></trkpt><trkpt lat="43.92006163860867" lon="5.523400690204821"><ele>465.20000000000005</ele><time>2026-04-26T15:54:37.999Z</time></trkpt><trkpt lat="43.91999351158269" lon="5.523311093768266"><ele>463.6</ele><time>2026-04-26T15:54:38.999Z</time></trkpt><trkpt lat="43.919945234283055" lon="5.52321008885091"><ele>462.0</ele><time>2026-04-26T15:54:39.999Z</time></trkpt><trkpt lat="43.919901759224004" lon="5.52310385824742"><ele>462.0</ele><time>2026-04-26T15:54:40.999Z</time></trkpt><trkpt lat="43.9198824097541" lon="5.522986243673533"><ele>462.0</ele><time>2026-04-26T15:54:41.999Z</time></trkpt><trkpt lat="43.919884281300924" lon="5.522872760767724"><ele>462.0</ele><time>2026-04-26T15:54:42.999Z</time></trkpt><trkpt lat="43.91989838008089" lon="5.522778871719423"><ele>462.0</ele><time>2026-04-26T15:54:43.999Z</time></trkpt><trkpt lat="43.91990295459669" lon="5.522674085144044"><ele>462.0</ele><time>2026-04-26T15:54:44.999Z</time></trkpt><trkpt lat="43.91992253071162" lon="5.522507376101126"><ele>462.0</ele><time>2026-04-26T15:54:46.999Z</time></trkpt><trkpt lat="43.919929979117086" lon="5.52239363030096"><ele>461.40000000000003</ele><time>2026-04-26T15:54:48.999Z</time></trkpt><trkpt lat="43.91987986321774" lon="5.522312998645759"><ele>460.80000000000007</ele><time>2026-04-26T15:56:02.999Z</time></trkpt><trkpt lat="43.91988727403823" lon="5.5221478108201385"><ele>460.2</ele><time>2026-04-26T15:56:04.999Z</time></trkpt><trkpt lat="43.91990193572599" lon="5.521959607897371"><ele>459.6</ele><time>2026-04-26T15:56:06.999Z</time></trkpt><trkpt lat="43.91993016669378" lon="5.521870913599544"><ele>459.0</ele><time>2026-04-26T15:56:07.999Z</time></trkpt><trkpt lat="43.92001287927155" lon="5.521780167042335"><ele>462.8333333333333</ele><time>2026-04-26T15:56:09.999Z</time></trkpt><trkpt lat="43.92013890578885" lon="5.5217662222789565"><ele>466.66666666666663</ele><time>2026-04-26T15:56:18.999Z</time></trkpt><trkpt lat="43.920152224687854" lon="5.521659921446746"><ele>470.5</ele><time>2026-04-26T15:56:19.999Z</time></trkpt><trkpt lat="43.920202743726065" lon="5.521602360562208"><ele>474.3333333333333</ele><time>2026-04-26T15:56:20.999Z</time></trkpt><trkpt lat="43.920240351561944" lon="5.521513678089589"><ele>478.16666666666663</ele><time>2026-04-26T15:56:21.999Z</time></trkpt><trkpt lat="43.920278402439095" lon="5.521407564299688"><ele>482.0</ele><time>2026-04-26T15:56:22.999Z</time></trkpt><trkpt lat="43.92031357398268" lon="5.521316631915148"><ele>479.49999999999994</ele><time>2026-04-26T15:56:23.999Z</time></trkpt><trkpt lat="43.92037044137607" lon="5.521217213017998"><ele>477.0</ele><time>2026-04-26T15:56:24.999Z</time></trkpt><trkpt lat="43.92039970804831" lon="5.521103271652701"><ele>474.5</ele><time>2026-04-26T15:56:25.999Z</time></trkpt><trkpt lat="43.92044560406632" lon="5.52102150519293"><ele>472.0</ele><time>2026-04-26T15:56:26.999Z</time></trkpt><trkpt lat="43.92048673046495" lon="5.520907939925605"><ele>469.49999999999994</ele><time>2026-04-26T15:56:27.999Z</time></trkpt><trkpt lat="43.92053372843222" lon="5.520815892522664"><ele>467.0</ele><time>2026-04-26T15:56:28.999Z</time></trkpt><trkpt lat="43.92059750325272" lon="5.520740119166538"><ele>466.99999999999994</ele><time>2026-04-26T15:56:29.999Z</time></trkpt><trkpt lat="43.92064381850065" lon="5.520639046854786"><ele>467.0</ele><time>2026-04-26T15:56:30.999Z</time></trkpt><trkpt lat="43.920707200996986" lon="5.520565732215048"><ele>467.0</ele><time>2026-04-26T15:56:31.999Z</time></trkpt><trkpt lat="43.92077339692083" lon="5.5204961470145255"><ele>467.0</ele><time>2026-04-26T15:56:32.999Z</time></trkpt><trkpt lat="43.92084600344577" lon="5.520447314803618"><ele>466.99999999999994</ele><time>2026-04-26T15:56:33.999Z</time></trkpt><trkpt lat="43.92091738754616" lon="5.520368739341083"><ele>467.0</ele><time>2026-04-26T15:56:34.999Z</time></trkpt><trkpt lat="43.92098651550071" lon="5.520278983223008"><ele>468.49999999999994</ele><time>2026-04-26T15:56:35.999Z</time></trkpt><trkpt lat="43.921040747467494" lon="5.520173732375428"><ele>470.0</ele><time>2026-04-26T15:56:36.999Z</time></trkpt><trkpt lat="43.92109952268802" lon="5.5200956321244306"><ele>471.5</ele><time>2026-04-26T15:56:37.999Z</time></trkpt><trkpt lat="43.92114818932849" lon="5.519991053029943"><ele>473.0</ele><time>2026-04-26T15:56:38.999Z</time></trkpt><trkpt lat="43.92120526989473" lon="5.5198927420456085"><ele>474.49999999999994</ele><time>2026-04-26T15:56:39.999Z</time></trkpt><trkpt lat="43.92125874864713" lon="5.519790265434898"><ele>476.0</ele><time>2026-04-26T15:56:40.999Z</time></trkpt><trkpt lat="43.92130937913093" lon="5.5197214245633175"><ele>475.99999999999994</ele><time>2026-04-26T15:56:41.999Z</time></trkpt><trkpt lat="43.92135384653368" lon="5.519632889588698"><ele>476.0</ele><time>2026-04-26T15:56:42.999Z</time></trkpt><trkpt lat="43.92140229697838" lon="5.519544327493138"><ele>476.0</ele><time>2026-04-26T15:56:43.999Z</time></trkpt><trkpt lat="43.92145125552011" lon="5.519444090618067"><ele>476.0</ele><time>2026-04-26T15:56:44.999Z</time></trkpt><trkpt lat="43.92149448243607" lon="5.519353821900733"><ele>475.99999999999994</ele><time>2026-04-26T15:56:45.999Z</time></trkpt><trkpt lat="43.921540870864206" lon="5.519279220370919"><ele>476.0</ele><time>2026-04-26T15:56:46.999Z</time></trkpt><trkpt lat="43.921577731966785" lon="5.519205382649154"><ele>474.0</ele><time>2026-04-26T15:56:47.999Z</time></trkpt><trkpt lat="43.92162707191765" lon="5.519148639494085"><ele>472.0</ele><time>2026-04-26T15:56:48.999Z</time></trkpt><trkpt lat="43.92168697742288" lon="5.519005928358246"><ele>470.0</ele><time>2026-04-26T15:56:50.999Z</time></trkpt><trkpt lat="43.921721703846494" lon="5.518892636805276"><ele>468.0</ele><time>2026-04-26T15:56:52.999Z</time></trkpt><trkpt lat="43.92174535034782" lon="5.518760020082606"><ele>466.0</ele><time>2026-04-26T15:56:54.999Z</time></trkpt><trkpt lat="43.92166090103493" lon="5.518963562716021"><ele>462.5</ele><time>2026-04-26T15:57:10Z</time></trkpt><trkpt lat="43.92158953428326" lon="5.519123804216066"><ele>459.0</ele><time>2026-04-26T15:57:12Z</time></trkpt><trkpt lat="43.92153962135696" lon="5.519231500556121"><ele>455.5</ele><time>2026-04-26T15:57:13Z</time></trkpt><trkpt lat="43.92142402861182" lon="5.519400216066338"><ele>452.0</ele><time>2026-04-26T15:57:14Z</time></trkpt><trkpt lat="43.92134779007694" lon="5.5195379681253165"><ele>460.0</ele><time>2026-04-26T15:57:15Z</time></trkpt><trkpt lat="43.921255100183046" lon="5.519707400373535"><ele>468.0</ele><time>2026-04-26T15:57:16Z</time></trkpt><trkpt lat="43.92116171621687" lon="5.519884849592472"><ele>476.0</ele><time>2026-04-26T15:57:17Z</time></trkpt><trkpt lat="43.92105790599715" lon="5.520057167506114"><ele>476.0</ele><time>2026-04-26T15:57:18Z</time></trkpt><trkpt lat="43.920950072821604" lon="5.52023904011022"><ele>476.0</ele><time>2026-04-26T15:57:19Z</time></trkpt><trkpt lat="43.9208616593757" lon="5.52035175653423"><ele>476.0</ele><time>2026-04-26T15:57:20Z</time></trkpt><trkpt lat="43.92076219077853" lon="5.520462160769019"><ele>476.0</ele><time>2026-04-26T15:57:21Z</time></trkpt><trkpt lat="43.92066887729087" lon="5.520561292247222"><ele>473.75</ele><time>2026-04-26T15:57:22Z</time></trkpt><trkpt lat="43.92058404655552" lon="5.520654922215976"><ele>471.5</ele><time>2026-04-26T15:57:23Z</time></trkpt><trkpt lat="43.920508972749694" lon="5.520768256162278"><ele>469.25</ele><time>2026-04-26T15:57:24Z</time></trkpt><trkpt lat="43.920445860325906" lon="5.5208949208122"><ele>467.0</ele><time>2026-04-26T15:57:25Z</time></trkpt><trkpt lat="43.920381320169504" lon="5.521042444764364"><ele>467.0</ele><time>2026-04-26T15:57:26Z</time></trkpt><trkpt lat="43.920312045208554" lon="5.521199033517849"><ele>467.0</ele><time>2026-04-26T15:57:27Z</time></trkpt><trkpt lat="43.92025165391542" lon="5.5213552937257955"><ele>467.0</ele><time>2026-04-26T15:57:28Z</time></trkpt><trkpt lat="43.920197059280504" lon="5.521510427169967"><ele>467.0</ele><time>2026-04-26T15:57:29Z</time></trkpt><trkpt lat="43.92014265580989" lon="5.521643065620667"><ele>466.75</ele><time>2026-04-26T15:57:30Z</time></trkpt><trkpt lat="43.92008655567666" lon="5.521793173584178"><ele>466.5</ele><time>2026-04-26T15:57:31Z</time></trkpt><trkpt lat="43.920042070622834" lon="5.5219346313840765"><ele>466.25</ele><time>2026-04-26T15:57:32Z</time></trkpt><trkpt lat="43.92000970460973" lon="5.522078026822649"><ele>466.0</ele><time>2026-04-26T15:57:33Z</time></trkpt><trkpt lat="43.9199828660341" lon="5.522240057780675"><ele>466.0</ele><time>2026-04-26T15:57:34Z</time></trkpt><trkpt lat="43.91996211777433" lon="5.522379686256929"><ele>466.0</ele><time>2026-04-26T15:57:35Z</time></trkpt><trkpt lat="43.91995827000188" lon="5.522525644493926"><ele>466.0</ele><time>2026-04-26T15:57:36Z</time></trkpt><trkpt lat="43.91997614675695" lon="5.522698246323523"><ele>466.0</ele><time>2026-04-26T15:57:37Z</time></trkpt><trkpt lat="43.92000340946588" lon="5.522862982943901"><ele>469.25</ele><time>2026-04-26T15:57:38Z</time></trkpt><trkpt lat="43.920071249363694" lon="5.522979982994698"><ele>472.5</ele><time>2026-04-26T15:57:39Z</time></trkpt><trkpt lat="43.920163089749664" lon="5.523080337137451"><ele>475.75</ele><time>2026-04-26T15:57:40Z</time></trkpt><trkpt lat="43.92028235865379" lon="5.523118088874765"><ele>479.0</ele><time>2026-04-26T15:57:41Z</time></trkpt><trkpt lat="43.920424391988846" lon="5.523164254911259"><ele>479.0</ele><time>2026-04-26T15:57:42Z</time></trkpt><trkpt lat="43.92056526951263" lon="5.523209926576121"><ele>479.0</ele><time>2026-04-26T15:57:43Z</time></trkpt><trkpt lat="43.92070417623002" lon="5.523299453423623"><ele>479.0</ele><time>2026-04-26T15:57:44Z</time></trkpt><trkpt lat="43.920842746951536" lon="5.523416480302366"><ele>480.0</ele><time>2026-04-26T15:57:45Z</time></trkpt><trkpt lat="43.920969742351375" lon="5.523548124976714"><ele>481.0</ele><time>2026-04-26T15:57:46Z</time></trkpt><trkpt lat="43.9210293425634" lon="5.523705366829731"><ele>482.0</ele><time>2026-04-26T15:57:47Z</time></trkpt><trkpt lat="43.92111216419581" lon="5.523883672425929"><ele>483.0</ele><time>2026-04-26T15:57:48Z</time></trkpt><trkpt lat="43.92117110113549" lon="5.5240479653532235"><ele>483.0</ele><time>2026-04-26T15:57:49Z</time></trkpt><trkpt lat="43.92121105233414" lon="5.524208143315198"><ele>483.0</ele><time>2026-04-26T15:57:50Z</time></trkpt><trkpt lat="43.92129131521872" lon="5.5243355257683495"><ele>483.0</ele><time>2026-04-26T15:57:51Z</time></trkpt><trkpt lat="43.921403311204834" lon="5.524394189895017"><ele>483.0</ele><time>2026-04-26T15:57:52Z</time></trkpt><trkpt lat="43.9215400046694" lon="5.524443136094911"><ele>483.0</ele><time>2026-04-26T15:57:53Z</time></trkpt><trkpt lat="43.921675419456314" lon="5.524463906442749"><ele>483.0</ele><time>2026-04-26T15:57:54Z</time></trkpt><trkpt lat="43.92178488576635" lon="5.524513717144395"><ele>483.0</ele><time>2026-04-26T15:57:55Z</time></trkpt><trkpt lat="43.921890708862506" lon="5.524573063654045"><ele>483.0</ele><time>2026-04-26T15:57:56Z</time></trkpt><trkpt lat="43.921981470844436" lon="5.524664295081276"><ele>484.79999999999995</ele><time>2026-04-26T15:57:57Z</time></trkpt><trkpt lat="43.92204107711866" lon="5.524783425532217"><ele>486.59999999999997</ele><time>2026-04-26T15:57:58Z</time></trkpt><trkpt lat="43.92209175328003" lon="5.524921917512794"><ele>488.40000000000003</ele><time>2026-04-26T15:57:59Z</time></trkpt><trkpt lat="43.922124400118534" lon="5.525059578225032"><ele>490.20000000000005</ele><time>2026-04-26T15:57:59.999Z</time></trkpt><trkpt lat="43.92213052929304" lon="5.525193868957733"><ele>492.0</ele><time>2026-04-26T15:58:00.999Z</time></trkpt><trkpt lat="43.92212710526424" lon="5.525305855137107"><ele>492.6</ele><time>2026-04-26T15:58:01.999Z</time></trkpt><trkpt lat="43.92208156289074" lon="5.5254233195952045"><ele>493.20000000000005</ele><time>2026-04-26T15:58:02.999Z</time></trkpt><trkpt lat="43.92204638033983" lon="5.525542971578001"><ele>493.8</ele><time>2026-04-26T15:58:03.999Z</time></trkpt><trkpt lat="43.92199020733417" lon="5.525659942595072"><ele>494.4</ele><time>2026-04-26T15:58:04.999Z</time></trkpt><trkpt lat="43.92192414108683" lon="5.525776971920315"><ele>495.0</ele><time>2026-04-26T15:58:05.999Z</time></trkpt><trkpt lat="43.92184595654197" lon="5.525848005550031"><ele>495.0</ele><time>2026-04-26T15:58:06.999Z</time></trkpt><trkpt lat="43.92176322942698" lon="5.52594745976046"><ele>495.0</ele><time>2026-04-26T15:58:07.999Z</time></trkpt><trkpt lat="43.92170243163313" lon="5.526027243970042"><ele>495.0</ele><time>2026-04-26T15:58:08.999Z</time></trkpt><trkpt lat="43.92165843136902" lon="5.5261005064251165"><ele>495.0</ele><time>2026-04-26T15:58:09.999Z</time></trkpt><trkpt lat="43.92166241657583" lon="5.526190484362058"><ele>495.0</ele><time>2026-04-26T15:58:16.999Z</time></trkpt><trkpt lat="43.921825024713186" lon="5.5261884355189625"><ele>495.0</ele><time>2026-04-26T15:58:22.999Z</time></trkpt><trkpt lat="43.92192824913578" lon="5.526148485089966"><ele>495.0</ele><time>2026-04-26T15:58:24.999Z</time></trkpt><trkpt lat="43.92201857523817" lon="5.526160018449287"><ele>495.0</ele><time>2026-04-26T15:58:25.999Z</time></trkpt><trkpt lat="43.9221427749025" lon="5.526138822136422"><ele>495.0</ele><time>2026-04-26T15:58:27.999Z</time></trkpt><trkpt lat="43.92223720831414" lon="5.526055089265209"><ele>495.0</ele><time>2026-04-26T15:58:29.999Z</time></trkpt><trkpt lat="43.922291694824224" lon="5.5259677224324815"><ele>495.0</ele><time>2026-04-26T15:58:30.999Z</time></trkpt><trkpt lat="43.92235652716941" lon="5.525895728496842"><ele>495.0</ele><time>2026-04-26T15:58:31.999Z</time></trkpt><trkpt lat="43.92240839331467" lon="5.525819273165796"><ele>495.0</ele><time>2026-04-26T15:58:32.999Z</time></trkpt><trkpt lat="43.92246815004278" lon="5.525668066503526"><ele>495.0</ele><time>2026-04-26T15:58:34.999Z</time></trkpt><trkpt lat="43.92249453512484" lon="5.525520169902983"><ele>495.0</ele><time>2026-04-26T15:58:35.999Z</time></trkpt><trkpt lat="43.92252904104217" lon="5.525361224537045"><ele>494.4</ele><time>2026-04-26T15:58:36.999Z</time></trkpt><trkpt lat="43.92254012244065" lon="5.525229205944404"><ele>493.8</ele><time>2026-04-26T15:58:37.999Z</time></trkpt><trkpt lat="43.922556966043466" lon="5.525105862609408"><ele>493.20000000000005</ele><time>2026-04-26T15:58:38.999Z</time></trkpt><trkpt lat="43.92258830338199" lon="5.524995567041412"><ele>492.6</ele><time>2026-04-26T15:58:39.999Z</time></trkpt><trkpt lat="43.92264181810653" lon="5.524901088352225"><ele>492.0</ele><time>2026-04-26T15:58:40.999Z</time></trkpt><trkpt lat="43.92270562854962" lon="5.5247714448749115"><ele>496.40000000000003</ele><time>2026-04-26T15:58:41.999Z</time></trkpt><trkpt lat="43.922764132281" lon="5.524675777174677"><ele>500.80000000000007</ele><time>2026-04-26T15:58:42.999Z</time></trkpt><trkpt lat="43.922821682777176" lon="5.524564088035872"><ele>505.2</ele><time>2026-04-26T15:58:43.999Z</time></trkpt><trkpt lat="43.92287793846247" lon="5.524448958951414"><ele>509.6</ele><time>2026-04-26T15:58:44.999Z</time></trkpt><trkpt lat="43.9229343569458" lon="5.524333891529484"><ele>514.0</ele><time>2026-04-26T15:58:45.999Z</time></trkpt><trkpt lat="43.92296749222183" lon="5.524217676289451"><ele>514.0</ele><time>2026-04-26T15:58:46.999Z</time></trkpt><trkpt lat="43.92300372741879" lon="5.524115774537401"><ele>514.0</ele><time>2026-04-26T15:58:47.999Z</time></trkpt><trkpt lat="43.92305329115295" lon="5.523955355685065"><ele>514.0</ele><time>2026-04-26T15:58:49.999Z</time></trkpt><trkpt lat="43.92308639679746" lon="5.523867015231084"><ele>514.0</ele><time>2026-04-26T15:58:50.999Z</time></trkpt><trkpt lat="43.92314194496765" lon="5.523816640085675"><ele>514.0</ele><time>2026-04-26T15:58:51.999Z</time></trkpt><trkpt lat="43.923218058308876" lon="5.5238180850911816"><ele>514.0</ele><time>2026-04-26T15:58:53.999Z</time></trkpt><trkpt lat="43.923310561994754" lon="5.523871957451582"><ele>514.0</ele><time>2026-04-26T15:58:55.999Z</time></trkpt><trkpt lat="43.92335960862566" lon="5.5239374990901915"><ele>514.0</ele><time>2026-04-26T15:58:56.999Z</time></trkpt><trkpt lat="43.92337918223104" lon="5.524040548086271"><ele>514.0</ele><time>2026-04-26T15:58:57.999Z</time></trkpt><trkpt lat="43.923402132490274" lon="5.524131622810706"><ele>514.0</ele><time>2026-04-26T15:58:58.999Z</time></trkpt><trkpt lat="43.92341861426002" lon="5.524237591345428"><ele>514.0</ele><time>2026-04-26T15:58:59.999Z</time></trkpt><trkpt lat="43.92344147413051" lon="5.5243357360366785"><ele>514.0</ele><time>2026-04-26T15:59:00.999Z</time></trkpt><trkpt lat="43.923497353730745" lon="5.524455717191048"><ele>518.8</ele><time>2026-04-26T15:59:01.999Z</time></trkpt><trkpt lat="43.92352901367884" lon="5.524591584237616"><ele>523.5999999999999</ele><time>2026-04-26T15:59:02.999Z</time></trkpt><trkpt lat="43.923552631198625" lon="5.524728778192499"><ele>528.4</ele><time>2026-04-26T15:59:03.999Z</time></trkpt><trkpt lat="43.92357134092329" lon="5.524865593099596"><ele>533.1999999999999</ele><time>2026-04-26T15:59:04.999Z</time></trkpt><trkpt lat="43.923599216440245" lon="5.525000096631933"><ele>538.0</ele><time>2026-04-26T15:59:05.999Z</time></trkpt><trkpt lat="43.923633919113875" lon="5.525127639824038"><ele>538.0</ele><time>2026-04-26T15:59:06.999Z</time></trkpt><trkpt lat="43.923656198486256" lon="5.525231043052066"><ele>538.0</ele><time>2026-04-26T15:59:07.999Z</time></trkpt><trkpt lat="43.923697140062615" lon="5.5253370092623655"><ele>538.0</ele><time>2026-04-26T15:59:08.999Z</time></trkpt><trkpt lat="43.92374696771671" lon="5.5254410268587675"><ele>538.0</ele><time>2026-04-26T15:59:10Z</time></trkpt><trkpt lat="43.92380134768225" lon="5.525553883294049"><ele>538.0</ele><time>2026-04-26T15:59:11Z</time></trkpt><trkpt lat="43.923851906064435" lon="5.525658432162462"><ele>538.0</ele><time>2026-04-26T15:59:12Z</time></trkpt><trkpt lat="43.923888887841194" lon="5.525782272235358"><ele>537.8333333333334</ele><time>2026-04-26T15:59:13Z</time></trkpt><trkpt lat="43.923906699063" lon="5.525886375763814"><ele>537.6666666666667</ele><time>2026-04-26T15:59:14Z</time></trkpt><trkpt lat="43.92394364632221" lon="5.525974351453284"><ele>537.5</ele><time>2026-04-26T15:59:15Z</time></trkpt><trkpt lat="43.923998828110754" lon="5.5260787044819635"><ele>537.3333333333334</ele><time>2026-04-26T15:59:16Z</time></trkpt><trkpt lat="43.92404250478933" lon="5.526210144505242"><ele>537.1666666666666</ele><time>2026-04-26T15:59:18Z</time></trkpt><trkpt lat="43.92409623281533" lon="5.526268755405156"><ele>537.0</ele><time>2026-04-26T15:59:19Z</time></trkpt><trkpt lat="43.92420145474648" lon="5.526357214799329"><ele>540.1666666666666</ele><time>2026-04-26T15:59:21Z</time></trkpt><trkpt lat="43.92427059566626" lon="5.526430282810905"><ele>543.3333333333334</ele><time>2026-04-26T15:59:23Z</time></trkpt><trkpt lat="43.92437367616862" lon="5.5265225460054515"><ele>546.5</ele><time>2026-04-26T15:59:25Z</time></trkpt><trkpt lat="43.92443031776889" lon="5.526578084480523"><ele>549.6666666666667</ele><time>2026-04-26T15:59:26Z</time></trkpt><trkpt lat="43.9244920349129" lon="5.526647860137658"><ele>552.8333333333334</ele><time>2026-04-26T15:59:27Z</time></trkpt><trkpt lat="43.924556137032454" lon="5.526714707104311"><ele>556.0</ele><time>2026-04-26T15:59:28Z</time></trkpt><trkpt lat="43.92461864765616" lon="5.526771531576473"><ele>556.0</ele><time>2026-04-26T15:59:29Z</time></trkpt><trkpt lat="43.92467700448556" lon="5.526835600855279"><ele>556.0</ele><time>2026-04-26T15:59:30Z</time></trkpt><trkpt lat="43.92474260479243" lon="5.5268938666672245"><ele>556.0</ele><time>2026-04-26T15:59:31Z</time></trkpt><trkpt lat="43.92480359515797" lon="5.526951769900393"><ele>556.0</ele><time>2026-04-26T15:59:32Z</time></trkpt><trkpt lat="43.924863491279794" lon="5.527007900656058"><ele>556.0</ele><time>2026-04-26T15:59:33Z</time></trkpt><trkpt lat="43.92491330064785" lon="5.5270697589261"><ele>556.0</ele><time>2026-04-26T15:59:34Z</time></trkpt><trkpt lat="43.924954631640304" lon="5.527137568159212"><ele>556.0</ele><time>2026-04-26T15:59:35Z</time></trkpt><trkpt lat="43.92500165452463" lon="5.527203475799563"><ele>555.6</ele><time>2026-04-26T15:59:36Z</time></trkpt><trkpt lat="43.92506009967929" lon="5.527263799902135"><ele>555.2</ele><time>2026-04-26T15:59:37Z</time></trkpt><trkpt lat="43.92511218557068" lon="5.52732151796108"><ele>554.8</ele><time>2026-04-26T15:59:38Z</time></trkpt><trkpt lat="43.92520046029521" lon="5.527390994144219"><ele>554.4</ele><time>2026-04-26T15:59:40Z</time></trkpt><trkpt lat="43.92529168330515" lon="5.527367892630797"><ele>554.0</ele><time>2026-04-26T15:59:43Z</time></trkpt><trkpt lat="43.9253675510942" lon="5.527234212720983"><ele>558.0</ele><time>2026-04-26T15:59:46Z</time></trkpt><trkpt lat="43.9253843889596" lon="5.527095440776639"><ele>562.0</ele><time>2026-04-26T15:59:48Z</time></trkpt><trkpt lat="43.92542686676489" lon="5.526981739908397"><ele>566.0</ele><time>2026-04-26T15:59:49Z</time></trkpt><trkpt lat="43.92546109722666" lon="5.526868623548047"><ele>570.0</ele><time>2026-04-26T15:59:50Z</time></trkpt><trkpt lat="43.9255293675803" lon="5.526737812819428"><ele>574.0</ele><time>2026-04-26T15:59:51Z</time></trkpt><trkpt lat="43.92557911339578" lon="5.526615869395127"><ele>574.5</ele><time>2026-04-26T15:59:52Z</time></trkpt><trkpt lat="43.92563413359032" lon="5.526482959793553"><ele>575.0</ele><time>2026-04-26T15:59:53Z</time></trkpt><trkpt lat="43.925693653687105" lon="5.526357043966574"><ele>575.5</ele><time>2026-04-26T15:59:54Z</time></trkpt><trkpt lat="43.925753175638555" lon="5.526216965007896"><ele>576.0</ele><time>2026-04-26T15:59:55Z</time></trkpt><trkpt lat="43.9258163992739" lon="5.52605635479876"><ele>576.25</ele><time>2026-04-26T15:59:56Z</time></trkpt><trkpt lat="43.92588063777003" lon="5.5259066269488315"><ele>576.5</ele><time>2026-04-26T15:59:57Z</time></trkpt><trkpt lat="43.92594012864148" lon="5.5257514850184375"><ele>576.75</ele><time>2026-04-26T15:59:58Z</time></trkpt><trkpt lat="43.92599789345935" lon="5.525617428381875"><ele>577.0</ele><time>2026-04-26T15:59:59Z</time></trkpt><trkpt lat="43.92605211428172" lon="5.525488607240899"><ele>582.0</ele><time>2026-04-26T16:00:00Z</time></trkpt><trkpt lat="43.926104557302835" lon="5.525349522378863"><ele>587.0</ele><time>2026-04-26T16:00:01Z</time></trkpt><trkpt lat="43.92615434288875" lon="5.525228703615691"><ele>592.0</ele><time>2026-04-26T16:00:02Z</time></trkpt><trkpt lat="43.926205104884595" lon="5.525077064137724"><ele>597.0</ele><time>2026-04-26T16:00:03Z</time></trkpt><trkpt lat="43.926263098014374" lon="5.524931949620643"><ele>597.0</ele><time>2026-04-26T16:00:04Z</time></trkpt><trkpt lat="43.926346243801" lon="5.524796283089081"><ele>597.0</ele><time>2026-04-26T16:00:05Z</time></trkpt><trkpt lat="43.92637367352337" lon="5.524674724000703"><ele>597.0</ele><time>2026-04-26T16:00:06Z</time></trkpt><trkpt lat="43.92662954950877" lon="5.524733284017093"><ele>597.0</ele><time>2026-04-26T16:00:17.999Z</time></trkpt><trkpt lat="43.9266990957797" lon="5.524774255814816"><ele>597.0</ele><time>2026-04-26T16:00:18.999Z</time></trkpt><trkpt lat="43.92678985755985" lon="5.524803074074403"><ele>597.0</ele><time>2026-04-26T16:00:19.999Z</time></trkpt><trkpt lat="43.926947484803975" lon="5.524840911040932"><ele>597.0</ele><time>2026-04-26T16:00:20.999Z</time></trkpt><trkpt lat="43.92703669732065" lon="5.5248495785190785"><ele>597.0</ele><time>2026-04-26T16:00:21.999Z</time></trkpt><trkpt lat="43.92713502835165" lon="5.5248810624195"><ele>599.6</ele><time>2026-04-26T16:00:22.999Z</time></trkpt><trkpt lat="43.92723328836386" lon="5.524924429644471"><ele>602.2</ele><time>2026-04-26T16:00:23.999Z</time></trkpt><trkpt lat="43.927337015283506" lon="5.524956040711004"><ele>604.8</ele><time>2026-04-26T16:00:24.999Z</time></trkpt><trkpt lat="43.927417717055526" lon="5.525003211817036"><ele>607.4</ele><time>2026-04-26T16:00:25.999Z</time></trkpt><trkpt lat="43.927529899010665" lon="5.525051870185315"><ele>610.0</ele><time>2026-04-26T16:00:26.999Z</time></trkpt><trkpt lat="43.9276227880704" lon="5.5250545650086345"><ele>612.4</ele><time>2026-04-26T16:00:27.999Z</time></trkpt><trkpt lat="43.92771506449904" lon="5.525032647280805"><ele>614.8</ele><time>2026-04-26T16:00:28.999Z</time></trkpt><trkpt lat="43.927804269008696" lon="5.525004407510154"><ele>617.2</ele><time>2026-04-26T16:00:29.999Z</time></trkpt><trkpt lat="43.927874252783354" lon="5.524963636791751"><ele>619.6</ele><time>2026-04-26T16:00:30.999Z</time></trkpt><trkpt lat="43.92796879760538" lon="5.52491404464765"><ele>622.0</ele><time>2026-04-26T16:00:31.999Z</time></trkpt><trkpt lat="43.928070756045265" lon="5.524844305093702"><ele>622.0</ele><time>2026-04-26T16:00:32.999Z</time></trkpt><trkpt lat="43.92819535408334" lon="5.524800142246464"><ele>622.0</ele><time>2026-04-26T16:00:33.999Z</time></trkpt><trkpt lat="43.92829318424042" lon="5.52482581903485"><ele>622.0</ele><time>2026-04-26T16:00:35.999Z</time></trkpt><trkpt lat="43.928604067666086" lon="5.5248232490681675"><ele>623.0</ele><time>2026-04-26T16:00:52.999Z</time></trkpt><trkpt lat="43.928718468504215" lon="5.524807773708328"><ele>624.0</ele><time>2026-04-26T16:00:53.999Z</time></trkpt><trkpt lat="43.928848770651555" lon="5.524818554943852"><ele>625.0</ele><time>2026-04-26T16:00:54.999Z</time></trkpt><trkpt lat="43.92898270968827" lon="5.524826255483572"><ele>626.0</ele><time>2026-04-26T16:00:55.999Z</time></trkpt><trkpt lat="43.92910501782124" lon="5.524834963122652"><ele>626.0</ele><time>2026-04-26T16:00:56.999Z</time></trkpt><trkpt lat="43.9292241805955" lon="5.524837214708023"><ele>626.0</ele><time>2026-04-26T16:00:57.999Z</time></trkpt><trkpt lat="43.929332858682926" lon="5.524811950625146"><ele>626.0</ele><time>2026-04-26T16:00:58.999Z</time></trkpt><trkpt lat="43.92944061431487" lon="5.524754028016448"><ele>626.0</ele><time>2026-04-26T16:00:59.999Z</time></trkpt><trkpt lat="43.92955628128477" lon="5.524707411754889"><ele>628.25</ele><time>2026-04-26T16:01:00.999Z</time></trkpt><trkpt lat="43.929672090276746" lon="5.524649264567689"><ele>630.5</ele><time>2026-04-26T16:01:01.999Z</time></trkpt><trkpt lat="43.929791844561535" lon="5.524609571687109"><ele>632.75</ele><time>2026-04-26T16:01:02.999Z</time></trkpt><trkpt lat="43.9299109074399" lon="5.524567308199738"><ele>635.0</ele><time>2026-04-26T16:01:03.999Z</time></trkpt><trkpt lat="43.93003236519976" lon="5.524525955307706"><ele>629.25</ele><time>2026-04-26T16:01:04.999Z</time></trkpt><trkpt lat="43.93014929575826" lon="5.5244717217605475"><ele>623.5</ele><time>2026-04-26T16:01:05.999Z</time></trkpt><trkpt lat="43.93027026674961" lon="5.5244246660866505"><ele>617.75</ele><time>2026-04-26T16:01:06.999Z</time></trkpt><trkpt lat="43.93039529208525" lon="5.5243693466146135"><ele>612.0</ele><time>2026-04-26T16:01:07.999Z</time></trkpt><trkpt lat="43.930522743948636" lon="5.524320339727129"><ele>612.0</ele><time>2026-04-26T16:01:08.999Z</time></trkpt><trkpt lat="43.93065657150312" lon="5.524284182594295"><ele>612.0</ele><time>2026-04-26T16:01:09.999Z</time></trkpt><trkpt lat="43.930794101988404" lon="5.524242393788415"><ele>612.0</ele><time>2026-04-26T16:01:10.999Z</time></trkpt><trkpt lat="43.93091861097078" lon="5.5241935302388105"><ele>612.0</ele><time>2026-04-26T16:01:11.999Z</time></trkpt><trkpt lat="43.931037003951964" lon="5.524157105823237"><ele>613.2</ele><time>2026-04-26T16:01:12.999Z</time></trkpt><trkpt lat="43.93114800008459" lon="5.524110519382886"><ele>614.4000000000001</ele><time>2026-04-26T16:01:13.999Z</time></trkpt><trkpt lat="43.931257840690265" lon="5.524070808239689"><ele>615.5999999999999</ele><time>2026-04-26T16:01:14.999Z</time></trkpt><trkpt lat="43.93135760632167" lon="5.524018057421055"><ele>616.8</ele><time>2026-04-26T16:01:16Z</time></trkpt><trkpt lat="43.931455303526974" lon="5.523962731457346"><ele>618.0</ele><time>2026-04-26T16:01:17Z</time></trkpt><trkpt lat="43.931553577938274" lon="5.523932331901166"><ele>618.0</ele><time>2026-04-26T16:01:18Z</time></trkpt><trkpt lat="43.93164940499544" lon="5.523905528180123"><ele>618.0</ele><time>2026-04-26T16:01:19Z</time></trkpt><trkpt lat="43.93174000216314" lon="5.52386237184023"><ele>618.0</ele><time>2026-04-26T16:01:20Z</time></trkpt><trkpt lat="43.931826076737345" lon="5.523934801444913"><ele>618.0</ele><time>2026-04-26T16:01:21Z</time></trkpt><trkpt lat="43.93191230191234" lon="5.524002295463957"><ele>618.0</ele><time>2026-04-26T16:01:22Z</time></trkpt><trkpt lat="43.93199105463358" lon="5.524084835897888"><ele>618.5</ele><time>2026-04-26T16:01:23Z</time></trkpt><trkpt lat="43.93207469327165" lon="5.524187441058021"><ele>619.0</ele><time>2026-04-26T16:01:24Z</time></trkpt><trkpt lat="43.932161460869565" lon="5.52430185085344"><ele>619.5</ele><time>2026-04-26T16:01:25Z</time></trkpt><trkpt lat="43.932244638632284" lon="5.524441307657877"><ele>620.0</ele><time>2026-04-26T16:01:26Z</time></trkpt><trkpt lat="43.932326491303506" lon="5.524584762914435"><ele>620.0</ele><time>2026-04-26T16:01:27Z</time></trkpt><trkpt lat="43.93239084799469" lon="5.524736111811566"><ele>620.0</ele><time>2026-04-26T16:01:28Z</time></trkpt><trkpt lat="43.93245216392502" lon="5.52487763529886"><ele>620.0</ele><time>2026-04-26T16:01:29Z</time></trkpt><trkpt lat="43.932523942653546" lon="5.525013026886371"><ele>620.0</ele><time>2026-04-26T16:01:30Z</time></trkpt><trkpt lat="43.93260751957357" lon="5.525141193758796"><ele>621.25</ele><time>2026-04-26T16:01:31Z</time></trkpt><trkpt lat="43.932701924917296" lon="5.525268587496399"><ele>622.5</ele><time>2026-04-26T16:01:32Z</time></trkpt><trkpt lat="43.932789181607326" lon="5.525390477607428"><ele>623.75</ele><time>2026-04-26T16:01:33Z</time></trkpt><trkpt lat="43.932863108059216" lon="5.525531173682011"><ele>625.0</ele><time>2026-04-26T16:01:34Z</time></trkpt><trkpt lat="43.932924449054624" lon="5.52569372654064"><ele>625.0</ele><time>2026-04-26T16:01:35Z</time></trkpt><trkpt lat="43.93297666876808" lon="5.52586650429251"><ele>625.0</ele><time>2026-04-26T16:01:36Z</time></trkpt><trkpt lat="43.93303450800326" lon="5.526033918117728"><ele>625.0</ele><time>2026-04-26T16:01:37Z</time></trkpt><trkpt lat="43.933099711880374" lon="5.526202940073128"><ele>625.0</ele><time>2026-04-26T16:01:38Z</time></trkpt><trkpt lat="43.93317089672246" lon="5.526387998953306"><ele>625.0</ele><time>2026-04-26T16:01:39Z</time></trkpt><trkpt lat="43.93322912317529" lon="5.526576149855425"><ele>625.0</ele><time>2026-04-26T16:01:40Z</time></trkpt><trkpt lat="43.933279264681296" lon="5.526756416518497"><ele>625.0</ele><time>2026-04-26T16:01:41Z</time></trkpt><trkpt lat="43.933331347487474" lon="5.526939537319224"><ele>625.0</ele><time>2026-04-26T16:01:42Z</time></trkpt><trkpt lat="43.933376812871934" lon="5.527117013674606"><ele>629.5</ele><time>2026-04-26T16:01:43Z</time></trkpt><trkpt lat="43.93344280935578" lon="5.527275093034792"><ele>634.0</ele><time>2026-04-26T16:01:44Z</time></trkpt><trkpt lat="43.933493898232605" lon="5.5274376252034525"><ele>638.5</ele><time>2026-04-26T16:01:45Z</time></trkpt><trkpt lat="43.93355574007184" lon="5.527600541265525"><ele>643.0</ele><time>2026-04-26T16:01:46Z</time></trkpt><trkpt lat="43.93362337141236" lon="5.527756514788564"><ele>643.0</ele><time>2026-04-26T16:01:47Z</time></trkpt><trkpt lat="43.9336841125323" lon="5.527910557885244"><ele>643.0</ele><time>2026-04-26T16:01:48Z</time></trkpt><trkpt lat="43.93374077080887" lon="5.528065539976453"><ele>643.0</ele><time>2026-04-26T16:01:49Z</time></trkpt><trkpt lat="43.93377359077168" lon="5.528209863650282"><ele>643.0</ele><time>2026-04-26T16:01:50Z</time></trkpt><trkpt lat="43.933792624836975" lon="5.528311527360505"><ele>643.0</ele><time>2026-04-26T16:01:51Z</time></trkpt><trkpt lat="43.93380475485741" lon="5.528487795506777"><ele>643.0</ele><time>2026-04-26T16:01:53Z</time></trkpt><trkpt lat="43.93379050191587" lon="5.528616204759597"><ele>643.0</ele><time>2026-04-26T16:01:54Z</time></trkpt><trkpt lat="43.93377149490245" lon="5.528764661278565"><ele>643.0</ele><time>2026-04-26T16:01:55Z</time></trkpt><trkpt lat="43.93375134034401" lon="5.528929141530206"><ele>643.0</ele><time>2026-04-26T16:01:56Z</time></trkpt><trkpt lat="43.93372184418595" lon="5.529105908121692"><ele>643.75</ele><time>2026-04-26T16:01:57Z</time></trkpt><trkpt lat="43.93364000244707" lon="5.529359210465675"><ele>644.5</ele><time>2026-04-26T16:01:58Z</time></trkpt><trkpt lat="43.93363359570855" lon="5.529538098112549"><ele>645.25</ele><time>2026-04-26T16:01:59Z</time></trkpt><trkpt lat="43.93361925210854" lon="5.529699143429385"><ele>646.0</ele><time>2026-04-26T16:02:00Z</time></trkpt><trkpt lat="43.933594988195246" lon="5.529881906084136"><ele>646.0</ele><time>2026-04-26T16:02:01Z</time></trkpt><trkpt lat="43.93360588824733" lon="5.530071571767263"><ele>646.0</ele><time>2026-04-26T16:02:02Z</time></trkpt><trkpt lat="43.93365130564169" lon="5.5302526708157185"><ele>646.0</ele><time>2026-04-26T16:02:03Z</time></trkpt><trkpt lat="43.933695811426304" lon="5.5304145243662965"><ele>646.0</ele><time>2026-04-26T16:02:04Z</time></trkpt><trkpt lat="43.93375562085515" lon="5.530559791413755"><ele>645.5</ele><time>2026-04-26T16:02:05Z</time></trkpt><trkpt lat="43.93383563791507" lon="5.530690171618836"><ele>645.0</ele><time>2026-04-26T16:02:06Z</time></trkpt><trkpt lat="43.93392676539554" lon="5.530815624228955"><ele>644.5</ele><time>2026-04-26T16:02:07Z</time></trkpt><trkpt lat="43.93401403204522" lon="5.530912136126416"><ele>644.0</ele><time>2026-04-26T16:02:08Z</time></trkpt><trkpt lat="43.93417450064407" lon="5.53094226023753"><ele>646.25</ele><time>2026-04-26T16:02:09Z</time></trkpt><trkpt lat="43.934324424723634" lon="5.530984134509442"><ele>648.5</ele><time>2026-04-26T16:02:10Z</time></trkpt><trkpt lat="43.934429361045716" lon="5.531046820279634"><ele>650.75</ele><time>2026-04-26T16:02:11Z</time></trkpt><trkpt lat="43.93453555204312" lon="5.531149691759902"><ele>653.0</ele><time>2026-04-26T16:02:12Z</time></trkpt><trkpt lat="43.93465223204349" lon="5.531227818981133"><ele>653.5</ele><time>2026-04-26T16:02:13Z</time></trkpt><trkpt lat="43.934788704678176" lon="5.531294589759125"><ele>654.0</ele><time>2026-04-26T16:02:14Z</time></trkpt><trkpt lat="43.93491243069015" lon="5.531367470265126"><ele>654.5</ele><time>2026-04-26T16:02:15Z</time></trkpt><trkpt lat="43.93503611018598" lon="5.531431893872239"><ele>655.0</ele><time>2026-04-26T16:02:16Z</time></trkpt><trkpt lat="43.93514239407961" lon="5.531480854725474"><ele>657.3333333333334</ele><time>2026-04-26T16:02:17Z</time></trkpt><trkpt lat="43.93525200949285" lon="5.53151804139327"><ele>659.6666666666666</ele><time>2026-04-26T16:02:18Z</time></trkpt><trkpt lat="43.93547281329229" lon="5.531457889141344"><ele>662.0</ele><time>2026-04-26T16:02:20Z</time></trkpt><trkpt lat="43.93559822440894" lon="5.531388656303786"><ele>662.0</ele><time>2026-04-26T16:02:21Z</time></trkpt><trkpt lat="43.93573244072606" lon="5.5313324898114145"><ele>662.0</ele><time>2026-04-26T16:02:22Z</time></trkpt><trkpt lat="43.935864235833655" lon="5.531298094407458"><ele>662.0</ele><time>2026-04-26T16:02:23Z</time></trkpt><trkpt lat="43.93599230371763" lon="5.531275453783303"><ele>662.0</ele><time>2026-04-26T16:02:23.999Z</time></trkpt><trkpt lat="43.93610297421926" lon="5.5312607793923885"><ele>662.0</ele><time>2026-04-26T16:02:24.999Z</time></trkpt><trkpt lat="43.93620691951863" lon="5.531227935621796"><ele>662.0</ele><time>2026-04-26T16:02:25.999Z</time></trkpt><trkpt lat="43.936311907382496" lon="5.531185180201082"><ele>662.0</ele><time>2026-04-26T16:02:26.999Z</time></trkpt><trkpt lat="43.93637001152614" lon="5.531113695440778"><ele>662.0</ele><time>2026-04-26T16:02:27.999Z</time></trkpt><trkpt lat="43.93643320807682" lon="5.531057377994149"><ele>662.0</ele><time>2026-04-26T16:02:28.999Z</time></trkpt><trkpt lat="43.936502196311146" lon="5.531031935797157"><ele>662.0</ele><time>2026-04-26T16:02:29.999Z</time></trkpt><trkpt lat="43.93657986263561" lon="5.530961832992745"><ele>662.0</ele><time>2026-04-26T16:02:30.999Z</time></trkpt><trkpt lat="43.93663189208356" lon="5.530877726786968"><ele>662.0</ele><time>2026-04-26T16:02:31.999Z</time></trkpt><trkpt lat="43.93671643021781" lon="5.53088764745677"><ele>662.0</ele><time>2026-04-26T16:02:34.999Z</time></trkpt><trkpt lat="43.936759628361024" lon="5.530959618579631"><ele>662.0</ele><time>2026-04-26T16:02:36.999Z</time></trkpt><trkpt lat="43.936702216270966" lon="5.53104127096001"><ele>662.0</ele><time>2026-04-26T16:02:38.999Z</time></trkpt><trkpt lat="43.936648822059865" lon="5.531128073239369"><ele>662.0</ele><time>2026-04-26T16:02:40.999Z</time></trkpt><trkpt lat="43.93660040694003" lon="5.5311954263778125"><ele>665.5</ele><time>2026-04-26T16:02:41.999Z</time></trkpt><trkpt lat="43.93649697719543" lon="5.5313658773612016"><ele>669.0</ele><time>2026-04-26T16:02:43.999Z</time></trkpt><trkpt lat="43.93639053516666" lon="5.531525070405328"><ele>672.5</ele><time>2026-04-26T16:02:44.999Z</time></trkpt><trkpt lat="43.93627134061529" lon="5.531561941910683"><ele>676.0</ele><time>2026-04-26T16:02:45.999Z</time></trkpt><trkpt lat="43.936190986292175" lon="5.531658545981014"><ele>676.0</ele><time>2026-04-26T16:02:46.999Z</time></trkpt><trkpt lat="43.93611181537793" lon="5.531730012215834"><ele>676.0</ele><time>2026-04-26T16:02:47.999Z</time></trkpt><trkpt lat="43.936016407422954" lon="5.531786088252001"><ele>676.0</ele><time>2026-04-26T16:02:48.999Z</time></trkpt><trkpt lat="43.93593753157872" lon="5.531846666808911"><ele>676.0</ele><time>2026-04-26T16:02:49.999Z</time></trkpt><trkpt lat="43.93587471613531" lon="5.531893810944195"><ele>676.0</ele><time>2026-04-26T16:02:50.999Z</time></trkpt><trkpt lat="43.93580564708697" lon="5.531950586157241"><ele>676.0</ele><time>2026-04-26T16:02:51.999Z</time></trkpt><trkpt lat="43.935749430516466" lon="5.532096441317811"><ele>676.1666666666667</ele><time>2026-04-26T16:02:53.999Z</time></trkpt><trkpt lat="43.93572963435135" lon="5.532185516358974"><ele>676.3333333333334</ele><time>2026-04-26T16:02:54.999Z</time></trkpt><trkpt lat="43.93574032138233" lon="5.532272718890112"><ele>676.5</ele><time>2026-04-26T16:02:55.999Z</time></trkpt><trkpt lat="43.935774273245805" lon="5.5324201338008"><ele>676.6666666666666</ele><time>2026-04-26T16:02:57.999Z</time></trkpt><trkpt lat="43.93578423288773" lon="5.532519106473967"><ele>676.8333333333333</ele><time>2026-04-26T16:02:58.999Z</time></trkpt><trkpt lat="43.93579373336623" lon="5.532617614943011"><ele>677.0</ele><time>2026-04-26T16:02:59.999Z</time></trkpt><trkpt lat="43.93579630117577" lon="5.53272399907194"><ele>677.0</ele><time>2026-04-26T16:03:00.999Z</time></trkpt><trkpt lat="43.93579467202801" lon="5.532841767647279"><ele>677.0</ele><time>2026-04-26T16:03:01.999Z</time></trkpt><trkpt lat="43.93579512815524" lon="5.532961958108356"><ele>677.0</ele><time>2026-04-26T16:03:02.999Z</time></trkpt><trkpt lat="43.93574762468231" lon="5.533100228103136"><ele>677.0</ele><time>2026-04-26T16:03:03.999Z</time></trkpt><trkpt lat="43.935739890117645" lon="5.5333519251339585"><ele>678.8</ele><time>2026-04-26T16:03:04.999Z</time></trkpt><trkpt lat="43.935746781980974" lon="5.533517931821612"><ele>680.6</ele><time>2026-04-26T16:03:05.999Z</time></trkpt><trkpt lat="43.93573110296615" lon="5.5336551737489605"><ele>682.4</ele><time>2026-04-26T16:03:06.999Z</time></trkpt><trkpt lat="43.93568792288681" lon="5.533760395760726"><ele>684.1999999999999</ele><time>2026-04-26T16:03:07.999Z</time></trkpt><trkpt lat="43.93563914485361" lon="5.533855711832441"><ele>686.0</ele><time>2026-04-26T16:03:08.999Z</time></trkpt><trkpt lat="43.935593456566345" lon="5.533934417652129"><ele>687.7142857142857</ele><time>2026-04-26T16:03:09.999Z</time></trkpt><trkpt lat="43.9355347299259" lon="5.534004701661433"><ele>689.4285714285714</ele><time>2026-04-26T16:03:10.999Z</time></trkpt><trkpt lat="43.935466172923135" lon="5.534053573780117"><ele>691.1428571428571</ele><time>2026-04-26T16:03:11.999Z</time></trkpt><trkpt lat="43.93540857133334" lon="5.534105254963008"><ele>692.8571428571429</ele><time>2026-04-26T16:03:12.999Z</time></trkpt><trkpt lat="43.93533789243895" lon="5.534103654958834"><ele>694.5714285714286</ele><time>2026-04-26T16:03:13.999Z</time></trkpt><trkpt lat="43.93527674305714" lon="5.534061829985647"><ele>696.2857142857142</ele><time>2026-04-26T16:03:14.999Z</time></trkpt><trkpt lat="43.93519722463972" lon="5.534049528236912"><ele>698.0</ele><time>2026-04-26T16:03:15.999Z</time></trkpt><trkpt lat="43.93510241023507" lon="5.5339342497704544"><ele>698.0</ele><time>2026-04-26T16:03:16.999Z</time></trkpt><trkpt lat="43.93501195981506" lon="5.5337826633477265"><ele>698.0</ele><time>2026-04-26T16:03:17.999Z</time></trkpt><trkpt lat="43.93480854360696" lon="5.533524870298579"><ele>698.0</ele><time>2026-04-26T16:03:18.999Z</time></trkpt><trkpt lat="43.934727352288895" lon="5.533331395723369"><ele>696.0</ele><time>2026-04-26T16:03:19.999Z</time></trkpt><trkpt lat="43.934622848994735" lon="5.5332667445841475"><ele>694.0</ele><time>2026-04-26T16:03:20.999Z</time></trkpt><trkpt lat="43.93452762263943" lon="5.533223980079225"><ele>692.0</ele><time>2026-04-26T16:03:22Z</time></trkpt><trkpt lat="43.934423689207925" lon="5.53316328099295"><ele>690.0</ele><time>2026-04-26T16:03:23Z</time></trkpt><trkpt lat="43.93433492806293" lon="5.533136161743964"><ele>688.0</ele><time>2026-04-26T16:03:24Z</time></trkpt><trkpt lat="43.93422876552804" lon="5.533147730373714"><ele>690.0</ele><time>2026-04-26T16:03:26Z</time></trkpt><trkpt lat="43.93417009045325" lon="5.533242134563319"><ele>692.0</ele><time>2026-04-26T16:03:28Z</time></trkpt><trkpt lat="43.934097566792666" lon="5.5334071729600085"><ele>694.0</ele><time>2026-04-26T16:03:30Z</time></trkpt><trkpt lat="43.93407091005457" lon="5.533574087221631"><ele>696.0</ele><time>2026-04-26T16:03:31Z</time></trkpt><trkpt lat="43.93406376282271" lon="5.533704376831486"><ele>698.0</ele><time>2026-04-26T16:03:32Z</time></trkpt><trkpt lat="43.9340474411427" lon="5.533847467220934"><ele>698.0</ele><time>2026-04-26T16:03:34Z</time></trkpt><trkpt lat="43.93405198666709" lon="5.53399911125491"><ele>698.0</ele><time>2026-04-26T16:03:36Z</time></trkpt><trkpt lat="43.93412349229208" lon="5.534127009134957"><ele>698.0</ele><time>2026-04-26T16:03:38Z</time></trkpt><trkpt lat="43.934193503095514" lon="5.534184416854833"><ele>698.0</ele><time>2026-04-26T16:03:39Z</time></trkpt><trkpt lat="43.93427510549958" lon="5.5342229471613384"><ele>698.0</ele><time>2026-04-26T16:03:40Z</time></trkpt><trkpt lat="43.934348997985396" lon="5.534253163357176"><ele>698.0</ele><time>2026-04-26T16:03:41Z</time></trkpt><trkpt lat="43.93448582635455" lon="5.534322503055881"><ele>698.0</ele><time>2026-04-26T16:03:42Z</time></trkpt><trkpt lat="43.934593402747964" lon="5.534376047339182"><ele>698.0</ele><time>2026-04-26T16:03:43Z</time></trkpt><trkpt lat="43.93473066893704" lon="5.534489580479312"><ele>698.0</ele><time>2026-04-26T16:03:44Z</time></trkpt><trkpt lat="43.93489302716138" lon="5.5345922569376285"><ele>699.2</ele><time>2026-04-26T16:03:45Z</time></trkpt><trkpt lat="43.93497730962968" lon="5.5346745297763"><ele>700.4</ele><time>2026-04-26T16:03:46Z</time></trkpt><trkpt lat="43.935058415321436" lon="5.534783169175367"><ele>701.6</ele><time>2026-04-26T16:03:47Z</time></trkpt><trkpt lat="43.93515473437168" lon="5.534889909582945"><ele>702.8000000000001</ele><time>2026-04-26T16:03:48Z</time></trkpt><trkpt lat="43.93523262272241" lon="5.5349568892724115"><ele>704.0</ele><time>2026-04-26T16:03:49Z</time></trkpt><trkpt lat="43.9352968406759" lon="5.534990933402495"><ele>704.5</ele><time>2026-04-26T16:03:50Z</time></trkpt><trkpt lat="43.935382828838065" lon="5.535030987790046"><ele>705.0</ele><time>2026-04-26T16:03:52Z</time></trkpt><trkpt lat="43.93557559598843" lon="5.535036800049932"><ele>705.5</ele><time>2026-04-26T16:03:57Z</time></trkpt><trkpt lat="43.93569115664882" lon="5.535060247916708"><ele>706.0</ele><time>2026-04-26T16:03:58Z</time></trkpt><trkpt lat="43.93577108454066" lon="5.535081244893449"><ele>706.0</ele><time>2026-04-26T16:03:59Z</time></trkpt><trkpt lat="43.9358568175524" lon="5.535094588901102"><ele>706.0</ele><time>2026-04-26T16:04:00Z</time></trkpt><trkpt lat="43.93592846405746" lon="5.535118265280276"><ele>706.0</ele><time>2026-04-26T16:04:01Z</time></trkpt><trkpt lat="43.93602458907044" lon="5.535105377411437"><ele>706.0</ele><time>2026-04-26T16:04:02Z</time></trkpt><trkpt lat="43.93615714753636" lon="5.535036936895217"><ele>706.0</ele><time>2026-04-26T16:04:03Z</time></trkpt><trkpt lat="43.93632373883537" lon="5.5349853936427476"><ele>707.1999999999999</ele><time>2026-04-26T16:04:04Z</time></trkpt><trkpt lat="43.93643556565895" lon="5.534949946454107"><ele>708.4</ele><time>2026-04-26T16:04:05Z</time></trkpt><trkpt lat="43.93654025415451" lon="5.53494493509651"><ele>709.6</ele><time>2026-04-26T16:04:06Z</time></trkpt><trkpt lat="43.93663264586172" lon="5.534953244239862"><ele>710.8</ele><time>2026-04-26T16:04:07Z</time></trkpt><trkpt lat="43.93674274969841" lon="5.535009758967689"><ele>712.0</ele><time>2026-04-26T16:04:08Z</time></trkpt><trkpt lat="43.93686853633738" lon="5.535056349019788"><ele>713.25</ele><time>2026-04-26T16:04:09Z</time></trkpt><trkpt lat="43.93699003209669" lon="5.535103209880412"><ele>714.5</ele><time>2026-04-26T16:04:10Z</time></trkpt><trkpt lat="43.937115023963834" lon="5.535140503993978"><ele>715.75</ele><time>2026-04-26T16:04:11Z</time></trkpt><trkpt lat="43.937233534740884" lon="5.535166506426936"><ele>717.0</ele><time>2026-04-26T16:04:12Z</time></trkpt><trkpt lat="43.9373514648495" lon="5.535183305005131"><ele>717.0</ele><time>2026-04-26T16:04:13Z</time></trkpt><trkpt lat="43.93745870279105" lon="5.535193832291055"><ele>717.0</ele><time>2026-04-26T16:04:14Z</time></trkpt><trkpt lat="43.93756526312135" lon="5.535186791164059"><ele>717.0</ele><time>2026-04-26T16:04:15Z</time></trkpt><trkpt lat="43.93765886735293" lon="5.535194471628431"><ele>717.0</ele><time>2026-04-26T16:04:16Z</time></trkpt><trkpt lat="43.93776331808859" lon="5.53522858637928"><ele>717.0</ele><time>2026-04-26T16:04:17Z</time></trkpt><trkpt lat="43.93786948795369" lon="5.535292958814479"><ele>719.5</ele><time>2026-04-26T16:04:18Z</time></trkpt><trkpt lat="43.9379903450323" lon="5.535342370235197"><ele>722.0</ele><time>2026-04-26T16:04:19Z</time></trkpt><trkpt lat="43.93811324501457" lon="5.5353748410714205"><ele>724.5</ele><time>2026-04-26T16:04:20Z</time></trkpt><trkpt lat="43.93822086575169" lon="5.5353941534278155"><ele>727.0</ele><time>2026-04-26T16:04:21Z</time></trkpt><trkpt lat="43.93830870077432" lon="5.535431837176643"><ele>729.25</ele><time>2026-04-26T16:04:22Z</time></trkpt><trkpt lat="43.938445654040876" lon="5.535527878758836"><ele>731.5</ele><time>2026-04-26T16:04:23Z</time></trkpt><trkpt lat="43.938575022075064" lon="5.535610143721706"><ele>733.75</ele><time>2026-04-26T16:04:24Z</time></trkpt><trkpt lat="43.93869150121239" lon="5.535705180859367"><ele>736.0</ele><time>2026-04-26T16:04:25Z</time></trkpt><trkpt lat="43.93878775213457" lon="5.535774097413866"><ele>736.0</ele><time>2026-04-26T16:04:26Z</time></trkpt><trkpt lat="43.938876840545504" lon="5.535823723067307"><ele>736.0</ele><time>2026-04-26T16:04:27Z</time></trkpt><trkpt lat="43.93897135346655" lon="5.535854601153353"><ele>736.0</ele><time>2026-04-26T16:04:28Z</time></trkpt><trkpt lat="43.93907938491986" lon="5.535866539823441"><ele>736.0</ele><time>2026-04-26T16:04:29Z</time></trkpt><trkpt lat="43.939194629918056" lon="5.535870270130577"><ele>736.0</ele><time>2026-04-26T16:04:29.999Z</time></trkpt><trkpt lat="43.9393238825013" lon="5.535865880490516"><ele>737.5</ele><time>2026-04-26T16:04:30.999Z</time></trkpt><trkpt lat="43.939473791735374" lon="5.535793571067462"><ele>739.0</ele><time>2026-04-26T16:04:31.999Z</time></trkpt><trkpt lat="43.93961134583461" lon="5.535782748704165"><ele>740.5</ele><time>2026-04-26T16:04:32.999Z</time></trkpt><trkpt lat="43.939731037209945" lon="5.535755364144875"><ele>742.0</ele><time>2026-04-26T16:04:33.999Z</time></trkpt><trkpt lat="43.93985128939859" lon="5.535732988361117"><ele>742.0</ele><time>2026-04-26T16:04:34.999Z</time></trkpt><trkpt lat="43.93996271967471" lon="5.535705542020993"><ele>742.0</ele><time>2026-04-26T16:04:35.999Z</time></trkpt><trkpt lat="43.94006168733048" lon="5.535673507065626"><ele>742.0</ele><time>2026-04-26T16:04:36.999Z</time></trkpt><trkpt lat="43.94019115500193" lon="5.535652006084056"><ele>742.0</ele><time>2026-04-26T16:04:37.999Z</time></trkpt><trkpt lat="43.94031109128177" lon="5.535641752171915"><ele>744.0</ele><time>2026-04-26T16:04:38.999Z</time></trkpt><trkpt lat="43.94043254213427" lon="5.535639148513267"><ele>746.0</ele><time>2026-04-26T16:04:39.999Z</time></trkpt><trkpt lat="43.94056278210231" lon="5.535643031558814"><ele>748.0</ele><time>2026-04-26T16:04:40.999Z</time></trkpt><trkpt lat="43.94069642469594" lon="5.535627701848306"><ele>750.0</ele><time>2026-04-26T16:04:41.999Z</time></trkpt><trkpt lat="43.940822185937655" lon="5.535610379324009"><ele>751.5</ele><time>2026-04-26T16:04:42.999Z</time></trkpt><trkpt lat="43.940954714513545" lon="5.5356059024999436"><ele>753.0</ele><time>2026-04-26T16:04:43.999Z</time></trkpt><trkpt lat="43.9410838780408" lon="5.535582382060211"><ele>754.5</ele><time>2026-04-26T16:04:44.999Z</time></trkpt><trkpt lat="43.94120895183552" lon="5.535577911324274"><ele>756.0</ele><time>2026-04-26T16:04:45.999Z</time></trkpt><trkpt lat="43.94134390282073" lon="5.53555644896776"><ele>756.0</ele><time>2026-04-26T16:04:46.999Z</time></trkpt><trkpt lat="43.94146310794089" lon="5.535557272820604"><ele>756.0</ele><time>2026-04-26T16:04:47.999Z</time></trkpt><trkpt lat="43.941573483975546" lon="5.535560432501115"><ele>756.0</ele><time>2026-04-26T16:04:48.999Z</time></trkpt><trkpt lat="43.941682351830416" lon="5.535567124758682"><ele>756.0</ele><time>2026-04-26T16:04:49.999Z</time></trkpt><trkpt lat="43.94180201028035" lon="5.535576450525306"><ele>756.75</ele><time>2026-04-26T16:04:50.999Z</time></trkpt><trkpt lat="43.94192710005361" lon="5.535605547948923"><ele>757.5</ele><time>2026-04-26T16:04:51.999Z</time></trkpt><trkpt lat="43.94207174259716" lon="5.53561377829256"><ele>758.25</ele><time>2026-04-26T16:04:52.999Z</time></trkpt><trkpt lat="43.94218812238753" lon="5.535588268531168"><ele>759.0</ele><time>2026-04-26T16:04:53.999Z</time></trkpt><trkpt lat="43.9422591851331" lon="5.535589614064507"><ele>759.0</ele><time>2026-04-26T16:04:54.999Z</time></trkpt><trkpt lat="43.9423777432816" lon="5.53562198590417"><ele>759.0</ele><time>2026-04-26T16:04:56.999Z</time></trkpt><trkpt lat="43.94243817692538" lon="5.5356849400820085"><ele>759.0</ele><time>2026-04-26T16:04:57.999Z</time></trkpt><trkpt lat="43.942530079571284" lon="5.535785145249992"><ele>759.0</ele><time>2026-04-26T16:04:59.999Z</time></trkpt><trkpt lat="43.94261439074909" lon="5.535814583914144"><ele>759.0</ele><time>2026-04-26T16:05:00.999Z</time></trkpt><trkpt lat="43.942709165877496" lon="5.535836832157891"><ele>759.6666666666666</ele><time>2026-04-26T16:05:01.999Z</time></trkpt><trkpt lat="43.94282059636712" lon="5.535845912026042"><ele>760.3333333333334</ele><time>2026-04-26T16:05:02.999Z</time></trkpt><trkpt lat="43.94289862800374" lon="5.535812607229525"><ele>761.0</ele><time>2026-04-26T16:05:03.999Z</time></trkpt><trkpt lat="43.94296391662566" lon="5.535772529733787"><ele>761.6666666666667</ele><time>2026-04-26T16:05:04.999Z</time></trkpt><trkpt lat="43.94303496881018" lon="5.5357181661411925"><ele>762.3333333333334</ele><time>2026-04-26T16:05:05.999Z</time></trkpt><trkpt lat="43.943118624763585" lon="5.535646904380327"><ele>763.0</ele><time>2026-04-26T16:05:06.999Z</time></trkpt><trkpt lat="43.94320972129787" lon="5.535577159082852"><ele>763.0</ele><time>2026-04-26T16:05:07.999Z</time></trkpt><trkpt lat="43.94332349951397" lon="5.535521471197609"><ele>763.0</ele><time>2026-04-26T16:05:08.999Z</time></trkpt><trkpt lat="43.94341707662723" lon="5.5354600364148885"><ele>763.0</ele><time>2026-04-26T16:05:09.999Z</time></trkpt><trkpt lat="43.943515349744764" lon="5.535394706837862"><ele>763.0</ele><time>2026-04-26T16:05:10.999Z</time></trkpt><trkpt lat="43.94362353875539" lon="5.535334256741182"><ele>764.1666666666667</ele><time>2026-04-26T16:05:11.999Z</time></trkpt><trkpt lat="43.94371889131376" lon="5.53531397099371"><ele>765.3333333333334</ele><time>2026-04-26T16:05:12.999Z</time></trkpt><trkpt lat="43.94378076036042" lon="5.535289330402172"><ele>766.5</ele><time>2026-04-26T16:05:13.999Z</time></trkpt><trkpt lat="43.94383851467553" lon="5.535243578036153"><ele>767.6666666666667</ele><time>2026-04-26T16:05:14.999Z</time></trkpt><trkpt lat="43.94389840580473" lon="5.535197656466637"><ele>768.8333333333334</ele><time>2026-04-26T16:05:15.999Z</time></trkpt><trkpt lat="43.94398003965626" lon="5.53514437996277"><ele>770.0</ele><time>2026-04-26T16:05:17.999Z</time></trkpt><trkpt lat="43.94408197804644" lon="5.535127448075726"><ele>770.0</ele><time>2026-04-26T16:05:19.999Z</time></trkpt><trkpt lat="43.94417876490767" lon="5.5350344505471885"><ele>770.0</ele><time>2026-04-26T16:05:21.999Z</time></trkpt><trkpt lat="43.944254620721665" lon="5.534961312636898"><ele>770.0</ele><time>2026-04-26T16:05:23.999Z</time></trkpt><trkpt lat="43.944352194971565" lon="5.534910439267171"><ele>770.0</ele><time>2026-04-26T16:05:25.999Z</time></trkpt><trkpt lat="43.944429554295716" lon="5.534922122247987"><ele>770.0</ele><time>2026-04-26T16:05:28Z</time></trkpt><trkpt lat="43.94446960549523" lon="5.534835300817339"><ele>771.6</ele><time>2026-04-26T16:05:43Z</time></trkpt><trkpt lat="43.94452683047412" lon="5.534765901616373"><ele>773.2</ele><time>2026-04-26T16:05:46Z</time></trkpt><trkpt lat="43.94458953713801" lon="5.534689151863815"><ele>774.8</ele><time>2026-04-26T16:05:48Z</time></trkpt><trkpt lat="43.94465660407373" lon="5.534626860768112"><ele>776.4</ele><time>2026-04-26T16:05:50Z</time></trkpt><trkpt lat="43.944755865211164" lon="5.534561967047534"><ele>778.0</ele><time>2026-04-26T16:05:52Z</time></trkpt><trkpt lat="43.94485471092714" lon="5.534509917472734"><ele>778.4</ele><time>2026-04-26T16:05:54Z</time></trkpt><trkpt lat="43.94495489459903" lon="5.534464869711712"><ele>778.8</ele><time>2026-04-26T16:05:56Z</time></trkpt><trkpt lat="43.94504061676018" lon="5.534464518102509"><ele>779.2</ele><time>2026-04-26T16:05:58Z</time></trkpt><trkpt lat="43.94513706862446" lon="5.534523862565337"><ele>779.6</ele><time>2026-04-26T16:06:00Z</time></trkpt><trkpt lat="43.945225284827735" lon="5.534615178620711"><ele>780.0</ele><time>2026-04-26T16:06:02Z</time></trkpt><trkpt lat="43.94532489325668" lon="5.534654905119155"><ele>782.0</ele><time>2026-04-26T16:06:04Z</time></trkpt><trkpt lat="43.94543428892819" lon="5.534704955771303"><ele>784.0</ele><time>2026-04-26T16:06:06Z</time></trkpt><trkpt lat="43.945526324073846" lon="5.534783075506615"><ele>786.0</ele><time>2026-04-26T16:06:08Z</time></trkpt><trkpt lat="43.94560431790082" lon="5.5348979954083655"><ele>788.0</ele><time>2026-04-26T16:06:10Z</time></trkpt><trkpt lat="43.94568417022382" lon="5.53501082355604"><ele>788.0</ele><time>2026-04-26T16:06:12Z</time></trkpt><trkpt lat="43.945754497277015" lon="5.535098955463632"><ele>788.0</ele><time>2026-04-26T16:06:14Z</time></trkpt><trkpt lat="43.945814055637875" lon="5.535191293599652"><ele>788.0</ele><time>2026-04-26T16:06:16Z</time></trkpt><trkpt lat="43.945856846310114" lon="5.535327993970839"><ele>788.0</ele><time>2026-04-26T16:06:18Z</time></trkpt><trkpt lat="43.94590185519534" lon="5.535457654143119"><ele>788.0</ele><time>2026-04-26T16:06:20Z</time></trkpt><trkpt lat="43.94594690634918" lon="5.535600225966394"><ele>789.8</ele><time>2026-04-26T16:06:22Z</time></trkpt><trkpt lat="43.94594684629837" lon="5.535758974551198"><ele>791.5999999999999</ele><time>2026-04-26T16:06:24Z</time></trkpt><trkpt lat="43.94597318949958" lon="5.53591090989031"><ele>793.4000000000001</ele><time>2026-04-26T16:06:26Z</time></trkpt><trkpt lat="43.94600933254496" lon="5.5360019624917305"><ele>795.2</ele><time>2026-04-26T16:06:28Z</time></trkpt><trkpt lat="43.94603184873126" lon="5.536106732753266"><ele>797.0</ele><time>2026-04-26T16:06:31Z</time></trkpt><trkpt lat="43.94587960707558" lon="5.536209642784868"><ele>795.0000000000001</ele><time>2026-04-26T16:06:33Z</time></trkpt><trkpt lat="43.94585721328723" lon="5.536309607373714"><ele>793.0</ele><time>2026-04-26T16:06:34Z</time></trkpt><trkpt lat="43.94583794567322" lon="5.536395616993349"><ele>791.0</ele><time>2026-04-26T16:06:35Z</time></trkpt><trkpt lat="43.94581549882416" lon="5.536501699515556"><ele>789.0</ele><time>2026-04-26T16:06:36Z</time></trkpt><trkpt lat="43.94579177386249" lon="5.536651046329848"><ele>787.0000000000001</ele><time>2026-04-26T16:06:37Z</time></trkpt><trkpt lat="43.945776970570435" lon="5.536798978789794"><ele>785.0</ele><time>2026-04-26T16:06:38Z</time></trkpt><trkpt lat="43.945764314599195" lon="5.536955671458592"><ele>784.75</ele><time>2026-04-26T16:06:39Z</time></trkpt><trkpt lat="43.94575217369512" lon="5.537185528702485"><ele>784.5</ele><time>2026-04-26T16:06:40Z</time></trkpt><trkpt lat="43.94573212960349" lon="5.537315541491134"><ele>784.25</ele><time>2026-04-26T16:06:41Z</time></trkpt><trkpt lat="43.94571463936199" lon="5.537419124474629"><ele>784.0</ele><time>2026-04-26T16:06:41.999Z</time></trkpt><trkpt lat="43.94568598722928" lon="5.537568523544474"><ele>784.0</ele><time>2026-04-26T16:06:42.999Z</time></trkpt><trkpt lat="43.94565635263421" lon="5.537723045397838"><ele>784.0</ele><time>2026-04-26T16:06:43.999Z</time></trkpt><trkpt lat="43.94562812802955" lon="5.537835525063139"><ele>784.0</ele><time>2026-04-26T16:06:44.999Z</time></trkpt><trkpt lat="43.94610609495813" lon="5.538244461852217"><ele>785.75</ele><time>2026-04-26T16:06:45.999Z</time></trkpt><trkpt lat="43.946120866996395" lon="5.538396699794785"><ele>787.5</ele><time>2026-04-26T16:06:46.999Z</time></trkpt><trkpt lat="43.94614697833983" lon="5.538549670462248"><ele>789.25</ele><time>2026-04-26T16:06:47.999Z</time></trkpt><trkpt lat="43.94618756479399" lon="5.538703586754849"><ele>791.0</ele><time>2026-04-26T16:06:48.999Z</time></trkpt><trkpt lat="43.94621977785645" lon="5.538885103605175"><ele>791.0</ele><time>2026-04-26T16:06:49.999Z</time></trkpt><trkpt lat="43.94624371420318" lon="5.5390756828091705"><ele>791.0</ele><time>2026-04-26T16:06:50.999Z</time></trkpt><trkpt lat="43.946269785909145" lon="5.539254670141375"><ele>791.0</ele><time>2026-04-26T16:06:51.999Z</time></trkpt><trkpt lat="43.9462950106594" lon="5.539419292328924"><ele>791.0</ele><time>2026-04-26T16:06:52.999Z</time></trkpt><trkpt lat="43.94632005874671" lon="5.539591329638261"><ele>790.0</ele><time>2026-04-26T16:06:53.999Z</time></trkpt><trkpt lat="43.946341297241965" lon="5.539807462506858"><ele>789.0</ele><time>2026-04-26T16:06:54.999Z</time></trkpt><trkpt lat="43.94635791250764" lon="5.539980713709027"><ele>788.0</ele><time>2026-04-26T16:06:55.999Z</time></trkpt><trkpt lat="43.946366021992084" lon="5.540149464036028"><ele>787.0</ele><time>2026-04-26T16:06:56.999Z</time></trkpt><trkpt lat="43.94639723315749" lon="5.540302508319149"><ele>786.5</ele><time>2026-04-26T16:06:57.999Z</time></trkpt><trkpt lat="43.94642289669424" lon="5.540455523072879"><ele>786.0</ele><time>2026-04-26T16:06:58.999Z</time></trkpt><trkpt lat="43.94643847130221" lon="5.540627910281149"><ele>785.5</ele><time>2026-04-26T16:06:59.999Z</time></trkpt><trkpt lat="43.94644868458269" lon="5.540789869903629"><ele>785.0</ele><time>2026-04-26T16:07:00.999Z</time></trkpt><trkpt lat="43.94645426584323" lon="5.540942843444318"><ele>785.0</ele><time>2026-04-26T16:07:01.999Z</time></trkpt><trkpt lat="43.94646831319517" lon="5.541085179278719"><ele>785.0</ele><time>2026-04-26T16:07:02.999Z</time></trkpt><trkpt lat="43.94647515106969" lon="5.541231507879662"><ele>785.0</ele><time>2026-04-26T16:07:03.999Z</time></trkpt><trkpt lat="43.946494177948466" lon="5.541352729498563"><ele>785.0</ele><time>2026-04-26T16:07:04.999Z</time></trkpt><trkpt lat="43.946504293238625" lon="5.541464216134033"><ele>785.0</ele><time>2026-04-26T16:07:05.999Z</time></trkpt><trkpt lat="43.946488315641766" lon="5.541608495250329"><ele>784.6</ele><time>2026-04-26T16:07:07.999Z</time></trkpt><trkpt lat="43.9465493072973" lon="5.541747871885355"><ele>784.2</ele><time>2026-04-26T16:07:09.999Z</time></trkpt><trkpt lat="43.946579101771256" lon="5.541847284646101"><ele>783.8</ele><time>2026-04-26T16:07:10.999Z</time></trkpt><trkpt lat="43.946597145313945" lon="5.541970037731743"><ele>783.4</ele><time>2026-04-26T16:07:11.999Z</time></trkpt><trkpt lat="43.94660870317167" lon="5.542109643133019"><ele>783.0</ele><time>2026-04-26T16:07:12.999Z</time></trkpt><trkpt lat="43.946631166109526" lon="5.54225923371246"><ele>782.8</ele><time>2026-04-26T16:07:13.999Z</time></trkpt><trkpt lat="43.94664221510833" lon="5.542445092799815"><ele>782.5999999999999</ele><time>2026-04-26T16:07:14.999Z</time></trkpt><trkpt lat="43.94666827800172" lon="5.5425934636479495"><ele>782.4000000000001</ele><time>2026-04-26T16:07:15.999Z</time></trkpt><trkpt lat="43.946666020737545" lon="5.542690190863869"><ele>782.2</ele><time>2026-04-26T16:07:16.999Z</time></trkpt><trkpt lat="43.94665361046439" lon="5.5427932121158525"><ele>782.0</ele><time>2026-04-26T16:07:17.999Z</time></trkpt><trkpt lat="43.946646919597036" lon="5.542897721022689"><ele>782.0</ele><time>2026-04-26T16:07:18.999Z</time></trkpt><trkpt lat="43.946663004247945" lon="5.543043511394581"><ele>782.0</ele><time>2026-04-26T16:07:20.999Z</time></trkpt><trkpt lat="43.94671182560576" lon="5.543221253909805"><ele>782.0</ele><time>2026-04-26T16:07:22.999Z</time></trkpt><trkpt lat="43.94677359894393" lon="5.543358120851907"><ele>782.0</ele><time>2026-04-26T16:07:23.999Z</time></trkpt><trkpt lat="43.94679015671637" lon="5.543541451504885"><ele>783.0</ele><time>2026-04-26T16:07:24.999Z</time></trkpt><trkpt lat="43.946786880153624" lon="5.543787122123098"><ele>784.0</ele><time>2026-04-26T16:07:25.999Z</time></trkpt><trkpt lat="43.94678570777357" lon="5.54393707595313"><ele>785.0</ele><time>2026-04-26T16:07:26.999Z</time></trkpt><trkpt lat="43.946790721778044" lon="5.544074242774076"><ele>786.0</ele><time>2026-04-26T16:07:27.999Z</time></trkpt><trkpt lat="43.9468226367075" lon="5.544184166834739"><ele>786.0</ele><time>2026-04-26T16:07:28.999Z</time></trkpt><trkpt lat="43.946844975882435" lon="5.544329629656829"><ele>786.0</ele><time>2026-04-26T16:07:29.999Z</time></trkpt><trkpt lat="43.946865850173154" lon="5.5444766107824295"><ele>786.0</ele><time>2026-04-26T16:07:30.999Z</time></trkpt><trkpt lat="43.94687516597518" lon="5.544623291483283"><ele>786.0</ele><time>2026-04-26T16:07:31.999Z</time></trkpt><trkpt lat="43.946881513740784" lon="5.544766987496639"><ele>786.0</ele><time>2026-04-26T16:07:32.999Z</time></trkpt><trkpt lat="43.94687818023477" lon="5.544934324766785"><ele>785.5999999999999</ele><time>2026-04-26T16:07:34Z</time></trkpt><trkpt lat="43.946895129877554" lon="5.545161414304765"><ele>785.2</ele><time>2026-04-26T16:07:35Z</time></trkpt><trkpt lat="43.94689101157749" lon="5.5452875245656195"><ele>784.8</ele><time>2026-04-26T16:07:36Z</time></trkpt><trkpt lat="43.94687090643519" lon="5.545394306000975"><ele>784.4000000000001</ele><time>2026-04-26T16:07:37Z</time></trkpt><trkpt lat="43.94687315122007" lon="5.545492011704428"><ele>784.0</ele><time>2026-04-26T16:07:38Z</time></trkpt><trkpt lat="43.94689551094422" lon="5.545593601011603"><ele>783.8333333333333</ele><time>2026-04-26T16:07:39Z</time></trkpt><trkpt lat="43.94692672646343" lon="5.545687560492778"><ele>783.6666666666666</ele><time>2026-04-26T16:07:40Z</time></trkpt><trkpt lat="43.94696168140771" lon="5.545777835833921"><ele>783.5</ele><time>2026-04-26T16:07:41Z</time></trkpt><trkpt lat="43.946976556054295" lon="5.54587517646683"><ele>783.3333333333333</ele><time>2026-04-26T16:07:42Z</time></trkpt><trkpt lat="43.94700683525243" lon="5.545968547645991"><ele>783.1666666666666</ele><time>2026-04-26T16:07:44Z</time></trkpt><trkpt lat="43.94699251227509" lon="5.546061674328878"><ele>783.0</ele><time>2026-04-26T16:07:46Z</time></trkpt><trkpt lat="43.94710783182998" lon="5.546077710417244"><ele>783.0</ele><time>2026-04-26T16:07:51Z</time></trkpt><trkpt lat="43.94720547213657" lon="5.546035465187539"><ele>783.0</ele><time>2026-04-26T16:07:53Z</time></trkpt><trkpt lat="43.94730960506045" lon="5.545934361071636"><ele>783.0</ele><time>2026-04-26T16:07:54Z</time></trkpt><trkpt lat="43.947407789812836" lon="5.545898766990253"><ele>783.0</ele><time>2026-04-26T16:07:55Z</time></trkpt><trkpt lat="43.94750266781631" lon="5.545840312734126"><ele>783.0</ele><time>2026-04-26T16:07:56Z</time></trkpt><trkpt lat="43.947607480279856" lon="5.545828693242979"><ele>784.2</ele><time>2026-04-26T16:07:57Z</time></trkpt><trkpt lat="43.947709614772364" lon="5.5458161255531575"><ele>785.4</ele><time>2026-04-26T16:07:58Z</time></trkpt><trkpt lat="43.94781293739678" lon="5.545803500261164"><ele>786.6</ele><time>2026-04-26T16:07:59Z</time></trkpt><trkpt lat="43.94791365581236" lon="5.545758710358935"><ele>787.8000000000001</ele><time>2026-04-26T16:08:00Z</time></trkpt><trkpt lat="43.948019280155584" lon="5.545718900656736"><ele>789.0</ele><time>2026-04-26T16:08:01Z</time></trkpt><trkpt lat="43.948117955862344" lon="5.545683960125369"><ele>789.0</ele><time>2026-04-26T16:08:02Z</time></trkpt><trkpt lat="43.94822595673753" lon="5.5456390513932305"><ele>789.0</ele><time>2026-04-26T16:08:03Z</time></trkpt><trkpt lat="43.94834076004796" lon="5.545610348945813"><ele>789.0</ele><time>2026-04-26T16:08:04Z</time></trkpt><trkpt lat="43.948461679752846" lon="5.545594384989491"><ele>789.0</ele><time>2026-04-26T16:08:05Z</time></trkpt><trkpt lat="43.94857728137145" lon="5.545567353814051"><ele>790.0</ele><time>2026-04-26T16:08:06Z</time></trkpt><trkpt lat="43.948666885639874" lon="5.545542317196447"><ele>791.0</ele><time>2026-04-26T16:08:07Z</time></trkpt><trkpt lat="43.9487411341158" lon="5.5455186115972515"><ele>792.0</ele><time>2026-04-26T16:08:08Z</time></trkpt><trkpt lat="43.94881487206249" lon="5.545494312210266"><ele>793.0</ele><time>2026-04-26T16:08:09Z</time></trkpt><trkpt lat="43.948871519400136" lon="5.545443586708228"><ele>794.0</ele><time>2026-04-26T16:08:10Z</time></trkpt><trkpt lat="43.948934813549634" lon="5.545368356418413"><ele>795.0</ele><time>2026-04-26T16:08:11Z</time></trkpt><trkpt lat="43.94899580471423" lon="5.545282903354425"><ele>795.3333333333334</ele><time>2026-04-26T16:08:12Z</time></trkpt><trkpt lat="43.94907102500752" lon="5.545220646599908"><ele>795.6666666666667</ele><time>2026-04-26T16:08:13Z</time></trkpt><trkpt lat="43.94913471880411" lon="5.545158437123414"><ele>796.0</ele><time>2026-04-26T16:08:14Z</time></trkpt><trkpt lat="43.94918798693352" lon="5.545075724935265"><ele>796.3333333333334</ele><time>2026-04-26T16:08:15Z</time></trkpt><trkpt lat="43.94925683842262" lon="5.5450467793926155"><ele>796.6666666666667</ele><time>2026-04-26T16:08:16Z</time></trkpt><trkpt lat="43.949340708726794" lon="5.545045019262294"><ele>797.0</ele><time>2026-04-26T16:08:17Z</time></trkpt><trkpt lat="43.94941785334721" lon="5.545080334285099"><ele>798.5000000000001</ele><time>2026-04-26T16:08:18Z</time></trkpt><trkpt lat="43.94948633101266" lon="5.545138270126269"><ele>800.0</ele><time>2026-04-26T16:08:19Z</time></trkpt><trkpt lat="43.9495429020663" lon="5.545213555092479"><ele>801.5</ele><time>2026-04-26T16:08:20Z</time></trkpt><trkpt lat="43.9496079490932" lon="5.545237322334254"><ele>803.0</ele><time>2026-04-26T16:08:21Z</time></trkpt><trkpt lat="43.949679083725826" lon="5.545241276158083"><ele>804.5000000000001</ele><time>2026-04-26T16:08:22Z</time></trkpt><trkpt lat="43.94977077595295" lon="5.5452137581504255"><ele>806.0</ele><time>2026-04-26T16:08:23Z</time></trkpt><trkpt lat="43.94987981572943" lon="5.545227593980158"><ele>806.0</ele><time>2026-04-26T16:08:24Z</time></trkpt><trkpt lat="43.950009806564395" lon="5.545258267011001"><ele>806.0</ele><time>2026-04-26T16:08:25Z</time></trkpt><trkpt lat="43.950141004404784" lon="5.545283834280247"><ele>806.0</ele><time>2026-04-26T16:08:26Z</time></trkpt><trkpt lat="43.950276496355755" lon="5.5453353140298525"><ele>806.0</ele><time>2026-04-26T16:08:27Z</time></trkpt><trkpt lat="43.9504204271506" lon="5.54538334579933"><ele>807.75</ele><time>2026-04-26T16:08:28Z</time></trkpt><trkpt lat="43.95054101792636" lon="5.5454581875619615"><ele>809.5</ele><time>2026-04-26T16:08:29Z</time></trkpt><trkpt lat="43.95065924691406" lon="5.54550833095518"><ele>811.25</ele><time>2026-04-26T16:08:30Z</time></trkpt><trkpt lat="43.95076022497361" lon="5.54554959265798"><ele>813.0</ele><time>2026-04-26T16:08:31Z</time></trkpt><trkpt lat="43.950872399675454" lon="5.545603290317689"><ele>815.0</ele><time>2026-04-26T16:08:32Z</time></trkpt><trkpt lat="43.950971525978076" lon="5.545644963409723"><ele>817.0</ele><time>2026-04-26T16:08:33Z</time></trkpt><trkpt lat="43.95106871849776" lon="5.545678190788773"><ele>819.0</ele><time>2026-04-26T16:08:34Z</time></trkpt><trkpt lat="43.95116168269558" lon="5.5457072127651434"><ele>821.0</ele><time>2026-04-26T16:08:35Z</time></trkpt><trkpt lat="43.95125559557406" lon="5.545720770431462"><ele>823.0</ele><time>2026-04-26T16:08:36Z</time></trkpt><trkpt lat="43.95134913305272" lon="5.545739149618127"><ele>823.0</ele><time>2026-04-26T16:08:37Z</time></trkpt><trkpt lat="43.95144219189467" lon="5.545760150711387"><ele>823.0</ele><time>2026-04-26T16:08:38Z</time></trkpt><trkpt lat="43.95151801123781" lon="5.5457835957271815"><ele>823.0</ele><time>2026-04-26T16:08:39Z</time></trkpt><trkpt lat="43.95160904740265" lon="5.545807694550842"><ele>823.0</ele><time>2026-04-26T16:08:40Z</time></trkpt><trkpt lat="43.951698006706444" lon="5.545832880339999"><ele>823.0</ele><time>2026-04-26T16:08:41Z</time></trkpt><trkpt lat="43.951808417625735" lon="5.545830650777329"><ele>825.0</ele><time>2026-04-26T16:08:42Z</time></trkpt><trkpt lat="43.95192985157548" lon="5.545826932319305"><ele>827.0</ele><time>2026-04-26T16:08:43Z</time></trkpt><trkpt lat="43.95203732018579" lon="5.545842716237691"><ele>829.0</ele><time>2026-04-26T16:08:44Z</time></trkpt><trkpt lat="43.95212939309951" lon="5.5458748643472155"><ele>831.0</ele><time>2026-04-26T16:08:44.999Z</time></trkpt><trkpt lat="43.95220786261435" lon="5.545917470677304"><ele>833.0</ele><time>2026-04-26T16:08:45.999Z</time></trkpt><trkpt lat="43.95229212967822" lon="5.545949469420226"><ele>833.0</ele><time>2026-04-26T16:08:46.999Z</time></trkpt><trkpt lat="43.952378390176015" lon="5.546009101359156"><ele>833.0</ele><time>2026-04-26T16:08:47.999Z</time></trkpt><trkpt lat="43.952453352050824" lon="5.546061117529884"><ele>833.0</ele><time>2026-04-26T16:08:48.999Z</time></trkpt><trkpt lat="43.95252891781438" lon="5.546133398933177"><ele>833.0</ele><time>2026-04-26T16:08:49.999Z</time></trkpt><trkpt lat="43.952602469910865" lon="5.546197884541506"><ele>833.0</ele><time>2026-04-26T16:08:50.999Z</time></trkpt><trkpt lat="43.9526883076923" lon="5.546246540911789"><ele>834.0</ele><time>2026-04-26T16:08:51.999Z</time></trkpt><trkpt lat="43.95278056488243" lon="5.546301847317099"><ele>835.0</ele><time>2026-04-26T16:08:52.999Z</time></trkpt><trkpt lat="43.952865154631745" lon="5.546357983854305"><ele>836.0</ele><time>2026-04-26T16:08:53.999Z</time></trkpt><trkpt lat="43.95292822141119" lon="5.5464159018081975"><ele>837.0</ele><time>2026-04-26T16:08:54.999Z</time></trkpt><trkpt lat="43.95298051633169" lon="5.546477083164571"><ele>838.0</ele><time>2026-04-26T16:08:55.999Z</time></trkpt><trkpt lat="43.953093747385935" lon="5.546534316186582"><ele>837.9999999999999</ele><time>2026-04-26T16:08:57.999Z</time></trkpt><trkpt lat="43.95321546873793" lon="5.546493079337154"><ele>838.0</ele><time>2026-04-26T16:08:59.999Z</time></trkpt><trkpt lat="43.95327345015332" lon="5.546453803323845"><ele>838.0</ele><time>2026-04-26T16:09:00.999Z</time></trkpt><trkpt lat="43.953337317793405" lon="5.546408512041941"><ele>838.0</ele><time>2026-04-26T16:09:01.999Z</time></trkpt><trkpt lat="43.95341618693823" lon="5.546364987289255"><ele>837.9999999999999</ele><time>2026-04-26T16:09:02.999Z</time></trkpt><trkpt lat="43.95348941400132" lon="5.546368390612344"><ele>838.0</ele><time>2026-04-26T16:09:03.999Z</time></trkpt><trkpt lat="43.953568720141945" lon="5.546379974646099"><ele>840.0</ele><time>2026-04-26T16:09:04.999Z</time></trkpt><trkpt lat="43.95364233964134" lon="5.546380966823536"><ele>842.0</ele><time>2026-04-26T16:09:05.999Z</time></trkpt><trkpt lat="43.95370748513654" lon="5.546367084726691"><ele>844.0</ele><time>2026-04-26T16:09:06.999Z</time></trkpt><trkpt lat="43.953841230302515" lon="5.54636908479276"><ele>846.0</ele><time>2026-04-26T16:09:08.999Z</time></trkpt><trkpt lat="43.95392904124712" lon="5.546393138466781"><ele>848.0</ele><time>2026-04-26T16:09:09.999Z</time></trkpt><trkpt lat="43.95401882617706" lon="5.546458063842801"><ele>848.0</ele><time>2026-04-26T16:09:10.999Z</time></trkpt><trkpt lat="43.954121464669605" lon="5.546530307891546"><ele>848.0</ele><time>2026-04-26T16:09:11.999Z</time></trkpt><trkpt lat="43.95420925528624" lon="5.546617298989336"><ele>848.0</ele><time>2026-04-26T16:09:12.999Z</time></trkpt><trkpt lat="43.95426232000487" lon="5.546665340100259"><ele>848.0</ele><time>2026-04-26T16:09:13.999Z</time></trkpt><trkpt lat="43.95432643433431" lon="5.546720791100868"><ele>848.0</ele><time>2026-04-26T16:09:15.999Z</time></trkpt><trkpt lat="43.95442232491746" lon="5.546701848888362"><ele>850.75</ele><time>2026-04-26T16:09:18.999Z</time></trkpt><trkpt lat="43.95450924920911" lon="5.54663602232445"><ele>853.5</ele><time>2026-04-26T16:09:20.999Z</time></trkpt><trkpt lat="43.95464650861948" lon="5.546606509512743"><ele>856.25</ele><time>2026-04-26T16:09:22.999Z</time></trkpt><trkpt lat="43.954764283845584" lon="5.546571331660896"><ele>859.0</ele><time>2026-04-26T16:09:24.999Z</time></trkpt><trkpt lat="43.954868484540135" lon="5.546524916619586"><ele>859.0</ele><time>2026-04-26T16:09:26.999Z</time></trkpt><trkpt lat="43.95497676766625" lon="5.5465025272812625"><ele>859.0000000000001</ele><time>2026-04-26T16:09:28.999Z</time></trkpt><trkpt lat="43.95508120169264" lon="5.546511545834698"><ele>859.0000000000001</ele><time>2026-04-26T16:09:30.999Z</time></trkpt><trkpt lat="43.95517484184092" lon="5.546512410842249"><ele>859.0</ele><time>2026-04-26T16:09:32.999Z</time></trkpt><trkpt lat="43.95526658550554" lon="5.5465116090841144"><ele>859.0</ele><time>2026-04-26T16:09:34.999Z</time></trkpt><trkpt lat="43.95544048632025" lon="5.546563370622471"><ele>860.1666666666666</ele><time>2026-04-26T16:09:53Z</time></trkpt><trkpt lat="43.955516016412815" lon="5.546570587805899"><ele>861.3333333333333</ele><time>2026-04-26T16:09:54Z</time></trkpt><trkpt lat="43.95557812769535" lon="5.546589191651976"><ele>862.5</ele><time>2026-04-26T16:09:55Z</time></trkpt><trkpt lat="43.95565028760169" lon="5.546629338215204"><ele>863.6666666666667</ele><time>2026-04-26T16:09:58Z</time></trkpt><trkpt lat="43.955687361368696" lon="5.546729384952718"><ele>864.8333333333334</ele><time>2026-04-26T16:10:00Z</time></trkpt><trkpt lat="43.955775341215634" lon="5.546823831361814"><ele>866.0</ele><time>2026-04-26T16:10:02Z</time></trkpt><trkpt lat="43.95584273458453" lon="5.54689131170209"><ele>866.1999999999999</ele><time>2026-04-26T16:10:03Z</time></trkpt><trkpt lat="43.955930744822865" lon="5.546954712824192"><ele>866.3999999999999</ele><time>2026-04-26T16:10:04Z</time></trkpt><trkpt lat="43.956001878011854" lon="5.5470119567815654"><ele>866.6</ele><time>2026-04-26T16:10:05Z</time></trkpt><trkpt lat="43.95610212640255" lon="5.5470441177845755"><ele>866.8</ele><time>2026-04-26T16:10:06Z</time></trkpt><trkpt lat="43.956170017669834" lon="5.54710414746302"><ele>867.0</ele><time>2026-04-26T16:10:07Z</time></trkpt><trkpt lat="43.95624278236314" lon="5.547170481648967"><ele>867.0</ele><time>2026-04-26T16:10:08Z</time></trkpt><trkpt lat="43.95630892465381" lon="5.547250787984732"><ele>867.0</ele><time>2026-04-26T16:10:09Z</time></trkpt><trkpt lat="43.95634054716513" lon="5.547388527042444"><ele>867.0</ele><time>2026-04-26T16:10:10Z</time></trkpt><trkpt lat="43.95641891273052" lon="5.547439006488306"><ele>867.0</ele><time>2026-04-26T16:10:11Z</time></trkpt><trkpt lat="43.95648669306805" lon="5.547482483448384"><ele>867.0</ele><time>2026-04-26T16:10:12Z</time></trkpt><trkpt lat="43.95661393528716" lon="5.547498600812182"><ele>867.0</ele><time>2026-04-26T16:10:14Z</time></trkpt><trkpt lat="43.95669503352317" lon="5.547461744402975"><ele>867.0</ele><time>2026-04-26T16:10:15Z</time></trkpt><trkpt lat="43.956764456759764" lon="5.547460233393242"><ele>867.0</ele><time>2026-04-26T16:10:16Z</time></trkpt><trkpt lat="43.95683337921771" lon="5.547490061325935"><ele>867.0</ele><time>2026-04-26T16:10:17Z</time></trkpt><trkpt lat="43.95692524942791" lon="5.547465349984953"><ele>867.0</ele><time>2026-04-26T16:10:19Z</time></trkpt><trkpt lat="43.95702691181584" lon="5.547392027307302"><ele>867.0</ele><time>2026-04-26T16:10:21Z</time></trkpt><trkpt lat="43.95715891106389" lon="5.54731650512632"><ele>868.0</ele><time>2026-04-26T16:10:23Z</time></trkpt><trkpt lat="43.95723992199265" lon="5.547241135134513"><ele>869.0</ele><time>2026-04-26T16:10:24Z</time></trkpt><trkpt lat="43.95730538001267" lon="5.547183640781834"><ele>870.0</ele><time>2026-04-26T16:10:25Z</time></trkpt><trkpt lat="43.95735349205503" lon="5.54712413889129"><ele>871.0</ele><time>2026-04-26T16:10:26Z</time></trkpt><trkpt lat="43.95740086098651" lon="5.547059538198385"><ele>872.0</ele><time>2026-04-26T16:10:27Z</time></trkpt><trkpt lat="43.95745630227768" lon="5.547003034514621"><ele>873.0</ele><time>2026-04-26T16:10:28Z</time></trkpt><trkpt lat="43.95753857679245" lon="5.546984584082016"><ele>874.2</ele><time>2026-04-26T16:10:29Z</time></trkpt><trkpt lat="43.957626186808575" lon="5.54701759078753"><ele>875.4</ele><time>2026-04-26T16:10:30Z</time></trkpt><trkpt lat="43.95775348255728" lon="5.547013339909848"><ele>876.6000000000001</ele><time>2026-04-26T16:10:31Z</time></trkpt><trkpt lat="43.957864183225865" lon="5.547020824254381"><ele>877.8000000000001</ele><time>2026-04-26T16:10:32Z</time></trkpt><trkpt lat="43.95797380043314" lon="5.547067114278394"><ele>879.0</ele><time>2026-04-26T16:10:33Z</time></trkpt><trkpt lat="43.958050972336075" lon="5.54707997582642"><ele>879.0</ele><time>2026-04-26T16:10:34Z</time></trkpt><trkpt lat="43.95813035921011" lon="5.5470764199374205"><ele>879.0</ele><time>2026-04-26T16:10:35Z</time></trkpt><trkpt lat="43.95819445206149" lon="5.5470242136157415"><ele>879.0</ele><time>2026-04-26T16:10:36Z</time></trkpt><trkpt lat="43.95827616479627" lon="5.546994848440845"><ele>879.0</ele><time>2026-04-26T16:10:37Z</time></trkpt><trkpt lat="43.95835702375093" lon="5.546980983016838"><ele>879.0</ele><time>2026-04-26T16:10:38Z</time></trkpt><trkpt lat="43.958432178447545" lon="5.546975601843844"><ele>879.0</ele><time>2026-04-26T16:10:39Z</time></trkpt><trkpt lat="43.95854482637567" lon="5.547014768918379"><ele>879.8333333333334</ele><time>2026-04-26T16:10:40Z</time></trkpt><trkpt lat="43.95862331983844" lon="5.547014458878284"><ele>880.6666666666667</ele><time>2026-04-26T16:10:41Z</time></trkpt><trkpt lat="43.958694751919346" lon="5.54709558961577"><ele>881.5</ele><time>2026-04-26T16:10:43Z</time></trkpt><trkpt lat="43.958729898257644" lon="5.5471766226249395"><ele>882.3333333333334</ele><time>2026-04-26T16:10:44Z</time></trkpt><trkpt lat="43.95879303567187" lon="5.547218809765841"><ele>883.1666666666667</ele><time>2026-04-26T16:10:45Z</time></trkpt><trkpt lat="43.95888921613646" lon="5.547253423649603"><ele>884.0</ele><time>2026-04-26T16:10:46Z</time></trkpt><trkpt lat="43.95899144252292" lon="5.547311178348156"><ele>884.0000000000001</ele><time>2026-04-26T16:10:47Z</time></trkpt><trkpt lat="43.95909348998844" lon="5.547340793680117"><ele>884.0</ele><time>2026-04-26T16:10:47.999Z</time></trkpt><trkpt lat="43.95917321114484" lon="5.547348639062585"><ele>884.0</ele><time>2026-04-26T16:10:48.999Z</time></trkpt><trkpt lat="43.959255657494005" lon="5.547346578274273"><ele>884.0</ele><time>2026-04-26T16:10:49.999Z</time></trkpt><trkpt lat="43.959323993663276" lon="5.547320967639476"><ele>884.0000000000001</ele><time>2026-04-26T16:10:50.999Z</time></trkpt><trkpt lat="43.959413201092104" lon="5.547321436197789"><ele>884.0</ele><time>2026-04-26T16:10:51.999Z</time></trkpt><trkpt lat="43.959488944944084" lon="5.547319695133056"><ele>884.3333333333334</ele><time>2026-04-26T16:10:52.999Z</time></trkpt><trkpt lat="43.959567385752074" lon="5.547287951963564"><ele>884.6666666666667</ele><time>2026-04-26T16:10:53.999Z</time></trkpt><trkpt lat="43.959648745328266" lon="5.547243926335258"><ele>885.0</ele><time>2026-04-26T16:10:54.999Z</time></trkpt><trkpt lat="43.95973711149598" lon="5.547225051001887"><ele>885.3333333333333</ele><time>2026-04-26T16:10:55.999Z</time></trkpt><trkpt lat="43.959823651516665" lon="5.547223234146916"><ele>885.6666666666666</ele><time>2026-04-26T16:10:56.999Z</time></trkpt><trkpt lat="43.95990606905823" lon="5.547229179919374"><ele>886.0</ele><time>2026-04-26T16:10:57.999Z</time></trkpt><trkpt lat="43.95998641689767" lon="5.547222982881736"><ele>884.6666666666666</ele><time>2026-04-26T16:10:58.999Z</time></trkpt><trkpt lat="43.96006614036845" lon="5.547222216912673"><ele>883.3333333333333</ele><time>2026-04-26T16:10:59.999Z</time></trkpt><trkpt lat="43.96014903324111" lon="5.547217179331502"><ele>882.0</ele><time>2026-04-26T16:11:00.999Z</time></trkpt><trkpt lat="43.960218068989604" lon="5.547230975226985"><ele>880.6666666666667</ele><time>2026-04-26T16:11:01.999Z</time></trkpt><trkpt lat="43.96030918339295" lon="5.547208418985124"><ele>879.3333333333334</ele><time>2026-04-26T16:11:02.999Z</time></trkpt><trkpt lat="43.9604028563914" lon="5.547182699304548"><ele>878.0</ele><time>2026-04-26T16:11:03.999Z</time></trkpt><trkpt lat="43.96052023514213" lon="5.547154922651477"><ele>878.0</ele><time>2026-04-26T16:11:04.999Z</time></trkpt><trkpt lat="43.960617113939186" lon="5.5471062986812"><ele>878.0</ele><time>2026-04-26T16:11:05.999Z</time></trkpt><trkpt lat="43.96072042791063" lon="5.547041191326957"><ele>878.0</ele><time>2026-04-26T16:11:06.999Z</time></trkpt><trkpt lat="43.96080261038714" lon="5.54700621683934"><ele>878.0</ele><time>2026-04-26T16:11:07.999Z</time></trkpt><trkpt lat="43.960870270624554" lon="5.546968544872281"><ele>878.0</ele><time>2026-04-26T16:11:08.999Z</time></trkpt><trkpt lat="43.9609584449066" lon="5.546912748348102"><ele>879.0000000000001</ele><time>2026-04-26T16:11:10.999Z</time></trkpt><trkpt lat="43.96102095464464" lon="5.546867976404893"><ele>880.0</ele><time>2026-04-26T16:11:12.999Z</time></trkpt><trkpt lat="43.96108886073688" lon="5.546911646858708"><ele>881.0</ele><time>2026-04-26T16:11:14.999Z</time></trkpt><trkpt lat="43.96116530664531" lon="5.546925476106284"><ele>882.0</ele><time>2026-04-26T16:11:15.999Z</time></trkpt><trkpt lat="43.96126254923135" lon="5.546919452697754"><ele>883.0000000000001</ele><time>2026-04-26T16:11:16.999Z</time></trkpt><trkpt lat="43.96134645002945" lon="5.546920566665178"><ele>884.0</ele><time>2026-04-26T16:11:17.999Z</time></trkpt><trkpt lat="43.961423756544484" lon="5.546916786110927"><ele>884.0000000000001</ele><time>2026-04-26T16:11:18.999Z</time></trkpt><trkpt lat="43.961494758715524" lon="5.546890108462719"><ele>884.0</ele><time>2026-04-26T16:11:19.999Z</time></trkpt><trkpt lat="43.96156760268482" lon="5.546871533423556"><ele>884.0</ele><time>2026-04-26T16:11:20.999Z</time></trkpt><trkpt lat="43.961669988657505" lon="5.546868049793233"><ele>884.0</ele><time>2026-04-26T16:11:22.999Z</time></trkpt><trkpt lat="43.96175274695027" lon="5.5469051107277725"><ele>884.0000000000001</ele><time>2026-04-26T16:11:24.999Z</time></trkpt><trkpt lat="43.961819427656955" lon="5.546962711994857"><ele>884.0</ele><time>2026-04-26T16:11:26.999Z</time></trkpt><trkpt lat="43.96187091711358" lon="5.547070283202735"><ele>883.5</ele><time>2026-04-26T16:11:28.999Z</time></trkpt><trkpt lat="43.96189577100154" lon="5.547241762414776"><ele>883.0</ele><time>2026-04-26T16:11:30.999Z</time></trkpt><trkpt lat="43.961926727565185" lon="5.547371925450001"><ele>882.5</ele><time>2026-04-26T16:11:32.999Z</time></trkpt><trkpt lat="43.961973847260516" lon="5.54753916282666"><ele>882.0</ele><time>2026-04-26T16:11:34.999Z</time></trkpt><trkpt lat="43.9620827458937" lon="5.547668640048543"><ele>882.0</ele><time>2026-04-26T16:11:36.999Z</time></trkpt><trkpt lat="43.962155329844386" lon="5.547720899046816"><ele>882.0</ele><time>2026-04-26T16:11:37.999Z</time></trkpt><trkpt lat="43.96223542179211" lon="5.547780739788681"><ele>882.0</ele><time>2026-04-26T16:11:39.999Z</time></trkpt><trkpt lat="43.962335549255506" lon="5.547828060835907"><ele>882.0</ele><time>2026-04-26T16:11:41.999Z</time></trkpt><trkpt lat="43.9623856954677" lon="5.547888087000876"><ele>882.0</ele><time>2026-04-26T16:11:42.999Z</time></trkpt><trkpt lat="43.96243519577228" lon="5.5479636184441405"><ele>882.0</ele><time>2026-04-26T16:11:43.999Z</time></trkpt><trkpt lat="43.9624990514826" lon="5.54799005025056"><ele>882.0</ele><time>2026-04-26T16:11:44.999Z</time></trkpt><trkpt lat="43.962614699374086" lon="5.54797466536228"><ele>882.0</ele><time>2026-04-26T16:11:46Z</time></trkpt><trkpt lat="43.96272664213338" lon="5.547982259713824"><ele>882.0</ele><time>2026-04-26T16:11:47Z</time></trkpt><trkpt lat="43.96282462681553" lon="5.547993233609547"><ele>882.0</ele><time>2026-04-26T16:11:48Z</time></trkpt><trkpt lat="43.96290265855421" lon="5.548018141224148"><ele>882.0</ele><time>2026-04-26T16:11:49Z</time></trkpt><trkpt lat="43.962991148267" lon="5.547982696440399"><ele>882.0</ele><time>2026-04-26T16:11:50Z</time></trkpt><trkpt lat="43.963072670266094" lon="5.547949631018001"><ele>882.0</ele><time>2026-04-26T16:11:51Z</time></trkpt><trkpt lat="43.963136587232555" lon="5.547951822372855"><ele>882.0</ele><time>2026-04-26T16:11:52Z</time></trkpt><trkpt lat="43.963188330782025" lon="5.548004694382359"><ele>882.0</ele><time>2026-04-26T16:11:54Z</time></trkpt><trkpt lat="43.96325062035367" lon="5.547946409172526"><ele>882.0</ele><time>2026-04-26T16:11:56Z</time></trkpt><trkpt lat="43.96336576649546" lon="5.548009925617417"><ele>882.0</ele><time>2026-04-26T16:11:58Z</time></trkpt><trkpt lat="43.96344440259776" lon="5.548033838609097"><ele>882.0</ele><time>2026-04-26T16:11:59Z</time></trkpt><trkpt lat="43.96352981762319" lon="5.548036404811295"><ele>882.0</ele><time>2026-04-26T16:12:00Z</time></trkpt><trkpt lat="43.963630330577736" lon="5.548021444262103"><ele>882.0</ele><time>2026-04-26T16:12:01Z</time></trkpt><trkpt lat="43.963761800523365" lon="5.547952876309833"><ele>882.0</ele><time>2026-04-26T16:12:02Z</time></trkpt><trkpt lat="43.96389052693764" lon="5.5478571417460545"><ele>881.6</ele><time>2026-04-26T16:12:03Z</time></trkpt><trkpt lat="43.964021499354" lon="5.547754099318813"><ele>881.2</ele><time>2026-04-26T16:12:04Z</time></trkpt><trkpt lat="43.964097318090694" lon="5.547653552808538"><ele>880.8</ele><time>2026-04-26T16:12:05Z</time></trkpt><trkpt lat="43.96415321543252" lon="5.547582911285268"><ele>880.4</ele><time>2026-04-26T16:12:06Z</time></trkpt><trkpt lat="43.96420437482699" lon="5.547495132673828"><ele>880.0</ele><time>2026-04-26T16:12:07Z</time></trkpt><trkpt lat="43.96425013733286" lon="5.54737547711483"><ele>880.0</ele><time>2026-04-26T16:12:08Z</time></trkpt><trkpt lat="43.964310437913554" lon="5.54726635538705"><ele>880.0</ele><time>2026-04-26T16:12:09Z</time></trkpt><trkpt lat="43.964390868267266" lon="5.547168497637087"><ele>880.0</ele><time>2026-04-26T16:12:10Z</time></trkpt><trkpt lat="43.964454225962236" lon="5.547067933774887"><ele>880.0</ele><time>2026-04-26T16:12:11Z</time></trkpt><trkpt lat="43.964493140337744" lon="5.546965313292279"><ele>880.0</ele><time>2026-04-26T16:12:12Z</time></trkpt><trkpt lat="43.9645351123218" lon="5.546852248316987"><ele>882.2</ele><time>2026-04-26T16:12:13Z</time></trkpt><trkpt lat="43.96458444431247" lon="5.546741556551893"><ele>884.4</ele><time>2026-04-26T16:12:14Z</time></trkpt><trkpt lat="43.964632737939446" lon="5.546625357461607"><ele>886.5999999999999</ele><time>2026-04-26T16:12:15Z</time></trkpt><trkpt lat="43.96470583506164" lon="5.546529572048312"><ele>888.8</ele><time>2026-04-26T16:12:16Z</time></trkpt><trkpt lat="43.96478723373496" lon="5.546416954412705"><ele>891.0</ele><time>2026-04-26T16:12:17Z</time></trkpt><trkpt lat="43.96486594238874" lon="5.546297502171695"><ele>892.5</ele><time>2026-04-26T16:12:18Z</time></trkpt><trkpt lat="43.96493568778052" lon="5.54615775883225"><ele>894.0</ele><time>2026-04-26T16:12:19Z</time></trkpt><trkpt lat="43.96501550381089" lon="5.546053696064526"><ele>895.5</ele><time>2026-04-26T16:12:20Z</time></trkpt><trkpt lat="43.965107815053116" lon="5.54595438029789"><ele>897.0</ele><time>2026-04-26T16:12:21Z</time></trkpt><trkpt lat="43.96520668499382" lon="5.545865989894173"><ele>897.0</ele><time>2026-04-26T16:12:22Z</time></trkpt><trkpt lat="43.96530846686462" lon="5.545770580746284"><ele>897.0</ele><time>2026-04-26T16:12:23Z</time></trkpt><trkpt lat="43.96541647303933" lon="5.545683733312316"><ele>897.0</ele><time>2026-04-26T16:12:24Z</time></trkpt><trkpt lat="43.96557348425844" lon="5.545653836715738"><ele>897.0</ele><time>2026-04-26T16:12:25Z</time></trkpt><trkpt lat="43.965672551361806" lon="5.545575485068533"><ele>897.0</ele><time>2026-04-26T16:12:26Z</time></trkpt><trkpt lat="43.96576044003469" lon="5.545515155003254"><ele>897.0</ele><time>2026-04-26T16:12:27Z</time></trkpt><trkpt lat="43.96582979419442" lon="5.545431799310084"><ele>897.0</ele><time>2026-04-26T16:12:28Z</time></trkpt><trkpt lat="43.965868094083824" lon="5.545341673020401"><ele>897.0</ele><time>2026-04-26T16:12:29Z</time></trkpt><trkpt lat="43.96593703262524" lon="5.54526716695248"><ele>897.0</ele><time>2026-04-26T16:12:30Z</time></trkpt><trkpt lat="43.96599612447625" lon="5.545212096873765"><ele>897.0</ele><time>2026-04-26T16:12:31Z</time></trkpt><trkpt lat="43.966043498846865" lon="5.54514636046418"><ele>898.6</ele><time>2026-04-26T16:12:32Z</time></trkpt><trkpt lat="43.966103187143375" lon="5.545089934454425"><ele>900.2</ele><time>2026-04-26T16:12:34Z</time></trkpt><trkpt lat="43.966201852780905" lon="5.544987407599365"><ele>901.8</ele><time>2026-04-26T16:12:47Z</time></trkpt><trkpt lat="43.96626093878601" lon="5.544922125522256"><ele>903.4</ele><time>2026-04-26T16:12:48Z</time></trkpt><trkpt lat="43.96634142667693" lon="5.544883110683553"><ele>905.0</ele><time>2026-04-26T16:12:49Z</time></trkpt><trkpt lat="43.96643376080004" lon="5.544835236684051"><ele>905.0000000000001</ele><time>2026-04-26T16:12:50Z</time></trkpt><trkpt lat="43.96652418149254" lon="5.54478061605259"><ele>905.0</ele><time>2026-04-26T16:12:51Z</time></trkpt><trkpt lat="43.966608721159396" lon="5.544736941858571"><ele>905.0</ele><time>2026-04-26T16:12:52Z</time></trkpt><trkpt lat="43.96668210162191" lon="5.544742041463869"><ele>905.0</ele><time>2026-04-26T16:12:53Z</time></trkpt><trkpt lat="43.96675266886309" lon="5.544705002987993"><ele>905.0000000000001</ele><time>2026-04-26T16:12:54Z</time></trkpt><trkpt lat="43.96682014931872" lon="5.54464145896682"><ele>905.0</ele><time>2026-04-26T16:12:55Z</time></trkpt><trkpt lat="43.96687734823853" lon="5.5445256408999795"><ele>906.2</ele><time>2026-04-26T16:12:56Z</time></trkpt><trkpt lat="43.96692291213198" lon="5.544399295117509"><ele>907.4</ele><time>2026-04-26T16:12:57Z</time></trkpt><trkpt lat="43.966990031470765" lon="5.544334118128727"><ele>908.5999999999999</ele><time>2026-04-26T16:12:58Z</time></trkpt><trkpt lat="43.96707498129813" lon="5.544263422391113"><ele>909.8</ele><time>2026-04-26T16:12:59Z</time></trkpt><trkpt lat="43.96713794297232" lon="5.544178923824545"><ele>911.0</ele><time>2026-04-26T16:13:00Z</time></trkpt><trkpt lat="43.96721227863988" lon="5.544093608629313"><ele>911.0000000000001</ele><time>2026-04-26T16:13:01Z</time></trkpt><trkpt lat="43.96729884536704" lon="5.544017171985723"><ele>911.0</ele><time>2026-04-26T16:13:02Z</time></trkpt><trkpt lat="43.96737211731681" lon="5.54395848377648"><ele>911.0</ele><time>2026-04-26T16:13:03Z</time></trkpt><trkpt lat="43.96743591842447" lon="5.543916962576352"><ele>911.0</ele><time>2026-04-26T16:13:03.999Z</time></trkpt><trkpt lat="43.96750763875551" lon="5.543926472077721"><ele>911.0000000000001</ele><time>2026-04-26T16:13:04.999Z</time></trkpt><trkpt lat="43.967585058570386" lon="5.543978535909045"><ele>911.0</ele><time>2026-04-26T16:13:05.999Z</time></trkpt><trkpt lat="43.967662025549856" lon="5.544040877853824"><ele>910.5999999999999</ele><time>2026-04-26T16:13:06.999Z</time></trkpt><trkpt lat="43.96775011114791" lon="5.544073303301255"><ele>910.1999999999999</ele><time>2026-04-26T16:13:08.999Z</time></trkpt><trkpt lat="43.96788048015473" lon="5.543981607160467"><ele>909.8000000000001</ele><time>2026-04-26T16:13:23.999Z</time></trkpt><trkpt lat="43.967958290844074" lon="5.543949057032822"><ele>909.4000000000001</ele><time>2026-04-26T16:13:24.999Z</time></trkpt><trkpt lat="43.96804382597122" lon="5.543877985802327"><ele>909.0</ele><time>2026-04-26T16:13:25.999Z</time></trkpt><trkpt lat="43.968140060569546" lon="5.543826717369985"><ele>909.0</ele><time>2026-04-26T16:13:26.999Z</time></trkpt><trkpt lat="43.968260456575976" lon="5.543769579747358"><ele>909.0</ele><time>2026-04-26T16:13:27.999Z</time></trkpt><trkpt lat="43.96838471397862" lon="5.543712947129712"><ele>909.0</ele><time>2026-04-26T16:13:28.999Z</time></trkpt><trkpt lat="43.968538486774094" lon="5.543625907617548"><ele>909.0</ele><time>2026-04-26T16:13:29.999Z</time></trkpt><trkpt lat="43.96869362640022" lon="5.543595260046028"><ele>909.5</ele><time>2026-04-26T16:13:30.999Z</time></trkpt><trkpt lat="43.96882714580901" lon="5.543529689935371"><ele>910.0</ele><time>2026-04-26T16:13:31.999Z</time></trkpt><trkpt lat="43.96894135156617" lon="5.543495304129393"><ele>910.5</ele><time>2026-04-26T16:13:32.999Z</time></trkpt><trkpt lat="43.96903556325232" lon="5.543461192389615"><ele>911.0</ele><time>2026-04-26T16:13:33.999Z</time></trkpt><trkpt lat="43.969145879157736" lon="5.54346692321788"><ele>909.5</ele><time>2026-04-26T16:13:34.999Z</time></trkpt><trkpt lat="43.969254202421595" lon="5.5434842590499445"><ele>908.0</ele><time>2026-04-26T16:13:35.999Z</time></trkpt><trkpt lat="43.96936688200951" lon="5.5434792130068535"><ele>906.5</ele><time>2026-04-26T16:13:36.999Z</time></trkpt><trkpt lat="43.969474616568434" lon="5.543452222331774"><ele>905.0</ele><time>2026-04-26T16:13:37.999Z</time></trkpt><trkpt lat="43.96959101111949" lon="5.543421928436446"><ele>905.0</ele><time>2026-04-26T16:13:38.999Z</time></trkpt><trkpt lat="43.96969093115015" lon="5.543375909205166"><ele>905.0</ele><time>2026-04-26T16:13:39.999Z</time></trkpt><trkpt lat="43.96977820864556" lon="5.54330150696103"><ele>905.0</ele><time>2026-04-26T16:13:40.999Z</time></trkpt><trkpt lat="43.96986641951822" lon="5.543195015172543"><ele>905.0</ele><time>2026-04-26T16:13:41.999Z</time></trkpt><trkpt lat="43.96997630206144" lon="5.543080875432857"><ele>905.3333333333334</ele><time>2026-04-26T16:13:42.999Z</time></trkpt><trkpt lat="43.97010553006511" lon="5.543003098929665"><ele>905.6666666666667</ele><time>2026-04-26T16:13:43.999Z</time></trkpt><trkpt lat="43.97024409373176" lon="5.54291214078967"><ele>906.0</ele><time>2026-04-26T16:13:44.999Z</time></trkpt><trkpt lat="43.97039201916065" lon="5.542840840747045"><ele>906.0</ele><time>2026-04-26T16:13:45.999Z</time></trkpt><trkpt lat="43.97054355269115" lon="5.5427671554068825"><ele>906.0</ele><time>2026-04-26T16:13:46.999Z</time></trkpt><trkpt lat="43.97070901909728" lon="5.542701027753855"><ele>906.0</ele><time>2026-04-26T16:13:47.999Z</time></trkpt><trkpt lat="43.97088896333385" lon="5.542617060837378"><ele>904.6666666666667</ele><time>2026-04-26T16:13:48.999Z</time></trkpt><trkpt lat="43.97106704788113" lon="5.542531522847444"><ele>903.3333333333334</ele><time>2026-04-26T16:13:49.999Z</time></trkpt><trkpt lat="43.97122197299807" lon="5.542458320121972"><ele>902.0</ele><time>2026-04-26T16:13:50.999Z</time></trkpt><trkpt lat="43.97135187368147" lon="5.542389434938459"><ele>902.0</ele><time>2026-04-26T16:13:52Z</time></trkpt><trkpt lat="43.97146626770353" lon="5.542334122803729"><ele>902.0</ele><time>2026-04-26T16:13:53Z</time></trkpt><trkpt lat="43.97156860410713" lon="5.542274790401807"><ele>902.0</ele><time>2026-04-26T16:13:54Z</time></trkpt><trkpt lat="43.97164186419686" lon="5.542198566960339"><ele>902.0</ele><time>2026-04-26T16:13:55Z</time></trkpt><trkpt lat="43.971673925167515" lon="5.542103352986893"><ele>902.0</ele><time>2026-04-26T16:13:56Z</time></trkpt><trkpt lat="43.97168986965181" lon="5.541996748493008"><ele>901.25</ele><time>2026-04-26T16:13:57Z</time></trkpt><trkpt lat="43.971690047658555" lon="5.541870148523026"><ele>900.5</ele><time>2026-04-26T16:13:58Z</time></trkpt><trkpt lat="43.97172411216931" lon="5.541715786211775"><ele>899.75</ele><time>2026-04-26T16:13:59Z</time></trkpt><trkpt lat="43.971725122850586" lon="5.541498641775374"><ele>899.0</ele><time>2026-04-26T16:14:00Z</time></trkpt><trkpt lat="43.97172057346061" lon="5.54128039488661"><ele>900.3333333333334</ele><time>2026-04-26T16:14:01Z</time></trkpt><trkpt lat="43.97171435387614" lon="5.5410572168258145"><ele>901.6666666666667</ele><time>2026-04-26T16:14:02Z</time></trkpt><trkpt lat="43.97170714666455" lon="5.540810273243611"><ele>903.0</ele><time>2026-04-26T16:14:03Z</time></trkpt><trkpt lat="43.97169930837721" lon="5.540590626994934"><ele>903.4</ele><time>2026-04-26T16:14:04Z</time></trkpt><trkpt lat="43.971686378859815" lon="5.540402635218572"><ele>903.8</ele><time>2026-04-26T16:14:05Z</time></trkpt><trkpt lat="43.971670728059316" lon="5.540259612156782"><ele>904.2</ele><time>2026-04-26T16:14:06Z</time></trkpt><trkpt lat="43.97166041312947" lon="5.540156746972777"><ele>904.6</ele><time>2026-04-26T16:14:07Z</time></trkpt><trkpt lat="43.97167629282388" lon="5.540048673346319"><ele>905.0</ele><time>2026-04-26T16:14:09Z</time></trkpt><trkpt lat="43.97176241855074" lon="5.54003783849335"><ele>905.0000000000001</ele><time>2026-04-26T16:14:11Z</time></trkpt><trkpt lat="43.97188400899957" lon="5.53998095994939"><ele>905.0</ele><time>2026-04-26T16:14:13Z</time></trkpt><trkpt lat="43.97194892773487" lon="5.539948407261714"><ele>905.0</ele><time>2026-04-26T16:14:14Z</time></trkpt><trkpt lat="43.972017820841934" lon="5.539879991585867"><ele>905.0</ele><time>2026-04-26T16:14:15Z</time></trkpt><trkpt lat="43.97209913050728" lon="5.53982767788791"><ele>905.0000000000001</ele><time>2026-04-26T16:14:16Z</time></trkpt><trkpt lat="43.97216136140429" lon="5.539764238881623"><ele>905.0</ele><time>2026-04-26T16:14:17Z</time></trkpt><trkpt lat="43.97220561153953" lon="5.5396675525100525"><ele>905.0</ele><time>2026-04-26T16:14:18Z</time></trkpt><trkpt lat="43.972300700432406" lon="5.539578080136751"><ele>905.0</ele><time>2026-04-26T16:14:20Z</time></trkpt><trkpt lat="43.97235581484709" lon="5.539509727444853"><ele>905.0</ele><time>2026-04-26T16:14:22Z</time></trkpt><trkpt lat="43.97242470857303" lon="5.53958784200276"><ele>905.0</ele><time>2026-04-26T16:14:27Z</time></trkpt><trkpt lat="43.972439436750356" lon="5.539701926393408"><ele>905.0</ele><time>2026-04-26T16:14:30Z</time></trkpt><trkpt lat="43.97244705040397" lon="5.539832722640829"><ele>905.0</ele><time>2026-04-26T16:14:32Z</time></trkpt><trkpt lat="43.972506486073954" lon="5.540000888713447"><ele>905.0</ele><time>2026-04-26T16:14:33Z</time></trkpt><trkpt lat="43.9725992936167" lon="5.5402028755095705"><ele>905.0</ele><time>2026-04-26T16:14:34Z</time></trkpt><trkpt lat="43.972680562598335" lon="5.540297655536914"><ele>905.0</ele><time>2026-04-26T16:14:36Z</time></trkpt><trkpt lat="43.9727571930076" lon="5.54032905913175"><ele>903.4</ele><time>2026-04-26T16:14:39Z</time></trkpt><trkpt lat="43.972867598377654" lon="5.540269152583117"><ele>901.8</ele><time>2026-04-26T16:14:42Z</time></trkpt><trkpt lat="43.972974944380674" lon="5.540247196801394"><ele>900.2</ele><time>2026-04-26T16:14:43Z</time></trkpt><trkpt lat="43.973077400861214" lon="5.540240877112435"><ele>898.6</ele><time>2026-04-26T16:14:44Z</time></trkpt><trkpt lat="43.97317526904804" lon="5.540240645390735"><ele>897.0</ele><time>2026-04-26T16:14:45Z</time></trkpt><trkpt lat="43.97328460235404" lon="5.540206183467718"><ele>895.4000000000001</ele><time>2026-04-26T16:14:46Z</time></trkpt><trkpt lat="43.97338120709717" lon="5.540189375652609"><ele>893.8000000000001</ele><time>2026-04-26T16:14:47Z</time></trkpt><trkpt lat="43.97348092439432" lon="5.540223219619262"><ele>892.2</ele><time>2026-04-26T16:14:49Z</time></trkpt><trkpt lat="43.973479907061346" lon="5.54034591863117"><ele>890.6</ele><time>2026-04-26T16:14:55Z</time></trkpt><trkpt lat="43.97344917844023" lon="5.540484690159832"><ele>889.0</ele><time>2026-04-26T16:14:57Z</time></trkpt><trkpt lat="43.973358438081696" lon="5.5405958222770915"><ele>889.0</ele><time>2026-04-26T16:14:59Z</time></trkpt><trkpt lat="43.97332967421995" lon="5.5407208357042785"><ele>889.0000000000001</ele><time>2026-04-26T16:15:01Z</time></trkpt><trkpt lat="43.97343839941343" lon="5.540774198128817"><ele>889.0000000000001</ele><time>2026-04-26T16:15:03Z</time></trkpt><trkpt lat="43.97353508378235" lon="5.540747256035478"><ele>889.0</ele><time>2026-04-26T16:15:04Z</time></trkpt><trkpt lat="43.973614434408475" lon="5.5407284322149515"><ele>889.0</ele><time>2026-04-26T16:15:04.999Z</time></trkpt><trkpt lat="43.97370793929713" lon="5.540765446089039"><ele>888.9999999999999</ele><time>2026-04-26T16:15:05.999Z</time></trkpt><trkpt lat="43.97379053387891" lon="5.54082504874577"><ele>889.0</ele><time>2026-04-26T16:15:06.999Z</time></trkpt><trkpt lat="43.97386154554332" lon="5.540856806718134"><ele>889.0</ele><time>2026-04-26T16:15:07.999Z</time></trkpt><trkpt lat="43.973958487307456" lon="5.54086257009498"><ele>889.0</ele><time>2026-04-26T16:15:09.999Z</time></trkpt><trkpt lat="43.974073901486534" lon="5.540826752135085"><ele>888.9999999999999</ele><time>2026-04-26T16:15:11.999Z</time></trkpt><trkpt lat="43.97413236495516" lon="5.540794087907163"><ele>889.0</ele><time>2026-04-26T16:15:12.999Z</time></trkpt><trkpt lat="43.97420494621943" lon="5.540760495411209"><ele>888.2</ele><time>2026-04-26T16:15:13.999Z</time></trkpt><trkpt lat="43.97429933109843" lon="5.540731030873458"><ele>887.4000000000001</ele><time>2026-04-26T16:15:14.999Z</time></trkpt><trkpt lat="43.974409005640645" lon="5.540714076474772"><ele>886.6</ele><time>2026-04-26T16:15:15.999Z</time></trkpt><trkpt lat="43.974515920217655" lon="5.540666085374586"><ele>885.8</ele><time>2026-04-26T16:15:16.999Z</time></trkpt><trkpt lat="43.97459865652298" lon="5.540661556209519"><ele>885.0</ele><time>2026-04-26T16:15:17.999Z</time></trkpt><trkpt lat="43.97466816500429" lon="5.540669280570355"><ele>885.0</ele><time>2026-04-26T16:15:18.999Z</time></trkpt><trkpt lat="43.97478691130135" lon="5.540643259569359"><ele>885.0</ele><time>2026-04-26T16:15:20.999Z</time></trkpt><trkpt lat="43.97485368929519" lon="5.540604886880476"><ele>885.0</ele><time>2026-04-26T16:15:21.999Z</time></trkpt><trkpt lat="43.97492439720568" lon="5.540580685328095"><ele>885.0</ele><time>2026-04-26T16:15:22.999Z</time></trkpt><trkpt lat="43.97504067154223" lon="5.540596643517058"><ele>885.0</ele><time>2026-04-26T16:15:24.999Z</time></trkpt><trkpt lat="43.975108881579516" lon="5.540617133184628"><ele>884.3333333333334</ele><time>2026-04-26T16:15:25.999Z</time></trkpt><trkpt lat="43.97519308622775" lon="5.540632360444101"><ele>883.6666666666667</ele><time>2026-04-26T16:15:26.999Z</time></trkpt><trkpt lat="43.97527645238068" lon="5.540629283767536"><ele>883.0</ele><time>2026-04-26T16:15:27.999Z</time></trkpt><trkpt lat="43.97535509031884" lon="5.540588437715955"><ele>882.3333333333334</ele><time>2026-04-26T16:15:28.999Z</time></trkpt><trkpt lat="43.97543948457625" lon="5.540539658020632"><ele>881.6666666666667</ele><time>2026-04-26T16:15:29.999Z</time></trkpt><trkpt lat="43.97554100495359" lon="5.540503980065893"><ele>881.0</ele><time>2026-04-26T16:15:30.999Z</time></trkpt><trkpt lat="43.97563830796564" lon="5.540467925510475"><ele>881.0000000000001</ele><time>2026-04-26T16:15:31.999Z</time></trkpt><trkpt lat="43.97572833738025" lon="5.540441946530155"><ele>881.0</ele><time>2026-04-26T16:15:32.999Z</time></trkpt><trkpt lat="43.97580483985348" lon="5.540440805616073"><ele>881.0</ele><time>2026-04-26T16:15:33.999Z</time></trkpt><trkpt lat="43.975880637025675" lon="5.5404574677980385"><ele>881.0</ele><time>2026-04-26T16:15:34.999Z</time></trkpt><trkpt lat="43.97596510627152" lon="5.540470836198861"><ele>881.0000000000001</ele><time>2026-04-26T16:15:35.999Z</time></trkpt><trkpt lat="43.9760824078954" lon="5.5404816482821655"><ele>881.0</ele><time>2026-04-26T16:15:36.999Z</time></trkpt><trkpt lat="43.976179686107955" lon="5.540479233323327"><ele>880.0</ele><time>2026-04-26T16:15:37.999Z</time></trkpt><trkpt lat="43.97626601910698" lon="5.540454445229273"><ele>878.9999999999999</ele><time>2026-04-26T16:15:38.999Z</time></trkpt><trkpt lat="43.97636053043718" lon="5.5404032060462285"><ele>877.9999999999999</ele><time>2026-04-26T16:15:39.999Z</time></trkpt><trkpt lat="43.97645864781648" lon="5.5403340501492755"><ele>877.0</ele><time>2026-04-26T16:15:40.999Z</time></trkpt><trkpt lat="43.976539436922955" lon="5.54027897520515"><ele>876.0</ele><time>2026-04-26T16:15:41.999Z</time></trkpt><trkpt lat="43.976628123837244" lon="5.540270208117564"><ele>874.5</ele><time>2026-04-26T16:15:42.999Z</time></trkpt><trkpt lat="43.97672380303828" lon="5.540282201486876"><ele>873.0</ele><time>2026-04-26T16:15:43.999Z</time></trkpt><trkpt lat="43.97680156391736" lon="5.5402875061319135"><ele>871.5</ele><time>2026-04-26T16:15:44.999Z</time></trkpt><trkpt lat="43.97687580091101" lon="5.540272062062538"><ele>870.0</ele><time>2026-04-26T16:15:45.999Z</time></trkpt><trkpt lat="43.9769463513342" lon="5.540217777421249"><ele>868.5</ele><time>2026-04-26T16:15:47.999Z</time></trkpt><trkpt lat="43.9769868332587" lon="5.540118112900636"><ele>867.0</ele><time>2026-04-26T16:15:50.999Z</time></trkpt><trkpt lat="43.97699878640748" lon="5.539975692079021"><ele>867.0</ele><time>2026-04-26T16:16:03Z</time></trkpt><trkpt lat="43.97701172200114" lon="5.539882081266137"><ele>867.0</ele><time>2026-04-26T16:16:04Z</time></trkpt><trkpt lat="43.97702915307117" lon="5.539760352467594"><ele>867.0</ele><time>2026-04-26T16:16:05Z</time></trkpt><trkpt lat="43.977054759001" lon="5.5396329685888785"><ele>867.0</ele><time>2026-04-26T16:16:06Z</time></trkpt><trkpt lat="43.977084237257976" lon="5.539503664865004"><ele>867.0</ele><time>2026-04-26T16:16:07Z</time></trkpt><trkpt lat="43.97709033051116" lon="5.539362474435849"><ele>866.5</ele><time>2026-04-26T16:16:08Z</time></trkpt><trkpt lat="43.97708100885074" lon="5.539234542694068"><ele>866.0</ele><time>2026-04-26T16:16:09Z</time></trkpt><trkpt lat="43.97708801012976" lon="5.539142178412857"><ele>865.5</ele><time>2026-04-26T16:16:10Z</time></trkpt><trkpt lat="43.97711648239714" lon="5.539051683393179"><ele>865.0</ele><time>2026-04-26T16:16:11Z</time></trkpt><trkpt lat="43.977166708566926" lon="5.538953842640835"><ele>864.5</ele><time>2026-04-26T16:16:12Z</time></trkpt><trkpt lat="43.977227166017805" lon="5.538842980980039"><ele>864.0</ele><time>2026-04-26T16:16:13Z</time></trkpt><trkpt lat="43.97731246273752" lon="5.538700742075155"><ele>862.2</ele><time>2026-04-26T16:16:14Z</time></trkpt><trkpt lat="43.97738195375787" lon="5.538566070697632"><ele>860.4000000000001</ele><time>2026-04-26T16:16:15Z</time></trkpt><trkpt lat="43.97744270674919" lon="5.538438573877107"><ele>858.6</ele><time>2026-04-26T16:16:16Z</time></trkpt><trkpt lat="43.97748064013613" lon="5.53834579371158"><ele>856.8</ele><time>2026-04-26T16:16:17Z</time></trkpt><trkpt lat="43.977522392340376" lon="5.538255905194368"><ele>855.0</ele><time>2026-04-26T16:16:18Z</time></trkpt><trkpt lat="43.9775465620133" lon="5.538159079430462"><ele>854.1666666666666</ele><time>2026-04-26T16:16:19Z</time></trkpt><trkpt lat="43.97760088121021" lon="5.538022245128998"><ele>853.3333333333333</ele><time>2026-04-26T16:16:21Z</time></trkpt><trkpt lat="43.97768503930341" lon="5.537992230175898"><ele>852.5</ele><time>2026-04-26T16:16:23Z</time></trkpt><trkpt lat="43.97774813031299" lon="5.537995066654801"><ele>851.6666666666666</ele><time>2026-04-26T16:16:24Z</time></trkpt><trkpt lat="43.97782735249353" lon="5.53800068094401"><ele>850.8333333333333</ele><time>2026-04-26T16:16:25Z</time></trkpt><trkpt lat="43.97791326292216" lon="5.538004043109299"><ele>850.0</ele><time>2026-04-26T16:16:26Z</time></trkpt><trkpt lat="43.978001798843856" lon="5.537993538308746"><ele>850.0</ele><time>2026-04-26T16:16:27Z</time></trkpt><trkpt lat="43.978099605459626" lon="5.5379934571275875"><ele>850.0</ele><time>2026-04-26T16:16:28Z</time></trkpt><trkpt lat="43.978185289451424" lon="5.537987104091347"><ele>850.0</ele><time>2026-04-26T16:16:29Z</time></trkpt><trkpt lat="43.978292383721126" lon="5.537986356665926"><ele>850.0</ele><time>2026-04-26T16:16:30Z</time></trkpt><trkpt lat="43.9783971493697" lon="5.537966126146672"><ele>850.0</ele><time>2026-04-26T16:16:31Z</time></trkpt><trkpt lat="43.97847904351748" lon="5.53794858579163"><ele>849.8333333333333</ele><time>2026-04-26T16:16:32Z</time></trkpt><trkpt lat="43.97854708506982" lon="5.53792537513229"><ele>849.6666666666666</ele><time>2026-04-26T16:16:33Z</time></trkpt><trkpt lat="43.978613253387266" lon="5.537883120125635"><ele>849.5</ele><time>2026-04-26T16:16:35Z</time></trkpt><trkpt lat="43.97867354576362" lon="5.537847157308444"><ele>849.3333333333333</ele><time>2026-04-26T16:16:39Z</time></trkpt><trkpt lat="43.978759713791675" lon="5.537887776350485"><ele>849.1666666666666</ele><time>2026-04-26T16:16:41Z</time></trkpt><trkpt lat="43.97882252907793" lon="5.537964876186322"><ele>849.0</ele><time>2026-04-26T16:16:43Z</time></trkpt><trkpt lat="43.97886617509881" lon="5.538036555210234"><ele>849.0</ele><time>2026-04-26T16:16:45Z</time></trkpt><trkpt lat="43.97883116576743" lon="5.538190735521635"><ele>849.0</ele><time>2026-04-26T16:16:49Z</time></trkpt><trkpt lat="43.97883734904153" lon="5.538348320548392"><ele>849.0</ele><time>2026-04-26T16:16:51Z</time></trkpt><trkpt lat="43.97884654910368" lon="5.538443203058999"><ele>849.0</ele><time>2026-04-26T16:16:53Z</time></trkpt><trkpt lat="43.97891952029897" lon="5.538488524671141"><ele>849.0</ele><time>2026-04-26T16:16:56Z</time></trkpt><trkpt lat="43.97900476115749" lon="5.538443722330896"><ele>849.0</ele><time>2026-04-26T16:16:58Z</time></trkpt><trkpt lat="43.979083140882224" lon="5.538467509873211"><ele>849.0</ele><time>2026-04-26T16:17:00Z</time></trkpt><trkpt lat="43.97905552284041" lon="5.538581101760309"><ele>849.0</ele><time>2026-04-26T16:17:02.999Z</time></trkpt><trkpt lat="43.97904869316748" lon="5.538726715616515"><ele>849.0</ele><time>2026-04-26T16:17:04.999Z</time></trkpt><trkpt lat="43.979073211548744" lon="5.538878814363098"><ele>849.0</ele><time>2026-04-26T16:17:06.999Z</time></trkpt><trkpt lat="43.9791030475194" lon="5.538957950391118"><ele>849.0</ele><time>2026-04-26T16:17:07.999Z</time></trkpt><trkpt lat="43.97915574548795" lon="5.53900790179818"><ele>849.6</ele><time>2026-04-26T16:17:08.999Z</time></trkpt><trkpt lat="43.97924039012304" lon="5.539049473496866"><ele>850.2</ele><time>2026-04-26T16:17:10.999Z</time></trkpt><trkpt lat="43.97935354007187" lon="5.539044182328209"><ele>850.8000000000001</ele><time>2026-04-26T16:17:12.999Z</time></trkpt><trkpt lat="43.979426516990245" lon="5.539052052498194"><ele>851.4000000000001</ele><time>2026-04-26T16:17:13.999Z</time></trkpt><trkpt lat="43.97950965889696" lon="5.539104232044337"><ele>852.0</ele><time>2026-04-26T16:17:15.999Z</time></trkpt><trkpt lat="43.97951171115176" lon="5.5392272767109425"><ele>852.0</ele><time>2026-04-26T16:17:17.999Z</time></trkpt><trkpt lat="43.979513787968514" lon="5.5393551555523795"><ele>852.0</ele><time>2026-04-26T16:17:19.999Z</time></trkpt><trkpt lat="43.97959475917665" lon="5.539394160900301"><ele>852.0</ele><time>2026-04-26T16:17:22.999Z</time></trkpt><trkpt lat="43.979667155385215" lon="5.539387179970462"><ele>852.0</ele><time>2026-04-26T16:17:23.999Z</time></trkpt><trkpt lat="43.97973954213224" lon="5.539352620992361"><ele>852.0</ele><time>2026-04-26T16:17:24.999Z</time></trkpt><trkpt lat="43.979826883045355" lon="5.5393394436472905"><ele>852.0</ele><time>2026-04-26T16:17:25.999Z</time></trkpt><trkpt lat="43.97995672426299" lon="5.539303052385085"><ele>850.5</ele><time>2026-04-26T16:17:26.999Z</time></trkpt><trkpt lat="43.98003508998705" lon="5.539276145783023"><ele>849.0</ele><time>2026-04-26T16:17:27.999Z</time></trkpt><trkpt lat="43.980141327535" lon="5.539253481188967"><ele>847.5</ele><time>2026-04-26T16:17:29.999Z</time></trkpt><trkpt lat="43.98021086817233" lon="5.539259104859018"><ele>846.0</ele><time>2026-04-26T16:17:31.999Z</time></trkpt><trkpt lat="43.98022139237492" lon="5.53916617047512"><ele>844.5</ele><time>2026-04-26T16:17:41.999Z</time></trkpt><trkpt lat="43.980144707105616" lon="5.539241220941968"><ele>843.0</ele><time>2026-04-26T16:17:43.999Z</time></trkpt><trkpt lat="43.98006719750037" lon="5.539266324249366"><ele>844.5</ele><time>2026-04-26T16:17:45.999Z</time></trkpt><trkpt lat="43.97996537289241" lon="5.539271031229303"><ele>846.0</ele><time>2026-04-26T16:17:47.999Z</time></trkpt><trkpt lat="43.97989842509455" lon="5.539312762895734"><ele>847.5</ele><time>2026-04-26T16:17:48.999Z</time></trkpt><trkpt lat="43.97983424948722" lon="5.539325670339706"><ele>849.0</ele><time>2026-04-26T16:17:49.999Z</time></trkpt><trkpt lat="43.97971276295117" lon="5.539361591748275"><ele>850.5</ele><time>2026-04-26T16:17:51.999Z</time></trkpt><trkpt lat="43.979645008585" lon="5.5393832431386"><ele>852.0</ele><time>2026-04-26T16:17:52.999Z</time></trkpt><trkpt lat="43.97955389336631" lon="5.5393913074565555"><ele>852.0</ele><time>2026-04-26T16:17:54.999Z</time></trkpt><trkpt lat="43.979479103280184" lon="5.539425800238877"><ele>852.0</ele><time>2026-04-26T16:17:56.999Z</time></trkpt><trkpt lat="43.97947700256307" lon="5.539537516638194"><ele>852.0</ele><time>2026-04-26T16:17:58.999Z</time></trkpt><trkpt lat="43.9794433165632" lon="5.539613496879134"><ele>852.0</ele><time>2026-04-26T16:18:00.999Z</time></trkpt><trkpt lat="43.979372649331744" lon="5.53963530753541"><ele>852.0</ele><time>2026-04-26T16:18:02.999Z</time></trkpt><trkpt lat="43.979283628353485" lon="5.539674033691871"><ele>852.0</ele><time>2026-04-26T16:18:05Z</time></trkpt><trkpt lat="43.979186285569185" lon="5.539731560845668"><ele>853.0</ele><time>2026-04-26T16:18:07Z</time></trkpt><trkpt lat="43.9791255760871" lon="5.539680428072285"><ele>854.0</ele><time>2026-04-26T16:18:11Z</time></trkpt><trkpt lat="43.97899140599955" lon="5.539767303744893"><ele>855.0</ele><time>2026-04-26T16:18:13Z</time></trkpt><trkpt lat="43.97895507646535" lon="5.539844960293163"><ele>856.0</ele><time>2026-04-26T16:18:14Z</time></trkpt><trkpt lat="43.97893768471316" lon="5.539932109674237"><ele>857.0</ele><time>2026-04-26T16:18:15Z</time></trkpt><trkpt lat="43.97893160195165" lon="5.5400491994160275"><ele>858.0</ele><time>2026-04-26T16:18:16Z</time></trkpt><trkpt lat="43.97896866898342" lon="5.5401609377219"><ele>858.0</ele><time>2026-04-26T16:18:17Z</time></trkpt><trkpt lat="43.97901995195713" lon="5.540305406297089"><ele>858.0</ele><time>2026-04-26T16:18:18Z</time></trkpt><trkpt lat="43.9790584848495" lon="5.540485115832929"><ele>858.0</ele><time>2026-04-26T16:18:19Z</time></trkpt><trkpt lat="43.979095324991356" lon="5.540658503753614"><ele>858.0</ele><time>2026-04-26T16:18:20Z</time></trkpt><trkpt lat="43.97911927760627" lon="5.540763532622842"><ele>857.8333333333334</ele><time>2026-04-26T16:18:21Z</time></trkpt><trkpt lat="43.97905768845016" lon="5.540864454387189"><ele>857.6666666666667</ele><time>2026-04-26T16:18:25Z</time></trkpt><trkpt lat="43.97901411918594" lon="5.540931130101567"><ele>857.5</ele><time>2026-04-26T16:18:27Z</time></trkpt><trkpt lat="43.97902510228011" lon="5.541057593062115"><ele>857.3333333333334</ele><time>2026-04-26T16:18:29Z</time></trkpt><trkpt lat="43.97906149683563" lon="5.541213296857523"><ele>857.1666666666667</ele><time>2026-04-26T16:18:31Z</time></trkpt><trkpt lat="43.97906346052378" lon="5.54130331798055"><ele>857.0</ele><time>2026-04-26T16:18:32Z</time></trkpt><trkpt lat="43.979046063593216" lon="5.5414260550408265"><ele>856.3333333333334</ele><time>2026-04-26T16:18:34Z</time></trkpt><trkpt lat="43.97911299746556" lon="5.541508195628372"><ele>855.6666666666667</ele><time>2026-04-26T16:18:37Z</time></trkpt><trkpt lat="43.97915664614728" lon="5.541575958137246"><ele>855.0</ele><time>2026-04-26T16:18:40Z</time></trkpt><trkpt lat="43.97914710094044" lon="5.541668905358237"><ele>854.3333333333333</ele><time>2026-04-26T16:18:48Z</time></trkpt><trkpt lat="43.97905402158545" lon="5.5417553368318835"><ele>853.6666666666666</ele><time>2026-04-26T16:18:50Z</time></trkpt><trkpt lat="43.97897968417394" lon="5.541829589285642"><ele>853.0</ele><time>2026-04-26T16:18:51Z</time></trkpt><trkpt lat="43.97899504701468" lon="5.541979444164348"><ele>852.1666666666666</ele><time>2026-04-26T16:18:53Z</time></trkpt><trkpt lat="43.97902655371546" lon="5.542063710897147"><ele>851.3333333333333</ele><time>2026-04-26T16:18:54Z</time></trkpt><trkpt lat="43.97910550498373" lon="5.542168614666462"><ele>850.5</ele><time>2026-04-26T16:18:56Z</time></trkpt><trkpt lat="43.97916843686842" lon="5.542218777413924"><ele>849.6666666666667</ele><time>2026-04-26T16:18:58Z</time></trkpt><trkpt lat="43.97923625855886" lon="5.542210413812861"><ele>848.8333333333334</ele><time>2026-04-26T16:19:00Z</time></trkpt><trkpt lat="43.97930286007127" lon="5.5421882853327755"><ele>848.0</ele><time>2026-04-26T16:19:02Z</time></trkpt><trkpt lat="43.97942706995928" lon="5.542098324246021"><ele>848.0</ele><time>2026-04-26T16:19:04Z</time></trkpt><trkpt lat="43.9795016719636" lon="5.542042087622905"><ele>848.0</ele><time>2026-04-26T16:19:05Z</time></trkpt><trkpt lat="43.97959515645511" lon="5.5419611684663765"><ele>848.0</ele><time>2026-04-26T16:19:05.999Z</time></trkpt><trkpt lat="43.97969109499487" lon="5.5418862379935865"><ele>848.0</ele><time>2026-04-26T16:19:06.999Z</time></trkpt><trkpt lat="43.979774340354" lon="5.541832487743928"><ele>848.0</ele><time>2026-04-26T16:19:07.999Z</time></trkpt><trkpt lat="43.97987534250285" lon="5.541851359110208"><ele>848.0</ele><time>2026-04-26T16:19:09.999Z</time></trkpt><trkpt lat="43.97995425829274" lon="5.541939220306557"><ele>848.0</ele><time>2026-04-26T16:19:11.999Z</time></trkpt><trkpt lat="43.980011621119786" lon="5.54199051610362"><ele>848.0</ele><time>2026-04-26T16:19:12.999Z</time></trkpt><trkpt lat="43.98012151316685" lon="5.5420177621918665"><ele>848.0</ele><time>2026-04-26T16:19:14.999Z</time></trkpt><trkpt lat="43.98022406210338" lon="5.541985136610439"><ele>848.0</ele><time>2026-04-26T16:19:16.999Z</time></trkpt><trkpt lat="43.98028410128292" lon="5.541935253462908"><ele>847.4</ele><time>2026-04-26T16:19:17.999Z</time></trkpt><trkpt lat="43.98035098140065" lon="5.541882198297193"><ele>846.8</ele><time>2026-04-26T16:19:18.999Z</time></trkpt><trkpt lat="43.98043520060342" lon="5.5418193568704375"><ele>846.2</ele><time>2026-04-26T16:19:19.999Z</time></trkpt><trkpt lat="43.98054621643276" lon="5.541753493026846"><ele>845.6</ele><time>2026-04-26T16:19:20.999Z</time></trkpt><trkpt lat="43.98067400994889" lon="5.541669375008717"><ele>845.0</ele><time>2026-04-26T16:19:21.999Z</time></trkpt><trkpt lat="43.98082974103431" lon="5.541571979397823"><ele>843.4</ele><time>2026-04-26T16:19:22.999Z</time></trkpt><trkpt lat="43.98096515879731" lon="5.541498421249563"><ele>841.8</ele><time>2026-04-26T16:19:23.999Z</time></trkpt><trkpt lat="43.98105894532528" lon="5.541441265914823"><ele>840.2</ele><time>2026-04-26T16:19:24.999Z</time></trkpt><trkpt lat="43.98112663414984" lon="5.541392930575044"><ele>838.6</ele><time>2026-04-26T16:19:25.999Z</time></trkpt><trkpt lat="43.981182373416146" lon="5.541344419093471"><ele>837.0</ele><time>2026-04-26T16:19:26.999Z</time></trkpt><trkpt lat="43.98123865759402" lon="5.541297648560331"><ele>837.0</ele><time>2026-04-26T16:19:27.999Z</time></trkpt><trkpt lat="43.98130130181524" lon="5.541253155629713"><ele>837.0</ele><time>2026-04-26T16:19:30.999Z</time></trkpt><trkpt lat="43.981334048211224" lon="5.54115857862391"><ele>837.0</ele><time>2026-04-26T16:19:33.999Z</time></trkpt><trkpt lat="43.98132951068289" lon="5.541043129987373"><ele>837.0</ele><time>2026-04-26T16:19:35.999Z</time></trkpt><trkpt lat="43.98123851085716" lon="5.540960218046758"><ele>837.0</ele><time>2026-04-26T16:19:37.999Z</time></trkpt><trkpt lat="43.98118062091613" lon="5.540844079685818"><ele>837.0</ele><time>2026-04-26T16:19:39.999Z</time></trkpt><trkpt lat="43.981134619097524" lon="5.540737210497691"><ele>837.1666666666666</ele><time>2026-04-26T16:19:41.999Z</time></trkpt><trkpt lat="43.98110598361997" lon="5.540657886612085"><ele>837.3333333333333</ele><time>2026-04-26T16:19:42.999Z</time></trkpt><trkpt lat="43.98105346364728" lon="5.540524258438387"><ele>837.5</ele><time>2026-04-26T16:19:44.999Z</time></trkpt><trkpt lat="43.98099266651404" lon="5.54049589763918"><ele>837.6666666666666</ele><time>2026-04-26T16:19:48.999Z</time></trkpt><trkpt lat="43.980866213906054" lon="5.540508185001821"><ele>837.8333333333333</ele><time>2026-04-26T16:19:50.999Z</time></trkpt><trkpt lat="43.980787582963465" lon="5.54051243647154"><ele>838.0</ele><time>2026-04-26T16:19:51.999Z</time></trkpt><trkpt lat="43.98070741022697" lon="5.540530411437109"><ele>840.25</ele><time>2026-04-26T16:19:52.999Z</time></trkpt><trkpt lat="43.98060968035498" lon="5.540563212025204"><ele>842.5</ele><time>2026-04-26T16:19:53.999Z</time></trkpt><trkpt lat="43.980492363395804" lon="5.5406042056576466"><ele>844.75</ele><time>2026-04-26T16:19:54.999Z</time></trkpt><trkpt lat="43.98037012964524" lon="5.54064404975375"><ele>847.0</ele><time>2026-04-26T16:19:55.999Z</time></trkpt><trkpt lat="43.980238726374424" lon="5.5406923458176065"><ele>847.0</ele><time>2026-04-26T16:19:56.999Z</time></trkpt><trkpt lat="43.98003698730446" lon="5.540849792810089"><ele>847.0</ele><time>2026-04-26T16:19:57.999Z</time></trkpt><trkpt lat="43.979846584478466" lon="5.541015832257905"><ele>847.2</ele><time>2026-04-26T16:19:58.999Z</time></trkpt><trkpt lat="43.97973306770366" lon="5.54109506447782"><ele>847.4000000000001</ele><time>2026-04-26T16:19:59.999Z</time></trkpt><trkpt lat="43.9796323233024" lon="5.541162809151426"><ele>847.5999999999999</ele><time>2026-04-26T16:20:00.999Z</time></trkpt><trkpt lat="43.979531061396386" lon="5.541256477828125"><ele>847.8</ele><time>2026-04-26T16:20:01.999Z</time></trkpt><trkpt lat="43.97945783168245" lon="5.541295484652939"><ele>848.0</ele><time>2026-04-26T16:20:03.999Z</time></trkpt><trkpt lat="43.97940774771842" lon="5.541366116257422"><ele>848.0</ele><time>2026-04-26T16:20:04.999Z</time></trkpt><trkpt lat="43.97933399396207" lon="5.541486900260226"><ele>848.0</ele><time>2026-04-26T16:20:06.999Z</time></trkpt><trkpt lat="43.97924465274697" lon="5.541520474960896"><ele>848.0</ele><time>2026-04-26T16:20:08.999Z</time></trkpt><trkpt lat="43.9791529325266" lon="5.541518194945094"><ele>848.0</ele><time>2026-04-26T16:20:11Z</time></trkpt><trkpt lat="43.9790896474139" lon="5.541452690668708"><ele>848.0</ele><time>2026-04-26T16:20:13Z</time></trkpt><trkpt lat="43.97899890464204" lon="5.5414440759304275"><ele>849.0</ele><time>2026-04-26T16:20:16Z</time></trkpt><trkpt lat="43.978883373716876" lon="5.541536170180958"><ele>850.0</ele><time>2026-04-26T16:20:18Z</time></trkpt><trkpt lat="43.97880990963048" lon="5.541573325302669"><ele>851.0</ele><time>2026-04-26T16:20:19Z</time></trkpt><trkpt lat="43.97873532018537" lon="5.5415822375356525"><ele>852.0</ele><time>2026-04-26T16:20:20Z</time></trkpt><trkpt lat="43.97866876255445" lon="5.5415628639708965"><ele>853.0</ele><time>2026-04-26T16:20:21Z</time></trkpt><trkpt lat="43.97856514068736" lon="5.541459573935477"><ele>853.0</ele><time>2026-04-26T16:20:23Z</time></trkpt><trkpt lat="43.97851481426446" lon="5.541377283542663"><ele>853.0</ele><time>2026-04-26T16:20:24Z</time></trkpt><trkpt lat="43.97845123472725" lon="5.541292272274685"><ele>853.0</ele><time>2026-04-26T16:20:25Z</time></trkpt><trkpt lat="43.97834305465462" lon="5.541201392917754"><ele>853.0</ele><time>2026-04-26T16:20:26Z</time></trkpt><trkpt lat="43.97824824998632" lon="5.541106694965308"><ele>853.0</ele><time>2026-04-26T16:20:27Z</time></trkpt><trkpt lat="43.97811140638085" lon="5.541004593169728"><ele>855.3333333333333</ele><time>2026-04-26T16:20:28Z</time></trkpt><trkpt lat="43.97793315295496" lon="5.540950160492299"><ele>857.6666666666667</ele><time>2026-04-26T16:20:29Z</time></trkpt><trkpt lat="43.97781527824668" lon="5.540838770825902"><ele>860.0</ele><time>2026-04-26T16:20:30Z</time></trkpt><trkpt lat="43.977704902637655" lon="5.5407394747574354"><ele>860.0</ele><time>2026-04-26T16:20:31Z</time></trkpt><trkpt lat="43.97759676117995" lon="5.5406583247068175"><ele>860.0</ele><time>2026-04-26T16:20:32Z</time></trkpt><trkpt lat="43.97749103302341" lon="5.540558657437359"><ele>860.0</ele><time>2026-04-26T16:20:33Z</time></trkpt><trkpt lat="43.977389238412385" lon="5.540470394418384"><ele>860.0</ele><time>2026-04-26T16:20:34Z</time></trkpt><trkpt lat="43.97729522834643" lon="5.540388196426162"><ele>861.1666666666667</ele><time>2026-04-26T16:20:35Z</time></trkpt><trkpt lat="43.97721925980905" lon="5.54030671436978"><ele>862.3333333333334</ele><time>2026-04-26T16:20:36Z</time></trkpt><trkpt lat="43.97716459329969" lon="5.540260592108906"><ele>863.5</ele><time>2026-04-26T16:20:37Z</time></trkpt><trkpt lat="43.97710514207215" lon="5.540228584947464"><ele>864.6666666666667</ele><time>2026-04-26T16:20:38Z</time></trkpt><trkpt lat="43.97703976324307" lon="5.540192229356013"><ele>865.8333333333334</ele><time>2026-04-26T16:20:39Z</time></trkpt><trkpt lat="43.9770092800801" lon="5.5400745711903"><ele>867.0</ele><time>2026-04-26T16:20:41Z</time></trkpt><trkpt lat="43.97702330720987" lon="5.53991008081558"><ele>867.0</ele><time>2026-04-26T16:20:43Z</time></trkpt><trkpt lat="43.97704689845289" lon="5.539800477579356"><ele>867.0</ele><time>2026-04-26T16:20:44Z</time></trkpt><trkpt lat="43.977081081276836" lon="5.539665834301906"><ele>867.0</ele><time>2026-04-26T16:20:45Z</time></trkpt><trkpt lat="43.97709049775262" lon="5.539476390032908"><ele>867.0</ele><time>2026-04-26T16:20:46Z</time></trkpt><trkpt lat="43.977100436274974" lon="5.539341793999695"><ele>867.0</ele><time>2026-04-26T16:20:47Z</time></trkpt><trkpt lat="43.97707891692835" lon="5.539216381703324"><ele>866.4000000000001</ele><time>2026-04-26T16:20:48Z</time></trkpt><trkpt lat="43.97713510361272" lon="5.539053541228494"><ele>865.8000000000001</ele><time>2026-04-26T16:20:50Z</time></trkpt><trkpt lat="43.97717776349194" lon="5.538957577439285"><ele>865.2</ele><time>2026-04-26T16:20:51Z</time></trkpt><trkpt lat="43.9772336418471" lon="5.538851294645217"><ele>864.6</ele><time>2026-04-26T16:20:52Z</time></trkpt><trkpt lat="43.977297834946064" lon="5.53876131028292"><ele>864.0</ele><time>2026-04-26T16:20:53Z</time></trkpt><trkpt lat="43.97734494434319" lon="5.538634829554497"><ele>862.5</ele><time>2026-04-26T16:20:54Z</time></trkpt><trkpt lat="43.97738955705794" lon="5.538519596866197"><ele>861.0</ele><time>2026-04-26T16:20:55Z</time></trkpt><trkpt lat="43.97744168819007" lon="5.538411657538695"><ele>859.5</ele><time>2026-04-26T16:20:56Z</time></trkpt><trkpt lat="43.97748949598261" lon="5.538315778010399"><ele>858.0</ele><time>2026-04-26T16:20:57Z</time></trkpt><trkpt lat="43.97751950829404" lon="5.538236602552338"><ele>856.5</ele><time>2026-04-26T16:20:58Z</time></trkpt><trkpt lat="43.97754608126648" lon="5.538156338158991"><ele>855.0</ele><time>2026-04-26T16:20:59Z</time></trkpt><trkpt lat="43.977620767127526" lon="5.538049946734102"><ele>853.75</ele><time>2026-04-26T16:21:01Z</time></trkpt><trkpt lat="43.977718497651786" lon="5.538004825818141"><ele>852.5</ele><time>2026-04-26T16:21:03Z</time></trkpt><trkpt lat="43.977866683763324" lon="5.5379933550039855"><ele>851.25</ele><time>2026-04-26T16:21:05Z</time></trkpt><trkpt lat="43.97796147232029" lon="5.537985183318336"><ele>850.0</ele><time>2026-04-26T16:21:05.999Z</time></trkpt><trkpt lat="43.97808097767954" lon="5.537997435932524"><ele>850.0</ele><time>2026-04-26T16:21:06.999Z</time></trkpt><trkpt lat="43.978207518149404" lon="5.537978585531275"><ele>850.0</ele><time>2026-04-26T16:21:07.999Z</time></trkpt><trkpt lat="43.97831051204439" lon="5.537967640817842"><ele>850.0</ele><time>2026-04-26T16:21:08.999Z</time></trkpt><trkpt lat="43.978394944473855" lon="5.537946147661797"><ele>850.0</ele><time>2026-04-26T16:21:09.999Z</time></trkpt><trkpt lat="43.978511803602146" lon="5.5379229624690725"><ele>850.0</ele><time>2026-04-26T16:21:11.999Z</time></trkpt><trkpt lat="43.97859404284467" lon="5.537896399304233"><ele>847.8333333333333</ele><time>2026-04-26T16:21:13.999Z</time></trkpt><trkpt lat="43.97855062522887" lon="5.537774168757774"><ele>845.6666666666666</ele><time>2026-04-26T16:21:16.999Z</time></trkpt><trkpt lat="43.97849884477363" lon="5.537696415067769"><ele>843.5</ele><time>2026-04-26T16:21:18.999Z</time></trkpt><trkpt lat="43.978443205425734" lon="5.537644531950862"><ele>841.3333333333333</ele><time>2026-04-26T16:21:19.999Z</time></trkpt><trkpt lat="43.97837473707696" lon="5.537563058882518"><ele>839.1666666666666</ele><time>2026-04-26T16:21:21.999Z</time></trkpt><trkpt lat="43.978336011196404" lon="5.537482062891921"><ele>837.0</ele><time>2026-04-26T16:21:22.999Z</time></trkpt><trkpt lat="43.978267708059086" lon="5.5373353473532125"><ele>837.0</ele><time>2026-04-26T16:21:24.999Z</time></trkpt><trkpt lat="43.97825076479721" lon="5.5372188305874115"><ele>837.0</ele><time>2026-04-26T16:21:26.999Z</time></trkpt><trkpt lat="43.978216332780804" lon="5.5370967884820255"><ele>837.0</ele><time>2026-04-26T16:21:28.999Z</time></trkpt><trkpt lat="43.97815548570396" lon="5.537027396690659"><ele>837.0</ele><time>2026-04-26T16:21:30.999Z</time></trkpt><trkpt lat="43.978203495886476" lon="5.536950873009943"><ele>837.0</ele><time>2026-04-26T16:21:33.999Z</time></trkpt><trkpt lat="43.978286865191876" lon="5.536942189918749"><ele>837.0</ele><time>2026-04-26T16:21:35.999Z</time></trkpt><trkpt lat="43.9783559692674" lon="5.536930215265965"><ele>835.0</ele><time>2026-04-26T16:21:36.999Z</time></trkpt><trkpt lat="43.97843326275786" lon="5.536902382131034"><ele>833.0</ele><time>2026-04-26T16:21:37.999Z</time></trkpt><trkpt lat="43.9785098101432" lon="5.536885457383135"><ele>831.0</ele><time>2026-04-26T16:21:38.999Z</time></trkpt><trkpt lat="43.978592577227694" lon="5.5368533730201275"><ele>829.0</ele><time>2026-04-26T16:21:39.999Z</time></trkpt><trkpt lat="43.978669753840144" lon="5.536836461638347"><ele>827.0</ele><time>2026-04-26T16:21:40.999Z</time></trkpt><trkpt lat="43.97875369654443" lon="5.536819078027313"><ele>825.0</ele><time>2026-04-26T16:21:41.999Z</time></trkpt><trkpt lat="43.97883106318896" lon="5.536789750300411"><ele>825.0</ele><time>2026-04-26T16:21:42.999Z</time></trkpt><trkpt lat="43.97893017302266" lon="5.5367474317170995"><ele>825.0</ele><time>2026-04-26T16:21:44.999Z</time></trkpt><trkpt lat="43.979005917623134" lon="5.536765743979553"><ele>825.0</ele><time>2026-04-26T16:21:45.999Z</time></trkpt><trkpt lat="43.97909118937891" lon="5.53677987098155"><ele>825.0</ele><time>2026-04-26T16:21:47.999Z</time></trkpt><trkpt lat="43.97924068374853" lon="5.5371011252648525"><ele>824.0</ele><time>2026-04-26T16:21:49.999Z</time></trkpt><trkpt lat="43.97935861228337" lon="5.537087182515503"><ele>823.0</ele><time>2026-04-26T16:21:50.999Z</time></trkpt><trkpt lat="43.97947663038111" lon="5.537060706976399"><ele>822.0</ele><time>2026-04-26T16:21:51.999Z</time></trkpt><trkpt lat="43.97956308180521" lon="5.537039614024322"><ele>821.0</ele><time>2026-04-26T16:21:52.999Z</time></trkpt><trkpt lat="43.979663812031724" lon="5.537015763116604"><ele>820.0</ele><time>2026-04-26T16:21:53.999Z</time></trkpt><trkpt lat="43.979768632141905" lon="5.5369934415017825"><ele>820.0</ele><time>2026-04-26T16:21:54.999Z</time></trkpt><trkpt lat="43.9798751889179" lon="5.536966853732664"><ele>820.0</ele><time>2026-04-26T16:21:55.999Z</time></trkpt><trkpt lat="43.97998488613576" lon="5.5369285061719955"><ele>820.0</ele><time>2026-04-26T16:21:56.999Z</time></trkpt><trkpt lat="43.980071496191044" lon="5.536896876636923"><ele>820.0</ele><time>2026-04-26T16:21:57.999Z</time></trkpt><trkpt lat="43.98015134180046" lon="5.53686772590951"><ele>820.0</ele><time>2026-04-26T16:21:58.999Z</time></trkpt><trkpt lat="43.980229003212195" lon="5.536844696779054"><ele>819.1666666666666</ele><time>2026-04-26T16:21:59.999Z</time></trkpt><trkpt lat="43.98029197938401" lon="5.536826022489934"><ele>818.3333333333333</ele><time>2026-04-26T16:22:00.999Z</time></trkpt><trkpt lat="43.98038243025243" lon="5.5368002502549105"><ele>817.5</ele><time>2026-04-26T16:22:02.999Z</time></trkpt><trkpt lat="43.98047300501314" lon="5.536776582245643"><ele>816.6666666666667</ele><time>2026-04-26T16:22:05.999Z</time></trkpt><trkpt lat="43.98055970762737" lon="5.536753075443032"><ele>815.8333333333334</ele><time>2026-04-26T16:22:10.999Z</time></trkpt><trkpt lat="43.98062554709321" lon="5.536742386397792"><ele>815.0</ele><time>2026-04-26T16:22:13.999Z</time></trkpt><trkpt lat="43.98071116569268" lon="5.536742107224071"><ele>814.0</ele><time>2026-04-26T16:22:14.999Z</time></trkpt><trkpt lat="43.98091997005835" lon="5.536783872082059"><ele>813.0</ele><time>2026-04-26T16:22:22Z</time></trkpt><trkpt lat="43.98098168237967" lon="5.536805061267463"><ele>812.0</ele><time>2026-04-26T16:22:23Z</time></trkpt><trkpt lat="43.98109980130138" lon="5.536856778487687"><ele>811.0</ele><time>2026-04-26T16:22:25Z</time></trkpt><trkpt lat="43.981163569865686" lon="5.5368901025902675"><ele>811.0</ele><time>2026-04-26T16:22:26Z</time></trkpt><trkpt lat="43.98131325113322" lon="5.53697786036236"><ele>811.0</ele><time>2026-04-26T16:22:28Z</time></trkpt><trkpt lat="43.98141467948243" lon="5.537043701104432"><ele>811.0</ele><time>2026-04-26T16:22:29Z</time></trkpt><trkpt lat="43.98150851330097" lon="5.537105358279127"><ele>811.0</ele><time>2026-04-26T16:22:30Z</time></trkpt><trkpt lat="43.981570756022826" lon="5.537148069152329"><ele>811.0</ele><time>2026-04-26T16:22:31Z</time></trkpt><trkpt lat="43.98163938784688" lon="5.537199000289868"><ele>809.8333333333333</ele><time>2026-04-26T16:22:32Z</time></trkpt><trkpt lat="43.9817161004168" lon="5.537258350465674"><ele>808.6666666666666</ele><time>2026-04-26T16:22:33Z</time></trkpt><trkpt lat="43.981802546431545" lon="5.537325580285404"><ele>807.5</ele><time>2026-04-26T16:22:34Z</time></trkpt><trkpt lat="43.98186607346637" lon="5.537385880129155"><ele>806.3333333333333</ele><time>2026-04-26T16:22:35Z</time></trkpt><trkpt lat="43.98192348435736" lon="5.537458166586958"><ele>805.1666666666666</ele><time>2026-04-26T16:22:36Z</time></trkpt><trkpt lat="43.98196946831473" lon="5.53752475273613"><ele>804.0</ele><time>2026-04-26T16:22:37Z</time></trkpt><trkpt lat="43.98202044154784" lon="5.537610747164563"><ele>804.0</ele><time>2026-04-26T16:22:39Z</time></trkpt><trkpt lat="43.98206727694392" lon="5.537688755329303"><ele>804.0</ele><time>2026-04-26T16:22:42Z</time></trkpt><trkpt lat="43.982292518938394" lon="5.5373258458595025"><ele>804.0</ele><time>2026-04-26T16:22:46Z</time></trkpt><trkpt lat="43.98235079687966" lon="5.537248413007825"><ele>804.0</ele><time>2026-04-26T16:22:48Z</time></trkpt><trkpt lat="43.9823939888631" lon="5.537179950560067"><ele>804.0</ele><time>2026-04-26T16:22:52Z</time></trkpt><trkpt lat="43.982526855754614" lon="5.537171440066575"><ele>804.0</ele><time>2026-04-26T16:23:05Z</time></trkpt><trkpt lat="43.98257726634672" lon="5.537092814180998"><ele>804.0</ele><time>2026-04-26T16:23:08Z</time></trkpt><trkpt lat="43.982644175309574" lon="5.537044745262339"><ele>804.0</ele><time>2026-04-26T16:23:08.999Z</time></trkpt><trkpt lat="43.982709218561915" lon="5.536956173799374"><ele>804.0</ele><time>2026-04-26T16:23:09.999Z</time></trkpt><trkpt lat="43.98279267552284" lon="5.536856056712759"><ele>805.8333333333334</ele><time>2026-04-26T16:23:11.999Z</time></trkpt><trkpt lat="43.982837850635505" lon="5.536792987822091"><ele>807.6666666666667</ele><time>2026-04-26T16:23:12.999Z</time></trkpt><trkpt lat="43.98288629543483" lon="5.536728852006344"><ele>809.5</ele><time>2026-04-26T16:23:13.999Z</time></trkpt><trkpt lat="43.98292721877807" lon="5.536657195687858"><ele>811.3333333333334</ele><time>2026-04-26T16:23:14.999Z</time></trkpt><trkpt lat="43.98293933938642" lon="5.536541419241311"><ele>813.1666666666667</ele><time>2026-04-26T16:23:15.999Z</time></trkpt><trkpt lat="43.98297931777553" lon="5.53643267273085"><ele>815.0</ele><time>2026-04-26T16:23:16.999Z</time></trkpt><trkpt lat="43.98302080258766" lon="5.536317210158355"><ele>814.3333333333334</ele><time>2026-04-26T16:23:17.999Z</time></trkpt><trkpt lat="43.983064154543136" lon="5.536174584970825"><ele>813.6666666666667</ele><time>2026-04-26T16:23:18.999Z</time></trkpt><trkpt lat="43.983097737180884" lon="5.536058042549696"><ele>813.0</ele><time>2026-04-26T16:23:19.999Z</time></trkpt><trkpt lat="43.983138701951724" lon="5.535928252998587"><ele>812.3333333333333</ele><time>2026-04-26T16:23:20.999Z</time></trkpt><trkpt lat="43.983163876033174" lon="5.535840071694375"><ele>811.6666666666666</ele><time>2026-04-26T16:23:21.999Z</time></trkpt><trkpt lat="43.983147965790785" lon="5.535755059866726"><ele>811.0</ele><time>2026-04-26T16:23:23.999Z</time></trkpt><trkpt lat="43.98308616889092" lon="5.535711568042107"><ele>811.0</ele><time>2026-04-26T16:23:25.999Z</time></trkpt><trkpt lat="43.98306079689771" lon="5.53562316927714"><ele>811.0</ele><time>2026-04-26T16:23:28.999Z</time></trkpt><trkpt lat="43.983089184652144" lon="5.535505423280601"><ele>811.0</ele><time>2026-04-26T16:23:30.999Z</time></trkpt><trkpt lat="43.98312254464927" lon="5.535424195798666"><ele>811.0</ele><time>2026-04-26T16:23:32.999Z</time></trkpt><trkpt lat="43.983177359169645" lon="5.535297856061609"><ele>811.0</ele><time>2026-04-26T16:23:34.999Z</time></trkpt><trkpt lat="43.98323469200675" lon="5.535141797498332"><ele>813.25</ele><time>2026-04-26T16:23:36.999Z</time></trkpt><trkpt lat="43.98324957926361" lon="5.534994535283242"><ele>815.5</ele><time>2026-04-26T16:23:38.999Z</time></trkpt><trkpt lat="43.9832336701537" lon="5.534891588680006"><ele>817.75</ele><time>2026-04-26T16:23:40.999Z</time></trkpt><trkpt lat="43.98331130091215" lon="5.534834423243743"><ele>820.0</ele><time>2026-04-26T16:23:42.999Z</time></trkpt><trkpt lat="43.98347938297042" lon="5.53494956584511"><ele>820.8</ele><time>2026-04-26T16:23:46.999Z</time></trkpt><trkpt lat="43.98357968095943" lon="5.535015340137759"><ele>821.6</ele><time>2026-04-26T16:23:47.999Z</time></trkpt><trkpt lat="43.98366036467508" lon="5.53498790196767"><ele>822.4000000000001</ele><time>2026-04-26T16:23:49.999Z</time></trkpt><trkpt lat="43.98372512475579" lon="5.534832702805731"><ele>823.2</ele><time>2026-04-26T16:23:51.999Z</time></trkpt><trkpt lat="43.983751644768574" lon="5.534682338326427"><ele>824.0</ele><time>2026-04-26T16:23:52.999Z</time></trkpt><trkpt lat="43.98376095192073" lon="5.534456205383059"><ele>825.2</ele><time>2026-04-26T16:23:53.999Z</time></trkpt><trkpt lat="43.983809145959036" lon="5.534331245151176"><ele>826.4000000000001</ele><time>2026-04-26T16:23:54.999Z</time></trkpt><trkpt lat="43.98380887017319" lon="5.5342415346252265"><ele>827.6</ele><time>2026-04-26T16:23:55.999Z</time></trkpt><trkpt lat="43.98382736289266" lon="5.534064528715648"><ele>828.8</ele><time>2026-04-26T16:23:57.999Z</time></trkpt><trkpt lat="43.983853952215284" lon="5.5339169278469384"><ele>830.0</ele><time>2026-04-26T16:23:58.999Z</time></trkpt><trkpt lat="43.983885018808856" lon="5.533737535953022"><ele>831.0000000000001</ele><time>2026-04-26T16:23:59.999Z</time></trkpt><trkpt lat="43.98389360340535" lon="5.533610704452213"><ele>832.0</ele><time>2026-04-26T16:24:00.999Z</time></trkpt><trkpt lat="43.98388113782105" lon="5.53347190389404"><ele>833.0</ele><time>2026-04-26T16:24:02.999Z</time></trkpt><trkpt lat="43.983812106726745" lon="5.53338032431786"><ele>834.0</ele><time>2026-04-26T16:24:04.999Z</time></trkpt><trkpt lat="43.98373677517055" lon="5.533325866390548"><ele>835.0000000000001</ele><time>2026-04-26T16:24:06.999Z</time></trkpt><trkpt lat="43.983714832715826" lon="5.533225401034755"><ele>836.0</ele><time>2026-04-26T16:24:09.999Z</time></trkpt><trkpt lat="43.9837558666432" lon="5.533136887954348"><ele>836.0</ele><time>2026-04-26T16:24:12.999Z</time></trkpt><trkpt lat="43.98385071586439" lon="5.533196383220203"><ele>836.0</ele><time>2026-04-26T16:24:14.999Z</time></trkpt><trkpt lat="43.983932448462404" lon="5.533250317821839"><ele>836.0</ele><time>2026-04-26T16:24:16.999Z</time></trkpt><trkpt lat="43.98398008799072" lon="5.533184139363237"><ele>836.0</ele><time>2026-04-26T16:24:18.999Z</time></trkpt><trkpt lat="43.98397673634346" lon="5.533072549845873"><ele>836.0</ele><time>2026-04-26T16:24:20.999Z</time></trkpt><trkpt lat="43.983971051984426" lon="5.532918959178979"><ele>837.4</ele><time>2026-04-26T16:24:23Z</time></trkpt><trkpt lat="43.98397686751313" lon="5.5327629512474985"><ele>838.8</ele><time>2026-04-26T16:24:25Z</time></trkpt><trkpt lat="43.98397342425867" lon="5.532607083492028"><ele>840.1999999999999</ele><time>2026-04-26T16:24:27Z</time></trkpt><trkpt lat="43.98397601439523" lon="5.532438130159442"><ele>841.5999999999999</ele><time>2026-04-26T16:24:29Z</time></trkpt><trkpt lat="43.9839716664235" lon="5.532341212960858"><ele>843.0</ele><time>2026-04-26T16:24:30Z</time></trkpt><trkpt lat="43.98397220417726" lon="5.5322308277659875"><ele>843.0</ele><time>2026-04-26T16:24:31Z</time></trkpt><trkpt lat="43.983975191413606" lon="5.5321124243605855"><ele>843.0</ele><time>2026-04-26T16:24:32Z</time></trkpt><trkpt lat="43.98397125722228" lon="5.531976025520563"><ele>843.0</ele><time>2026-04-26T16:24:33Z</time></trkpt><trkpt lat="43.9839665162291" lon="5.531830596709792"><ele>843.0</ele><time>2026-04-26T16:24:34Z</time></trkpt><trkpt lat="43.98396670196401" lon="5.531687475872337"><ele>843.0</ele><time>2026-04-26T16:24:35Z</time></trkpt><trkpt lat="43.983965501062634" lon="5.531593805758283"><ele>843.4</ele><time>2026-04-26T16:24:36Z</time></trkpt><trkpt lat="43.98397394141611" lon="5.5314613393315994"><ele>843.8</ele><time>2026-04-26T16:24:38Z</time></trkpt><trkpt lat="43.9840598901165" lon="5.531424131604865"><ele>844.2</ele><time>2026-04-26T16:24:41Z</time></trkpt><trkpt lat="43.98412158084557" lon="5.5313996043064675"><ele>844.6</ele><time>2026-04-26T16:24:42Z</time></trkpt><trkpt lat="43.98421290188666" lon="5.531394628575971"><ele>845.0</ele><time>2026-04-26T16:24:43Z</time></trkpt><trkpt lat="43.98432224640846" lon="5.531381783670083"><ele>845.0000000000001</ele><time>2026-04-26T16:24:44Z</time></trkpt><trkpt lat="43.98440682914033" lon="5.531373155587228"><ele>845.0</ele><time>2026-04-26T16:24:45Z</time></trkpt><trkpt lat="43.984490095767704" lon="5.53137336181069"><ele>845.0</ele><time>2026-04-26T16:24:46Z</time></trkpt><trkpt lat="43.98456904279847" lon="5.531373408398833"><ele>845.0</ele><time>2026-04-26T16:24:47Z</time></trkpt><trkpt lat="43.984638359302984" lon="5.531361395998048"><ele>845.0000000000001</ele><time>2026-04-26T16:24:48Z</time></trkpt><trkpt lat="43.984722720306685" lon="5.53135940455012"><ele>845.0</ele><time>2026-04-26T16:24:50Z</time></trkpt><trkpt lat="43.984773123685244" lon="5.531415050248467"><ele>845.0000000000001</ele><time>2026-04-26T16:24:52Z</time></trkpt><trkpt lat="43.98482046784159" lon="5.531496729474676"><ele>845.0</ele><time>2026-04-26T16:24:53Z</time></trkpt><trkpt lat="43.98489197112959" lon="5.531588183966096"><ele>845.0</ele><time>2026-04-26T16:24:54Z</time></trkpt><trkpt lat="43.98496159752578" lon="5.531672624159771"><ele>845.0</ele><time>2026-04-26T16:24:55Z</time></trkpt><trkpt lat="43.98501508591927" lon="5.531745260531847"><ele>845.0000000000001</ele><time>2026-04-26T16:24:56Z</time></trkpt><trkpt lat="43.985054970331845" lon="5.531823293774817"><ele>845.0</ele><time>2026-04-26T16:24:57Z</time></trkpt><trkpt lat="43.9851017226414" lon="5.531886467038953"><ele>844.1666666666667</ele><time>2026-04-26T16:24:58Z</time></trkpt><trkpt lat="43.985147348287015" lon="5.531967375833321"><ele>843.3333333333334</ele><time>2026-04-26T16:24:59Z</time></trkpt><trkpt lat="43.98518584845276" lon="5.532058330034557"><ele>842.5</ele><time>2026-04-26T16:25:00Z</time></trkpt><trkpt lat="43.98523289979159" lon="5.5321713816631695"><ele>841.6666666666667</ele><time>2026-04-26T16:25:01Z</time></trkpt><trkpt lat="43.98528058621371" lon="5.532289280209384"><ele>840.8333333333334</ele><time>2026-04-26T16:25:02Z</time></trkpt><trkpt lat="43.985332701998225" lon="5.532407210214015"><ele>840.0</ele><time>2026-04-26T16:25:03Z</time></trkpt><trkpt lat="43.98541269797397" lon="5.532511907153461"><ele>839.6</ele><time>2026-04-26T16:25:04Z</time></trkpt><trkpt lat="43.98549768060297" lon="5.532622001957687"><ele>839.2</ele><time>2026-04-26T16:25:05Z</time></trkpt><trkpt lat="43.9855711736702" lon="5.532724039828285"><ele>838.8</ele><time>2026-04-26T16:25:06Z</time></trkpt><trkpt lat="43.98563056682479" lon="5.532802327431347"><ele>838.4</ele><time>2026-04-26T16:25:07Z</time></trkpt><trkpt lat="43.98566492995671" lon="5.532879132298869"><ele>838.0</ele><time>2026-04-26T16:25:08Z</time></trkpt><trkpt lat="43.98569916338072" lon="5.533009509838431"><ele>837.4</ele><time>2026-04-26T16:25:10Z</time></trkpt><trkpt lat="43.98572855417911" lon="5.533093027743989"><ele>836.8</ele><time>2026-04-26T16:25:12.999Z</time></trkpt><trkpt lat="43.98583532603015" lon="5.533062967395556"><ele>836.2</ele><time>2026-04-26T16:25:15.999Z</time></trkpt><trkpt lat="43.98594466355205" lon="5.533030306386268"><ele>835.6</ele><time>2026-04-26T16:25:17.999Z</time></trkpt><trkpt lat="43.98604717488037" lon="5.533011567318827"><ele>835.0</ele><time>2026-04-26T16:25:19.999Z</time></trkpt><trkpt lat="43.98611331010499" lon="5.532934537304386"><ele>834.9999999999999</ele><time>2026-04-26T16:25:21.999Z</time></trkpt><trkpt lat="43.986175531505346" lon="5.532849461531871"><ele>835.0</ele><time>2026-04-26T16:25:23.999Z</time></trkpt><trkpt lat="43.986249479808144" lon="5.532821448050752"><ele>835.0</ele><time>2026-04-26T16:25:25.999Z</time></trkpt><trkpt lat="43.98625956980332" lon="5.532695676692217"><ele>835.0</ele><time>2026-04-26T16:25:44.999Z</time></trkpt><trkpt lat="43.9862027396491" lon="5.532806884359376"><ele>834.9999999999999</ele><time>2026-04-26T16:25:46.999Z</time></trkpt><trkpt lat="43.98628413600685" lon="5.532844548204262"><ele>835.0</ele><time>2026-04-26T16:25:49.999Z</time></trkpt><trkpt lat="43.98633723762939" lon="5.532902967146443"><ele>834.0</ele><time>2026-04-26T16:25:52.999Z</time></trkpt></trkseg></trk></gpx>